# Wetter Temperatur Luftdruck Luftfeuchtigkeit Sichtweite Windgeschwindigkeit Windrichtung Zeit
1 Clear 7 1011 65 10000 1 220 20:55 02.04.2020
2 Clear 7 1010 57 10000 1.5 190 20:37 02.04.2020
3 Clear 8 1010 53 10000 1 190 20:19 02.04.2020
4 Clear 9 1010 56 10000 1.5 140 19:43 02.04.2020
5 Clear 11 1010 50 10000 1.5 90 19:21 02.04.2020
6 Clear 11 1010 50 10000 1.5 90 18:58 02.04.2020
7 Clear 12 1010 50 10000 1.5 90 18:39 02.04.2020
8 Clear 12 1010 43 10000 1 0 18:20 02.04.2020
9 Clear 12 1010 43 10000 1.5 10 17:55 02.04.2020
10 Clear 12 1010 43 10000 1.5 10 17:37 02.04.2020
11 Clear 12 1010 43 10000 2.1 340 17:18 02.04.2020
12 Clear 12 1010 40 10000 2.6 300 16:55 02.04.2020
13 Clear 12 1010 40 10000 2.6 300 16:36 02.04.2020
14 Clear 12 1011 40 10000 2.6 300 16:18 02.04.2020
15 Clear 12 1011 37 10000 1.5 0 15:42 02.04.2020
16 Clear 11 1011 37 10000 1.5 0 15:20 02.04.2020
17 Clear 12 1011 37 10000 1.5 0 14:58 02.04.2020
18 Clear 11 1012 43 10000 2.1 290 14:39 02.04.2020
19 Clear 11 1012 42 10000 2.6 300 14:19 02.04.2020
20 Clear 11 1012 45 10000 2.6 300 13:55 02.04.2020
21 Clear 11 1012 45 10000 2.6 300 13:37 02.04.2020
22 Clear 11 1012 45 10000 2.6 300 13:37 02.04.2020
23 Clear 10 1013 52 10000 2.6 280 13:19 02.04.2020
24 Clear 10 1013 65 10000 3.6 280 12:46 02.04.2020
25 Clear 9 1013 75 10000 2.1 280 12:20 02.04.2020
26 Clear 9 1013 75 10000 2.1 280 12:20 02.04.2020
27 Clear 9 1013 75 10000 2.1 280 11:58 02.04.2020
28 Clear 8 1013 75 10000 2.1 280 11:39 02.04.2020
29 Clear 8 1013 75 10000 2.1 280 11:39 02.04.2020
30 Clear 7 1014 80 10000 2.1 310 11:20 02.04.2020
31 Clear 7 1014 80 10000 2.1 310 10:57 02.04.2020
32 Clear 6 1014 80 10000 2.1 300 10:39 02.04.2020
33 Clear 5 1014 80 10000 1.5 270 10:21 02.04.2020
34 Clear 4 1014 80 10000 1.5 270 09:59 02.04.2020
35 Clear 3 1014 80 10000 0.5 0 09:41 02.04.2020
36 Clear 1 1014 86 10000 0.5 130 09:21 02.04.2020
37 Clear 0 1014 61 10000 2.1 80 08:48 02.04.2020
38 Clear -1 1014 61 10000 2.1 80 08:28 02.04.2020
39 Clear -2 1014 86 10000 1 200 07:59 02.04.2020
40 Clear -2 1014 92 10000 1 200 07:40 02.04.2020
41 Clear -3 1014 86 10000 0.5 0 07:19 02.04.2020
42 Clear -2 1014 92 10000 0.5 0 06:25 02.04.2020
43 Clear -2 1014 68 10000 1 110 05:46 02.04.2020
44 Clear -2 1014 92 10000 1 0 04:58 02.04.2020
45 Clear -1 1015 68 10000 1 0 02:21 02.04.2020
46 Clear -1 1015 68 10000 1 0 01:27 02.04.2020
47 Clear -1 1015 68 10000 1.5 270 00:41 02.04.2020
48 Clear 0 1015 68 10000 1 220 00:19 02.04.2020
49 Clear -1 1015 74 10000 0.5 0 23:39 01.04.2020
50 Clear 0 1015 74 10000 1 0 23:19 01.04.2020
51 Clear 1 1015 74 10000 1 0 22:56 01.04.2020
52 Clear 2 1015 69 10000 1 0 22:38 01.04.2020
53 Clear 1 1015 69 10000 1.5 120 22:19 01.04.2020
54 Clear 2 1015 74 10000 1 210 21:41 01.04.2020
55 Clear 3 1015 69 10000 0.5 0 21:19 01.04.2020
56 Clear 4 1015 69 10000 0.5 0 20:56 01.04.2020
57 Clear 4 1015 69 10000 1.5 210 20:38 01.04.2020
58 Clear 5 1015 56 10000 1 280 20:19 01.04.2020
59 Clear 6 1015 56 10000 1 280 19:57 01.04.2020
60 Clear 6 1015 56 10000 1 280 19:57 01.04.2020
61 Clear 7 1015 56 10000 1.5 290 19:38 01.04.2020
62 Clear 8 1015 39 10000 2.1 330 19:19 01.04.2020
63 Clear 9 1015 39 10000 2.6 270 18:42 01.04.2020
64 Clear 10 1015 36 10000 2.6 280 18:22 01.04.2020
65 Clear 10 1016 39 10000 2.6 280 17:57 01.04.2020
66 Clear 9 1016 39 10000 2.6 280 17:37 01.04.2020
67 Clear 9 1016 31 10000 3.1 280 17:19 01.04.2020
68 Clear 9 1016 31 10000 3.1 280 16:56 01.04.2020
69 Clear 9 1016 31 10000 3.6 280 16:38 01.04.2020
70 Clear 9 1017 31 10000 3.1 280 16:20 01.04.2020
71 Clear 9 1018 42 10000 2.6 280 15:43 01.04.2020
72 Clear 9 1018 42 10000 2.6 280 15:24 01.04.2020
73 Clear 9 1018 42 10000 2.6 280 14:59 01.04.2020
74 Clear 8 1018 45 10000 3.1 290 14:40 01.04.2020
75 Clear 8 1018 45 10000 3.1 290 14:40 01.04.2020
76 Clear 7 1018 45 10000 3.1 290 14:21 01.04.2020
77 Clear 7 1018 45 10000 3.1 290 13:59 01.04.2020
78 Clear 7 1019 56 10000 3.6 280 13:39 01.04.2020
79 Clear 7 1019 60 10000 3.1 280 13:20 01.04.2020
80 Clear 7 1019 60 10000 3.1 280 12:57 01.04.2020
81 Clear 6 1020 60 10000 3.1 310 12:37 01.04.2020
82 Clear 5 1020 64 10000 3.1 320 12:19 01.04.2020
83 Clear 5 1020 64 10000 3.1 320 11:56 01.04.2020
84 Clear 4 1020 64 10000 3.1 320 11:37 01.04.2020
85 Clear 4 1020 64 10000 3.1 320 11:37 01.04.2020
86 Clear 4 1020 64 10000 3.1 320 11:37 01.04.2020
87 Clear 3 1020 69 10000 3.6 280 11:18 01.04.2020
88 Clear 2 1020 69 10000 3.6 280 10:38 01.04.2020
89 Clear 1 1020 74 10000 3.1 280 10:20 01.04.2020
90 Clear 1 1020 74 10000 3.1 280 09:58 01.04.2020
91 Clear 0 1020 74 10000 2.6 270 09:39 01.04.2020
92 Clear -3 1020 69 10000 2.6 260 09:19 01.04.2020
93 Clear -3 1020 86 10000 0.5 0 08:44 01.04.2020
94 Clear -4 1020 86 10000 0.5 0 08:19 01.04.2020
95 Clear -4 1020 86 10000 0.5 0 07:56 01.04.2020
96 Clear -5 1020 85 10000 0.5 0 07:38 01.04.2020
97 Clear -5 1020 85 10000 1.5 100 07:18 01.04.2020
98 Clear -4 1020 68 10000 0.5 0 06:39 01.04.2020
99 Clear -4 1021 92 10000 0.5 0 06:20 01.04.2020
100 Clear -4 1021 92 10000 1 0 04:55 01.04.2020
101 Clear -3 1021 86 10000 1 0 03:36 01.04.2020
102 Clouds -3 1021 79 10000 1.5 0 02:59 01.04.2020
103 Clear -2 1022 86 10000 1 90 02:24 01.04.2020
104 Clear -2 1022 82 10000 1 0 01:46 01.04.2020
105 Clear -2 1023 82 10000 1.5 190 01:23 01.04.2020
106 Clear -2 1023 80 10000 1.5 200 00:47 01.04.2020
107 Clear -1 1023 74 10000 1.5 210 00:21 01.04.2020
108 Clouds -1 1023 84 10000 0.5 0 23:49 31.03.2020
109 Clouds -1 1023 84 10000 0.5 0 23:49 31.03.2020
110 Clouds -1 1023 84 10000 0.5 0 23:29 31.03.2020
111 Clouds 0 1024 64 10000 1.5 220 22:59 31.03.2020
112 Clouds -1 1024 64 10000 1.5 220 22:38 31.03.2020
113 Clouds -1 1024 64 10000 0.5 0 22:20 31.03.2020
114 Clouds -1 1024 51 10000 1.5 0 21:57 31.03.2020
115 Clouds 0 1024 51 10000 1.5 0 21:39 31.03.2020
116 Clear 1 1024 51 10000 2.6 40 21:20 31.03.2020
117 Clouds 1 1024 51 10000 2.6 40 20:56 31.03.2020
118 Clouds 2 1024 48 10000 3.1 30 20:37 31.03.2020
119 Clouds 2 1024 48 10000 3.1 30 20:18 31.03.2020
120 Clouds 2 1024 48 10000 3.1 30 20:18 31.03.2020
121 Clouds 3 1024 45 10000 4.1 20 19:54 31.03.2020
122 Clouds 3 1023 38 10000 3.1 20 19:36 31.03.2020
123 Clouds 3 1023 38 10000 3.1 20 19:18 31.03.2020
124 Clouds 3 1023 44 10000 2.6 50 18:41 31.03.2020
125 Clear 4 1023 33 10000 4.1 10 18:19 31.03.2020
126 Clear 4 1023 30 10000 4.1 30 17:56 31.03.2020
127 Clear 5 1023 30 10000 4.1 30 17:37 31.03.2020
128 Clear 5 1023 36 10000 4.1 20 17:19 31.03.2020
129 Clear 4 1023 39 10000 4.6 10 16:41 31.03.2020
130 Clear 5 1023 28 10000 4.6 10 16:20 31.03.2020
131 Clear 5 1023 28 10000 4.6 10 15:58 31.03.2020
132 Clear 4 1023 30 10000 4.6 20 15:40 31.03.2020
133 Clear 5 1023 30 10000 4.6 10 15:22 31.03.2020
134 Clear 4 1023 30 10000 4.6 10 14:58 31.03.2020
135 Clear 5 1023 39 10000 3.6 340 14:40 31.03.2020
136 Clear 5 1023 52 10000 2.6 300 14:21 31.03.2020
137 Clear 5 1024 48 10000 3.1 280 13:43 31.03.2020
138 Clear 4 1024 48 10000 2.6 310 13:20 31.03.2020
139 Clear 5 1024 44 10000 2.6 20 12:59 31.03.2020
140 Clear 4 1024 44 10000 2.6 20 12:40 31.03.2020
141 Clear 3 1024 48 10000 1 0 12:19 31.03.2020
142 Clear 3 1024 48 10000 1 0 12:19 31.03.2020
143 Clear 3 1024 59 10000 2.6 280 11:41 31.03.2020
144 Clear 2 1024 64 10000 1.5 0 11:20 31.03.2020
145 Clear 1 1025 64 10000 1 0 10:59 31.03.2020
146 Clear 1 1025 64 10000 1 0 10:41 31.03.2020
147 Clear 0 1025 69 10000 1 0 10:22 31.03.2020
148 Clear 0 1025 69 10000 1 0 09:59 31.03.2020
149 Clear -1 1025 51 10000 1.5 0 09:41 31.03.2020
150 Clear -2 1024 80 10000 1.5 100 09:22 31.03.2020
151 Clear -3 1024 80 10000 1.5 100 08:57 31.03.2020
152 Clear -4 1024 79 10000 1.5 100 08:38 31.03.2020
153 Clear -4 1023 79 10000 2.1 140 08:19 31.03.2020
154 Clear -4 1023 79 10000 2.1 140 08:19 31.03.2020
155 Clear -4 1023 79 10000 1.5 0 07:56 31.03.2020
156 Clear -5 1023 79 10000 1.5 0 07:38 31.03.2020
157 Clear -5 1023 92 10000 2.1 110 07:19 31.03.2020
158 Clear -6 1023 85 10000 1.5 0 06:46 31.03.2020
159 Clear -5 1023 86 10000 1.5 0 06:20 31.03.2020
160 Clear -5 1023 79 10000 1 0 05:39 31.03.2020
161 Clear -5 1023 92 10000 1.5 220 03:34 31.03.2020
162 Clouds -4 1023 79 10000 0.5 0 01:59 31.03.2020
163 Clouds -4 1023 79 10000 1.5 220 01:40 31.03.2020
164 Clouds -3 1023 79 10000 0.5 0 00:47 31.03.2020
165 Clouds -3 1023 74 10000 1 0 00:25 31.03.2020
166 Clouds -2 1023 86 10000 1 0 23:42 30.03.2020
167 Clouds -2 1023 68 10000 2.1 160 23:20 30.03.2020
168 Clouds -2 1023 68 10000 2.1 160 22:59 30.03.2020
169 Clouds -2 1023 68 10000 1 0 22:41 30.03.2020
170 Clouds -2 1023 74 10000 1.5 0 22:22 30.03.2020
171 Clouds -1 1023 74 10000 1.5 0 21:58 30.03.2020
172 Clouds -1 1023 74 10000 1.5 0 21:39 30.03.2020
173 Snow -1 1023 76 10000 0.5 0 21:21 30.03.2020
174 Snow -1 1023 76 10000 0.5 0 20:59 30.03.2020
175 Snow 0 1023 59 10000 3.1 80 20:39 30.03.2020
176 Snow 0 1023 55 10000 4.1 70 20:21 30.03.2020
177 Snow 0 1023 55 10000 4.1 70 19:58 30.03.2020
178 Clouds 1 1023 55 10000 4.1 70 19:39 30.03.2020
179 Clouds 1 1022 55 10000 5.7 70 19:21 30.03.2020
180 Clouds 1 1022 59 10000 5.1 50 18:56 30.03.2020
181 Clouds 1 1022 59 10000 5.1 50 18:36 30.03.2020
182 Clouds 1 1022 64 10000 5.1 30 18:18 30.03.2020
183 Clouds 2 1022 60 10000 6.2 30 17:55 30.03.2020
184 Clouds 2 1022 60 10000 6.2 30 17:36 30.03.2020
185 Clouds 1 1022 60 10000 5.1 30 17:18 30.03.2020
186 Clouds 2 1022 64 10000 4.1 10 16:41 30.03.2020
187 Clouds 1 1022 64 10000 4.1 10 16:21 30.03.2020
188 Clouds 1 1022 64 10000 4.1 10 16:21 30.03.2020
189 Clouds 2 1022 64 10000 4.1 40 15:56 30.03.2020
190 Snow 1 1022 64 10000 4.1 40 15:38 30.03.2020
191 Snow 1 1022 64 10000 4.1 40 15:20 30.03.2020
192 Snow 1 1022 64 10000 4.1 40 14:58 30.03.2020
193 Clouds 1 1022 64 10000 4.1 40 14:37 30.03.2020
194 Clouds 1 1022 69 10000 5.7 40 14:19 30.03.2020
195 Clouds 1 1022 69 10000 5.1 30 13:57 30.03.2020
196 Clouds 0 1022 69 10000 5.1 30 13:38 30.03.2020
197 Clouds 1 1022 69 10000 6.2 40 13:19 30.03.2020
198 Clouds 0 1022 74 10000 6.7 30 12:45 30.03.2020
199 Snow 0 1022 74 10000 5.7 30 12:21 30.03.2020
200 Snow 0 1022 74 10000 5.7 30 12:21 30.03.2020
201 Snow 0 1022 69 10000 5.7 30 11:58 30.03.2020
202 Snow 0 1022 69 10000 5.7 30 11:40 30.03.2020
203 Clouds 0 1022 74 10000 6.7 40 11:21 30.03.2020
204 Clouds -1 1022 74 10000 6.2 30 10:55 30.03.2020
205 Clouds -1 1022 74 10000 6.2 30 10:36 30.03.2020
206 Clouds -1 1022 74 10000 6.2 30 10:18 30.03.2020
207 Clouds -1 1022 74 10000 6.2 30 09:40 30.03.2020
208 Clouds -1 1022 74 10000 5.7 40 09:19 30.03.2020
209 Clouds -1 1021 74 10000 5.1 30 08:48 30.03.2020
210 Clouds -1 1021 74 10000 5.1 30 08:28 30.03.2020
211 Clouds -1 1021 74 10000 5.7 30 07:58 30.03.2020
212 Clouds -1 1021 74 10000 5.7 30 07:39 30.03.2020
213 Clouds -1 1021 80 10000 5.1 30 07:20 30.03.2020
214 Clouds -1 1021 80 10000 5.1 30 06:39 30.03.2020
215 Clouds 0 1021 80 10000 6.2 30 06:19 30.03.2020
216 Clouds 0 1021 80 10000 5.7 30 05:39 30.03.2020
217 Clouds 0 1021 69 10000 5.7 20 04:28 30.03.2020
218 Clouds 1 1021 86 10000 4.6 30 03:52 30.03.2020
219 Drizzle 1 1021 86 10000 4.1 20 02:44 30.03.2020
220 Clouds 1 1021 86 10000 3.6 20 01:54 30.03.2020
221 Drizzle 1 1021 86 10000 3.6 10 00:56 30.03.2020
222 Drizzle 1 1021 93 10000 3.6 20 00:25 30.03.2020
223 Drizzle 1 1021 93 10000 3.6 20 00:25 30.03.2020
224 Rain 1 1021 93 10000 3.1 270 23:55 29.03.2020
225 Rain 1 1021 93 10000 3.1 270 23:36 29.03.2020
226 Rain 1 1021 93 10000 2.6 250 23:18 29.03.2020
227 Rain 1 1021 93 4600 4.1 290 22:39 29.03.2020
228 Rain 1 1021 93 4600 4.1 290 22:39 29.03.2020
229 Clouds 1 1021 93 7000 3.6 270 22:20 29.03.2020
230 Rain 2 1020 93 7000 2.6 290 21:59 29.03.2020
231 Rain 2 1020 93 7000 2.6 290 21:37 29.03.2020
232 Rain 1 1020 93 9000 2.6 290 21:19 29.03.2020
233 Rain 2 1020 93 10000 3.6 300 20:55 29.03.2020
234 Rain 2 1020 93 10000 3.6 300 20:37 29.03.2020
235 Rain 2 1019 93 10000 4.1 290 20:18 29.03.2020
236 Rain 1 1019 93 10000 4.6 290 19:55 29.03.2020
237 Rain 2 1019 93 10000 4.6 290 19:37 29.03.2020
238 Rain 2 1019 93 10000 3.6 310 19:18 29.03.2020
239 Rain 2 1019 86 10000 3.1 310 18:55 29.03.2020
240 Rain 2 1019 86 10000 3.1 310 18:36 29.03.2020
241 Rain 2 1019 93 10000 3.6 310 18:18 29.03.2020
242 Rain 3 1018 93 9000 3.1 340 17:42 29.03.2020
243 Rain 3 1018 93 8000 3.1 340 17:23 29.03.2020
244 Rain 3 1018 86 6000 3.1 340 16:59 29.03.2020
245 Rain 3 1018 86 6000 3.1 340 16:40 29.03.2020
246 Rain 4 1018 86 5000 3.1 320 16:21 29.03.2020
247 Rain 4 1018 86 8000 4.1 330 15:58 29.03.2020
248 Rain 4 1018 86 8000 4.1 330 15:40 29.03.2020
249 Rain 4 1018 86 8000 5.1 330 15:20 29.03.2020
250 Rain 4 1018 86 8000 5.1 330 14:56 29.03.2020
251 Drizzle 4 1017 81 10000 5.1 320 14:37 29.03.2020
252 Rain 5 1017 81 10000 5.7 330 14:19 29.03.2020
253 Clouds 5 1017 70 10000 5.1 330 13:55 29.03.2020
254 Clouds 5 1017 70 10000 5.1 330 13:37 29.03.2020
255 Clouds 5 1017 65 10000 5.7 310 13:18 29.03.2020
256 Clouds 5 1017 70 10000 4.1 270 12:54 29.03.2020
257 Clouds 5 1017 70 10000 4.1 270 12:54 29.03.2020
258 Clouds 6 1017 70 10000 4.1 270 12:36 29.03.2020
259 Clouds 6 1017 65 10000 3.6 310 12:18 29.03.2020
260 Clouds 6 1017 65 10000 4.1 300 11:38 29.03.2020
261 Clouds 5 1017 70 10000 5.1 310 11:20 29.03.2020
262 Rain 5 1017 70 10000 4.6 280 10:40 29.03.2020
263 Clouds 5 1017 75 10000 4.1 290 10:21 29.03.2020
264 Clouds 5 1017 75 10000 4.1 290 09:59 29.03.2020
265 Clouds 5 1017 81 10000 2.6 280 09:38 29.03.2020
266 Clouds 4 1017 81 10000 4.1 270 09:19 29.03.2020
267 Clouds 4 1016 75 10000 3.1 280 08:45 29.03.2020
268 Clouds 4 1016 75 10000 3.1 260 08:27 29.03.2020
269 Clouds 3 1016 80 10000 3.6 270 07:48 29.03.2020
270 Clouds 3 1016 100 10000 1 0 07:24 29.03.2020
271 Clouds 3 1016 93 7000 0.5 0 06:55 29.03.2020
272 Clouds 2 1016 93 9000 0.5 0 04:57 29.03.2020
273 Clouds 2 1016 59 10000 1.5 260 03:41 29.03.2020
274 Clouds 3 1016 59 10000 1.5 0 03:22 29.03.2020
275 Clouds 3 1017 93 9000 1 0 01:44 29.03.2020
276 Clouds 4 1017 93 9000 1 0 01:23 29.03.2020
277 Clouds 3 1016 86 10000 1 0 00:48 29.03.2020
278 Clouds 4 1016 86 8000 2.6 100 00:28 29.03.2020
279 Clouds 4 1017 86 10000 0.5 0 23:41 28.03.2020
280 Clouds 4 1017 86 10000 2.1 130 23:23 28.03.2020
281 Clouds 4 1017 86 10000 2.1 130 23:23 28.03.2020
282 Clouds 5 1016 86 9000 1 0 22:54 28.03.2020
283 Clouds 5 1016 86 9000 1 0 22:36 28.03.2020
284 Clouds 5 1017 87 10000 1 0 22:18 28.03.2020
285 Clouds 5 1016 87 10000 1 0 21:40 28.03.2020
286 Clouds 5 1016 87 10000 1 0 21:40 28.03.2020
287 Clouds 6 1016 81 10000 1 180 21:21 28.03.2020
288 Clouds 6 1016 81 10000 1 180 20:58 28.03.2020
289 Clouds 7 1016 81 10000 1 0 20:38 28.03.2020
290 Rain 7 1016 87 10000 1 0 20:20 28.03.2020
291 Rain 7 1015 75 10000 0.5 130 19:56 28.03.2020
292 Rain 8 1015 75 10000 0.5 130 19:36 28.03.2020
293 Rain 9 1015 66 10000 0.5 170 19:18 28.03.2020
294 Rain 9 1015 66 10000 0.5 0 18:42 28.03.2020
295 Rain 11 1015 71 10000 1.5 350 18:22 28.03.2020
296 Rain 12 1015 47 10000 2.1 280 17:56 28.03.2020
297 Rain 14 1015 47 10000 2.1 280 17:36 28.03.2020
298 Rain 14 1015 47 10000 2.6 280 17:18 28.03.2020
299 Rain 13 1015 41 10000 2.6 260 16:42 28.03.2020
300 Rain 14 1015 44 10000 2.1 260 16:20 28.03.2020
301 Rain 14 1015 50 10000 2.6 270 15:55 28.03.2020
302 Rain 13 1015 50 10000 2.6 270 15:37 28.03.2020
303 Rain 13 1015 56 10000 2.1 290 15:18 28.03.2020
304 Rain 13 1016 54 10000 2.6 280 14:42 28.03.2020
305 Rain 13 1016 58 10000 2.1 280 14:22 28.03.2020
306 Clouds 13 1016 61 10000 3.1 300 13:46 28.03.2020
307 Rain 12 1016 61 10000 3.1 300 13:26 28.03.2020
308 Rain 12 1017 66 10000 2.1 290 12:57 28.03.2020
309 Rain 12 1017 66 10000 2.1 290 12:37 28.03.2020
310 Rain 11 1017 61 10000 2.1 0 12:18 28.03.2020
311 Rain 10 1017 66 10000 2.1 10 11:42 28.03.2020
312 Clouds 10 1017 66 10000 2.1 10 11:21 28.03.2020
313 Clouds 9 1017 70 10000 1 0 10:41 28.03.2020
314 Clouds 9 1017 75 10000 1 0 10:22 28.03.2020
315 Clouds 9 1017 75 10000 1 0 09:59 28.03.2020
316 Clouds 8 1017 81 10000 1 0 09:39 28.03.2020
317 Clouds 7 1017 81 10000 1 0 09:20 28.03.2020
318 Clouds 6 1017 86 10000 2.1 90 08:42 28.03.2020
319 Clouds 3 1017 86 8000 0.5 0 08:23 28.03.2020
320 Clouds 2 1017 61 8000 0.5 0 07:49 28.03.2020
321 Clouds 1 1017 61 6000 1 220 07:31 28.03.2020
322 Clouds 1 1016 61 5000 0.5 0 06:41 28.03.2020
323 Clouds 1 1016 61 6000 2.1 110 06:18 28.03.2020
324 Clouds 1 1016 61 5000 1 0 05:23 28.03.2020
325 Clouds 1 1016 60 5000 0.5 170 04:43 28.03.2020
326 Clouds 2 1016 60 5000 1 60 04:20 28.03.2020
327 Clouds 2 1015 60 9000 0.5 0 02:33 28.03.2020
328 Clouds 3 1015 60 9000 0.5 220 01:45 28.03.2020
329 Clouds 3 1015 60 9000 1 0 01:20 28.03.2020
330 Clouds 3 1015 93 10000 1 160 00:47 28.03.2020
331 Clouds 3 1015 86 10000 1 200 00:20 28.03.2020
332 Clouds 3 1015 60 10000 2.1 210 23:43 27.03.2020
333 Clouds 4 1015 86 10000 1.5 210 23:23 27.03.2020
334 Clouds 4 1015 86 10000 1 230 22:56 27.03.2020
335 Clouds 4 1015 86 10000 1 230 22:38 27.03.2020
336 Clouds 5 1015 93 10000 1 220 22:20 27.03.2020
337 Clouds 4 1015 93 10000 1 220 21:55 27.03.2020
338 Clouds 5 1015 86 10000 0.5 0 21:37 27.03.2020
339 Clouds 5 1015 86 10000 0.5 0 21:19 27.03.2020
340 Clouds 5 1015 75 10000 1.5 110 20:42 27.03.2020
341 Clouds 6 1015 80 10000 0.5 0 20:21 27.03.2020
342 Clouds 6 1015 80 10000 0.5 0 19:59 27.03.2020
343 Clouds 7 1014 75 10000 0.5 0 19:40 27.03.2020
344 Clouds 8 1014 70 10000 1.5 100 19:21 27.03.2020
345 Clouds 8 1014 70 10000 1.5 100 18:56 27.03.2020
346 Clouds 7 1014 70 10000 1.5 70 18:38 27.03.2020
347 Clouds 10 1014 61 10000 1.5 70 18:19 27.03.2020
348 Clouds 9 1013 65 10000 2.6 80 17:40 27.03.2020
349 Clouds 12 1013 53 10000 2.6 280 17:20 27.03.2020
350 Clouds 12 1013 53 10000 2.6 270 16:45 27.03.2020
351 Clouds 12 1013 43 10000 3.1 260 16:27 27.03.2020
352 Clouds 12 1013 43 10000 3.1 260 15:57 27.03.2020
353 Clouds 12 1013 43 10000 4.1 280 15:39 27.03.2020
354 Clouds 11 1012 43 0 1.34 306 15:21 27.03.2020
355 Clouds 11 1012 43 0 1.34 306 14:45 27.03.2020
356 Clouds 11 1012 41 0 0.89 312 14:24 27.03.2020
357 Clouds 11 1012 41 0 0.89 312 13:56 27.03.2020
358 Clouds 11 1012 40 0 0.89 337 13:37 27.03.2020
359 Clouds 11 1012 40 0 0.89 337 13:18 27.03.2020
360 Clouds 11 1012 40 0 0.89 337 12:45 27.03.2020
361 Clouds 10 1013 40 0 1.34 24 12:20 27.03.2020
362 Clouds 10 1013 40 0 1.34 24 11:59 27.03.2020
363 Clouds 10 1013 40 0 1.34 24 11:59 27.03.2020
364 Clouds 10 1013 40 0 1.34 24 11:59 27.03.2020
365 Clouds 10 1013 40 0 1.34 24 11:40 27.03.2020
366 Clouds 8 1013 44 0 0.43 303 11:22 27.03.2020
367 Clouds 8 1013 44 0 0.43 303 10:54 27.03.2020
368 Clouds 6 1012 55 0 0.45 320 10:36 27.03.2020
369 Clouds 5 1012 55 0 0.45 320 10:18 27.03.2020
370 Clouds 5 1012 55 0 0.45 320 09:54 27.03.2020
371 Clouds 1 1012 70 0 0.43 303 09:36 27.03.2020
372 Clouds 1 1012 70 0 0.43 303 09:18 27.03.2020
373 Clouds 1 1012 70 0 0.43 303 08:54 27.03.2020
374 Clouds -2 1012 78 0 0.43 303 08:36 27.03.2020
375 Clouds -2 1012 78 0 1.44 184 08:18 27.03.2020
376 Clear -2 1012 78 0 1.51 181 07:41 27.03.2020
377 Clear -3 1012 83 0 0.45 167 07:21 27.03.2020
378 Clear -4 1012 83 0 0.45 167 06:41 27.03.2020
379 Clear -4 1012 81 0 0.45 224 05:57 27.03.2020
380 Clear -3 1012 82 0 0.45 198 03:34 27.03.2020
381 Clouds -3 1012 79 0 0.45 174 01:56 27.03.2020
382 Clouds -3 1012 78 0 0.89 161 01:19 27.03.2020
383 Clouds -3 1012 78 0 0.89 161 00:43 27.03.2020
384 Clouds -2 1012 76 0 0.45 131 00:19 27.03.2020
385 Clouds -1 1012 76 0 1.78 172 23:40 26.03.2020
386 Clouds -1 1012 76 0 1.94 167 23:18 26.03.2020
387 Clouds -1 1012 76 0 1.94 167 22:57 26.03.2020
388 Clouds -1 1013 72 0 1.94 167 22:36 26.03.2020
389 Clouds -1 1013 72 0 1.94 167 22:18 26.03.2020
390 Clouds -1 1013 72 0 1.94 167 21:40 26.03.2020
391 Clouds -1 1013 65 0 0.45 171 21:21 26.03.2020
392 Clouds 0 1013 65 0 0.45 171 20:59 26.03.2020
393 Clouds 0 1013 65 0 1.94 167 20:39 26.03.2020
394 Clouds 0 1013 65 0 1.94 167 20:21 26.03.2020
395 Clouds 0 1013 65 0 1.06 123 19:58 26.03.2020
396 Clouds 1 1013 56 0 1.06 123 19:39 26.03.2020
397 Clouds 2 1013 56 0 1.06 123 19:21 26.03.2020
398 Clouds 2 1013 56 0 1.06 123 18:58 26.03.2020
399 Clouds 2 1013 56 0 1.06 123 18:40 26.03.2020
400 Clouds 3 1013 51 0 1.06 123 18:21 26.03.2020
401 Clouds 3 1013 51 0 1.06 123 17:44 26.03.2020
402 Clouds 3 1013 51 0 1.06 123 17:44 26.03.2020
403 Clouds 3 1013 51 0 0.89 314 17:20 26.03.2020
404 Clouds 3 1013 51 0 0.89 314 16:57 26.03.2020
405 Clouds 3 1013 52 0 0.89 16 16:38 26.03.2020
406 Clouds 3 1013 52 0 0.89 16 16:18 26.03.2020
407 Clouds 3 1013 52 0 0.89 16 15:54 26.03.2020
408 Clouds 2 1014 52 0 1.83 20 15:36 26.03.2020
409 Clouds 2 1014 52 0 1.83 20 15:18 26.03.2020
410 Clouds 2 1014 52 0 1.83 20 14:42 26.03.2020
411 Clouds 2 1016 58 0 0.89 287 14:24 26.03.2020
412 Clouds 2 1017 58 0 3.13 322 13:54 26.03.2020
413 Clouds 2 1017 58 0 1.34 303 13:36 26.03.2020
414 Clouds 8 1014 36 0 1.69 12 13:18 26.03.2020
415 Clouds 7 1014 36 0 1.97 12 12:38 26.03.2020
416 Clouds 7 1014 36 0 1.97 12 12:38 26.03.2020
417 Clouds 7 1014 36 0 1.97 12 12:20 26.03.2020
418 Clouds 7 1014 36 0 1.97 12 11:46 26.03.2020
419 Clear 1 1013 64 0 0.89 19 11:22 26.03.2020
420 Clear 1 1013 64 0 0.89 19 10:57 26.03.2020
421 Clear 0 1013 62 0 0.89 44 10:38 26.03.2020
422 Clear 0 1013 62 0 0.89 44 10:19 26.03.2020
423 Clear -1 1013 62 0 0.89 44 09:44 26.03.2020
424 Clear -2 1013 70 0 0.43 28 09:21 26.03.2020
425 Clear -2 1013 70 0 0.43 28 08:56 26.03.2020
426 Clear -4 1013 78 0 0.45 61 08:37 26.03.2020
427 Clear -5 1013 78 0 0.45 61 08:19 26.03.2020
428 Clear -5 1013 78 0 0.45 61 07:44 26.03.2020
429 Clear -6 1013 82 0 0.45 145 07:22 26.03.2020
430 Clear -6 1013 82 0 0.45 145 06:56 26.03.2020
431 Clear -6 1012 85 0 0.45 242 05:59 26.03.2020
432 Clear -5 1012 81 0 2.53 157 04:49 26.03.2020
433 Clear -5 1012 79 0 0.45 244 03:44 26.03.2020
434 Clear -5 1012 78 0 2.53 157 02:55 26.03.2020
435 Clouds -4 1020 77 0 2.44 159 01:50 26.03.2020
436 Clouds -3 1013 72 0 0.45 158 00:55 26.03.2020
437 Clouds -4 1019 76 0 2.38 160 00:22 26.03.2020
438 Clouds -4 1019 76 0 2.38 160 23:41 25.03.2020
439 Clouds -4 1020 77 0 1.83 142 23:21 25.03.2020
440 Clouds -4 1020 77 0 1.83 142 22:41 25.03.2020
441 Clouds -4 1020 77 0 1.83 142 22:21 25.03.2020
442 Clouds -4 1020 77 0 1.83 142 21:56 25.03.2020
443 Clouds -4 1020 77 0 1.83 142 21:38 25.03.2020
444 Clouds -4 1020 77 0 1.83 142 21:38 25.03.2020
445 Clouds -4 1020 77 0 1.83 142 21:19 25.03.2020
446 Clouds -4 1020 77 0 1.83 142 20:55 25.03.2020
447 Clouds -4 1020 77 0 1.83 142 20:37 25.03.2020
448 Snow -2 1018 70 0 2.02 66 20:18 25.03.2020
449 Snow 2 1017 56 0 3.13 38 19:43 25.03.2020
450 Snow 2 1014 51 0 2.24 344 19:23 25.03.2020
451 Snow 2 1014 51 0 2.24 344 18:57 25.03.2020
452 Snow 2 1014 51 0 2.24 344 18:57 25.03.2020
453 Snow 2 1014 51 0 2.24 344 18:39 25.03.2020
454 Snow 3 1014 47 0 4.02 302 18:21 25.03.2020
455 Snow 3 1014 47 0 4.02 302 17:55 25.03.2020
456 Snow 4 1014 41 0 4.02 301 17:37 25.03.2020
457 Snow 4 1014 41 0 4.02 301 17:18 25.03.2020
458 Snow 4 1014 41 0 4.02 301 16:43 25.03.2020
459 Snow 5 1014 42 0 2.68 314 16:23 25.03.2020
460 Snow 5 1014 42 0 2.68 314 15:57 25.03.2020
461 Snow 4 1014 43 0 3.58 328 15:38 25.03.2020
462 Snow 4 1014 43 0 3.58 328 15:19 25.03.2020
463 Snow 4 1014 43 0 3.58 328 14:42 25.03.2020
464 Snow 4 1015 40 0 0.45 342 14:21 25.03.2020
465 Clear 5 1015 40 0 0.45 342 13:46 25.03.2020
466 Clear 4 1016 42 0 3.58 349 13:26 25.03.2020
467 Clear 4 1016 42 0 3.58 349 12:57 25.03.2020
468 Clear 4 1016 47 0 0.89 316 12:37 25.03.2020
469 Clear 4 1016 47 0 0.89 316 12:19 25.03.2020
470 Clear 3 1016 47 0 0.89 316 11:43 25.03.2020
471 Clear 3 1017 52 0 2.89 27 11:22 25.03.2020
472 Clear 2 1017 52 0 1.35 33 10:59 25.03.2020
473 Clear 2 1017 52 0 1.35 33 10:41 25.03.2020
474 Clear 0 1018 62 0 1.35 33 10:19 25.03.2020
475 Clear 0 1018 62 0 1.35 33 09:59 25.03.2020
476 Clear 0 1018 62 0 1.35 33 09:40 25.03.2020
477 Clear -2 1018 70 0 1.34 56 09:22 25.03.2020
478 Clear -2 1018 70 0 1.34 56 08:54 25.03.2020
479 Clear -4 1019 79 0 0.45 167 08:36 25.03.2020
480 Clear -5 1019 79 0 0.45 167 08:18 25.03.2020
481 Clear -5 1019 82 0 0.45 339 07:39 25.03.2020
482 Clear -6 1019 82 0 0.45 339 07:19 25.03.2020
483 Clear -6 1019 82 0 0.45 339 06:46 25.03.2020
484 Clear -6 1019 83 0 0.45 243 06:25 25.03.2020
485 Clear -6 1019 83 0 0.45 243 05:50 25.03.2020
486 Clear -6 1020 80 0 0.45 173 04:59 25.03.2020
487 Clear -6 1020 80 0 0.45 142 04:36 25.03.2020
488 Clear -4 1024 82 0 1.88 143 03:34 25.03.2020
489 Clear -4 1021 77 0 0.45 224 01:56 25.03.2020
490 Clear -5 1027 77 0 2.2 139 01:20 25.03.2020
491 Clear -4 1027 76 0 2.24 140 00:43 25.03.2020
492 Clear -4 1027 76 0 2.24 140 00:19 25.03.2020
493 Clear -4 1027 76 0 2.24 140 23:42 24.03.2020
494 Clear -4 1027 76 0 2.24 140 23:22 24.03.2020
495 Clear -4 1028 77 0 2.08 124 22:55 24.03.2020
496 Clear -4 1028 77 0 2.08 124 22:37 24.03.2020
497 Clear -4 1028 77 0 2.08 124 22:37 24.03.2020
498 Clear -4 1028 77 0 2.08 124 22:37 24.03.2020
499 Clear -4 1028 77 0 2.08 124 22:19 24.03.2020
500 Clear -4 1028 77 0 2.08 124 21:54 24.03.2020
501 Clear -4 1028 77 0 2.08 124 21:36 24.03.2020
502 Clear -4 1028 77 0 2.08 124 21:36 24.03.2020
503 Clear -4 1028 77 0 2.08 124 21:18 24.03.2020
504 Clear -4 1028 77 0 2.08 124 20:41 24.03.2020
505 Clear -4 1028 77 0 2.04 123 20:23 24.03.2020
506 Clear -3 1026 70 0 2.27 78 19:54 24.03.2020
507 Clear 1 1025 56 0 3.13 22 19:36 24.03.2020
508 Clear 1 1026 56 0 4.02 28 19:18 24.03.2020
509 Clear -3 1026 70 0 2.27 78 18:54 24.03.2020
510 Clear 3 1021 44 0 4.02 293 18:36 24.03.2020
511 Clear 3 1021 44 0 4.02 293 18:36 24.03.2020
512 Clear 3 1021 44 0 4.02 293 18:18 24.03.2020
513 Clear 3 1021 44 0 4.02 293 17:41 24.03.2020
514 Clear 4 1021 40 0 4.02 309 17:22 24.03.2020
515 Clear 5 1024 42 10000 6.2 20 16:57 24.03.2020
516 Clear 5 1024 42 10000 6.2 20 16:39 24.03.2020
517 Clouds 5 1025 43 10000 9.3 90 16:20 24.03.2020
518 Clear 5 1025 39 10000 5.7 40 15:44 24.03.2020
519 Clear 6 1025 39 10000 5.7 40 15:25 24.03.2020
520 Clear 5 1025 36 10000 5.7 50 14:57 24.03.2020
521 Clear 5 1025 36 10000 5.7 50 14:39 24.03.2020
522 Clear 5 1022 40 0 4.47 307 14:18 24.03.2020
523 Clear 5 1022 40 0 4.47 307 13:42 24.03.2020
524 Clear 4 1022 38 0 3.13 309 13:22 24.03.2020
525 Clear 4 1022 38 0 3.13 309 12:47 24.03.2020
526 Clear 3 1023 41 0 1.34 327 12:28 24.03.2020
527 Clear 3 1023 41 0 1.34 327 11:58 24.03.2020
528 Clear 2 1024 45 0 0.89 10 11:39 24.03.2020
529 Clear 2 1027 40 10000 2.1 0 11:19 24.03.2020
530 Clear 2 1027 50 10000 1.5 0 10:42 24.03.2020
531 Clear 1 1027 50 10000 1.5 0 10:19 24.03.2020
532 Clear 1 1027 50 10000 1.5 0 09:55 24.03.2020
533 Clear 0 1027 55 10000 1.5 0 09:37 24.03.2020
534 Clear 0 1027 50 10000 1 0 09:19 24.03.2020
535 Clear -1 1027 28 10000 1 0 08:38 24.03.2020
536 Clear -2 1027 63 10000 1.5 90 08:20 24.03.2020
537 Clear -3 1027 63 10000 2.6 90 07:47 24.03.2020
538 Clear -4 1027 68 10000 4.6 60 07:23 24.03.2020
539 Clear -5 1027 79 10000 1 0 06:42 24.03.2020
540 Clear -5 1027 73 10000 1 180 06:23 24.03.2020
541 Clear -4 1027 85 10000 1.5 0 04:57 24.03.2020
542 Clear -4 1027 73 10000 1 0 03:46 24.03.2020
543 Clear -3 1027 73 10000 1.5 220 02:45 24.03.2020
544 Clear -3 1028 68 10000 1 0 01:38 24.03.2020
545 Clear -2 1028 63 10000 1 0 00:42 24.03.2020
546 Clear -2 1028 62 10000 2.1 70 00:22 24.03.2020
547 Clear -2 1028 55 10000 1.5 0 23:39 23.03.2020
548 Clear -1 1028 50 10000 2.6 80 23:21 23.03.2020
549 Clear -1 1028 47 10000 3.6 60 22:45 23.03.2020
550 Clear -1 1029 50 10000 3.6 70 22:24 23.03.2020
551 Clear -1 1028 47 10000 4.6 40 21:58 23.03.2020
552 Clear -1 1028 47 10000 5.1 40 21:40 23.03.2020
553 Clear 0 1028 47 10000 5.7 50 21:20 23.03.2020
554 Clear 0 1029 46 10000 4.6 60 20:56 23.03.2020
555 Clear 0 1028 44 10000 6.7 50 20:38 23.03.2020
556 Clear 0 1028 44 10000 6.2 50 20:19 23.03.2020
557 Clear 1 1027 41 10000 6.2 40 19:44 23.03.2020
558 Clear 1 1027 38 10000 6.7 40 19:24 23.03.2020
559 Clear 1 1027 38 10000 5.7 40 18:56 23.03.2020
560 Clear 2 1028 40 10000 7.7 50 18:38 23.03.2020
561 Clear 3 1026 38 10000 6.2 40 18:20 23.03.2020
562 Clear 4 1026 38 10000 5.7 40 17:42 23.03.2020
563 Clear 4 1026 39 10000 6.2 30 17:21 23.03.2020
564 Clear 5 1026 39 10000 5.1 30 16:56 23.03.2020
565 Clear 5 1026 39 10000 5.1 30 16:38 23.03.2020
566 Clear 5 1026 39 10000 5.1 30 16:19 23.03.2020
567 Clear 6 1026 36 10000 5.7 40 15:41 23.03.2020
568 Clear 6 1026 39 10000 5.1 30 15:19 23.03.2020
569 Clear 5 1027 39 10000 5.7 20 14:38 23.03.2020
570 Clear 6 1027 42 10000 5.7 10 14:20 23.03.2020
571 Clear 6 1028 29 10000 8.2 50 13:58 23.03.2020
572 Clear 5 1027 45 10000 3.6 20 13:40 23.03.2020
573 Clear 5 1027 45 10000 3.6 20 13:40 23.03.2020
574 -273 0 0 0 0 0 13:20 23.03.2020
575 Clear 5 1027 52 10000 2.6 0 12:44 23.03.2020
576 Clear 4 1028 56 10000 3.6 270 12:25 23.03.2020
577 Clear 4 1028 37 10000 6.7 70 11:59 23.03.2020
578 Clear 4 1028 37 10000 6.7 70 11:59 23.03.2020
579 Clear 3 1028 55 10000 2.1 260 11:39 23.03.2020
580 Clear 3 1028 64 10000 2.6 290 11:19 23.03.2020
581 Clear 2 1028 59 10000 1.5 0 10:57 23.03.2020
582 Clear 2 1028 59 10000 1.5 0 10:37 23.03.2020
583 Clear 1 1028 59 10000 2.1 240 10:19 23.03.2020
584 Clear 0 1028 31 10000 2.1 310 09:44 23.03.2020
585 Clear -1 1028 64 10000 1 0 09:21 23.03.2020
586 Clear -1 1029 58 10000 6.7 60 08:56 23.03.2020
587 Clear -2 1028 31 10000 2.1 360 08:36 23.03.2020
588 Clear -3 1028 62 10000 1.5 50 08:18 23.03.2020
589 Clear -4 1028 80 10000 0.5 0 07:42 23.03.2020
590 Clear -4 1028 79 10000 1.5 40 07:21 23.03.2020
591 Clear -4 1027 86 10000 1 0 06:49 23.03.2020
592 Clear -4 1027 86 10000 0.5 0 05:51 23.03.2020
593 Clear -4 1027 79 10000 0.5 0 04:58 23.03.2020
594 Clear -3 1027 80 10000 3.1 40 03:26 23.03.2020
595 Clouds -2 1027 84 10000 0.5 0 01:50 23.03.2020
596 Clear -2 1029 63 10000 9.3 60 00:58 23.03.2020
597 Clear -2 1027 64 10000 3.6 60 00:36 23.03.2020
598 Clear -1 1027 64 10000 4.6 50 23:47 22.03.2020
599 Clear -1 1027 64 10000 4.6 50 23:47 22.03.2020
600 Clouds -1 1027 59 10000 5.1 50 23:25 22.03.2020
601 Clouds -1 1026 59 10000 5.7 40 22:45 22.03.2020
602 Clear 0 1026 59 10000 6.2 40 22:24 22.03.2020
603 Clear 0 1026 59 10000 6.2 40 21:56 22.03.2020
604 Clear 0 1026 59 10000 5.1 40 21:37 22.03.2020
605 Clear 0 1026 59 10000 6.7 40 21:19 22.03.2020
606 Clear 0 1027 90 10000 7.2 60 20:46 22.03.2020
607 Clear 1 1025 55 10000 5.7 50 20:25 22.03.2020
608 Clear 2 1027 86 10000 6.7 60 19:58 22.03.2020
609 Clear 2 1025 55 10000 6.7 50 19:40 22.03.2020
610 Clear 2 1024 56 10000 6.7 40 19:20 22.03.2020
611 Clear 2 1024 60 10000 6.2 40 18:59 22.03.2020
612 Clear 3 1024 60 10000 6.2 40 18:41 22.03.2020
613 Clear 3 1024 60 10000 6.2 40 18:41 22.03.2020
614 Clear 3 1023 60 10000 6.2 40 18:22 22.03.2020
615 Clear 3 1023 60 10000 6.2 40 18:22 22.03.2020
616 Clear 4 1023 56 10000 5.7 30 17:59 22.03.2020
617 Clear 4 1023 56 10000 5.7 30 17:39 22.03.2020
618 Clear 5 1023 59 10000 6.2 40 17:20 22.03.2020
619 Clear 5 1023 59 10000 6.2 40 16:58 22.03.2020
620 Clear 5 1023 59 10000 6.2 40 16:58 22.03.2020
621 Clear 5 1023 56 10000 6.7 50 16:39 22.03.2020
622 Clear 5 1023 61 10000 5.7 50 16:21 22.03.2020
623 Clear 5 1023 61 10000 5.7 50 15:56 22.03.2020
624 Clear 5 1022 61 10000 7.2 50 15:38 22.03.2020
625 Clouds 5 1023 65 10000 5.1 40 14:46 22.03.2020
626 Clouds 5 1023 65 10000 5.1 30 14:19 22.03.2020
627 Clouds 5 1023 65 10000 4.6 40 13:55 22.03.2020
628 Clouds 5 1023 65 10000 4.6 40 13:37 22.03.2020
629 Clouds 5 1023 70 10000 5.1 30 13:18 22.03.2020
630 Clouds 4 1023 70 10000 4.1 30 12:43 22.03.2020
631 Clouds 4 1023 70 10000 4.6 30 12:20 22.03.2020
632 Clouds 3 1023 75 10000 4.6 20 11:55 22.03.2020
633 Clouds 3 1023 75 10000 4.6 20 11:36 22.03.2020
634 Clouds 3 1022 64 10000 5.1 40 11:18 22.03.2020
635 Clouds 2 1022 80 10000 5.1 40 10:42 22.03.2020
636 Clouds 2 1022 78 10000 5.1 40 10:23 22.03.2020
637 Clouds 1 1022 78 10000 5.1 40 09:47 22.03.2020
638 Clouds 1 1022 78 10000 5.1 40 09:28 22.03.2020
639 Clouds 1 1021 80 10000 4.6 40 08:53 22.03.2020
640 Clouds 1 1021 80 10000 4.6 40 08:53 22.03.2020
641 Clouds 1 1021 80 10000 4.6 40 08:33 22.03.2020
642 Clouds 1 1020 80 10000 4.1 40 07:59 22.03.2020
643 Clouds 1 1020 80 10000 4.1 40 07:41 22.03.2020
644 Clouds 1 1020 80 10000 4.6 30 06:48 22.03.2020
645 Clouds 1 1019 80 10000 3.6 40 05:52 22.03.2020
646 Clouds 2 1019 80 10000 4.6 30 04:39 22.03.2020
647 Clouds 2 1019 80 10000 4.6 30 02:34 22.03.2020
648 Clouds 2 1019 80 10000 3.6 50 00:51 22.03.2020
649 Clouds 2 1019 80 10000 3.6 50 00:32 22.03.2020
650 Clouds 2 1019 80 10000 4.1 40 23:47 21.03.2020
651 Clouds 3 1019 81 10000 4.6 50 23:23 21.03.2020
652 Clouds 3 1020 97 10000 7.7 60 22:59 21.03.2020
653 Clouds 3 1019 81 10000 5.1 40 22:38 21.03.2020
654 Clouds 3 1019 81 10000 4.1 20 22:20 21.03.2020
655 Clouds 3 1020 97 10000 6.7 60 21:59 21.03.2020
656 Clouds 3 1019 81 10000 2.6 340 21:39 21.03.2020
657 Clouds 3 1019 87 10000 1.5 0 21:20 21.03.2020
658 -273 0 0 0 0 0 21:20 21.03.2020
659 Clouds 3 1018 93 10000 3.1 240 20:44 21.03.2020
660 Clouds 3 1020 97 10000 7.2 50 20:22 21.03.2020
661 Clouds 3 1019 97 10000 7.7 50 19:56 21.03.2020
662 Clouds 3 1018 93 10000 4.1 240 19:38 21.03.2020
663 Drizzle 3 1018 93 10000 4.1 250 19:19 21.03.2020
664 Clouds 3 1018 87 10000 3.1 300 18:54 21.03.2020
665 Clouds 4 1018 87 10000 3.1 300 18:36 21.03.2020
666 Clouds 4 1018 87 10000 3.6 300 18:18 21.03.2020
667 Clouds 4 1018 87 10000 3.6 310 17:42 21.03.2020
668 Clouds 4 1017 87 10000 3.6 320 17:22 21.03.2020
669 Clouds 5 1017 81 10000 4.1 330 16:43 21.03.2020
670 Clouds 5 1017 81 10000 4.1 330 16:43 21.03.2020
671 Clouds 5 1017 81 10000 4.1 340 16:24 21.03.2020
672 Clouds 5 1017 81 10000 4.1 340 16:24 21.03.2020
673 Clouds 5 1017 81 10000 4.1 340 15:59 21.03.2020
674 Clouds 5 1017 87 10000 3.6 330 15:40 21.03.2020
675 Clouds 6 1018 93 10000 6.7 50 15:22 21.03.2020
676 Clouds 6 1018 93 10000 6.2 50 14:57 21.03.2020
677 Clouds 6 1017 81 10000 3.1 340 14:39 21.03.2020
678 Clouds 6 1017 81 10000 3.1 340 14:20 21.03.2020
679 Clouds 6 1017 81 10000 3.1 340 13:58 21.03.2020
680 Clouds 6 1017 87 10000 3.1 320 13:39 21.03.2020
681 Clouds 7 1017 87 10000 3.1 330 13:21 21.03.2020
682 Clouds 6 1017 87 10000 3.1 330 12:57 21.03.2020
683 Clouds 6 1018 87 10000 3.6 320 12:37 21.03.2020
684 Clouds 6 1018 87 10000 1.5 320 12:19 21.03.2020
685 Clouds 6 1018 87 10000 1.5 0 11:55 21.03.2020
686 Clouds 6 1018 87 10000 1.5 0 11:37 21.03.2020
687 Clouds 6 1018 87 10000 1.5 0 11:18 21.03.2020
688 Clouds 6 1018 87 10000 2.1 0 10:56 21.03.2020
689 Clouds 6 1018 87 10000 2.1 0 10:38 21.03.2020
690 Clouds 6 1018 93 10000 2.1 340 10:18 21.03.2020
691 Clouds 6 1018 93 10000 4.1 10 09:40 21.03.2020
692 Clouds 7 1018 93 6000 1 0 09:21 21.03.2020
693 Clouds 7 1018 93 6000 1 0 08:58 21.03.2020
694 Clouds 7 1018 93 6000 1 0 08:39 21.03.2020
695 Rain 7 1018 100 3900 4.1 20 08:21 21.03.2020
696 Clouds 7 1018 100 6000 0.5 0 07:39 21.03.2020
697 Mist 7 1018 100 4800 2.1 260 07:20 21.03.2020
698 Clouds 7 1018 93 7000 1.5 60 06:45 21.03.2020
699 Clouds 7 1018 93 7000 1.5 270 06:26 21.03.2020
700 Clouds 7 1018 100 6000 3.1 280 05:41 21.03.2020
701 Clouds 8 1018 93 8000 2.1 280 04:34 21.03.2020
702 Clouds 8 1018 100 8000 2.6 100 02:39 21.03.2020
703 Rain 8 1019 100 6000 1.5 140 01:54 21.03.2020
704 Rain 8 1019 93 10000 1.5 350 01:28 21.03.2020
705 Rain 9 1019 81 10000 1.5 0 00:43 21.03.2020
706 Rain 9 1019 81 10000 1.5 0 00:43 21.03.2020
707 Rain 9 1019 87 10000 1.5 330 00:24 21.03.2020
708 Rain 9 1019 81 10000 2.6 280 23:45 20.03.2020
709 Rain 9 1019 93 10000 2.1 220 23:22 20.03.2020
710 Rain 9 1019 87 10000 1.5 0 22:44 20.03.2020
711 Rain 9 1019 76 10000 3.1 90 22:25 20.03.2020
712 Clouds 10 1019 87 10000 1 0 21:59 20.03.2020
713 Rain 10 1018 87 10000 2.1 200 21:41 20.03.2020
714 Rain 10 1019 87 7000 2.1 180 21:20 20.03.2020
715 Rain 10 1019 87 7000 2.1 180 20:59 20.03.2020
716 Rain 10 1019 87 10000 2.6 210 20:41 20.03.2020
717 Thunderstorm 11 1019 76 4000 4.1 280 20:20 20.03.2020
718 Thunderstorm 12 1018 62 10000 4.6 300 19:48 20.03.2020
719 Thunderstorm 12 1017 58 10000 5.7 350 19:22 20.03.2020
720 Thunderstorm 12 1017 58 10000 5.7 350 19:22 20.03.2020
721 Clouds 12 1018 58 10000 3.6 270 18:58 20.03.2020
722 Clouds 12 1018 58 10000 4.1 260 18:39 20.03.2020
723 Clouds 14 1018 62 10000 5.1 270 18:20 20.03.2020
724 Clouds 14 1018 58 10000 3.6 260 17:56 20.03.2020
725 Rain 14 1017 51 10000 2.6 320 17:38 20.03.2020
726 Rain 16 1017 54 10000 2.6 270 17:19 20.03.2020
727 Clouds 16 1018 55 10000 2.1 260 16:42 20.03.2020
728 Clouds 17 1018 59 10000 2.1 290 16:21 20.03.2020
729 Clouds 17 1018 59 10000 2.6 280 15:55 20.03.2020
730 Clouds 17 1018 59 10000 2.6 280 15:37 20.03.2020
731 Clouds 17 1018 59 10000 2.6 280 15:37 20.03.2020
732 Clouds 17 1018 51 10000 2.1 280 15:18 20.03.2020
733 Rain 17 1019 51 10000 2.1 270 14:42 20.03.2020
734 Rain 17 1019 55 10000 2.1 280 14:21 20.03.2020
735 Rain 16 1020 71 10000 2.1 270 13:50 20.03.2020
736 Rain 16 1020 71 10000 2.1 270 13:49 20.03.2020
737 Rain 16 1020 71 10000 2.1 270 13:25 20.03.2020
738 Rain 16 1020 71 10000 2.1 320 12:58 20.03.2020
739 Rain 16 1020 51 10000 1 0 12:38 20.03.2020
740 Rain 16 1020 71 10000 1 0 12:20 20.03.2020
741 Rain 14 1021 76 10000 2.1 300 11:39 20.03.2020
742 Rain 14 1020 54 10000 2.1 240 11:21 20.03.2020
743 Clouds 14 1021 76 10000 1 0 10:56 20.03.2020
744 Clouds 13 1021 76 10000 1 0 10:38 20.03.2020
745 Clouds 12 1021 81 10000 1.5 300 10:18 20.03.2020
746 Clouds 12 1021 81 10000 1.5 300 10:18 20.03.2020
747 Clouds 11 1021 81 10000 1 0 09:45 20.03.2020
748 Clouds 10 1021 87 10000 1.5 280 09:21 20.03.2020
749 Clouds 9 1021 87 10000 1.5 280 08:57 20.03.2020
750 Clouds 8 1021 87 10000 1 0 08:38 20.03.2020
751 Clear 6 1021 100 6000 2.42 170 08:18 20.03.2020
752 Clear 5 1021 93 6000 0.5 0 07:39 20.03.2020
753 Clear 5 1021 93 5000 0.5 0 07:21 20.03.2020
754 Clear 4 1021 93 7000 0.5 0 06:42 20.03.2020
755 Clear 4 1021 93 8000 1 230 06:18 20.03.2020
756 Clear 5 1021 93 8000 1 110 04:38 20.03.2020
757 Clear 6 1021 93 10000 1 210 02:50 20.03.2020
758 Clear 7 1021 93 10000 0.5 0 01:50 20.03.2020
759 Clear 7 1021 87 10000 1 90 00:41 20.03.2020
760 Clear 7 1021 81 10000 1 0 23:59 19.03.2020
761 Clear 8 1021 81 10000 1 0 23:40 19.03.2020
762 Clear 8 1021 81 10000 2.1 260 23:22 19.03.2020
763 Clear 9 1021 76 10000 1.5 260 22:40 19.03.2020
764 Clear 9 1021 81 10000 0.5 0 22:22 19.03.2020
765 Clear 10 1022 66 10000 2.6 80 21:58 19.03.2020
766 Clear 10 1021 75 10000 1.5 100 21:38 19.03.2020
767 Clear 10 1021 76 10000 1 0 21:18 19.03.2020
768 Clear 10 1022 81 10000 1 170 20:43 19.03.2020
769 Clear 10 1022 81 10000 1 170 20:43 19.03.2020
770 Clear 11 1022 81 10000 1 90 20:25 19.03.2020
771 Clouds 11 1022 76 10000 1 0 19:59 19.03.2020
772 Clouds 12 1021 76 10000 1.5 110 19:38 19.03.2020
773 Clouds 12 1021 81 10000 1.5 80 19:20 19.03.2020
774 Clouds 13 1022 66 10000 2.1 80 18:57 19.03.2020
775 Clouds 13 1021 71 10000 1 90 18:57 19.03.2020
776 Clouds 14 1021 71 10000 1 90 18:38 19.03.2020
777 Clouds 15 1021 51 10000 1 290 18:20 19.03.2020
778 Clouds 16 1021 55 10000 1.5 290 17:43 19.03.2020
779 Clouds 17 1022 55 10000 1.5 290 17:20 19.03.2020
780 Clouds 17 1022 51 10000 2.1 280 16:57 19.03.2020
781 Clouds 17 1022 51 10000 2.1 280 16:39 19.03.2020
782 Clouds 17 1022 55 10000 2.1 280 16:20 19.03.2020
783 Clouds 18 1022 59 10000 3.1 280 15:41 19.03.2020
784 Clouds 18 1023 55 10000 3.6 280 15:22 19.03.2020
785 Clouds 18 1023 58 10000 3.1 280 14:43 19.03.2020
786 Clear 17 1023 58 10000 2.6 280 14:21 19.03.2020
787 Clear 16 1024 66 10000 3.1 280 13:42 19.03.2020
788 Clear 17 1024 71 10000 2.6 290 13:21 19.03.2020
789 Clear 17 1024 71 10000 2.6 290 13:21 19.03.2020
790 Clear 16 1024 71 10000 3.1 290 12:58 19.03.2020
791 Clear 16 1024 71 10000 3.1 290 12:40 19.03.2020
792 Clear 15 1025 76 10000 2.6 280 12:21 19.03.2020
793 Clear 15 1025 71 10000 2.6 280 11:43 19.03.2020
794 Clear 14 1025 81 10000 2.1 300 11:24 19.03.2020
795 Clear 14 1025 81 10000 2.1 300 10:58 19.03.2020
796 Clear 13 1025 81 10000 2.1 300 10:38 19.03.2020
797 Clear 12 1025 87 10000 1.5 0 10:19 19.03.2020
798 Clear 12 1025 66 10000 1.5 230 09:55 19.03.2020
799 Clear 11 1025 81 10000 1.5 0 09:37 19.03.2020
800 Clear 10 1025 87 10000 1.5 290 09:18 19.03.2020
801 Clear 8 1025 87 10000 1.5 290 08:41 19.03.2020
802 Clear 6 1025 100 7000 1 0 08:20 19.03.2020
803 Clear 4 1025 93 10000 1 0 07:44 19.03.2020
804 Clear 4 1024 93 10000 2.1 160 07:25 19.03.2020
805 Clear 4 1025 93 7000 0.5 280 06:35 19.03.2020
806 Fog 4 1024 100 9000 2.6 260 05:48 19.03.2020
807 Clear 4 1025 93 10000 1 0 04:54 19.03.2020
808 Clear 4 1025 93 10000 1 0 04:34 19.03.2020
809 Clear 5 1025 93 10000 0.5 0 02:49 19.03.2020
810 Clear 6 1025 86 10000 1 0 01:21 19.03.2020
811 Clear 6 1025 87 10000 1 70 00:28 19.03.2020
812 Clear 7 1025 87 10000 0.5 140 23:48 18.03.2020
813 Clear 6 1025 87 10000 1.5 50 23:29 18.03.2020
814 Clear 8 1025 87 10000 0.5 0 22:56 18.03.2020
815 Clear 8 1025 87 10000 0.5 0 22:38 18.03.2020
816 Clear 8 1025 81 10000 2.36 170 22:20 18.03.2020
817 Clear 8 1025 81 10000 1 230 21:41 18.03.2020
818 Clear 9 1025 81 10000 0.5 0 21:21 18.03.2020
819 Clear 9 1026 81 10000 2.6 80 20:57 18.03.2020
820 Clear 10 1025 76 10000 1 0 20:39 18.03.2020
821 Clouds 11 1025 66 10000 1 160 20:20 18.03.2020
822 Clouds 11 1025 66 10000 1 160 19:56 18.03.2020
823 Clouds 11 1025 66 10000 1 160 19:56 18.03.2020
824 Clouds 11 1025 66 10000 2.6 140 19:36 18.03.2020
825 Clouds 12 1025 76 10000 0.5 0 19:18 18.03.2020
826 Clouds 13 1025 76 10000 0.5 0 18:41 18.03.2020
827 Clouds 15 1025 51 10000 3.1 270 18:20 18.03.2020
828 Clouds 16 1025 51 10000 3.1 270 17:57 18.03.2020
829 Clouds 16 1025 51 10000 3.1 270 17:57 18.03.2020
830 Clouds 16 1025 51 10000 3.1 270 17:39 18.03.2020
831 Clouds 17 1025 55 10000 3.1 280 17:21 18.03.2020
832 Clouds 16 1025 55 10000 3.1 280 16:54 18.03.2020
833 Clouds 16 1025 55 10000 3.1 280 16:36 18.03.2020
834 Clouds 17 1026 44 10000 3.6 40 16:18 18.03.2020
835 Clouds 16 1026 55 10000 2.1 280 15:44 18.03.2020
836 Clouds 16 1026 62 10000 3.1 290 15:20 18.03.2020
837 Clouds 16 1026 62 10000 3.1 290 14:45 18.03.2020
838 Clouds 17 1028 67 10000 2.6 280 14:22 18.03.2020
839 Clouds 16 1028 67 10000 2.6 280 13:56 18.03.2020
840 Clouds 16 1028 76 10000 2.6 280 13:36 18.03.2020
841 Clouds 16 1028 76 10000 2.6 280 13:18 18.03.2020
842 Clouds 15 1028 76 10000 2.1 290 12:41 18.03.2020
843 Clouds 15 1029 76 10000 2.1 290 12:19 18.03.2020
844 Clouds 14 1029 76 10000 2.1 290 11:39 18.03.2020
845 Clouds 13 1030 81 10000 2.6 280 11:21 18.03.2020
846 Clouds 12 1030 81 10000 2.6 280 10:58 18.03.2020
847 Clouds 12 1030 81 10000 2.6 280 10:39 18.03.2020
848 Clouds 11 1030 87 10000 1.5 280 10:20 18.03.2020
849 Clouds 10 1030 87 10000 1.5 280 09:43 18.03.2020
850 Clouds 9 1029 76 10000 1 0 09:25 18.03.2020
851 Clouds 8 1030 87 9000 2.1 290 08:57 18.03.2020
852 Clouds 6 1030 100 9000 1.5 290 08:39 18.03.2020
853 Clouds 6 1030 100 9000 1.5 290 08:39 18.03.2020
854 Clouds 5 1030 100 9000 0.5 0 08:20 18.03.2020
855 Clouds 4 1030 100 8000 1 270 07:46 18.03.2020
856 Clouds 4 1030 100 7000 1.5 0 07:28 18.03.2020
857 Clouds 3 1029 93 6000 1.5 240 06:44 18.03.2020
858 Clouds 4 1029 93 6000 1.5 230 06:22 18.03.2020
859 Clouds 4 1029 100 8000 1 0 05:35 18.03.2020
860 Clear 4 1029 93 10000 1.5 70 04:27 18.03.2020
861 Clear 4 1030 93 7000 0.5 0 02:48 18.03.2020
862 Clouds 5 1030 93 10000 1 220 01:48 18.03.2020
863 Clouds 5 1030 93 10000 0.5 0 01:27 18.03.2020
864 Clouds 6 1030 87 0 1 230 00:25 18.03.2020
865 Clouds 6 1030 93 10000 1 0 23:50 17.03.2020
866 Clouds 7 1030 76 0 1.5 280 23:28 17.03.2020
867 Clouds 8 1031 81 10000 0.5 0 22:59 17.03.2020
868 Clouds 7 1031 81 10000 0.5 0 22:40 17.03.2020
869 Clouds 8 1030 87 10000 1 230 22:22 17.03.2020
870 Clouds 8 1030 87 10000 1 0 21:40 17.03.2020
871 Clouds 9 1030 81 10000 1 130 21:21 17.03.2020
872 Clouds 10 1030 81 10000 1.5 110 20:41 17.03.2020
873 Clouds 10 1030 81 10000 2.1 160 20:22 17.03.2020
874 Clouds 11 1030 71 10000 0.5 0 19:59 17.03.2020
875 Clouds 11 1030 71 10000 1 0 19:40 17.03.2020
876 Clouds 12 1030 58 10000 1.5 190 19:18 17.03.2020
877 Clouds 12 1029 62 10000 1 200 18:56 17.03.2020
878 Clouds 12 1029 62 10000 1 200 18:37 17.03.2020
879 Rain 13 1029 54 10000 1 0 18:19 17.03.2020
880 Rain 13 1030 54 10000 1 0 17:40 17.03.2020
881 Clouds 14 1030 54 10000 1 0 17:22 17.03.2020
882 Clouds 14 1030 50 10000 1 0 16:55 17.03.2020
883 Clouds 14 1030 50 10000 1 0 16:37 17.03.2020
884 Clouds 14 1030 50 10000 1 0 16:18 17.03.2020
885 Clouds 14 1030 54 10000 1 0 15:43 17.03.2020
886 Clouds 14 1030 54 10000 1.5 340 15:21 17.03.2020
887 Clouds 14 1030 54 10000 1.5 340 14:42 17.03.2020
888 Clouds 13 1030 58 10000 0.5 0 14:21 17.03.2020
889 Clouds 13 1030 50 10000 4.1 280 13:44 17.03.2020
890 Clouds 13 1031 62 10000 2.1 280 13:26 17.03.2020
891 Clouds 13 1030 58 10000 2.6 270 12:58 17.03.2020
892 Clouds 13 1031 62 10000 2.1 310 12:40 17.03.2020
893 Clouds 13 1031 62 10000 2.1 310 12:22 17.03.2020
894 Clouds 12 1031 66 10000 2.1 270 11:46 17.03.2020
895 Clouds 12 1031 66 10000 2.1 270 11:46 17.03.2020
896 Clouds 12 1031 62 10000 2.1 300 11:28 17.03.2020
897 Clouds 12 1031 71 10000 2.1 310 10:58 17.03.2020
898 Clouds 12 1031 71 10000 2.1 310 10:38 17.03.2020
899 Clouds 11 1031 76 10000 2.1 280 10:20 17.03.2020
900 Clouds 10 1031 76 10000 2.1 280 09:57 17.03.2020
901 Clouds 10 1031 87 10000 3.1 270 09:39 17.03.2020
902 Clouds 9 1031 87 10000 3.1 290 09:18 17.03.2020
903 Clouds 8 1030 81 10000 1.5 60 08:43 17.03.2020
904 Clouds 6 1030 93 10000 2.1 110 08:21 17.03.2020
905 Clouds 5 1030 93 10000 1 110 07:50 17.03.2020
906 Clouds 5 1029 75 10000 2.6 190 07:26 17.03.2020
907 Clouds 5 1029 70 10000 2.6 210 06:58 17.03.2020
908 Clouds 5 1028 75 10000 2.6 210 06:33 17.03.2020
909 Clouds 5 1028 93 10000 2.12 192 05:46 17.03.2020
910 Clouds 5 1027 93 10000 1 300 03:40 17.03.2020
911 Clouds 5 1027 86 10000 1.5 100 02:45 17.03.2020
912 Clouds 4 1027 86 10000 1.5 90 01:42 17.03.2020
913 Clouds 5 1026 93 10000 3.6 200 01:24 17.03.2020
914 Clouds 6 1026 87 10000 1.5 240 00:25 17.03.2020
915 Clouds 6 1025 75 10000 2.6 250 23:45 16.03.2020
916 Clouds 6 1025 87 10000 2.1 250 23:23 16.03.2020
917 Clouds 7 1025 71 10000 1.5 0 22:40 16.03.2020
918 Clouds 7 1025 70 10000 0.5 0 22:22 16.03.2020
919 Clouds 7 1024 81 10000 1.5 150 21:55 16.03.2020
920 Clouds 7 1024 81 10000 1.5 150 21:36 16.03.2020
921 Clouds 8 1024 81 10000 1 0 21:18 16.03.2020
922 Clouds 8 1024 81 10000 1 200 20:43 16.03.2020
923 Clouds 9 1023 81 10000 1 0 20:24 16.03.2020
924 Clouds 10 1023 70 10000 0.5 0 19:56 16.03.2020
925 Clouds 10 1023 76 10000 0.5 0 19:37 16.03.2020
926 Clouds 11 1022 66 10000 1.5 90 19:18 16.03.2020
927 Clouds 12 1022 58 10000 1 0 18:41 16.03.2020
928 Clouds 13 1022 62 10000 2.1 70 18:20 16.03.2020
929 Clouds 15 1021 47 10000 2.1 300 17:46 16.03.2020
930 Clouds 15 1021 44 10000 3.6 280 17:26 16.03.2020
931 Clouds 15 1021 44 10000 3.6 70 16:58 16.03.2020
932 Clouds 15 1021 44 10000 3.6 280 16:40 16.03.2020
933 Clouds 15 1021 52 10000 3.6 90 16:22 16.03.2020
934 Clouds 16 1021 47 10000 3.6 290 15:43 16.03.2020
935 Clouds 16 1021 47 10000 3.6 290 15:24 16.03.2020
936 Clouds 15 1021 58 10000 3.6 280 14:48 16.03.2020
937 Clouds 15 1021 50 10000 2.6 290 14:24 16.03.2020
938 Clouds 14 1021 41 10000 3.1 80 13:53 16.03.2020
939 Clouds 14 1021 50 10000 2.1 290 13:29 16.03.2020
940 Clear 14 1021 54 10000 2.1 290 12:58 16.03.2020
941 Clear 14 1021 70 10000 2.6 280 12:40 16.03.2020
942 Clear 13 1021 70 10000 2.6 280 12:20 16.03.2020
943 Clear 13 1021 70 10000 2.6 280 12:20 16.03.2020
944 Clear 13 1021 66 10000 2.1 300 11:44 16.03.2020
945 Clear 12 1021 70 10000 2.1 300 11:26 16.03.2020
946 Clear 12 1020 50 10000 1.5 180 10:45 16.03.2020
947 Clear 11 1020 50 10000 1.5 180 10:25 16.03.2020
948 Clear 10 1020 53 10000 1.5 210 09:59 16.03.2020
949 Clear 9 1021 81 10000 1.5 280 09:38 16.03.2020
950 Clear 8 1020 81 10000 1.5 280 09:19 16.03.2020
951 Clear 6 1020 80 10000 0.5 0 08:43 16.03.2020
952 Clear 4 1019 40 10000 1 0 08:23 16.03.2020
953 Clear 2 1019 51 10000 1 200 07:43 16.03.2020
954 Clear 1 1019 100 10000 0.5 0 07:21 16.03.2020
955 Clear 1 1018 51 10000 0.5 0 06:41 16.03.2020
956 Clear 1 1018 51 10000 1 0 06:22 16.03.2020
957 Clouds 1 1017 92 10000 1.5 170 04:26 16.03.2020
958 Clouds 2 1016 93 10000 1 210 01:46 16.03.2020
959 Clouds 3 1016 86 10000 1 0 00:45 16.03.2020
960 Clouds 2 1016 80 10000 3.75 164 00:26 16.03.2020
961 Clouds 3 1016 81 10000 3.1 280 23:40 15.03.2020
962 Clouds 3 1016 80 10000 2.6 260 23:19 15.03.2020
963 Clouds 4 1016 75 10000 1 0 22:42 15.03.2020
964 Clouds 4 1016 86 10000 2.1 130 22:20 15.03.2020
965 Clouds 5 1016 81 10000 1.5 0 21:39 15.03.2020
966 Clouds 5 1016 86 10000 1 0 21:21 15.03.2020
967 Clouds 5 1016 86 10000 1 0 20:55 15.03.2020
968 Clouds 5 1016 75 10000 1 0 20:36 15.03.2020
969 Clear 7 1016 75 10000 1 0 20:18 15.03.2020
970 Clear 7 1016 70 10000 2.1 130 19:55 15.03.2020
971 Clear 8 1016 66 10000 1 140 19:37 15.03.2020
972 Clear 9 1016 66 10000 1.5 0 19:18 15.03.2020
973 Clear 10 1015 54 10000 2.1 120 18:41 15.03.2020
974 Clear 11 1015 54 10000 2.1 120 18:23 15.03.2020
975 Clear 12 1015 35 10000 3.1 210 17:57 15.03.2020
976 Clear 13 1016 78 10000 1 0 17:38 15.03.2020
977 Clear 14 1016 54 10000 1 0 17:19 15.03.2020
978 Clear 13 1016 50 10000 1.5 70 16:44 15.03.2020
979 Clear 13 1016 50 10000 1.5 70 16:44 15.03.2020
980 Clear 14 1016 50 10000 1.5 70 16:26 15.03.2020
981 Clear 14 1016 50 10000 1.5 70 15:59 15.03.2020
982 Clear 14 1016 50 10000 1 0 15:41 15.03.2020
983 Clear 14 1017 53 10000 1 0 15:20 15.03.2020
984 Clear 13 1017 57 10000 2.1 310 14:46 15.03.2020
985 Clear 13 1016 35 10000 1.5 310 14:25 15.03.2020
986 Clouds 13 1017 57 10000 2.1 310 13:59 15.03.2020
987 Clouds 12 1018 57 10000 2.1 300 13:38 15.03.2020
988 Clouds 12 1018 66 10000 2.6 290 13:20 15.03.2020
989 Clouds 11 1018 70 10000 3.1 300 12:44 15.03.2020
990 Clouds 11 1018 70 10000 3.1 280 12:26 15.03.2020
991 Clouds 10 1018 70 10000 2.6 290 11:56 15.03.2020
992 Clouds 10 1018 70 10000 2.6 290 11:38 15.03.2020
993 Clouds 9 1018 75 10000 4.1 280 11:20 15.03.2020
994 Clouds 9 1018 75 10000 4.1 280 10:55 15.03.2020
995 Clouds 9 1018 75 10000 4.1 280 10:36 15.03.2020
996 Clouds 7 1019 80 10000 2.6 290 10:18 15.03.2020
997 Clouds 5 1019 75 10000 2.6 290 09:39 15.03.2020
998 Clouds 4 1019 86 10000 3.6 290 09:20 15.03.2020
999 Clouds 4 1019 86 10000 3.6 290 09:20 15.03.2020
1000 Clouds 2 1019 86 10000 2.6 290 08:42 15.03.2020
1001 Clear 1 1019 86 10000 2.1 270 08:20 15.03.2020
1002 -273 0 0 0 0 0 07:51 15.03.2020
1003 Clear 0 1020 100 10000 0.5 80 07:23 15.03.2020
1004 Clear -1 1020 76 10000 1 0 06:49 15.03.2020
1005 Clear -1 1021 92 10000 1 0 05:50 15.03.2020
1006 Clear 0 1021 84 10000 1.5 210 05:18 15.03.2020
1007 Clear 0 1021 92 10000 1 0 04:41 15.03.2020
1008 Clear 0 1021 84 10000 1 0 04:23 15.03.2020
1009 Clear 0 1021 84 10000 1 0 03:30 15.03.2020
1010 Clear 1 1022 86 10000 1.5 130 02:37 15.03.2020
1011 Clouds 2 1022 89 10000 1 0 01:20 15.03.2020
1012 Clouds 3 1022 80 10000 1.5 0 00:42 15.03.2020
1013 Clouds 3 1022 74 10000 1 0 00:21 15.03.2020
1014 Clouds 3 1022 87 10000 2.1 100 23:42 14.03.2020
1015 Clouds 4 1023 87 10000 1.5 0 23:21 14.03.2020
1016 Snow 4 1022 86 10000 1.53 175 22:58 14.03.2020
1017 Clouds 4 1023 70 10000 1.5 140 22:40 14.03.2020
1018 Snow 4 1022 86 10000 0.5 210 22:22 14.03.2020
1019 Clouds 4 1023 65 10000 1 0 21:56 14.03.2020
1020 Clouds 4 1023 65 10000 1 0 21:36 14.03.2020
1021 Clouds 4 1022 94 10000 1.5 0 21:18 14.03.2020
1022 Clouds 4 1022 94 10000 1.5 0 20:58 14.03.2020
1023 Clouds 4 1022 75 10000 1.5 0 20:39 14.03.2020
1024 Clouds 5 1022 61 10000 1 0 20:18 14.03.2020
1025 Clouds 5 1022 61 10000 3.1 120 19:42 14.03.2020
1026 Snow 5 1022 86 10000 1.5 100 19:24 14.03.2020
1027 Clouds 6 1021 52 10000 1 0 18:41 14.03.2020
1028 Clouds 6 1021 39 10000 1.5 260 18:22 14.03.2020
1029 Clouds 6 1021 45 10000 1.5 260 17:55 14.03.2020
1030 Clouds 6 1021 45 10000 1.5 260 17:37 14.03.2020
1031 Clouds 7 1020 57 10000 2.1 280 17:18 14.03.2020
1032 Clouds 7 1020 65 10000 2.1 280 16:40 14.03.2020
1033 Clouds 7 1020 93 10000 1.5 260 16:21 14.03.2020
1034 Clouds 8 1020 49 10000 3.1 50 15:52 14.03.2020
1035 Clouds 8 1020 45 10000 1.5 250 15:25 14.03.2020
1036 Clouds 8 1020 45 10000 1.5 250 14:46 14.03.2020
1037 Clouds 8 1021 82 10000 1.5 310 14:23 14.03.2020
1038 Clouds 8 1021 82 10000 1.5 310 13:57 14.03.2020
1039 Clouds 8 1021 82 10000 1.5 310 13:39 14.03.2020
1040 Clouds 8 1021 70 10000 1.5 280 13:20 14.03.2020
1041 Clouds 8 1021 80 10000 1 0 12:46 14.03.2020
1042 Clouds 7 1021 70 10000 1.5 280 12:27 14.03.2020
1043 Clouds 7 1021 80 10000 2.6 280 11:56 14.03.2020
1044 Clouds 7 1021 80 10000 2.6 280 11:56 14.03.2020
1045 Clouds 7 1021 80 10000 2.6 280 11:38 14.03.2020
1046 Clouds 6 1021 67 10000 2.6 280 11:19 14.03.2020
1047 Clouds 6 1021 80 10000 2.6 280 10:42 14.03.2020
1048 Clouds 6 1021 80 10000 2.6 280 10:42 14.03.2020
1049 Clouds 5 1021 80 10000 2.6 280 10:23 14.03.2020
1050 Clouds 4 1020 86 10000 3.1 280 09:47 14.03.2020
1051 Clouds 3 1020 86 10000 3.1 280 09:24 14.03.2020
1052 Clouds 1 1020 93 10000 0.5 0 08:51 14.03.2020
1053 Clouds 1 1019 67 10000 0.49 315 08:29 14.03.2020
1054 Clouds 0 1020 88 10000 1 190 07:55 14.03.2020
1055 Clouds 0 1020 88 10000 0.5 0 07:37 14.03.2020
1056 Clouds 0 1020 86 10000 0.5 0 07:19 14.03.2020
1057 Clouds 0 1020 88 10000 0.5 0 06:40 14.03.2020
1058 Clouds 0 1020 88 10000 1 100 05:24 14.03.2020
1059 Clouds 0 1020 86 10000 2.1 80 03:46 14.03.2020
1060 Clouds 0 1020 92 10000 1.5 20 03:24 14.03.2020
1061 Clouds 0 1021 87 10000 0.5 0 02:22 14.03.2020
1062 Clear 0 1022 80 10000 0.5 0 00:46 14.03.2020
1063 Clear 1 1022 90 10000 2.1 110 23:46 13.03.2020
1064 Clear 1 1022 74 10000 1.5 0 23:28 13.03.2020
1065 Clear 1 1022 80 10000 0.5 0 22:49 13.03.2020
1066 Clear 2 1022 80 10000 0.5 0 22:26 13.03.2020
1067 Clear 2 1021 80 10000 2.6 100 21:44 13.03.2020
1068 Clear 3 1021 91 10000 1.5 0 21:22 13.03.2020
1069 Clear 3 1021 91 10000 1.5 0 20:59 13.03.2020
1070 Clear 4 1021 56 10000 1.5 0 20:40 13.03.2020
1071 Clear 4 1021 56 10000 2.6 190 20:20 13.03.2020
1072 Clouds 5 1021 56 10000 0.5 0 19:48 13.03.2020
1073 Clouds 6 1020 56 10000 2.1 260 19:30 13.03.2020
1074 Clouds 6 1021 52 10000 2.1 200 18:49 13.03.2020
1075 Clouds 7 1021 49 10000 2.6 210 18:31 13.03.2020
1076 Clouds 8 1021 93 10000 3.1 240 17:57 13.03.2020
1077 Clouds 8 1021 93 10000 3.1 240 17:38 13.03.2020
1078 Clouds 9 1021 40 10000 3.1 240 17:20 13.03.2020
1079 Clouds 9 1021 43 10000 3.1 240 16:42 13.03.2020
1080 Clouds 9 1021 46 10000 2.6 250 16:24 13.03.2020
1081 Clouds 9 1022 46 10000 3.6 250 15:56 13.03.2020
1082 Clouds 9 1022 46 10000 3.6 250 15:37 13.03.2020
1083 Clouds 10 1022 46 10000 3.1 210 15:19 13.03.2020
1084 Clouds 9 1022 73 10000 4.6 240 14:41 13.03.2020
1085 Clouds 9 1020 53 10000 8.2 230 14:22 13.03.2020
1086 Clouds 9 1022 77 10000 4.6 240 14:22 13.03.2020
1087 Clouds 9 1022 77 10000 4.6 240 13:57 13.03.2020
1088 Clouds 8 1022 49 10000 4.1 240 13:38 13.03.2020
1089 Clouds 8 1022 49 10000 4.1 240 13:19 13.03.2020
1090 Clouds 7 1023 61 10000 3.1 220 12:40 13.03.2020
1091 Clouds 7 1023 75 10000 4.6 240 12:22 13.03.2020
1092 Clouds 7 1020 45 10000 8.7 240 11:59 13.03.2020
1093 Clouds 6 1023 75 10000 4.6 240 11:41 13.03.2020
1094 Clouds 6 1023 75 10000 4.6 240 11:41 13.03.2020
1095 Clouds 6 1022 61 10000 3.6 250 11:22 13.03.2020
1096 Clouds 5 1022 61 10000 4.1 240 10:48 13.03.2020
1097 Snow 5 1020 75 10000 5.7 240 10:28 13.03.2020
1098 Snow 5 1020 95 10000 8.2 270 09:57 13.03.2020
1099 Snow 5 1020 95 10000 8.2 270 09:57 13.03.2020
1100 Rain 5 1020 95 2000 10.3 320 09:39 13.03.2020
1101 Clouds 5 1021 65 10000 5.7 240 09:20 13.03.2020
1102 Drizzle 5 1021 70 10000 4.6 250 08:45 13.03.2020
1103 Drizzle 5 1021 70 10000 4.6 250 08:22 13.03.2020
1104 Drizzle 5 1020 87 5000 3.1 240 07:49 13.03.2020
1105 Drizzle 5 1020 87 5000 3.1 240 07:28 13.03.2020
1106 Drizzle 5 1019 75 10000 4.6 230 06:47 13.03.2020
1107 Clouds 5 1018 86 10000 5.1 230 06:28 13.03.2020
1108 Drizzle 5 1017 93 8000 5.1 280 05:53 13.03.2020
1109 Drizzle 5 1017 86 6000 7.7 300 05:20 13.03.2020
1110 Drizzle 6 1019 75 10000 4.6 240 04:37 13.03.2020
1111 Clouds 6 1018 70 10000 4.1 250 03:31 13.03.2020
1112 Clouds 8 1018 71 10000 4.6 260 01:45 13.03.2020
1113 Clouds 8 1017 71 10000 5.7 250 01:18 13.03.2020
1114 Rain 9 1017 76 10000 4.1 260 00:47 13.03.2020
1115 Clouds 9 1017 71 10000 5.1 260 00:23 13.03.2020
1116 Clouds 10 1017 81 10000 3.1 280 23:47 12.03.2020
1117 Clouds 10 1016 76 10000 2.1 280 23:26 12.03.2020
1118 Clouds 11 1016 81 10000 0.5 0 22:55 12.03.2020
1119 Clouds 11 1016 81 10000 0.5 0 22:37 12.03.2020
1120 Clouds 11 1016 76 10000 1.5 40 22:19 12.03.2020
1121 Clouds 11 1016 87 10000 1 120 21:42 12.03.2020
1122 Clouds 11 1015 66 10000 7.2 230 21:24 12.03.2020
1123 Clouds 11 1016 66 10000 3.1 280 20:56 12.03.2020
1124 Clouds 11 1016 66 10000 3.1 280 20:37 12.03.2020
1125 Clouds 11 1016 76 10000 1 0 20:18 12.03.2020
1126 Clouds 12 1016 76 10000 1 140 19:39 12.03.2020
1127 Clouds 12 1016 76 10000 1 140 19:39 12.03.2020
1128 Clouds 12 1015 76 10000 0.5 0 19:20 12.03.2020
1129 Clouds 12 1015 76 10000 0.5 0 19:20 12.03.2020
1130 Clouds 12 1015 76 10000 1 0 18:43 12.03.2020
1131 Clouds 12 1015 82 10000 0.5 0 18:23 12.03.2020
1132 Clouds 13 1015 82 10000 1 0 17:56 12.03.2020
1133 Clouds 13 1015 82 10000 1 0 17:37 12.03.2020
1134 Clouds 13 1015 82 10000 1.5 0 17:18 12.03.2020
1135 Clouds 14 1015 71 10000 1 0 16:43 12.03.2020
1136 Clouds 14 1015 71 10000 1.5 0 16:24 12.03.2020
1137 Clouds 14 1014 67 10000 8.2 240 15:59 12.03.2020
1138 Clouds 14 1015 71 10000 1.5 0 15:39 12.03.2020
1139 Clouds 14 1016 81 10000 1 0 15:21 12.03.2020
1140 Clouds 14 1016 76 10000 1 0 14:38 12.03.2020
1141 Clouds 14 1016 76 10000 1 0 14:38 12.03.2020
1142 Clouds 14 1016 71 10000 2.1 70 14:19 12.03.2020
1143 Clouds 14 1016 71 10000 2.1 70 13:40 12.03.2020
1144 Clouds 14 1017 71 10000 2.6 60 13:22 12.03.2020
1145 Clouds 13 1017 71 10000 1.5 30 12:55 12.03.2020
1146 Clouds 13 1017 71 10000 1.5 30 12:37 12.03.2020
1147 Clouds 13 1017 66 10000 1.5 30 12:18 12.03.2020
1148 Clouds 13 1017 67 10000 1.5 70 11:56 12.03.2020
1149 Clouds 13 1017 67 10000 1.5 70 11:37 12.03.2020
1150 Clouds 13 1017 62 10000 1.5 70 11:18 12.03.2020
1151 Clouds 12 1018 67 10000 2.1 90 10:44 12.03.2020
1152 Clouds 11 1016 71 10000 9.3 240 10:26 12.03.2020
1153 Clouds 11 1018 76 10000 0.5 0 09:59 12.03.2020
1154 Clouds 11 1018 76 10000 0.5 0 09:41 12.03.2020
1155 Clouds 10 1016 76 10000 10.8 230 09:23 12.03.2020
1156 Clouds 9 1017 87 10000 1.5 100 08:39 12.03.2020
1157 Clouds 9 1017 87 10000 0.5 0 08:19 12.03.2020
1158 Clouds 9 1017 81 10000 0.5 0 07:48 12.03.2020
1159 Clouds 8 1016 81 10000 1 0 07:23 12.03.2020
1160 Clouds 7 1016 66 10000 1 0 06:33 12.03.2020
1161 Clouds 7 1015 76 10000 6.2 220 05:36 12.03.2020
1162 Clouds 7 1018 76 10000 2.6 140 03:45 12.03.2020
1163 Clouds 8 1018 66 10000 2.1 230 02:19 12.03.2020
1164 Clear 8 1017 93 10000 4.6 210 01:24 12.03.2020
1165 Clouds 8 1019 71 10000 1.5 0 00:42 12.03.2020
1166 Clouds 8 1018 87 10000 3.1 200 23:59 11.03.2020
1167 Clouds 9 1019 87 10000 1 0 23:37 11.03.2020
1168 Clouds 9 1019 87 10000 1 140 23:18 11.03.2020
1169 Clouds 9 1020 87 10000 1.5 120 22:41 11.03.2020
1170 Clouds 10 1019 76 10000 5.1 230 22:23 11.03.2020
1171 Clouds 10 1019 81 10000 4.6 230 21:58 11.03.2020
1172 Clouds 10 1020 71 10000 1 240 21:39 11.03.2020
1173 Clouds 10 1020 62 10000 1.5 250 21:21 11.03.2020
1174 Clouds 10 1020 62 10000 1.5 250 20:57 11.03.2020
1175 Clouds 10 1020 62 10000 1.5 250 20:57 11.03.2020
1176 Clouds 11 1020 62 10000 1.5 250 20:37 11.03.2020
1177 Clouds 10 1020 58 10000 2.1 200 20:19 11.03.2020
1178 Clouds 11 1020 58 10000 2.1 200 19:42 11.03.2020
1179 Clouds 13 1020 55 10000 3.6 220 19:24 11.03.2020
1180 Clouds 13 1020 55 10000 3.6 220 18:57 11.03.2020
1181 Clouds 13 1020 55 10000 3.6 220 18:38 11.03.2020
1182 Clouds 13 1020 55 10000 3.1 230 18:19 11.03.2020
1183 Clouds 13 1020 55 10000 3.1 220 17:55 11.03.2020
1184 Clouds 14 1019 71 10000 7.2 230 17:37 11.03.2020
1185 Clouds 14 1020 55 10000 3.6 230 17:18 11.03.2020
1186 Clouds 14 1020 55 10000 3.6 230 16:43 11.03.2020
1187 Clouds 14 1020 51 10000 3.6 240 16:20 11.03.2020
1188 Clouds 14 1020 55 10000 3.6 240 15:43 11.03.2020
1189 Clouds 14 1020 55 10000 5.7 210 15:23 11.03.2020
1190 Clouds 14 1020 59 10000 5.7 210 14:54 11.03.2020
1191 Clouds 13 1020 59 10000 5.7 210 14:36 11.03.2020
1192 Clouds 13 1020 59 10000 5.7 210 14:36 11.03.2020
1193 Clouds 13 1021 62 10000 6.2 270 14:18 11.03.2020
1194 Clouds 13 1021 67 10000 4.6 270 13:41 11.03.2020
1195 Clouds 13 1019 76 10000 8.7 230 13:22 11.03.2020
1196 Clouds 13 1021 62 10000 3.1 240 12:56 11.03.2020
1197 Clouds 13 1021 62 10000 3.1 240 12:38 11.03.2020
1198 Clouds 12 1021 67 10000 2.6 250 12:19 11.03.2020
1199 Clouds 12 1021 67 10000 2.6 250 12:19 11.03.2020
1200 Clouds 12 1021 62 10000 2.6 250 11:41 11.03.2020
1201 Clouds 11 1021 76 10000 3.1 90 11:20 11.03.2020
1202 Clouds 10 1021 87 10000 2.1 90 10:47 11.03.2020
1203 Clouds 10 1021 87 10000 2.1 80 10:21 11.03.2020
1204 Clouds 10 1019 87 10000 9.8 230 09:59 11.03.2020
1205 Rain 10 1019 87 9000 11.8 280 09:40 11.03.2020
1206 Clouds 10 1021 76 10000 2.1 0 09:21 11.03.2020
1207 Drizzle 9 1018 87 7000 12.3 280 08:43 11.03.2020
1208 Clouds 9 1019 87 10000 9.8 220 08:24 11.03.2020
1209 Clouds 8 1020 93 10000 1 0 07:47 11.03.2020
1210 Clouds 8 1020 100 10000 1 0 07:20 11.03.2020
1211 Clouds 8 1020 100 10000 1.5 100 06:50 11.03.2020
1212 Clouds 7 1020 93 10000 0.5 0 06:31 11.03.2020
1213 Clouds 7 1019 93 10000 2.1 90 05:32 11.03.2020
1214 Clouds 7 1019 100 6000 1 0 03:26 11.03.2020
1215 Clouds 7 1019 100 6000 1 0 03:26 11.03.2020
1216 Rain 6 1017 93 10000 10.8 230 01:53 11.03.2020
1217 Rain 6 1017 93 10000 9.3 230 01:23 11.03.2020
1218 Rain 6 1019 93 9000 1 120 00:37 11.03.2020
1219 Clouds 6 1019 93 10000 1 0 23:50 10.03.2020
1220 Rain 7 1017 87 10000 11.3 230 23:28 10.03.2020
1221 Rain 6 1019 93 10000 1 0 22:56 10.03.2020
1222 Rain 6 1019 93 10000 1 0 22:37 10.03.2020
1223 Rain 6 1019 93 10000 2.1 280 22:19 10.03.2020
1224 Drizzle 6 1017 93 10000 10.3 230 21:56 10.03.2020
1225 Clouds 6 1019 87 10000 0.5 0 21:37 10.03.2020
1226 Clouds 6 1018 81 10000 4.1 170 21:18 10.03.2020
1227 Clouds 6 1018 81 10000 4.1 170 21:18 10.03.2020
1228 Clouds 5 1018 81 10000 4.1 170 20:42 10.03.2020
1229 Rain 5 1018 87 10000 3.1 120 20:19 10.03.2020
1230 Rain 5 1018 87 10000 3.1 120 19:58 10.03.2020
1231 Rain 5 1018 87 10000 3.1 120 19:40 10.03.2020
1232 Rain 5 1018 87 6000 1.5 120 19:22 10.03.2020
1233 Rain 5 1015 93 10000 11.3 230 18:55 10.03.2020
1234 Rain 5 1018 87 6000 1.5 120 18:37 10.03.2020
1235 Rain 5 1017 93 8000 2.1 90 18:18 10.03.2020
1236 Rain 5 1017 93 8000 2.1 90 17:41 10.03.2020
1237 Rain 4 1017 87 8000 1 0 17:22 10.03.2020
1238 Rain 4 1017 87 8000 1 0 16:54 10.03.2020
1239 Rain 4 1017 87 8000 1 0 16:36 10.03.2020
1240 Rain 4 1017 87 10000 2.1 150 16:18 10.03.2020
1241 Rain 4 1017 87 10000 3.1 150 15:41 10.03.2020
1242 Rain 4 1017 93 10000 2.6 90 15:19 10.03.2020
1243 Rain 4 1017 93 10000 2.6 90 14:57 10.03.2020
1244 Rain 4 1017 93 10000 1 0 14:39 10.03.2020
1245 Rain 3 1017 100 8000 1 0 14:18 10.03.2020
1246 Rain 4 1014 93 8000 12.9 260 13:43 10.03.2020
1247 Rain 3 1017 93 10000 2.1 60 13:25 10.03.2020
1248 Rain 3 1018 93 10000 1.5 270 12:42 10.03.2020
1249 Rain 3 1018 86 10000 1.5 230 12:21 10.03.2020
1250 Rain 3 1018 86 10000 1.5 230 12:21 10.03.2020
1251 Rain 3 1018 86 10000 1 0 11:59 10.03.2020
1252 Rain 3 1018 86 10000 1 0 11:41 10.03.2020
1253 Rain 3 1018 80 10000 3.1 150 11:23 10.03.2020
1254 Rain 2 1018 80 10000 3.1 150 10:54 10.03.2020
1255 Rain 2 1018 80 10000 3.1 150 10:36 10.03.2020
1256 Rain 2 1019 75 10000 2.6 160 10:18 10.03.2020
1257 Rain 3 1019 70 10000 2.6 240 09:44 10.03.2020
1258 Clouds 3 1019 83 10000 2.1 120 09:19 10.03.2020
1259 Clouds 3 1019 83 10000 2.1 120 08:53 10.03.2020
1260 Clouds 3 1019 83 10000 2.1 120 08:34 10.03.2020
1261 Clouds 3 1016 74 10000 7.7 220 07:53 10.03.2020
1262 Clouds 3 1018 56 10000 3.6 200 07:35 10.03.2020
1263 Clouds 3 1019 85 10000 0.5 0 06:57 10.03.2020
1264 Clouds 3 1019 85 10000 0.5 0 06:37 10.03.2020
1265 Clouds 2 1019 80 10000 1 0 05:42 10.03.2020
1266 Clouds 2 1019 89 10000 1.5 270 04:56 10.03.2020
1267 Clouds 2 1019 89 10000 3.1 180 04:25 10.03.2020
1268 Clouds 2 1019 93 10000 1 90 04:25 10.03.2020
1269 Clouds 2 1020 69 10000 2.6 190 02:46 10.03.2020
1270 Clouds 2 1020 93 10000 2.6 210 01:31 10.03.2020
1271 Clouds 2 1021 93 10000 2.1 230 00:50 10.03.2020
1272 Clouds 3 1021 75 10000 0.5 0 00:27 10.03.2020
1273 Clouds 3 1021 80 10000 1 0 23:41 09.03.2020
1274 Clouds 3 1021 93 10000 1 0 23:22 09.03.2020
1275 Clouds 3 1021 86 10000 1 0 22:56 09.03.2020
1276 Clouds 3 1021 86 10000 1 0 22:37 09.03.2020
1277 Rain 3 1021 81 10000 2.1 0 22:18 09.03.2020
1278 Clouds 3 1021 93 10000 2.6 100 21:42 09.03.2020
1279 Clouds 3 1021 86 10000 1 0 21:21 09.03.2020
1280 Clouds 3 1021 86 10000 1 0 20:58 09.03.2020
1281 Clouds 3 1021 86 10000 1 0 20:39 09.03.2020
1282 Clouds 4 1020 80 10000 5.1 300 20:20 09.03.2020
1283 Clouds 4 1020 80 10000 5.1 300 19:45 09.03.2020
1284 Clouds 4 1019 70 10000 1.5 0 19:26 09.03.2020
1285 Clouds 4 1019 70 10000 1.5 0 18:58 09.03.2020
1286 Snow 4 1019 70 10000 1.5 0 18:39 09.03.2020
1287 Clouds 5 1018 75 10000 4.1 260 18:20 09.03.2020
1288 Clouds 5 1017 81 10000 6.7 220 17:58 09.03.2020
1289 Rain 5 1018 75 10000 4.1 260 17:38 09.03.2020
1290 Rain 5 1018 75 10000 4.1 260 17:38 09.03.2020
1291 Clouds 6 1017 75 10000 3.1 190 17:20 09.03.2020
1292 Clouds 6 1017 75 10000 3.1 190 16:58 09.03.2020
1293 Clouds 6 1017 75 10000 3.1 190 16:40 09.03.2020
1294 Clouds 6 1017 75 10000 3.1 190 16:40 09.03.2020
1295 Rain 6 1017 87 10000 2.6 280 16:22 09.03.2020
1296 Rain 6 1017 87 10000 2.6 280 15:58 09.03.2020
1297 Rain 6 1017 87 10000 2.6 280 15:38 09.03.2020
1298 Rain 6 1016 81 10000 1.5 0 15:20 09.03.2020
1299 Rain 7 1016 65 10000 1.5 0 14:55 09.03.2020
1300 Rain 7 1016 65 10000 1.5 0 14:37 09.03.2020
1301 Rain 7 1016 65 10000 2.1 250 14:18 09.03.2020
1302 Clouds 6 1017 65 10000 2.1 260 13:55 09.03.2020
1303 Clouds 6 1017 70 10000 3.6 270 13:36 09.03.2020
1304 Clouds 5 1017 70 10000 3.6 270 13:18 09.03.2020
1305 Clouds 5 1017 75 10000 2.6 260 12:41 09.03.2020
1306 Clouds 5 1017 75 10000 2.6 260 12:22 09.03.2020
1307 Rain 4 1017 81 10000 4.1 260 11:42 09.03.2020
1308 Rain 4 1017 81 10000 4.1 260 11:22 09.03.2020
1309 Rain 4 1016 87 10000 4.1 280 10:59 09.03.2020
1310 Rain 4 1016 87 10000 4.1 280 10:40 09.03.2020
1311 Rain 4 1016 86 10000 3.1 250 10:40 09.03.2020
1312 Rain 4 1016 86 10000 3.1 250 10:20 09.03.2020
1313 Rain 4 1013 86 10000 9.3 270 09:57 09.03.2020
1314 Rain 4 1014 93 10000 7.2 270 09:37 09.03.2020
1315 Rain 4 1015 86 10000 5.1 270 09:19 09.03.2020
1316 Rain 3 1015 86 10000 3.6 260 08:42 09.03.2020
1317 Rain 3 1014 87 10000 2.1 260 08:23 09.03.2020
1318 Rain 4 1014 87 10000 1.5 0 07:41 09.03.2020
1319 Rain 4 1013 87 10000 1 0 07:21 09.03.2020
1320 Rain 4 1013 81 10000 2.1 190 06:43 09.03.2020
1321 Rain 4 1013 75 10000 3.1 170 06:24 09.03.2020
1322 Rain 4 1013 75 10000 3.6 170 05:47 09.03.2020
1323 Rain 4 1013 75 10000 3.6 170 05:20 09.03.2020
1324 Rain 4 1013 81 10000 1 0 04:40 09.03.2020
1325 Rain 4 1013 80 10000 1 0 04:21 09.03.2020
1326 Clouds 4 1014 86 10000 1.5 0 02:58 09.03.2020
1327 Clouds 3 1014 86 10000 1 240 01:26 09.03.2020
1328 Clouds 3 1014 62 10000 1 0 00:38 09.03.2020
1329 Clouds 3 1014 62 10000 1.5 230 00:20 09.03.2020
1330 Clouds 3 1014 86 10000 0.5 0 23:47 08.03.2020
1331 Clouds 3 1014 86 10000 0.5 0 23:21 08.03.2020
1332 Clouds 4 1014 86 10000 1 0 22:55 08.03.2020
1333 Clouds 4 1014 86 10000 1 0 22:55 08.03.2020
1334 Clouds 4 1015 63 10000 1.5 120 22:37 08.03.2020
1335 Clouds 4 1015 63 10000 1.5 120 22:18 08.03.2020
1336 Clouds 4 1015 63 10000 2.1 110 21:42 08.03.2020
1337 Clouds 4 1015 63 10000 0.5 160 21:23 08.03.2020
1338 Clouds 4 1016 80 10000 2.1 290 20:59 08.03.2020
1339 Clouds 4 1016 75 10000 2.1 280 20:39 08.03.2020
1340 Clouds 4 1016 75 10000 2.1 280 20:20 08.03.2020
1341 Clouds 4 1016 75 10000 2.1 280 19:41 08.03.2020
1342 Clouds 5 1016 70 10000 1.5 100 19:20 08.03.2020
1343 Clouds 6 1016 70 10000 1.5 100 18:58 08.03.2020
1344 Clouds 6 1016 70 10000 1.5 100 18:39 08.03.2020
1345 Clouds 7 1016 52 10000 1 0 18:20 08.03.2020
1346 Clouds 8 1017 69 10000 1 0 17:41 08.03.2020
1347 Clouds 8 1017 52 10000 1 0 17:22 08.03.2020
1348 Clouds 8 1017 52 10000 1 0 16:59 08.03.2020
1349 Clouds 8 1017 52 10000 1 0 16:41 08.03.2020
1350 Clouds 8 1017 52 10000 1 0 16:22 08.03.2020
1351 Clouds 8 1017 49 10000 1 0 15:55 08.03.2020
1352 Clouds 8 1018 49 10000 0.5 0 15:37 08.03.2020
1353 Clouds 9 1018 49 10000 0.5 0 15:18 08.03.2020
1354 Clouds 8 1019 56 10000 1.5 280 14:38 08.03.2020
1355 Clouds 8 1019 56 10000 1.5 280 14:20 08.03.2020
1356 Clouds 8 1020 49 10000 2.6 280 13:55 08.03.2020
1357 Clouds 8 1020 45 10000 1.5 0 13:36 08.03.2020
1358 Clouds 7 1020 52 10000 2.1 280 13:18 08.03.2020
1359 Clouds 7 1021 52 10000 1.5 340 12:37 08.03.2020
1360 Clouds 6 1021 52 10000 1.5 340 12:18 08.03.2020
1361 Clouds 6 1022 86 10000 2.1 270 11:42 08.03.2020
1362 Clouds 4 1019 67 10000 3.6 30 11:23 08.03.2020
1363 Clouds 4 1022 80 10000 1.5 310 10:57 08.03.2020
1364 Clouds 3 1022 80 10000 1.5 310 10:39 08.03.2020
1365 Clouds 3 1022 80 10000 1.5 310 10:21 08.03.2020
1366 Clouds 1 1022 67 10000 1.5 310 09:39 08.03.2020
1367 Clouds 1 1022 67 10000 1.5 310 09:21 08.03.2020
1368 Clouds 0 1023 67 10000 0.5 0 08:46 08.03.2020
1369 Clouds -1 1023 92 10000 1 0 08:21 08.03.2020
1370 Clouds -2 1022 100 8000 1 170 07:49 08.03.2020
1371 Clouds -2 1022 100 8000 1 170 07:28 08.03.2020
1372 Clouds -2 1022 92 10000 1 230 06:45 08.03.2020
1373 Clouds -2 1022 92 10000 1 230 06:27 08.03.2020
1374 Clouds -2 1022 92 10000 1 0 05:43 08.03.2020
1375 Clear -2 1022 92 10000 0.5 0 03:52 08.03.2020
1376 Clear -1 1023 84 10000 1.5 260 02:59 08.03.2020
1377 Clouds -1 1024 89 10000 3.1 90 01:38 08.03.2020
1378 Clouds 0 1024 86 10000 2.1 160 01:19 08.03.2020
1379 Clouds -1 1024 90 10000 2.1 170 00:32 08.03.2020
1380 Clouds 0 1024 74 10000 2.1 150 23:58 07.03.2020
1381 Clouds 1 1024 86 10000 1 0 23:37 07.03.2020
1382 Snow 1 1024 86 10000 1 0 23:18 07.03.2020
1383 Clouds 1 1024 69 10000 1.5 190 22:38 07.03.2020
1384 Clouds 1 1024 69 10000 1.5 190 22:19 07.03.2020
1385 Clouds 1 1024 69 10000 1.5 190 22:19 07.03.2020
1386 Clouds 1 1024 95 10000 1.5 180 21:45 07.03.2020
1387 Clouds 1 1024 80 10000 1.5 180 21:23 07.03.2020
1388 Clouds 1 1023 86 10000 1.5 130 20:41 07.03.2020
1389 Clouds 2 1023 86 10000 1.5 130 20:22 07.03.2020
1390 Clouds 2 1023 86 10000 2.1 110 19:54 07.03.2020
1391 Clouds 2 1023 80 10000 2.1 110 19:36 07.03.2020
1392 Clouds 2 1023 80 10000 2.1 110 19:18 07.03.2020
1393 Clouds 2 1022 80 10000 1.5 130 18:39 07.03.2020
1394 Clouds 2 1022 80 10000 1.5 180 18:21 07.03.2020
1395 Clouds 3 1021 80 10000 2.1 260 17:42 07.03.2020
1396 Clouds 3 1021 80 10000 2.1 260 17:20 07.03.2020
1397 Rain 3 1021 80 10000 1.5 330 16:57 07.03.2020
1398 Rain 3 1021 80 10000 1.5 330 16:57 07.03.2020
1399 Rain 3 1021 80 10000 1.5 330 16:39 07.03.2020
1400 Clouds 3 1021 80 10000 2.1 120 16:21 07.03.2020
1401 Clouds 3 1020 80 10000 3.1 130 15:55 07.03.2020
1402 Clouds 3 1020 80 10000 3.1 130 15:37 07.03.2020
1403 Clouds 4 1020 80 10000 3.1 130 15:19 07.03.2020
1404 Rain 3 1020 86 10000 2.1 140 14:44 07.03.2020
1405 Rain 3 1020 93 10000 1.5 140 14:23 07.03.2020
1406 Rain 4 1019 80 10000 3.6 260 13:55 07.03.2020
1407 Clouds 4 1018 80 10000 5.1 240 13:37 07.03.2020
1408 Rain 4 1019 80 10000 3.6 260 13:18 07.03.2020
1409 Clouds 4 1020 82 10000 3.1 260 12:39 07.03.2020
1410 Clouds 4 1019 60 10000 4.1 270 12:19 07.03.2020
1411 Clouds 3 1019 60 10000 4.1 270 11:56 07.03.2020
1412 Clouds 3 1019 65 10000 2.6 270 11:37 07.03.2020
1413 Clouds 3 1019 65 10000 2.6 270 11:19 07.03.2020
1414 Clouds 3 1019 92 10000 2.6 270 10:39 07.03.2020
1415 Clouds 2 1019 75 10000 3.1 280 10:20 07.03.2020
1416 Clouds 2 1018 75 10000 3.1 260 09:42 07.03.2020
1417 Snow 2 1018 92 10000 3.1 260 09:20 07.03.2020
1418 Snow 2 1018 92 10000 3.1 260 09:20 07.03.2020
1419 Snow 2 1017 92 10000 2.1 270 08:59 07.03.2020
1420 Snow 1 1017 92 10000 2.1 270 08:41 07.03.2020
1421 Clouds 2 1016 98 10000 2.1 250 08:20 07.03.2020
1422 Clouds 2 1016 98 10000 2.1 250 07:48 07.03.2020
1423 Snow 2 1015 98 10000 3.1 250 07:22 07.03.2020
1424 Snow 1 1015 94 0 1.38 298 06:54 07.03.2020
1425 Snow 2 1014 94 0 1.38 298 06:29 07.03.2020
1426 Rain 2 1013 80 10000 3.6 260 05:46 07.03.2020
1427 Rain 2 1013 80 10000 3.6 260 04:40 07.03.2020
1428 Rain 2 1012 75 10000 4.6 260 02:46 07.03.2020
1429 Drizzle 2 1011 75 10000 4.6 250 02:24 07.03.2020
1430 Snow 2 1011 75 10000 5.1 260 01:23 07.03.2020
1431 Rain 2 1008 93 10000 5.7 230 00:38 07.03.2020
1432 Rain 2 1010 75 10000 5.7 250 00:19 07.03.2020
1433 Rain 2 1010 75 10000 5.7 260 23:43 06.03.2020
1434 Rain 2 1009 75 10000 6.2 230 23:24 06.03.2020
1435 Rain 2 1009 75 10000 5.7 240 22:47 06.03.2020
1436 Rain 2 1009 75 10000 5.1 230 22:21 06.03.2020
1437 Rain 2 1008 75 10000 4.1 250 21:50 06.03.2020
1438 Rain 2 1008 80 10000 5.1 250 21:21 06.03.2020
1439 Rain 2 1008 75 10000 5.1 250 20:56 06.03.2020
1440 Rain 2 1007 97 10000 4.1 260 20:36 06.03.2020
1441 Rain 2 1007 97 10000 4.1 260 20:18 06.03.2020
1442 Rain 3 1007 70 10000 4.1 260 19:43 06.03.2020
1443 Rain 3 1006 97 10000 5.7 260 19:24 06.03.2020
1444 Rain 3 1005 60 10000 5.7 260 18:43 06.03.2020
1445 Rain 3 1004 60 10000 5.1 250 18:21 06.03.2020
1446 Rain 3 1004 60 10000 5.1 250 17:57 06.03.2020
1447 Rain 3 1004 60 10000 5.1 250 17:39 06.03.2020
1448 Rain 4 1001 80 7000 13.9 260 17:21 06.03.2020
1449 Rain 4 1000 64 10000 12.9 270 16:57 06.03.2020
1450 Clouds 4 1000 64 10000 12.9 270 16:39 06.03.2020
1451 Clouds 4 1000 64 10000 12.9 270 16:19 06.03.2020
1452 Clouds 5 1002 52 10000 7.7 260 15:42 06.03.2020
1453 Clouds 5 1002 52 10000 7.7 260 15:23 06.03.2020
1454 Clouds 5 1001 52 10000 7.7 260 14:42 06.03.2020
1455 Clouds 6 1001 86 10000 7.7 260 14:24 06.03.2020
1456 Clouds 6 1001 52 10000 8.7 260 13:58 06.03.2020
1457 Clouds 6 1001 52 10000 8.7 260 13:58 06.03.2020
1458 Clouds 6 1001 52 10000 8.7 260 13:40 06.03.2020
1459 Clouds 6 1001 56 10000 6.7 260 13:20 06.03.2020
1460 Clouds 5 1000 87 10000 6.2 260 12:54 06.03.2020
1461 Clouds 6 1000 87 10000 6.2 260 12:36 06.03.2020
1462 Clouds 5 1000 87 10000 6.2 260 12:18 06.03.2020
1463 Clouds 5 1000 87 10000 6.7 260 11:42 06.03.2020
1464 Rain 5 999 78 10000 6.7 250 11:20 06.03.2020
1465 Rain 5 999 78 10000 6.7 250 10:56 06.03.2020
1466 Rain 5 999 65 10000 5.7 250 10:36 06.03.2020
1467 Rain 5 999 65 10000 5.7 250 10:18 06.03.2020
1468 Rain 5 999 78 10000 4.6 260 09:42 06.03.2020
1469 Clouds 5 995 69 10000 15.4 270 09:23 06.03.2020
1470 Clouds 5 995 69 10000 15.4 270 09:23 06.03.2020
1471 Clouds 5 998 65 10000 3.1 240 08:56 06.03.2020
1472 Clouds 5 995 80 10000 11.3 240 08:37 06.03.2020
1473 Rain 5 997 75 10000 4.6 260 08:18 06.03.2020
1474 Clouds 5 994 69 10000 10.8 270 07:42 06.03.2020
1475 Clouds 5 996 61 10000 3.6 250 07:22 06.03.2020
1476 Clouds 5 996 61 10000 3.6 250 06:43 06.03.2020
1477 Clouds 5 996 95 10000 3.1 240 06:22 06.03.2020
1478 Rain 5 996 61 10000 4.6 220 05:38 06.03.2020
1479 Rain 6 995 61 10000 4.1 240 05:19 06.03.2020
1480 Clouds 6 995 65 10000 3.6 250 04:35 06.03.2020
1481 Rain 6 994 87 5000 6.2 260 01:43 06.03.2020
1482 Clouds 6 993 81 10000 1 0 01:25 06.03.2020
1483 Clouds 5 993 75 10000 2.1 280 00:49 06.03.2020
1484 Clouds 6 993 43 10000 6.2 220 00:30 06.03.2020
1485 Snow 5 992 86 10000 4.6 210 23:43 05.03.2020
1486 Clouds 6 993 43 10000 6.7 190 23:24 05.03.2020
1487 Clouds 6 993 53 10000 5.7 180 22:55 05.03.2020
1488 Clouds 6 994 57 10000 4.1 180 22:36 05.03.2020
1489 Clouds 6 994 57 10000 4.1 180 22:18 05.03.2020
1490 Rain 6 993 87 10000 10.3 220 21:54 05.03.2020
1491 Rain 6 993 87 10000 9.3 220 21:36 05.03.2020
1492 Rain 6 995 70 10000 4.6 210 21:18 05.03.2020
1493 Rain 6 995 93 8000 5.7 200 20:42 05.03.2020
1494 Rain 6 995 93 8000 5.7 200 20:42 05.03.2020
1495 Rain 6 995 93 8000 4.1 270 20:21 05.03.2020
1496 Rain 5 993 93 10000 3.6 250 19:59 05.03.2020
1497 Rain 5 993 93 10000 3.6 250 19:39 05.03.2020
1498 Rain 6 993 93 10000 3.6 250 19:21 05.03.2020
1499 Rain 6 993 93 10000 3.6 250 19:21 05.03.2020
1500 Rain 5 992 100 10000 2.6 220 18:58 05.03.2020
1501 Rain 6 992 100 10000 2.1 170 18:37 05.03.2020
1502 Rain 5 992 100 10000 2.1 170 18:18 05.03.2020
1503 Rain 6 993 83 10000 9.8 170 17:55 05.03.2020
1504 Rain 6 994 100 8000 2.6 160 17:37 05.03.2020
1505 Rain 6 993 88 10000 9.8 170 17:18 05.03.2020
1506 Rain 6 994 88 10000 9.3 160 16:41 05.03.2020
1507 Rain 6 994 88 10000 10.3 160 16:22 05.03.2020
1508 Rain 6 996 88 10000 7.7 160 15:54 05.03.2020
1509 Rain 5 996 88 10000 9.3 170 15:36 05.03.2020
1510 Rain 5 996 88 10000 9.3 170 15:18 05.03.2020
1511 Rain 5 997 61 10000 8.7 170 14:41 05.03.2020
1512 Rain 5 997 61 10000 7.7 180 14:22 05.03.2020
1513 Rain 5 998 65 9000 7.7 170 13:57 05.03.2020
1514 Rain 5 999 65 10000 5.7 0 13:39 05.03.2020
1515 Rain 5 999 65 10000 5.7 0 13:20 05.03.2020
1516 Rain 5 999 70 10000 5.7 0 12:43 05.03.2020
1517 Rain 5 1000 70 10000 6.7 230 12:21 05.03.2020
1518 Rain 6 1000 65 10000 6.2 180 11:58 05.03.2020
1519 Rain 5 1000 65 10000 6.2 180 11:39 05.03.2020
1520 Rain 5 1001 70 10000 5.1 0 11:20 05.03.2020
1521 Drizzle 5 1001 81 10000 2.1 310 10:58 05.03.2020
1522 Drizzle 5 1001 81 10000 2.1 310 10:40 05.03.2020
1523 Clouds 5 1002 80 10000 3.1 290 10:21 05.03.2020
1524 Clouds 4 1003 75 10000 0.5 0 09:59 05.03.2020
1525 Clouds 4 1003 75 10000 0.5 0 09:40 05.03.2020
1526 Rain 4 1004 75 10000 1.5 0 09:21 05.03.2020
1527 Clouds 3 1004 75 10000 0.5 0 08:43 05.03.2020
1528 Clouds 3 1004 80 10000 0.5 0 08:24 05.03.2020
1529 Clouds 2 1004 86 10000 0.5 0 07:44 05.03.2020
1530 Clouds 2 1005 80 10000 1 100 07:22 05.03.2020
1531 Clouds 2 1005 93 10000 1 80 06:45 05.03.2020
1532 Snow 2 1005 83 9000 1 140 06:21 05.03.2020
1533 Snow 2 1006 86 8000 3.6 180 05:37 05.03.2020
1534 Rain 2 1008 80 10000 1 0 04:25 05.03.2020
1535 Drizzle 1 1008 86 10000 1 0 03:58 05.03.2020
1536 Rain 1 1009 67 10000 1.5 130 03:18 05.03.2020
1537 Clouds 0 1009 69 10000 0.5 0 01:28 05.03.2020
1538 Clouds 1 1010 80 10000 0.5 0 00:56 05.03.2020
1539 Clouds 1 1010 69 10000 1.5 0 23:58 04.03.2020
1540 Clouds 1 1010 69 10000 1.5 0 23:58 04.03.2020
1541 Clouds 1 1010 69 10000 1.5 0 23:40 04.03.2020
1542 Clouds 0 1011 69 10000 1.5 130 23:21 04.03.2020
1543 Clouds 1 1011 69 10000 1 0 22:56 04.03.2020
1544 Clouds 1 1011 78 10000 2.1 150 22:37 04.03.2020
1545 Clouds 1 1011 69 10000 3.1 100 22:19 04.03.2020
1546 Clouds 1 1011 74 10000 2.6 100 21:55 04.03.2020
1547 Clouds 1 1012 69 10000 2.6 110 21:37 04.03.2020
1548 Clouds 2 1012 69 10000 2.6 110 21:18 04.03.2020
1549 Clouds 2 1013 65 10000 1 0 20:40 04.03.2020
1550 Clouds 2 1012 65 10000 1 0 20:40 04.03.2020
1551 Clouds 2 1013 65 10000 1 0 20:22 04.03.2020
1552 Clouds 3 1012 65 10000 1 170 19:57 04.03.2020
1553 Clouds 3 1012 65 10000 1 170 19:38 04.03.2020
1554 Clouds 3 1012 65 10000 1 170 19:20 04.03.2020
1555 Clouds 3 1013 52 10000 1 0 18:42 04.03.2020
1556 Clouds 3 1013 52 10000 1 0 18:23 04.03.2020
1557 Clouds 5 1013 52 10000 1 120 17:59 04.03.2020
1558 Clouds 5 1013 52 10000 1 120 17:39 04.03.2020
1559 Clouds 6 1013 60 10000 1 0 17:20 04.03.2020
1560 Clouds 6 1013 52 10000 2.1 60 16:56 04.03.2020
1561 Clouds 6 1012 48 10000 5.1 240 16:37 04.03.2020
1562 Clouds 7 1013 48 10000 2.1 60 16:19 04.03.2020
1563 Clouds 6 1013 56 10000 1 0 15:42 04.03.2020
1564 Clouds 6 1013 56 10000 1 0 15:24 04.03.2020
1565 Clouds 7 1014 60 10000 1.5 50 14:58 04.03.2020
1566 Clouds 5 1014 60 10000 1 0 14:39 04.03.2020
1567 Clouds 6 1014 60 10000 1 0 14:19 04.03.2020
1568 Clouds 6 1014 56 10000 1 0 13:58 04.03.2020
1569 Clouds 6 1014 56 10000 1 0 13:39 04.03.2020
1570 Clouds 6 1015 60 10000 1.5 40 13:20 04.03.2020
1571 Clouds 6 1015 70 10000 2.6 70 12:46 04.03.2020
1572 Clouds 6 1015 70 10000 2.6 70 12:28 04.03.2020
1573 Clouds 4 1015 60 10000 2.6 50 12:00 04.03.2020
1574 Clouds 4 1015 60 10000 2.6 50 11:41 04.03.2020
1575 Clouds 3 1015 60 10000 2.6 50 11:23 04.03.2020
1576 Clouds 3 1015 70 10000 1.5 0 10:57 04.03.2020
1577 Clouds 3 1015 73 10000 1.5 0 10:39 04.03.2020
1578 Clouds 3 1015 73 10000 1.5 0 10:18 04.03.2020
1579 Clouds 3 1016 86 10000 1.5 0 09:42 04.03.2020
1580 Clouds 2 1015 93 10000 2.1 100 09:21 04.03.2020
1581 Clouds 1 1015 93 10000 2.1 100 08:47 04.03.2020
1582 Clouds 1 1015 86 10000 2.1 80 08:27 04.03.2020
1583 Clouds 0 1015 96 10000 2.1 80 07:56 04.03.2020
1584 Clouds 0 1015 96 10000 2.1 80 07:37 04.03.2020
1585 Clouds 0 1014 86 10000 3.1 280 07:18 04.03.2020
1586 Clouds 0 1014 86 10000 3.1 280 06:43 04.03.2020
1587 Clouds 0 1014 80 10000 3.1 290 06:23 04.03.2020
1588 Clouds 0 1014 96 10000 1 0 05:48 04.03.2020
1589 Clouds 0 1013 84 10000 2.6 100 04:30 04.03.2020
1590 Snow 0 1012 84 10000 0.5 0 03:42 04.03.2020
1591 Snow 0 1012 84 10000 0.5 0 03:24 04.03.2020
1592 Clouds 0 1012 86 10000 0.5 0 02:55 04.03.2020
1593 Clouds 0 1012 80 10000 1 160 02:20 04.03.2020
1594 Clouds 0 1011 86 10000 1 0 01:53 04.03.2020
1595 Clouds -1 1011 82 10000 1 0 00:50 04.03.2020
1596 Clouds -1 1010 82 10000 1 0 00:25 04.03.2020
1597 Clouds -1 1010 82 10000 1 200 23:46 03.03.2020
1598 Clouds 0 1010 86 10000 2.1 250 23:27 03.03.2020
1599 Clouds 0 1009 80 10000 0.5 0 22:58 03.03.2020
1600 Clouds 0 1009 80 10000 0.5 0 22:58 03.03.2020
1601 Clouds 0 1008 92 10000 1.5 170 22:40 03.03.2020
1602 Clouds 0 1009 74 10000 2.6 110 22:19 03.03.2020
1603 Clouds 0 1009 69 10000 1.5 0 21:57 03.03.2020
1604 Clouds 0 1009 69 10000 1.5 0 21:38 03.03.2020
1605 Clouds 0 1008 69 10000 2.1 130 21:19 03.03.2020
1606 Clouds 1 1007 64 10000 1.5 200 20:41 03.03.2020
1607 Clouds 1 1007 64 10000 1.5 200 20:21 03.03.2020
1608 Clouds 2 1006 69 10000 1.5 180 19:59 03.03.2020
1609 Clouds 2 1006 69 10000 1.5 180 19:38 03.03.2020
1610 Clouds 2 1007 69 10000 2.6 180 19:19 03.03.2020
1611 Clouds 2 1005 69 10000 1.5 150 18:59 03.03.2020
1612 Clouds 2 1005 69 10000 1.5 150 18:41 03.03.2020
1613 Clouds 3 1005 60 10000 2.6 100 18:21 03.03.2020
1614 Clouds 3 1005 60 10000 2.1 90 17:59 03.03.2020
1615 Clouds 4 1005 60 10000 2.1 90 17:39 03.03.2020
1616 Clouds 4 1005 60 10000 2.1 90 17:39 03.03.2020
1617 Clouds 4 1005 60 10000 2.1 120 17:21 03.03.2020
1618 Clouds 4 1004 60 10000 1.5 80 16:57 03.03.2020
1619 Clouds 4 1004 52 10000 4.1 290 16:37 03.03.2020
1620 Clouds 5 1004 60 10000 1.5 80 16:19 03.03.2020
1621 Clouds 5 1004 65 10000 2.6 360 15:45 03.03.2020
1622 Clouds 5 1004 65 10000 2.6 360 15:22 03.03.2020
1623 Rain 4 1005 86 10000 2.1 130 14:57 03.03.2020
1624 Rain 5 1005 86 10000 2.1 130 14:38 03.03.2020
1625 Rain 5 1005 86 10000 2.1 130 14:19 03.03.2020
1626 Rain 5 1005 86 10000 3.6 270 13:56 03.03.2020
1627 Rain 5 1005 86 10000 3.6 270 13:38 03.03.2020
1628 Rain 4 1005 60 10000 3.6 270 13:19 03.03.2020
1629 Clouds 4 1006 60 10000 3.6 250 12:43 03.03.2020
1630 Clouds 4 1006 56 10000 3.6 250 12:24 03.03.2020
1631 Clouds 4 1006 52 10000 4.1 270 11:55 03.03.2020
1632 Snow 4 1006 60 10000 4.1 270 11:37 03.03.2020
1633 Snow 3 1006 60 10000 4.1 270 11:18 03.03.2020
1634 Rain 3 1006 90 10000 3.1 280 10:55 03.03.2020
1635 Rain 3 1006 90 10000 3.1 280 10:37 03.03.2020
1636 Rain 3 1006 90 10000 3.1 280 10:18 03.03.2020
1637 Rain 2 1006 80 10000 4.6 260 09:42 03.03.2020
1638 Rain 2 1006 90 10000 4.6 260 09:21 03.03.2020
1639 Snow 2 1003 90 8000 9.8 280 08:42 03.03.2020
1640 Snow 2 1002 90 3500 9.8 270 08:24 03.03.2020
1641 Snow 1 1002 98 1800 10.8 280 07:56 03.03.2020
1642 Snow 1 1002 98 1800 10.8 280 07:56 03.03.2020
1643 Rain 2 1005 80 10000 7.2 270 07:38 03.03.2020
1644 Rain 2 1004 75 10000 7.2 250 07:19 03.03.2020
1645 Rain 2 1004 75 10000 7.2 250 06:40 03.03.2020
1646 Clouds 2 1003 75 10000 6.7 250 06:21 03.03.2020
1647 Clouds 2 1002 80 10000 7.7 250 05:43 03.03.2020
1648 Drizzle 2 1000 80 10000 5.7 260 04:56 03.03.2020
1649 Drizzle 3 998 80 10000 6.2 260 03:21 03.03.2020
1650 Rain 3 997 81 10000 4.1 260 01:32 03.03.2020
1651 Rain 4 996 81 10000 3.1 260 00:42 03.03.2020
1652 Rain 4 996 81 10000 3.1 260 00:23 03.03.2020
1653 Drizzle 4 995 81 10000 2.1 260 23:51 02.03.2020
1654 Rain 4 995 81 10000 1 0 23:23 02.03.2020
1655 Rain 4 994 87 10000 1 0 22:58 02.03.2020
1656 Rain 4 994 87 10000 1 0 22:38 02.03.2020
1657 Drizzle 4 994 93 10000 1 0 22:20 02.03.2020
1658 Rain 4 993 87 10000 1 0 21:56 02.03.2020
1659 Clouds 4 993 87 10000 1 0 21:38 02.03.2020
1660 Clouds 4 992 87 10000 2.1 360 21:20 02.03.2020
1661 Rain 5 992 87 10000 3.1 280 20:55 02.03.2020
1662 Rain 5 991 86 10000 8.7 260 20:37 02.03.2020
1663 Rain 5 992 87 10000 3.1 280 20:18 02.03.2020
1664 Rain 5 991 75 10000 5.7 260 19:54 02.03.2020
1665 Clouds 5 988 61 10000 5.1 260 19:36 02.03.2020
1666 Clouds 6 988 61 10000 5.1 260 19:18 02.03.2020
1667 Clouds 6 988 61 10000 4.6 270 18:42 02.03.2020
1668 Clouds 7 987 61 10000 3.6 260 18:19 02.03.2020
1669 Clouds 7 987 61 10000 3.6 260 18:19 02.03.2020
1670 Clouds 7 986 66 10000 5.1 280 17:57 02.03.2020
1671 Clouds 7 986 66 10000 5.1 280 17:39 02.03.2020
1672 Clouds 7 986 66 10000 5.1 280 17:20 02.03.2020
1673 Clouds 8 986 65 10000 2.1 0 16:45 02.03.2020
1674 Clouds 8 987 86 10000 4.6 60 16:27 02.03.2020
1675 Clouds 8 985 50 10000 3.1 120 15:58 02.03.2020
1676 Clouds 8 985 50 10000 3.1 120 15:40 02.03.2020
1677 Clouds 8 985 50 10000 3.1 120 15:18 02.03.2020
1678 Clouds 8 986 50 10000 4.6 130 14:39 02.03.2020
1679 Clouds 8 987 53 10000 2.1 0 14:20 02.03.2020
1680 Clouds 8 987 53 10000 2.1 0 13:57 02.03.2020
1681 Clouds 8 987 53 10000 2.1 0 13:37 02.03.2020
1682 Clouds 8 988 70 10000 1.5 260 13:18 02.03.2020
1683 Clouds 7 988 75 10000 4.6 330 12:43 02.03.2020
1684 Clouds 7 988 75 10000 4.6 330 12:43 02.03.2020
1685 Clouds 7 989 78 10000 2.1 0 12:19 02.03.2020
1686 Clouds 6 990 75 10000 2.1 270 11:40 02.03.2020
1687 Clouds 6 991 75 10000 1 0 11:21 02.03.2020
1688 Clouds 5 993 80 10000 3.1 280 10:58 02.03.2020
1689 Clouds 5 993 80 10000 3.1 280 10:40 02.03.2020
1690 Clouds 5 993 80 10000 3.1 280 10:40 02.03.2020
1691 Clouds 5 993 86 10000 3.6 280 10:19 02.03.2020
1692 Clouds 5 993 86 10000 3.6 270 09:53 02.03.2020
1693 Clouds 4 994 80 10000 6.2 290 09:32 02.03.2020
1694 Clouds 2 994 69 10000 4.6 60 08:49 02.03.2020
1695 Clouds 2 995 74 10000 1 0 08:24 02.03.2020
1696 Clouds 1 995 76 10000 1 0 07:54 02.03.2020
1697 Clouds 1 996 76 10000 1 0 07:36 02.03.2020
1698 Clouds 0 996 86 10000 1 0 06:57 02.03.2020
1699 Clouds 0 997 80 10000 1.5 0 06:35 02.03.2020
1700 Clouds 1 999 86 10000 2.1 0 05:29 02.03.2020
1701 Clouds 2 1000 86 10000 1 0 03:59 02.03.2020
1702 Clouds 3 1001 86 10000 1.5 0 03:19 02.03.2020
1703 Clouds 3 1001 75 10000 1.5 210 02:36 02.03.2020
1704 Clouds 4 1001 93 10000 2.1 260 01:41 02.03.2020
1705 Clouds 4 1002 93 10000 3.6 280 01:22 02.03.2020
1706 Snow 4 1000 86 10000 8.7 250 00:23 02.03.2020
1707 Clouds 4 1002 95 10000 4.1 260 23:56 01.03.2020
1708 Clouds 4 1002 95 10000 4.1 260 23:56 01.03.2020
1709 Clouds 4 1002 95 10000 4.1 260 23:37 01.03.2020
1710 Clouds 5 1002 96 10000 4.1 240 23:18 01.03.2020
1711 Rain 5 1001 61 10000 4.1 230 22:38 01.03.2020
1712 Rain 4 1000 61 10000 7.7 250 22:19 01.03.2020
1713 Rain 4 1000 70 10000 6.2 240 21:43 01.03.2020
1714 Rain 5 1000 81 10000 7.7 240 21:25 01.03.2020
1715 Snow 5 996 80 10000 2.1 180 20:59 01.03.2020
1716 Clouds 6 997 61 10000 1.5 210 20:41 01.03.2020
1717 Clouds 6 997 70 10000 3.6 280 20:22 01.03.2020
1718 Clouds 6 997 61 10000 1.5 190 19:42 01.03.2020
1719 Snow 7 997 66 10000 0.5 0 19:23 01.03.2020
1720 Snow 7 997 66 10000 1 0 18:58 01.03.2020
1721 Snow 7 997 66 10000 1 0 18:39 01.03.2020
1722 Snow 7 997 53 10000 1.5 100 18:19 01.03.2020
1723 Snow 8 997 53 10000 1.5 100 17:57 01.03.2020
1724 Snow 8 997 53 10000 1.5 100 17:38 01.03.2020
1725 Clouds 10 998 50 10000 2.1 80 17:20 01.03.2020
1726 Clouds 10 998 43 10000 1 0 16:55 01.03.2020
1727 Clouds 10 999 50 10000 1 0 16:36 01.03.2020
1728 Clouds 10 999 50 10000 1 0 16:18 01.03.2020
1729 Clouds 11 999 50 10000 2.6 50 15:56 01.03.2020
1730 Clouds 10 999 90 10000 6.2 250 15:37 01.03.2020
1731 Clouds 10 999 53 10000 2.6 50 15:18 01.03.2020
1732 Clouds 10 1000 57 10000 3.1 30 14:55 01.03.2020
1733 Clouds 11 1000 66 10000 3.1 30 14:36 01.03.2020
1734 Snow 11 1000 66 10000 3.1 30 14:18 01.03.2020
1735 Snow 10 1001 62 10000 2.6 50 13:43 01.03.2020
1736 Snow 10 1001 62 10000 3.6 40 13:21 01.03.2020
1737 Snow 9 1002 57 10000 2.1 10 12:59 01.03.2020
1738 Snow 10 1002 57 10000 2.1 10 12:40 01.03.2020
1739 Snow 10 1002 62 10000 3.1 30 12:20 01.03.2020
1740 Snow 9 1003 61 10000 2.1 70 11:41 01.03.2020
1741 Snow 8 1003 71 10000 2.1 70 11:22 01.03.2020
1742 Snow 7 1004 81 10000 2.1 90 10:57 01.03.2020
1743 Snow 7 1004 81 10000 2.1 90 10:38 01.03.2020
1744 Snow 6 1004 81 10000 2.1 90 10:19 01.03.2020
1745 Clouds 5 1005 93 10000 1 0 09:46 01.03.2020
1746 Clouds 5 1005 93 10000 1 0 09:46 01.03.2020
1747 Clouds 5 1005 81 10000 1 0 09:27 01.03.2020
1748 Clouds 5 1005 75 10000 1 0 08:57 01.03.2020
1749 Clouds 4 1005 75 10000 1 0 08:38 01.03.2020
1750 Rain 4 1005 75 10000 1.5 0 08:19 01.03.2020
1751 Clouds 3 1005 81 10000 3.1 280 07:42 01.03.2020
1752 Clouds 3 1005 81 10000 2.6 120 07:23 01.03.2020
1753 Clouds 3 1005 81 10000 1 0 06:51 01.03.2020
1754 Clouds 3 1005 81 10000 1.5 0 06:29 01.03.2020
1755 Rain 4 1006 81 10000 3.6 250 04:19 01.03.2020
1756 Rain 4 1006 87 10000 2.1 290 02:29 01.03.2020
1757 Rain 4 1006 87 10000 1.5 0 01:53 01.03.2020
1758 Rain 4 1006 87 10000 2.1 230 01:22 01.03.2020
1759 Rain 4 1006 93 9000 5.1 280 00:43 01.03.2020
1760 -273 0 0 0 0 0 00:21 01.03.2020
1761 Rain 5 1006 93 10000 5.1 270 23:49 29.02.2020
1762 Rain 5 1006 93 10000 5.1 270 23:49 29.02.2020
1763 Rain 6 1005 87 10000 5.1 290 23:30 29.02.2020
1764 Rain 6 1004 66 10000 6.2 200 22:44 29.02.2020
1765 Rain 6 1004 70 10000 5.1 220 22:24 29.02.2020
1766 Clouds 6 1005 81 10000 4.1 280 21:42 29.02.2020
1767 Rain 6 1005 70 10000 6.2 270 21:24 29.02.2020
1768 Clouds 8 1004 61 10000 7.2 270 20:43 29.02.2020
1769 Clouds 8 1002 40 10000 4.1 260 20:22 29.02.2020
1770 Clouds 8 1001 35 10000 8.2 200 19:57 29.02.2020
1771 Clouds 8 1001 35 10000 8.2 200 19:38 29.02.2020
1772 Clouds 8 1000 32 10000 8.2 190 19:19 29.02.2020
1773 Clouds 8 1000 30 10000 7.2 190 18:43 29.02.2020
1774 Clouds 8 999 30 10000 7.7 190 18:25 29.02.2020
1775 Clouds 8 999 28 10000 10.8 170 17:58 29.02.2020
1776 Clouds 9 999 28 10000 10.8 170 17:40 29.02.2020
1777 Clouds 11 999 28 10000 10.8 170 17:21 29.02.2020
1778 Clouds 11 999 28 10000 7.7 210 16:45 29.02.2020
1779 Clouds 11 999 28 10000 7.7 210 16:22 29.02.2020
1780 Clouds 11 999 28 10000 7.7 210 16:22 29.02.2020
1781 Clouds 11 1000 54 10000 2.1 0 15:59 29.02.2020
1782 Clouds 11 1000 53 10000 3.6 350 15:41 29.02.2020
1783 Clouds 11 1000 53 10000 3.6 350 15:21 29.02.2020
1784 Clouds 11 1002 61 10000 0.5 0 14:42 29.02.2020
1785 Clouds 11 1002 61 10000 0.5 0 14:42 29.02.2020
1786 Clouds 11 1002 61 10000 0.5 0 14:23 29.02.2020
1787 Clouds 11 1002 66 10000 2.6 320 13:56 29.02.2020
1788 Clouds 10 1002 70 10000 3.6 310 13:37 29.02.2020
1789 Clouds 10 1002 70 10000 3.6 310 13:18 29.02.2020
1790 Clouds 11 1002 70 10000 5.7 300 12:42 29.02.2020
1791 Clouds 11 1002 70 10000 3.6 290 12:21 29.02.2020
1792 Clouds 11 1003 65 10000 4.1 290 11:56 29.02.2020
1793 Clouds 10 1003 65 10000 4.1 290 11:38 29.02.2020
1794 Clouds 9 1003 65 10000 4.1 290 11:20 29.02.2020
1795 Clouds 9 1003 70 10000 8.2 290 10:44 29.02.2020
1796 Clouds 8 1003 70 10000 8.2 290 10:26 29.02.2020
1797 Clouds 8 1003 28 10000 6.2 210 09:47 29.02.2020
1798 Clouds 7 1004 61 10000 2.6 280 09:23 29.02.2020
1799 Clouds 6 1004 61 10000 2.6 290 08:42 29.02.2020
1800 Clouds 5 1006 75 10000 4.6 280 08:22 29.02.2020
1801 Clouds 5 1006 75 10000 4.6 280 07:57 29.02.2020
1802 Clouds 5 1006 75 10000 4.6 280 07:39 29.02.2020
1803 Rain 4 1007 81 10000 1 0 07:18 29.02.2020
1804 Rain 4 1007 65 10000 2.6 230 06:42 29.02.2020
1805 Rain 4 1007 60 10000 2.1 90 06:22 29.02.2020
1806 Rain 5 1009 60 10000 3.1 120 05:46 29.02.2020
1807 Clouds 4 1009 66 10000 3.1 100 04:46 29.02.2020
1808 Clouds 4 1010 80 10000 1 0 03:40 29.02.2020
1809 Clouds 4 1011 66 10000 1 270 03:21 29.02.2020
1810 Clouds 4 1010 64 10000 4.1 200 02:37 29.02.2020
1811 Clouds 3 1013 63 10000 2.6 260 00:59 29.02.2020
1812 Clouds 4 1013 45 10000 1 0 00:37 29.02.2020
1813 Clouds 3 1014 60 10000 2.6 110 23:46 28.02.2020
1814 Clouds 3 1014 63 10000 1 0 23:25 28.02.2020
1815 Clouds 2 1015 60 10000 0.5 0 22:55 28.02.2020
1816 Clouds 2 1015 65 10000 1.5 0 22:36 28.02.2020
1817 Clouds 2 1015 65 10000 1.5 0 22:18 28.02.2020
1818 Clouds 2 1015 52 10000 3.1 0 21:41 28.02.2020
1819 Clouds 2 1016 60 10000 2.1 0 21:21 28.02.2020
1820 Clouds 2 1016 60 10000 1.5 0 20:41 28.02.2020
1821 Clouds 1 1016 64 10000 3.1 140 20:23 28.02.2020
1822 Clouds 1 1016 69 10000 2.6 130 19:59 28.02.2020
1823 Clouds 1 1016 69 10000 2.6 130 19:39 28.02.2020
1824 Clouds 1 1016 72 10000 2.1 150 19:21 28.02.2020
1825 -273 0 0 0 0 0 18:58 28.02.2020
1826 Clouds 1 1017 31 10000 2.6 0 18:39 28.02.2020
1827 Clouds 2 1017 31 10000 2.6 0 18:21 28.02.2020
1828 Clouds 3 1018 33 10000 2.6 230 17:41 28.02.2020
1829 Clear 4 1018 28 10000 2.6 180 17:22 28.02.2020
1830 Clear 4 1018 31 10000 2.6 180 16:47 28.02.2020
1831 Clear 4 1018 31 10000 2.6 180 16:21 28.02.2020
1832 Clear 4 1019 31 10000 2.6 210 15:59 28.02.2020
1833 Clear 5 1019 31 10000 2.6 210 15:41 28.02.2020
1834 Clear 4 1019 36 10000 2.6 210 15:20 28.02.2020
1835 Clear 5 1020 36 10000 2.1 0 14:57 28.02.2020
1836 Clear 5 1020 36 10000 2.1 0 14:39 28.02.2020
1837 Clouds 4 1020 36 10000 2.6 250 14:19 28.02.2020
1838 Clouds 4 1021 42 10000 5.7 180 13:54 28.02.2020
1839 Clouds 3 1021 45 10000 5.7 180 13:36 28.02.2020
1840 Clouds 4 1021 45 10000 5.7 180 13:18 28.02.2020
1841 Clouds 3 1022 45 10000 3.1 270 12:41 28.02.2020
1842 Clouds 3 1022 52 10000 5.1 260 12:22 28.02.2020
1843 Clouds 3 1022 52 10000 5.1 260 11:42 28.02.2020
1844 Clouds 2 1022 56 10000 4.1 250 11:24 28.02.2020
1845 Clouds 2 1022 52 10000 4.1 250 10:58 28.02.2020
1846 Clouds 2 1022 55 10000 4.1 250 10:39 28.02.2020
1847 Clouds 1 1022 55 10000 4.1 250 10:19 28.02.2020
1848 Clouds 1 1022 60 10000 4.1 250 09:44 28.02.2020
1849 Snow 1 1022 64 10000 2.6 250 09:21 28.02.2020
1850 Snow 1 1021 69 10000 3.1 260 08:55 28.02.2020
1851 Snow 0 1021 69 10000 3.1 260 08:36 28.02.2020
1852 Snow 0 1021 69 10000 3.1 260 08:18 28.02.2020
1853 Snow 0 1021 74 10000 3.1 260 07:39 28.02.2020
1854 Clouds 0 1020 69 10000 4.1 260 07:19 28.02.2020
1855 Clouds -1 1019 69 10000 4.1 260 06:41 28.02.2020
1856 Snow 0 1016 96 10000 8.7 280 05:37 28.02.2020
1857 Snow 0 1017 96 10000 7.7 270 04:33 28.02.2020
1858 Snow 0 1015 93 10000 7.2 270 03:43 28.02.2020
1859 Snow 0 1014 96 10000 7.2 270 02:45 28.02.2020
1860 Snow 0 1013 96 10000 6.7 260 02:20 28.02.2020
1861 Snow 1 1010 96 10000 7.7 260 00:36 28.02.2020
1862 Rain 1 1009 80 10000 7.7 270 23:58 27.02.2020
1863 Rain 1 1008 86 10000 8.2 270 23:38 27.02.2020
1864 Rain 1 1008 86 10000 8.2 270 23:18 27.02.2020
1865 Clouds 1 1002 86 10000 15.4 250 22:40 27.02.2020
1866 Rain 2 1006 94 10000 10.3 260 22:22 27.02.2020
1867 Rain 2 1004 94 10000 10.8 270 21:55 27.02.2020
1868 Thunderstorm 2 995 69 8000 23.1 280 21:37 27.02.2020
1869 Thunderstorm 2 995 69 8000 23.1 280 21:18 27.02.2020
1870 Clouds 3 1001 75 10000 10.8 260 20:43 27.02.2020
1871 Rain 3 992 86 2000 21.6 270 20:23 27.02.2020
1872 Rain 3 991 80 10000 16.5 260 19:59 27.02.2020
1873 Rain 3 991 80 10000 16.5 260 19:41 27.02.2020
1874 Rain 3 995 81 10000 5.7 240 19:23 27.02.2020
1875 Rain 3 991 78 10000 2.6 230 18:57 27.02.2020
1876 Rain 2 995 93 10000 6.7 190 18:39 27.02.2020
1877 Snow 2 992 78 2000 1 220 18:20 27.02.2020
1878 Rain 2 995 80 8000 2.6 0 17:56 27.02.2020
1879 Rain 1 996 93 4000 4.6 330 17:37 27.02.2020
1880 Rain 1 996 93 4000 4.6 330 17:18 27.02.2020
1881 Rain 2 996 93 4000 4.6 330 16:41 27.02.2020
1882 Rain 1 997 100 3000 3.1 300 16:20 27.02.2020
1883 Rain 1 995 80 300 1.5 0 15:59 27.02.2020
1884 Snow 1 998 80 4000 5.1 270 15:38 27.02.2020
1885 Snow 2 997 74 2000 3.1 240 15:20 27.02.2020
1886 Rain 2 997 56 10000 6.2 160 14:59 27.02.2020
1887 Rain 2 997 56 10000 6.2 160 14:39 27.02.2020
1888 Rain 3 999 41 10000 2.1 0 14:20 27.02.2020
1889 Clouds 4 1000 38 10000 5.7 130 13:43 27.02.2020
1890 Clouds 3 1002 35 10000 7.7 160 13:22 27.02.2020
1891 Clouds 4 1003 35 10000 4.1 0 12:56 27.02.2020
1892 Clouds 4 1003 35 10000 4.1 0 12:38 27.02.2020
1893 Clouds 4 1005 44 10000 3.1 170 12:18 27.02.2020
1894 Clouds 3 1005 41 10000 4.6 170 11:42 27.02.2020
1895 Clouds 3 1006 41 10000 5.1 160 11:22 27.02.2020
1896 Clouds 2 1006 59 10000 2.6 220 10:45 27.02.2020
1897 Clouds 2 1009 55 10000 4.1 160 10:24 27.02.2020
1898 Clouds 1 1009 55 10000 2.6 0 09:50 27.02.2020
1899 Clouds 1 1009 59 10000 3.6 170 09:30 27.02.2020
1900 Clouds 0 1010 80 10000 2.1 110 08:59 27.02.2020
1901 Clouds 0 1011 74 10000 1.5 110 08:41 27.02.2020
1902 Clouds 0 1011 74 10000 1.5 110 08:22 27.02.2020
1903 Snow -1 1008 92 8000 6.2 250 07:45 27.02.2020
1904 Snow -1 1008 86 4000 7.7 270 07:25 27.02.2020
1905 Clouds -1 1011 64 10000 2.6 230 06:48 27.02.2020
1906 Clouds 0 1011 64 10000 4.1 210 05:48 27.02.2020
1907 Clouds 0 1011 64 10000 2.6 250 03:42 27.02.2020
1908 Clouds -1 1012 69 10000 1.5 240 02:22 27.02.2020
1909 Clouds -1 1012 74 10000 3.1 270 00:46 27.02.2020
1910 Clouds -1 1011 74 10000 5.1 260 00:26 27.02.2020
1911 Snow -1 1011 86 10000 5.1 250 23:40 26.02.2020
1912 Snow 0 1011 64 10000 3.1 260 23:19 26.02.2020
1913 Snow 0 1010 64 10000 5.1 250 22:57 26.02.2020
1914 Snow -1 1010 64 10000 5.1 250 22:39 26.02.2020
1915 Clouds 0 1008 96 10000 7.7 240 22:39 26.02.2020
1916 Clouds 0 1010 64 10000 4.1 250 22:20 26.02.2020
1917 Clouds 0 1010 64 10000 3.1 230 21:56 26.02.2020
1918 Snow 0 1007 86 3500 7.7 270 21:36 26.02.2020
1919 Snow 0 1007 86 3500 7.7 270 21:18 26.02.2020
1920 Snow -1 1006 86 3000 9.3 270 20:54 26.02.2020
1921 Snow -1 1009 74 10000 5.1 260 20:36 26.02.2020
1922 Snow -1 1009 74 10000 5.1 260 20:18 26.02.2020
1923 Snow -1 1009 74 10000 5.1 260 19:45 26.02.2020
1924 Snow -1 1008 86 10000 5.7 260 19:20 26.02.2020
1925 Snow -1 1005 86 8000 5.7 270 18:58 26.02.2020
1926 Snow -1 1005 86 8000 5.7 270 18:58 26.02.2020
1927 Snow -1 1005 86 8000 5.7 270 18:40 26.02.2020
1928 Snow -1 1004 80 4500 7.2 270 18:22 26.02.2020
1929 Snow -1 1004 92 3000 8.2 270 17:42 26.02.2020
1930 Snow -1 1004 92 3000 8.2 270 17:42 26.02.2020
1931 Snow 0 1003 86 4000 8.2 270 17:24 26.02.2020
1932 Snow 0 1003 80 800 10.3 270 16:59 26.02.2020
1933 Snow 0 1003 80 800 10.3 270 16:41 26.02.2020
1934 Rain 1 1005 56 10000 6.2 240 16:22 26.02.2020
1935 Rain 1 1004 56 10000 7.7 250 15:48 26.02.2020
1936 Rain 1 1002 80 10000 13.9 270 15:29 26.02.2020
1937 Snow 0 1002 86 2000 12.9 270 14:59 26.02.2020
1938 Rain 1 1005 56 10000 7.2 250 14:41 26.02.2020
1939 Snow 1 1001 69 5000 17.5 280 14:22 26.02.2020
1940 Rain 1 1004 69 10000 6.7 260 13:43 26.02.2020
1941 Snow 1 1000 83 1200 13.4 260 13:22 26.02.2020
1942 Snow 1 1000 83 2500 8.7 270 12:42 26.02.2020
1943 Snow 1 999 83 5000 8.7 270 12:22 26.02.2020
1944 Snow 1 999 80 1500 8.7 280 11:59 26.02.2020
1945 Snow 1 999 80 1500 8.7 280 11:40 26.02.2020
1946 Snow 1 1002 93 10000 2.1 260 11:21 26.02.2020
1947 Snow 2 1002 93 10000 2.1 260 10:43 26.02.2020
1948 Snow 2 1002 77 10000 4.6 300 10:24 26.02.2020
1949 Rain 1 1002 77 10000 3.6 300 09:57 26.02.2020
1950 Rain 2 1002 77 10000 3.6 300 09:39 26.02.2020
1951 Rain 1 1002 77 10000 2.6 290 09:21 26.02.2020
1952 Clouds 1 1000 77 10000 10.8 270 08:39 26.02.2020
1953 Clouds 1 1000 95 10000 10.8 270 08:20 26.02.2020
1954 Snow 0 1000 95 3500 10.8 270 07:51 26.02.2020
1955 Clouds 1 1004 64 10000 4.6 250 07:30 26.02.2020
1956 Clouds 1 1004 64 10000 4.6 250 06:58 26.02.2020
1957 Clouds 1 1004 64 10000 4.6 250 06:39 26.02.2020
1958 Snow 1 1004 74 10000 3.6 260 06:18 26.02.2020
1959 Snow 1 999 95 9000 13.9 260 05:47 26.02.2020
1960 Snow 1 1004 97 5000 9.3 270 04:58 26.02.2020
1961 Snow 2 998 80 10000 8.7 230 02:56 26.02.2020
1962 Rain 4 1002 75 10000 3.6 240 01:56 26.02.2020
1963 Rain 3 1002 81 10000 3.1 250 01:24 26.02.2020
1964 Rain 3 1002 70 10000 6.7 230 00:29 26.02.2020
1965 Rain 3 1002 81 10000 5.1 250 23:59 25.02.2020
1966 Rain 3 1002 81 10000 5.1 250 23:41 25.02.2020
1967 Rain 3 1003 86 10000 6.7 220 23:21 25.02.2020
1968 Rain 3 1003 86 10000 6.7 220 23:21 25.02.2020
1969 Rain 4 1004 86 7000 7.2 260 22:43 25.02.2020
1970 Rain 5 1004 93 3500 12.3 270 22:20 25.02.2020
1971 Clouds 5 1003 87 10000 1 0 21:58 25.02.2020
1972 Clouds 6 1001 81 10000 8.2 230 21:37 25.02.2020
1973 Rain 5 1003 75 10000 2.1 0 21:19 25.02.2020
1974 Rain 6 1004 75 10000 2.6 320 20:56 25.02.2020
1975 Rain 6 1004 70 10000 3.6 270 20:37 25.02.2020
1976 Rain 6 1004 70 10000 3.6 270 20:37 25.02.2020
1977 Rain 6 1004 70 10000 3.6 270 20:19 25.02.2020
1978 Clouds 6 1004 61 10000 4.6 210 19:43 25.02.2020
1979 Rain 7 1004 76 10000 0.5 0 19:22 25.02.2020
1980 Rain 7 1004 76 10000 0.5 0 18:58 25.02.2020
1981 Rain 7 1004 76 10000 0.5 0 18:39 25.02.2020
1982 Rain 7 1005 70 10000 2.6 270 18:20 25.02.2020
1983 Clouds 7 1005 66 10000 5.7 270 17:55 25.02.2020
1984 Clouds 7 1005 66 10000 5.7 270 17:36 25.02.2020
1985 Clouds 7 1005 66 10000 5.7 270 17:18 25.02.2020
1986 Clouds 8 1005 66 10000 9.3 290 16:42 25.02.2020
1987 Clouds 8 1005 66 10000 9.3 290 16:22 25.02.2020
1988 Clouds 8 1005 66 10000 9.3 290 16:22 25.02.2020
1989 Clouds 8 1006 71 10000 8.2 290 15:59 25.02.2020
1990 Clouds 8 1006 71 10000 8.2 290 15:41 25.02.2020
1991 Clouds 9 1006 71 10000 8.2 290 15:20 25.02.2020
1992 Clouds 9 1006 62 10000 6.7 290 14:58 25.02.2020
1993 Clouds 9 1006 62 10000 6.7 290 14:38 25.02.2020
1994 Clouds 10 1006 62 10000 6.7 290 14:18 25.02.2020
1995 Clouds 10 1007 57 10000 5.1 280 13:57 25.02.2020
1996 Clouds 10 1007 57 10000 5.1 280 13:38 25.02.2020
1997 Clouds 10 1007 57 10000 5.1 280 13:20 25.02.2020
1998 Clouds 10 1007 57 10000 5.1 280 13:20 25.02.2020
1999 Clouds 10 1007 61 10000 2.1 70 12:42 25.02.2020
2000 Clouds 10 1007 66 10000 2.1 70 12:23 25.02.2020
2001 Clouds 10 1007 70 10000 1.5 0 11:59 25.02.2020
2002 Clouds 10 1007 70 10000 1.5 0 11:41 25.02.2020
2003 Clouds 9 1008 66 10000 1 0 11:19 25.02.2020
2004 Clouds 9 1008 66 10000 1 0 10:59 25.02.2020
2005 Clouds 9 1005 42 10000 12.9 280 10:40 25.02.2020
2006 Clouds 9 1005 42 10000 12.9 280 10:22 25.02.2020
2007 Clouds 8 1009 81 10000 0.5 0 09:42 25.02.2020
2008 Clouds 8 1009 80 10000 1 0 09:22 25.02.2020
2009 Clouds 7 1009 80 10000 1 0 08:54 25.02.2020
2010 Clouds 7 1009 81 10000 2.1 90 08:36 25.02.2020
2011 Clouds 7 1009 81 10000 2.1 90 08:18 25.02.2020
2012 Clouds 7 1009 81 10000 2.1 90 07:39 25.02.2020
2013 Clouds 7 1009 70 10000 1.5 0 07:19 25.02.2020
2014 Clouds 7 1009 81 10000 1 0 06:32 25.02.2020
2015 Clouds 7 1009 75 10000 2.1 100 05:27 25.02.2020
2016 Clouds 7 1010 65 10000 1.5 90 03:30 25.02.2020
2017 Clear 8 1012 53 10000 0.5 0 01:32 25.02.2020
2018 Clear 8 1013 54 10000 1.5 0 00:43 25.02.2020
2019 Clear 8 1013 70 10000 2.1 230 00:25 25.02.2020
2020 Clear 9 1014 81 10000 1 0 23:42 24.02.2020
2021 Clear 9 1014 75 10000 2.1 110 23:20 24.02.2020
2022 Clear 9 1014 75 10000 1.5 220 22:41 24.02.2020
2023 Clear 9 1014 47 10000 1.5 0 22:20 24.02.2020
2024 Clear 9 1013 81 10000 6.2 220 21:57 24.02.2020
2025 Clear 9 1013 81 10000 6.2 220 21:39 24.02.2020
2026 Clear 9 1014 87 10000 1.5 260 21:19 24.02.2020
2027 Clear 9 1015 93 10000 1 0 20:58 24.02.2020
2028 Clear 9 1015 93 10000 1 0 20:39 24.02.2020
2029 Clouds 10 1015 93 10000 1 0 20:19 24.02.2020
2030 Clouds 10 1015 87 10000 1 130 19:56 24.02.2020
2031 Clouds 10 1015 87 10000 1 130 19:37 24.02.2020
2032 Clouds 11 1015 87 10000 1 130 19:19 24.02.2020
2033 Clouds 10 1015 81 10000 1 190 18:42 24.02.2020
2034 Clouds 11 1015 71 10000 1.5 250 18:24 24.02.2020
2035 Clouds 12 1015 71 10000 3.6 320 17:57 24.02.2020
2036 Clouds 12 1015 71 10000 3.6 320 17:39 24.02.2020
2037 Clear 13 1016 67 10000 1 0 17:19 24.02.2020
2038 Clear 13 1016 67 10000 1 0 16:55 24.02.2020
2039 Clouds 14 1017 67 10000 1.5 0 16:37 24.02.2020
2040 Clouds 14 1017 67 10000 1.5 0 16:19 24.02.2020
2041 Clear 15 1017 67 10000 1 0 15:57 24.02.2020
2042 Clouds 14 1018 67 10000 1 0 15:38 24.02.2020
2043 Clouds 14 1018 67 10000 1 0 15:20 24.02.2020
2044 Clouds 14 1019 76 10000 2.1 50 14:42 24.02.2020
2045 Clouds 14 1019 82 10000 2.1 50 14:23 24.02.2020
2046 Clouds 13 1020 82 10000 1.5 0 13:59 24.02.2020
2047 Clouds 13 1020 82 10000 1.5 0 13:41 24.02.2020
2048 Clouds 13 1021 82 10000 1.5 0 13:23 24.02.2020
2049 Clouds 12 1022 81 10000 2.1 50 12:58 24.02.2020
2050 Clouds 12 1022 81 10000 2.1 50 12:40 24.02.2020
2051 Clouds 11 1022 81 10000 2.1 50 12:22 24.02.2020
2052 Clouds 10 1022 93 10000 2.1 100 11:48 24.02.2020
2053 Clouds 10 1023 93 10000 2.6 70 11:29 24.02.2020
2054 Rain 9 1024 93 10000 1.5 110 10:51 24.02.2020
2055 Rain 9 1024 93 10000 1.5 110 10:31 24.02.2020
2056 Rain 8 1024 93 10000 0.5 0 09:56 24.02.2020
2057 Rain 8 1024 93 10000 0.5 0 09:38 24.02.2020
2058 Rain 7 1024 93 10000 0.5 0 09:19 24.02.2020
2059 Rain 7 1024 93 10000 2.1 130 08:48 24.02.2020
2060 Rain 7 1024 93 10000 2.1 130 08:28 24.02.2020
2061 Rain 7 1025 93 10000 2.6 100 07:52 24.02.2020
2062 Rain 7 1025 93 10000 2.6 100 07:52 24.02.2020
2063 Rain 8 1025 93 10000 2.6 100 07:31 24.02.2020
2064 Rain 8 1025 100 10000 3.1 110 06:48 24.02.2020
2065 Drizzle 8 1024 93 6000 2.6 60 06:22 24.02.2020
2066 Rain 9 1025 76 10000 2.1 360 05:31 24.02.2020
2067 Rain 9 1024 81 10000 1.5 70 04:49 24.02.2020
2068 Clouds 10 1025 54 10000 5.7 280 02:57 24.02.2020
2069 Clouds 12 1024 51 10000 5.7 270 01:52 24.02.2020
2070 Clouds 12 1024 51 10000 6.2 270 01:28 24.02.2020
2071 Clouds 12 1024 48 10000 6.7 270 00:37 24.02.2020
2072 Clouds 12 1024 48 10000 6.7 270 00:19 24.02.2020
2073 Clouds 12 1024 48 10000 7.2 260 23:42 23.02.2020
2074 Clouds 13 1024 48 10000 6.7 260 23:20 23.02.2020
2075 Clouds 13 1023 44 10000 7.2 270 22:57 23.02.2020
2076 Clouds 13 1023 44 10000 7.2 270 22:39 23.02.2020
2077 Clouds 12 1023 44 10000 7.2 270 22:19 23.02.2020
2078 Clouds 13 1023 44 10000 6.7 270 21:46 23.02.2020
2079 Clouds 14 1023 44 10000 6.7 270 21:46 23.02.2020
2080 Clouds 14 1023 44 10000 6.7 270 21:46 23.02.2020
2081 Clouds 12 1023 47 10000 6.2 270 21:20 23.02.2020
2082 Clouds 13 1023 39 10000 6.2 260 20:57 23.02.2020
2083 Clouds 13 1023 39 10000 6.2 260 20:57 23.02.2020
2084 Clouds 13 1020 58 10000 13.4 240 20:39 23.02.2020
2085 Clouds 13 1023 39 10000 6.2 260 20:20 23.02.2020
2086 Clouds 13 1023 42 10000 6.2 260 19:58 23.02.2020
2087 Clouds 13 1023 42 10000 6.2 260 19:39 23.02.2020
2088 Clouds 13 1023 42 10000 7.7 260 19:19 23.02.2020
2089 Clouds 13 1023 42 10000 4.1 280 18:57 23.02.2020
2090 Clouds 13 1019 54 10000 13.9 230 18:37 23.02.2020
2091 Clouds 14 1023 51 10000 1 0 18:18 23.02.2020
2092 Clouds 13 1019 58 10000 14.9 230 17:56 23.02.2020
2093 Clouds 14 1019 58 10000 14.9 230 17:37 23.02.2020
2094 Clouds 14 1022 44 10000 3.6 260 17:19 23.02.2020
2095 Rain 13 1020 54 10000 11.8 230 16:46 23.02.2020
2096 Rain 13 1020 54 10000 12.3 230 16:27 23.02.2020
2097 Rain 13 1020 54 10000 12.3 230 15:58 23.02.2020
2098 Rain 13 1020 54 10000 12.3 230 15:38 23.02.2020
2099 Rain 13 1020 54 10000 11.3 230 15:20 23.02.2020
2100 Clouds 13 1023 44 10000 1.5 210 14:58 23.02.2020
2101 Rain 13 1021 53 10000 12.3 230 14:40 23.02.2020
2102 Rain 12 1025 81 7000 2.1 10 14:21 23.02.2020
2103 Rain 12 1021 53 10000 12.3 230 13:57 23.02.2020
2104 Rain 11 1021 53 10000 12.3 230 13:38 23.02.2020
2105 Rain 11 1026 87 8000 2.6 20 13:20 23.02.2020
2106 Clouds 11 1025 58 10000 1.5 90 12:42 23.02.2020
2107 Clouds 11 1025 58 10000 1.5 90 12:21 23.02.2020
2108 Clouds 11 1026 76 10000 2.1 120 11:55 23.02.2020
2109 Clouds 10 1026 76 10000 2.1 80 11:37 23.02.2020
2110 Clouds 10 1026 76 10000 2.1 80 11:18 23.02.2020
2111 Clouds 9 1027 66 10000 2.6 60 10:42 23.02.2020
2112 Clouds 9 1027 66 10000 2.6 60 10:24 23.02.2020
2113 Drizzle 8 1027 81 10000 3.6 80 09:59 23.02.2020
2114 Rain 8 1024 70 10000 9.3 220 09:39 23.02.2020
2115 Drizzle 7 1027 81 10000 1.5 0 09:21 23.02.2020
2116 Rain 7 1027 81 10000 1.5 170 08:51 23.02.2020
2117 Rain 7 1027 87 10000 1.5 120 08:30 23.02.2020
2118 Rain 6 1027 65 10000 4.1 80 07:54 23.02.2020
2119 Rain 6 1028 70 10000 1.5 90 07:35 23.02.2020
2120 Rain 7 1028 75 10000 2.6 110 06:39 23.02.2020
2121 Clouds 7 1029 87 10000 2.1 90 05:47 23.02.2020
2122 Clouds 7 1028 87 10000 1 120 04:35 23.02.2020
2123 Clouds 7 1028 87 10000 1 120 04:35 23.02.2020
2124 Clouds 8 1028 81 10000 1 0 02:59 23.02.2020
2125 Clouds 8 1028 81 10000 1 0 02:59 23.02.2020
2126 Clouds 8 1029 81 10000 0.5 0 02:26 23.02.2020
2127 Clouds 9 1029 75 10000 1 0 01:24 23.02.2020
2128 Clouds 8 1029 81 10000 1.5 0 00:46 23.02.2020
2129 Clouds 8 1029 81 10000 1 0 00:24 23.02.2020
2130 Clouds 8 1029 86 10000 1 0 23:45 22.02.2020
2131 Clouds 8 1029 81 10000 1 0 23:26 22.02.2020
2132 Clouds 9 1029 81 10000 1 80 22:56 22.02.2020
2133 Clouds 9 1029 65 10000 1.5 0 22:36 22.02.2020
2134 Clouds 9 1029 65 10000 1.5 0 22:18 22.02.2020
2135 Clouds 9 1029 70 10000 1.5 0 21:40 22.02.2020
2136 Clouds 9 1029 61 10000 2.1 180 21:21 22.02.2020
2137 Clouds 9 1029 75 10000 1 0 20:44 22.02.2020
2138 Clouds 9 1029 87 10000 2.89 210 20:24 22.02.2020
2139 Clouds 9 1029 81 10000 2.89 207 19:55 22.02.2020
2140 Clouds 9 1028 81 10000 0.5 0 19:37 22.02.2020
2141 Clouds 9 1028 81 10000 0.5 0 19:18 22.02.2020
2142 Clouds 9 1028 70 10000 1.5 290 18:39 22.02.2020
2143 Clouds 10 1028 70 10000 1.5 290 18:21 22.02.2020
2144 Clouds 10 1028 70 10000 1.5 290 18:21 22.02.2020
2145 Clouds 10 1027 57 10000 2.89 207 17:57 22.02.2020
2146 Clouds 10 1027 57 10000 2.89 207 17:57 22.02.2020
2147 Clouds 10 1026 62 10000 7.7 230 17:37 22.02.2020
2148 Clouds 11 1027 57 10000 1.62 243 17:19 22.02.2020
2149 Clouds 12 1027 57 10000 1 0 16:56 22.02.2020
2150 Clouds 12 1027 57 10000 1 0 16:38 22.02.2020
2151 Clouds 13 1027 54 10000 0.5 0 16:19 22.02.2020
2152 Clouds 13 1027 53 10000 2.1 360 15:42 22.02.2020
2153 Clouds 12 1027 46 10000 4.1 80 15:22 22.02.2020
2154 Clouds 12 1028 57 10000 3.6 100 14:43 22.02.2020
2155 Clouds 12 1029 61 10000 3.1 110 14:22 22.02.2020
2156 Clouds 12 1028 50 10000 7.7 230 13:56 22.02.2020
2157 Clouds 11 1028 50 10000 7.7 230 13:38 22.02.2020
2158 Clouds 11 1030 37 10000 2.1 20 13:18 22.02.2020
2159 Clouds 11 1029 52 10000 7.7 240 12:41 22.02.2020
2160 Clouds 11 1030 70 10000 0.5 0 12:23 22.02.2020
2161 Clouds 10 1030 81 10000 2.1 280 11:44 22.02.2020
2162 Clouds 9 1031 80 10000 3.1 340 11:26 22.02.2020
2163 Clouds 8 1030 80 10000 1 0 10:56 22.02.2020
2164 Clouds 8 1030 80 10000 1 0 10:38 22.02.2020
2165 Clouds 7 1030 80 10000 1 0 10:19 22.02.2020
2166 Clouds 6 1030 86 10000 0.5 0 09:56 22.02.2020
2167 Clouds 5 1030 86 10000 0.5 0 09:38 22.02.2020
2168 Clouds 4 1030 50 10000 0.5 0 09:19 22.02.2020
2169 Clouds 2 1030 50 10000 0.5 0 08:44 22.02.2020
2170 Clouds 1 1030 50 10000 0.5 0 08:26 22.02.2020
2171 Clouds 0 1030 50 10000 0.5 0 07:43 22.02.2020
2172 Clouds 0 1030 50 10000 1.5 210 07:19 22.02.2020
2173 Clouds 0 1030 50 10000 1 200 06:46 22.02.2020
2174 Clouds 1 1030 50 10000 1 230 05:54 22.02.2020
2175 Clouds 1 1029 47 10000 1 140 04:29 22.02.2020
2176 Clouds 2 1030 86 10000 1 0 02:44 22.02.2020
2177 Clouds 2 1031 74 10000 1.5 120 01:57 22.02.2020
2178 Clouds 2 1031 74 10000 1.5 120 01:39 22.02.2020
2179 Clouds 2 1031 50 10000 1 0 01:21 22.02.2020
2180 Clouds 3 1031 50 10000 0.5 0 00:39 22.02.2020
2181 Clouds 2 1031 50 10000 2.1 240 00:19 22.02.2020
2182 Clouds 3 1030 74 10000 0.5 260 23:41 21.02.2020
2183 Clouds 3 1030 74 10000 0.5 260 23:20 21.02.2020
2184 Clouds 2 1030 80 10000 1.5 280 22:42 21.02.2020
2185 Clouds 3 1030 63 10000 1.5 0 22:24 21.02.2020
2186 Clouds 2 1030 63 10000 2.1 120 21:56 21.02.2020
2187 Clouds 3 1031 74 10000 2.1 190 21:37 21.02.2020
2188 Clouds 3 1031 74 10000 2.1 190 21:19 21.02.2020
2189 Clouds 3 1031 74 10000 2.1 190 20:47 21.02.2020
2190 Clouds 4 1030 69 10000 1 0 20:27 21.02.2020
2191 Clouds 4 1030 69 10000 1 0 19:41 21.02.2020
2192 Clouds 4 1030 65 10000 1 220 19:23 21.02.2020
2193 Clouds 4 1030 65 10000 1 220 18:45 21.02.2020
2194 Clouds 4 1030 65 10000 1 220 18:45 21.02.2020
2195 Clouds 4 1029 56 10000 2.1 70 18:25 21.02.2020
2196 Clouds 4 1029 52 10000 2.1 80 17:59 21.02.2020
2197 Clouds 6 1029 52 10000 2.1 80 17:39 21.02.2020
2198 Clouds 6 1030 56 10000 2.1 90 17:20 21.02.2020
2199 Clouds 7 1030 52 10000 1 110 16:57 21.02.2020
2200 Clouds 7 1030 52 10000 1 110 16:39 21.02.2020
2201 Clouds 7 1030 56 10000 2.6 50 16:20 21.02.2020
2202 Clouds 7 1030 49 10000 2.1 50 15:44 21.02.2020
2203 Clouds 7 1030 49 10000 2.1 50 15:19 21.02.2020
2204 Clouds 7 1030 69 10000 1.5 0 14:54 21.02.2020
2205 Clouds 7 1030 69 10000 1.5 0 14:36 21.02.2020
2206 Clouds 7 1030 67 10000 1.5 0 14:18 21.02.2020
2207 Clouds 6 1031 56 10000 2.6 320 13:41 21.02.2020
2208 Clouds 6 1031 60 10000 2.6 320 13:21 21.02.2020
2209 Clouds 6 1031 60 10000 5.1 300 12:46 21.02.2020
2210 Clouds 6 1031 60 10000 5.1 300 12:27 21.02.2020
2211 Clouds 5 1031 70 10000 5.7 290 11:58 21.02.2020
2212 Clouds 6 1031 70 10000 5.7 290 11:38 21.02.2020
2213 Clouds 5 1031 70 10000 5.7 290 11:20 21.02.2020
2214 Clouds 5 1031 70 10000 5.7 290 11:20 21.02.2020
2215 Clouds 4 1031 70 10000 5.1 280 10:42 21.02.2020
2216 Clouds 4 1031 82 10000 4.1 260 10:23 21.02.2020
2217 Clouds 4 1031 82 10000 4.1 260 09:58 21.02.2020
2218 Clouds 3 1031 82 10000 4.1 260 09:40 21.02.2020
2219 Clouds 3 1030 75 10000 4.1 290 09:22 21.02.2020
2220 Clouds 3 1030 75 10000 4.1 290 08:56 21.02.2020
2221 Snow 2 1028 80 10000 2.1 250 08:37 21.02.2020
2222 Clouds 2 1029 75 10000 5.1 300 08:18 21.02.2020
2223 Clouds 2 1028 80 10000 2.6 270 07:43 21.02.2020
2224 Clouds 2 1028 81 10000 1 0 07:22 21.02.2020
2225 Clouds 2 1028 86 10000 2.6 120 06:56 21.02.2020
2226 Clouds 2 1027 81 10000 1.5 230 06:33 21.02.2020
2227 Clouds 3 1026 87 10000 1.5 210 05:58 21.02.2020
2228 Clouds 3 1026 87 10000 1 0 05:31 21.02.2020
2229 Rain 4 1024 81 6000 4.6 270 04:26 21.02.2020
2230 Rain 4 1024 75 10000 5.7 250 03:52 21.02.2020
2231 Rain 5 1023 75 10000 3.1 250 02:59 21.02.2020
2232 Rain 6 1022 66 10000 6.7 260 01:44 21.02.2020
2233 Rain 6 1022 50 10000 4.1 240 01:22 21.02.2020
2234 Clouds 6 1021 53 10000 3.1 230 00:39 21.02.2020
2235 Clouds 6 1022 69 10000 2.1 100 00:20 21.02.2020
2236 Clear 6 1022 69 10000 1 0 23:41 20.02.2020
2237 Clear 5 1021 69 10000 1 0 23:22 20.02.2020
2238 Clear 5 1020 49 10000 2.6 270 22:42 20.02.2020
2239 Clear 4 1020 60 10000 1.5 0 22:24 20.02.2020
2240 Clear 4 1020 60 10000 1.5 0 22:24 20.02.2020
2241 Clear 4 1019 80 10000 1 0 21:58 20.02.2020
2242 Clear 4 1019 80 10000 1 0 21:40 20.02.2020
2243 Clear 4 1019 80 10000 2.14 244 21:20 20.02.2020
2244 Clear 4 1019 80 10000 2.14 244 21:20 20.02.2020
2245 Clear 4 1019 60 10000 2.14 244 20:57 20.02.2020
2246 Clear 4 1019 60 10000 2.14 244 20:39 20.02.2020
2247 Clouds 4 1019 71 10000 1.5 110 20:20 20.02.2020
2248 Clouds 4 1019 75 10000 1.5 110 19:59 20.02.2020
2249 Clouds 4 1019 75 10000 1.5 110 19:41 20.02.2020
2250 Clouds 4 1019 70 10000 1 120 19:23 20.02.2020
2251 Clouds 5 1020 65 10000 1.5 160 18:55 20.02.2020
2252 Clouds 5 1020 65 10000 1 60 18:37 20.02.2020
2253 Clouds 5 1020 65 10000 1 60 18:18 20.02.2020
2254 -273 0 0 0 0 0 17:39 20.02.2020
2255 Clouds 8 1020 57 10000 1 60 17:20 20.02.2020
2256 Clouds 8 1020 57 10000 2.1 80 16:58 20.02.2020
2257 Clouds 8 1021 49 10000 1 0 16:39 20.02.2020
2258 Clouds 8 1021 49 10000 1 0 16:39 20.02.2020
2259 Clouds 9 1021 49 10000 1 0 16:19 20.02.2020
2260 Clouds 9 1021 49 10000 1 0 15:56 20.02.2020
2261 Clouds 9 1019 61 10000 5.7 230 15:37 20.02.2020
2262 Clouds 9 1021 64 10000 1.5 310 15:19 20.02.2020
2263 Clouds 9 1021 64 10000 1.5 310 14:43 20.02.2020
2264 Clouds 9 1022 52 10000 2.1 350 14:25 20.02.2020
2265 Clouds 9 1022 52 10000 2.1 350 13:58 20.02.2020
2266 Clouds 8 1022 52 10000 2.1 350 13:40 20.02.2020
2267 Clouds 8 1023 52 10000 2.6 310 13:19 20.02.2020
2268 Clouds 8 1023 52 10000 1.5 300 12:43 20.02.2020
2269 Clouds 7 1023 51 10000 3.1 300 12:21 20.02.2020
2270 Clouds 7 1023 51 10000 3.1 300 11:59 20.02.2020
2271 Clouds 7 1024 51 10000 2.1 310 11:41 20.02.2020
2272 Clouds 7 1024 51 10000 2.1 310 11:41 20.02.2020
2273 Clouds 6 1024 58 10000 2.1 310 11:22 20.02.2020
2274 Clouds 5 1024 65 10000 2.1 310 10:56 20.02.2020
2275 Clouds 5 1024 70 10000 1 290 10:38 20.02.2020
2276 Clouds 4 1024 70 10000 1 290 10:19 20.02.2020
2277 Clouds 4 1024 75 10000 1 0 09:39 20.02.2020
2278 Clouds 3 1022 64 10000 3.1 210 09:21 20.02.2020
2279 Clouds 3 1024 80 10000 1.5 290 08:44 20.02.2020
2280 Clouds 2 1024 75 10000 0.5 0 08:24 20.02.2020
2281 Clouds 2 1024 80 10000 2.1 280 07:55 20.02.2020
2282 Clouds 2 1023 74 10000 4.6 220 07:37 20.02.2020
2283 Clouds 2 1023 74 10000 4.6 220 07:19 20.02.2020
2284 Clouds 1 1023 74 10000 5.7 220 06:43 20.02.2020
2285 Clouds 1 1023 74 10000 5.1 210 05:58 20.02.2020
2286 Clouds 2 1023 80 10000 4.1 220 05:34 20.02.2020
2287 Clouds 2 1023 80 10000 3.6 210 04:48 20.02.2020
2288 Clouds 2 1025 60 10000 3.6 160 03:47 20.02.2020
2289 Clouds 1 1026 64 10000 4.1 180 02:47 20.02.2020
2290 Clouds 1 1026 65 10000 2.1 180 01:33 20.02.2020
2291 Clouds 1 1026 65 10000 2.1 220 00:47 20.02.2020
2292 Clouds 1 1026 65 10000 1.5 240 00:25 20.02.2020
2293 Clouds 1 1027 65 10000 2.6 220 23:46 19.02.2020
2294 Clouds 1 1027 65 10000 2.6 220 23:46 19.02.2020
2295 Clouds 1 1027 65 10000 2.6 220 23:18 19.02.2020
2296 Clouds 1 1027 69 10000 3.1 220 22:43 19.02.2020
2297 Clouds 1 1027 69 10000 3.1 220 22:43 19.02.2020
2298 Snow 1 1027 65 10000 3.1 210 22:24 19.02.2020
2299 Clouds 1 1027 60 10000 1.5 230 21:58 19.02.2020
2300 Clouds 1 1027 60 10000 1.5 230 21:40 19.02.2020
2301 Clouds 1 1027 64 10000 1.5 0 21:19 19.02.2020
2302 Clouds 1 1027 74 10000 0.5 0 20:57 19.02.2020
2303 Clouds 1 1025 80 10000 4.6 230 20:37 19.02.2020
2304 Clouds 1 1027 74 10000 0.5 0 20:19 19.02.2020
2305 Clouds 1 1026 80 10000 1 0 19:57 19.02.2020
2306 Snow 1 1026 75 10000 3.6 320 19:37 19.02.2020
2307 Snow 1 1026 75 10000 3.6 320 19:19 19.02.2020
2308 Snow 2 1026 75 10000 3.6 320 18:57 19.02.2020
2309 Rain 2 1025 60 10000 4.1 270 18:39 19.02.2020
2310 Rain 2 1025 60 10000 4.1 270 18:20 19.02.2020
2311 Clouds 3 1025 60 10000 4.1 270 17:43 19.02.2020
2312 Clouds 3 1025 75 10000 4.1 250 17:20 19.02.2020
2313 Rain 3 1025 75 10000 4.1 250 16:56 19.02.2020
2314 Clouds 3 1023 74 10000 8.7 280 16:37 19.02.2020
2315 Clouds 3 1023 74 10000 8.7 280 16:37 19.02.2020
2316 Clouds 3 1024 70 10000 5.7 270 16:18 19.02.2020
2317 Clouds 3 1024 65 10000 5.7 270 15:41 19.02.2020
2318 Clouds 3 1024 65 10000 5.1 260 15:23 19.02.2020
2319 Snow 3 1021 80 2000 7.7 310 14:56 19.02.2020
2320 Snow 3 1021 80 2000 7.7 310 14:56 19.02.2020
2321 Rain 3 1022 80 10000 7.2 290 14:37 19.02.2020
2322 Rain 3 1022 80 10000 7.2 290 14:37 19.02.2020
2323 Rain 3 1023 70 10000 6.7 270 14:19 19.02.2020
2324 Rain 3 1019 86 10000 7.7 290 13:41 19.02.2020
2325 Rain 3 1023 81 10000 7.2 260 13:21 19.02.2020
2326 Rain 3 1019 86 9000 11.8 280 12:42 19.02.2020
2327 Rain 3 1018 69 9000 11.8 260 12:19 19.02.2020
2328 Rain 3 1018 69 9000 11.8 260 12:19 19.02.2020
2329 Rain 3 1022 81 10000 6.7 260 12:19 19.02.2020
2330 Rain 3 1018 69 9000 11.8 260 11:59 19.02.2020
2331 Rain 3 1022 70 10000 5.7 250 11:38 19.02.2020
2332 Rain 3 1018 73 9000 12.3 260 11:20 19.02.2020
2333 Rain 3 1018 73 6000 9.8 260 10:58 19.02.2020
2334 Rain 3 1021 70 10000 3.6 220 10:38 19.02.2020
2335 Rain 3 1018 69 4500 12.9 270 10:38 19.02.2020
2336 Rain 3 1018 69 4500 12.9 270 10:19 19.02.2020
2337 Rain 3 1021 73 10000 2.6 240 09:58 19.02.2020
2338 Rain 3 1022 73 10000 3.1 280 09:37 19.02.2020
2339 Rain 3 1022 73 10000 3.1 280 09:19 19.02.2020
2340 Rain 3 1022 73 10000 3.1 280 09:19 19.02.2020
2341 Rain 3 1022 60 10000 3.6 230 08:45 19.02.2020
2342 Clouds 3 1022 56 10000 2.6 210 08:24 19.02.2020
2343 Clouds 3 1022 56 10000 5.1 220 07:43 19.02.2020
2344 Clouds 4 1022 52 10000 3.6 240 07:25 19.02.2020
2345 Clouds 4 1022 52 10000 2.1 200 06:57 19.02.2020
2346 Clouds 4 1022 48 10000 2.1 260 06:31 19.02.2020
2347 Clouds 4 1023 56 10000 2.6 170 04:25 19.02.2020
2348 Clouds 3 1025 60 10000 1 0 02:58 19.02.2020
2349 Clouds 3 1025 52 10000 0.5 0 02:31 19.02.2020
2350 Clouds 3 1026 48 10000 3.1 190 01:24 19.02.2020
2351 Clouds 3 1026 48 10000 3.6 200 00:51 19.02.2020
2352 Clouds 3 1026 48 10000 3.6 200 00:51 19.02.2020
2353 Clouds 3 1026 48 10000 3.6 200 00:51 19.02.2020
2354 Clouds 3 1026 56 10000 3.1 210 00:32 19.02.2020
2355 Clouds 3 1027 56 10000 3.6 210 23:44 18.02.2020
2356 Clouds 3 1027 69 10000 1.5 0 23:21 18.02.2020
2357 Clouds 3 1028 60 10000 1 0 22:59 18.02.2020
2358 Clouds 3 1028 60 10000 1 0 22:41 18.02.2020
2359 Clouds 3 1028 94 10000 1 0 22:19 18.02.2020
2360 Clouds 3 1028 60 10000 2.1 230 21:56 18.02.2020
2361 Clouds 3 1026 69 10000 5.1 220 21:37 18.02.2020
2362 Clouds 3 1028 94 10000 1.5 240 21:19 18.02.2020
2363 Clouds 3 1028 94 10000 1.5 240 20:57 18.02.2020
2364 Clouds 3 1028 94 10000 1.5 240 20:38 18.02.2020
2365 Clouds 3 1028 94 10000 1.5 240 20:38 18.02.2020
2366 Clouds 3 1028 86 10000 1 0 20:20 18.02.2020
2367 Clouds 3 1028 86 10000 1 0 19:43 18.02.2020
2368 Clouds 3 1028 86 10000 1 200 19:43 18.02.2020
2369 Clouds 3 1028 86 10000 1 200 19:43 18.02.2020
2370 Clouds 3 1028 86 10000 1 200 19:20 18.02.2020
2371 Clouds 4 1028 80 10000 1 210 18:59 18.02.2020
2372 Clouds 4 1028 80 10000 1 210 18:41 18.02.2020
2373 Clouds 4 1027 70 10000 2.1 300 18:20 18.02.2020
2374 Clouds 4 1027 70 10000 2.1 300 18:20 18.02.2020
2375 Clouds 4 1027 70 10000 2.1 300 17:56 18.02.2020
2376 Clouds 5 1026 60 10000 7.2 260 17:37 18.02.2020
2377 Clouds 5 1027 65 10000 2.1 310 17:37 18.02.2020
2378 Clouds 6 1027 65 10000 2.1 310 17:18 18.02.2020
2379 Clouds 7 1028 61 10000 2.6 300 16:39 18.02.2020
2380 Clouds 7 1028 66 10000 1.5 0 16:19 18.02.2020
2381 Clouds 7 1028 66 10000 1.5 0 15:41 18.02.2020
2382 Clouds 7 1028 57 10000 4.1 310 15:20 18.02.2020
2383 Clouds 7 1028 57 10000 4.1 310 14:57 18.02.2020
2384 Clouds 7 1028 57 10000 4.1 310 14:39 18.02.2020
2385 Clouds 7 1029 49 10000 5.1 240 14:20 18.02.2020
2386 Clouds 7 1029 52 10000 5.7 260 13:42 18.02.2020
2387 Clouds 7 1029 52 10000 5.7 260 13:23 18.02.2020
2388 Clouds 7 1030 68 10000 4.6 270 12:59 18.02.2020
2389 Clouds 7 1030 68 10000 4.6 270 12:41 18.02.2020
2390 Clouds 7 1030 68 10000 4.6 270 12:22 18.02.2020
2391 Clouds 7 1030 65 10000 2.6 240 11:55 18.02.2020
2392 Clouds 6 1030 65 10000 2.6 240 11:37 18.02.2020
2393 Clouds 6 1030 65 10000 2.6 240 11:18 18.02.2020
2394 Clouds 5 1030 65 10000 3.6 280 10:41 18.02.2020
2395 Clouds 5 1030 65 10000 3.6 280 10:18 18.02.2020
2396 Clouds 5 1030 75 10000 2.6 280 09:56 18.02.2020
2397 Clouds 4 1030 75 10000 2.6 280 09:38 18.02.2020
2398 Clouds 4 1030 70 10000 2.1 250 09:19 18.02.2020
2399 Clouds 4 1029 86 10000 1 0 08:44 18.02.2020
2400 Clouds 3 1029 80 10000 1 0 08:21 18.02.2020
2401 Clouds 3 1029 80 10000 1 0 07:59 18.02.2020
2402 Clouds 3 1029 80 10000 1 0 07:41 18.02.2020
2403 Drizzle 3 1028 86 10000 1.5 0 07:22 18.02.2020
2404 Drizzle 3 1028 86 10000 1.5 0 06:43 18.02.2020
2405 Clouds 3 1028 86 10000 1.5 300 06:25 18.02.2020
2406 Rain 3 1028 75 10000 4.6 230 05:47 18.02.2020
2407 Rain 4 1028 65 10000 3.1 220 04:43 18.02.2020
2408 Clouds 4 1028 70 10000 3.6 200 03:36 18.02.2020
2409 Clouds 4 1028 65 10000 5.1 240 02:49 18.02.2020
2410 Rain 5 1027 81 10000 6.7 270 01:21 18.02.2020
2411 Clouds 5 1025 75 10000 4.6 280 00:22 18.02.2020
2412 Clouds 5 1025 75 10000 3.6 240 23:57 17.02.2020
2413 Clouds 5 1025 75 10000 3.6 240 23:38 17.02.2020
2414 Snow 5 1025 70 10000 1.5 240 23:19 17.02.2020
2415 Clouds 6 1025 65 10000 2.6 250 22:42 17.02.2020
2416 Clouds 6 1025 70 10000 3.1 250 22:21 17.02.2020
2417 Clouds 6 1024 66 10000 4.6 250 21:59 17.02.2020
2418 Rain 6 1024 66 10000 2.1 280 21:38 17.02.2020
2419 Rain 6 1024 66 10000 2.1 280 21:18 17.02.2020
2420 -273 0 0 0 0 0 20:42 17.02.2020
2421 Drizzle 6 1023 70 10000 1.5 0 20:21 17.02.2020
2422 Drizzle 6 1023 76 10000 1.5 0 19:59 17.02.2020
2423 Drizzle 6 1023 76 10000 1.5 0 19:40 17.02.2020
2424 Drizzle 6 1023 76 10000 1.5 0 19:40 17.02.2020
2425 Rain 6 1022 93 10000 3.1 80 19:20 17.02.2020
2426 Rain 6 1022 93 10000 1.5 70 18:38 17.02.2020
2427 Rain 6 1022 93 10000 1.5 70 18:38 17.02.2020
2428 Rain 6 1022 87 10000 1.5 70 18:20 17.02.2020
2429 Rain 6 1022 87 10000 1.5 70 18:20 17.02.2020
2430 Rain 7 1022 87 10000 6.7 270 17:59 17.02.2020
2431 Rain 7 1022 81 10000 6.7 270 17:38 17.02.2020
2432 Rain 7 1020 87 10000 7.7 240 17:38 17.02.2020
2433 Rain 7 1022 81 10000 6.7 270 17:19 17.02.2020
2434 Rain 8 1021 81 10000 6.7 260 16:56 17.02.2020
2435 Rain 8 1021 87 10000 6.2 260 16:38 17.02.2020
2436 Rain 9 1021 87 10000 6.2 260 16:20 17.02.2020
2437 Rain 9 1021 87 10000 6.2 260 16:20 17.02.2020
2438 Rain 10 1021 81 10000 8.7 270 15:45 17.02.2020
2439 Rain 11 1019 71 10000 9.3 290 15:26 17.02.2020
2440 Clouds 12 1019 71 10000 5.1 320 14:56 17.02.2020
2441 Clouds 12 1018 62 10000 4.6 320 14:37 17.02.2020
2442 Clouds 13 1018 62 10000 4.6 320 14:19 17.02.2020
2443 Clouds 14 1018 50 10000 3.6 310 13:41 17.02.2020
2444 Clouds 13 1018 47 10000 2.1 90 13:20 17.02.2020
2445 Clouds 13 1018 47 10000 2.1 90 12:59 17.02.2020
2446 Clouds 14 1018 47 10000 1.5 0 12:40 17.02.2020
2447 Clouds 14 1018 47 10000 1.5 0 12:22 17.02.2020
2448 Clouds 13 1018 54 10000 1 0 11:47 17.02.2020
2449 Clouds 13 1018 62 10000 1.5 340 11:27 17.02.2020
2450 Clouds 12 1018 62 10000 1.5 340 10:58 17.02.2020
2451 Clouds 12 1018 62 10000 1.5 340 10:39 17.02.2020
2452 Clouds 10 1018 58 10000 0.5 0 10:20 17.02.2020
2453 Clouds 9 1018 66 10000 1.5 0 09:57 17.02.2020
2454 Clouds 9 1018 61 10000 1.5 250 09:38 17.02.2020
2455 Clouds 9 1018 61 10000 1.5 250 09:19 17.02.2020
2456 Clouds 8 1018 61 10000 1.5 250 08:42 17.02.2020
2457 Clouds 8 1017 47 10000 5.7 190 08:23 17.02.2020
2458 Clouds 8 1017 47 10000 5.7 190 07:59 17.02.2020
2459 Clouds 7 1017 66 10000 5.7 210 07:38 17.02.2020
2460 Clouds 8 1017 57 10000 5.7 210 07:19 17.02.2020
2461 Clouds 8 1018 47 10000 5.1 200 06:43 17.02.2020
2462 Clouds 9 1018 44 10000 4.6 210 06:24 17.02.2020
2463 Clouds 8 1018 44 10000 5.7 220 05:40 17.02.2020
2464 Clouds 8 1018 65 10000 3.1 110 04:26 17.02.2020
2465 Clouds 9 1018 70 10000 1 0 02:49 17.02.2020
2466 Clouds 9 1017 86 10000 1.5 160 01:22 17.02.2020
2467 Clouds 8 1017 81 10000 2.6 270 00:39 17.02.2020
2468 Clouds 8 1017 87 10000 4.1 280 00:19 17.02.2020
2469 Clouds 8 1017 81 10000 3.1 280 23:48 16.02.2020
2470 Clouds 8 1016 70 10000 3.1 110 23:27 16.02.2020
2471 Clouds 7 1017 86 10000 3.6 90 22:56 16.02.2020
2472 Clouds 8 1017 87 10000 1 130 22:38 16.02.2020
2473 Clouds 8 1017 87 10000 1 130 22:18 16.02.2020
2474 Clouds 8 1017 87 10000 2.1 100 21:43 16.02.2020
2475 Clouds 8 1017 81 10000 1 190 21:24 16.02.2020
2476 Clouds 8 1017 81 10000 3.1 320 20:59 16.02.2020
2477 Clouds 8 1016 81 10000 0.5 0 20:40 16.02.2020
2478 Clouds 9 1016 81 10000 0.5 0 20:22 16.02.2020
2479 Clouds 9 1017 81 10000 1.5 30 19:59 16.02.2020
2480 Clouds 9 1017 81 10000 1.5 30 19:40 16.02.2020
2481 Clouds 9 1017 70 10000 0.5 0 19:19 16.02.2020
2482 Clouds 9 1017 70 10000 2.6 100 18:59 16.02.2020
2483 Clouds 10 1017 65 10000 1 0 18:40 16.02.2020
2484 Clouds 10 1017 65 10000 1 0 18:22 16.02.2020
2485 Clouds 10 1017 65 10000 1 0 17:44 16.02.2020
2486 Clouds 11 1017 65 10000 1 0 17:20 16.02.2020
2487 Clouds 12 1017 65 10000 2.1 280 16:56 16.02.2020
2488 Clouds 12 1017 65 10000 2.1 280 16:38 16.02.2020
2489 Clouds 13 1017 65 10000 2.1 280 16:20 16.02.2020
2490 Clouds 13 1017 75 10000 1.5 0 15:56 16.02.2020
2491 Clouds 13 1017 61 10000 1.5 0 15:37 16.02.2020
2492 Clouds 13 1017 61 10000 1.5 0 15:18 16.02.2020
2493 Clouds 13 1018 61 10000 2.1 100 14:38 16.02.2020
2494 Clouds 13 1018 61 10000 2.1 100 14:19 16.02.2020
2495 Clouds 12 1019 70 10000 1 0 13:45 16.02.2020
2496 Clouds 12 1019 70 10000 1 0 13:24 16.02.2020
2497 Clouds 12 1020 75 10000 1.5 0 12:55 16.02.2020
2498 Clouds 11 1020 81 10000 1.5 0 12:36 16.02.2020
2499 Clouds 11 1020 81 10000 1.5 0 12:18 16.02.2020
2500 Clouds 10 1020 70 10000 2.1 80 11:38 16.02.2020
2501 Clouds 9 1020 70 10000 2.1 80 11:18 16.02.2020
2502 Clouds 8 1020 75 10000 1.5 270 10:56 16.02.2020
2503 Clouds 8 1020 81 10000 1.5 0 10:38 16.02.2020
2504 Clouds 7 1020 81 10000 1.5 0 10:19 16.02.2020
2505 Clouds 6 1020 86 10000 1 0 09:55 16.02.2020
2506 Clouds 6 1020 86 10000 3.6 280 09:36 16.02.2020
2507 Clouds 6 1020 86 10000 3.6 280 09:18 16.02.2020
2508 Clouds 5 1020 86 10000 4.6 250 08:44 16.02.2020
2509 Clouds 4 1020 93 10000 4.6 270 08:21 16.02.2020
2510 Clouds 4 1020 93 10000 1.5 0 07:51 16.02.2020
2511 Clouds 4 1021 43 10000 2.1 230 07:33 16.02.2020
2512 Clouds 3 1021 43 10000 2.1 120 06:33 16.02.2020
2513 Clouds 2 1021 42 10000 2.1 240 04:43 16.02.2020
2514 Clouds 3 1022 42 10000 0.5 0 03:29 16.02.2020
2515 Clouds 3 1023 100 10000 1 0 02:32 16.02.2020
2516 Clouds 3 1022 86 10000 1 0 01:43 16.02.2020
2517 Clouds 3 1022 86 10000 1 0 01:23 16.02.2020
2518 Clouds 3 1022 86 10000 1.5 0 00:53 16.02.2020
2519 Clouds 4 1022 93 10000 1 0 00:31 16.02.2020
2520 Clouds 3 1022 40 10000 1 0 23:54 15.02.2020
2521 Clouds 3 1022 40 10000 2.1 270 23:36 15.02.2020
2522 Clouds 3 1022 47 10000 2.1 270 23:18 15.02.2020
2523 Clouds 3 1022 47 10000 2.1 110 22:41 15.02.2020
2524 Clouds 3 1022 47 10000 2.1 110 22:22 15.02.2020
2525 Clouds 3 1023 93 10000 1.5 0 21:59 15.02.2020
2526 Clouds 3 1023 47 10000 2.1 250 21:40 15.02.2020
2527 Clouds 3 1023 47 10000 2.1 250 21:21 15.02.2020
2528 Clouds 3 1023 47 10000 1 0 20:40 15.02.2020
2529 -273 0 0 0 0 0 20:21 15.02.2020
2530 Clouds 4 1023 52 10000 1.5 70 19:44 15.02.2020
2531 Clouds 5 1023 52 10000 1 0 19:23 15.02.2020
2532 Clouds 5 1023 52 10000 1 0 18:55 15.02.2020
2533 Clouds 6 1022 75 10000 1 0 18:36 15.02.2020
2534 Clouds 7 1022 75 10000 1 0 18:18 15.02.2020
2535 Clouds 8 1022 75 10000 1 0 17:43 15.02.2020
2536 Clouds 9 1022 70 10000 0.5 0 17:22 15.02.2020
2537 Clouds 9 1023 75 10000 1 0 16:58 15.02.2020
2538 Clouds 10 1023 75 10000 1 0 16:39 15.02.2020
2539 Clouds 10 1023 75 10000 1 0 16:19 15.02.2020
2540 Clouds 10 1023 75 10000 3.1 300 15:42 15.02.2020
2541 Clouds 10 1023 70 10000 2.6 300 15:23 15.02.2020
2542 Clouds 10 1024 81 10000 4.1 280 14:45 15.02.2020
2543 Clouds 9 1024 75 10000 3.6 280 14:21 15.02.2020
2544 Clouds 9 1024 70 10000 2.1 0 13:57 15.02.2020
2545 Clouds 9 1024 70 10000 2.1 0 13:38 15.02.2020
2546 Clouds 9 1024 70 10000 2.1 0 13:38 15.02.2020
2547 Clouds 8 1026 81 10000 3.1 0 13:20 15.02.2020
2548 Clouds 7 1026 81 10000 3.6 80 12:42 15.02.2020
2549 Clouds 7 1026 86 10000 2.1 0 12:24 15.02.2020
2550 Clouds 6 1026 86 10000 2.1 0 11:52 15.02.2020
2551 Clouds 5 1026 87 10000 2.1 70 11:33 15.02.2020
2552 Clouds 5 1026 80 10000 1 0 10:58 15.02.2020
2553 Clouds 5 1026 80 10000 1 0 10:58 15.02.2020
2554 Clouds 4 1024 46 10000 2.6 210 10:39 15.02.2020
2555 Clouds 4 1026 93 10000 1.5 110 10:39 15.02.2020
2556 Clouds 3 1026 93 10000 1.5 110 10:20 15.02.2020
2557 Clouds 2 1026 93 10000 1.5 110 09:44 15.02.2020
2558 Clouds 2 1026 100 10000 0.5 0 09:25 15.02.2020
2559 Clouds 0 1026 46 10000 1.5 110 08:46 15.02.2020
2560 Clouds 0 1025 46 10000 1 0 08:26 15.02.2020
2561 Clouds -1 1025 53 10000 1 0 07:59 15.02.2020
2562 Clouds -1 1025 53 10000 1 0 07:59 15.02.2020
2563 Clouds -1 1025 53 10000 1 0 07:39 15.02.2020
2564 Clouds 0 1024 53 8000 0.5 0 07:20 15.02.2020
2565 Clouds 0 1024 53 10000 1 0 06:37 15.02.2020
2566 Clouds 0 1024 93 10000 2.1 280 05:55 15.02.2020
2567 Clouds 0 1024 80 10000 3.1 150 04:49 15.02.2020
2568 Clouds 0 1025 63 10000 0.5 0 03:58 15.02.2020
2569 Clouds 0 1026 93 10000 1.5 0 02:58 15.02.2020
2570 Clouds 1 1026 93 10000 1 0 02:24 15.02.2020
2571 Clear 1 1026 86 10000 1 0 01:43 15.02.2020
2572 Clear 1 1027 71 10000 2.6 280 00:58 15.02.2020
2573 Clear 1 1027 93 10000 3.6 200 00:27 15.02.2020
2574 Clear 1 1027 93 10000 2.83 157 23:44 14.02.2020
2575 Clear 2 1027 86 10000 3.1 350 23:21 14.02.2020
2576 Clear 2 1027 75 10000 2.1 190 22:54 14.02.2020
2577 Clouds 2 1027 93 10000 3.6 210 22:36 14.02.2020
2578 Clouds 2 1027 93 10000 3.6 210 22:36 14.02.2020
2579 Clear 3 1028 75 10000 3.6 180 22:18 14.02.2020
2580 Clouds 3 1028 81 10000 2.1 170 21:40 14.02.2020
2581 Clouds 3 1028 81 10000 2.1 170 21:21 14.02.2020
2582 Clouds 4 1027 87 10000 2.18 174 20:44 14.02.2020
2583 Clouds 4 1027 87 10000 2.01 198 20:20 14.02.2020
2584 Clouds 4 1027 81 10000 2.21 195 19:57 14.02.2020
2585 Clouds 4 1027 81 10000 2.21 195 19:38 14.02.2020
2586 Clouds 4 1026 81 10000 1 0 19:19 14.02.2020
2587 Clouds 4 1026 87 10000 1 0 18:56 14.02.2020
2588 Clouds 4 1025 93 10000 2.6 210 18:38 14.02.2020
2589 Clouds 5 1025 87 10000 1 0 18:19 14.02.2020
2590 Clouds 5 1024 86 10000 3.6 260 17:42 14.02.2020
2591 Clouds 6 1025 75 10000 2.1 240 17:21 14.02.2020
2592 Clouds 6 1025 76 10000 2.1 260 16:57 14.02.2020
2593 Clouds 6 1025 76 10000 2.1 260 16:39 14.02.2020
2594 Clouds 6 1025 81 10000 2.1 320 16:21 14.02.2020
2595 Clouds 6 1025 75 10000 2.1 320 15:56 14.02.2020
2596 Rain 6 1023 86 8000 5.7 250 15:37 14.02.2020
2597 Clouds 6 1025 75 10000 3.6 280 15:37 14.02.2020
2598 Clouds 6 1025 75 10000 3.6 280 15:37 14.02.2020
2599 Rain 6 1023 86 8000 5.7 250 15:37 14.02.2020
2600 Clouds 6 1025 75 10000 3.6 280 15:19 14.02.2020
2601 Clouds 6 1024 70 10000 5.7 270 14:56 14.02.2020
2602 Clouds 6 1023 87 10000 6.7 240 14:38 14.02.2020
2603 Clouds 7 1024 66 10000 5.7 250 14:19 14.02.2020
2604 Clouds 6 1024 66 10000 5.1 250 13:40 14.02.2020
2605 Clouds 6 1024 66 10000 5.1 250 13:40 14.02.2020
2606 Clouds 6 1025 70 10000 4.6 260 13:21 14.02.2020
2607 Rain 6 1022 86 6000 8.2 290 12:58 14.02.2020
2608 Clouds 6 1024 75 10000 3.6 220 12:39 14.02.2020
2609 Rain 5 1022 93 9000 9.3 290 12:20 14.02.2020
2610 Rain 5 1022 93 9000 9.3 290 12:20 14.02.2020
2611 Rain 5 1022 86 6000 8.2 280 11:58 14.02.2020
2612 Rain 5 1022 86 6000 8.2 280 11:40 14.02.2020
2613 Rain 5 1024 87 10000 2.1 0 11:20 14.02.2020
2614 Rain 4 1023 87 10000 3.1 270 10:55 14.02.2020
2615 Rain 4 1023 75 10000 7.2 270 10:36 14.02.2020
2616 Rain 4 1023 75 10000 7.2 270 10:18 14.02.2020
2617 Clouds 4 1020 86 10000 7.2 240 09:39 14.02.2020
2618 Clouds 4 1021 70 10000 5.1 260 09:19 14.02.2020
2619 Clouds 4 1021 75 10000 3.1 280 08:43 14.02.2020
2620 Clouds 4 1019 75 10000 4.6 270 08:24 14.02.2020
2621 Clouds 4 1019 75 10000 5.1 270 07:51 14.02.2020
2622 Clouds 4 1018 75 10000 5.1 250 07:33 14.02.2020
2623 Rain 3 1018 81 10000 8.7 240 06:56 14.02.2020
2624 Rain 3 1018 81 10000 4.6 240 06:23 14.02.2020
2625 Drizzle 3 1017 81 10000 5.1 280 05:44 14.02.2020
2626 Rain 3 1015 70 10000 6.2 240 04:22 14.02.2020
2627 Rain 3 1015 75 10000 7.2 230 03:28 14.02.2020
2628 Rain 3 1014 70 10000 9.3 220 02:20 14.02.2020
2629 Rain 3 1013 86 10000 5.7 240 01:22 14.02.2020
2630 Rain 3 1013 93 10000 5.7 90 00:42 14.02.2020
2631 Rain 3 1013 93 10000 5.7 90 00:42 14.02.2020
2632 Rain 3 1013 93 10000 5.7 90 00:42 14.02.2020
2633 Rain 2 1012 93 10000 3.1 250 00:21 14.02.2020
2634 Rain 3 1011 93 4800 5.1 320 23:42 13.02.2020
2635 Rain 3 1009 75 10000 5.7 230 23:19 13.02.2020
2636 Rain 3 1008 93 10000 9.8 210 22:42 13.02.2020
2637 Snow 3 1008 86 8000 9.8 210 22:20 13.02.2020
2638 Clouds 3 1010 70 10000 9.3 200 21:59 13.02.2020
2639 Clouds 2 1008 93 10000 7.2 210 21:40 13.02.2020
2640 Clouds 2 1008 93 10000 7.2 210 21:21 13.02.2020
2641 Snow 2 1008 100 4000 11.3 260 20:56 13.02.2020
2642 Snow 2 1008 93 6000 10.8 230 20:37 13.02.2020
2643 Snow 2 1008 93 6000 15.4 300 20:19 13.02.2020
2644 Rain 4 1006 70 6000 6.2 300 19:55 13.02.2020
2645 Clouds 5 1004 65 10000 8.2 220 19:36 13.02.2020
2646 Clouds 5 1004 65 10000 8.2 220 19:18 13.02.2020
2647 Rain 6 1005 57 10000 1 0 18:41 13.02.2020
2648 Rain 6 1006 65 10000 3.1 0 18:22 13.02.2020
2649 Rain 6 1006 70 10000 3.1 0 17:58 13.02.2020
2650 Rain 6 1006 70 10000 2.6 0 17:38 13.02.2020
2651 Rain 6 1006 70 10000 2.6 0 17:20 13.02.2020
2652 Clouds 6 1007 70 10000 3.6 0 16:56 13.02.2020
2653 Clouds 6 1007 70 10000 0.5 0 16:36 13.02.2020
2654 Clouds 6 1007 70 10000 0.5 0 16:36 13.02.2020
2655 Clouds 7 1007 70 10000 0.5 0 16:18 13.02.2020
2656 Clouds 7 1009 70 10000 6.2 280 15:55 13.02.2020
2657 Clouds 7 1009 70 10000 6.2 280 15:36 13.02.2020
2658 Clouds 7 1009 70 10000 6.2 280 15:18 13.02.2020
2659 Clouds 7 1007 56 10000 7.2 280 14:55 13.02.2020
2660 Clouds 7 1009 65 10000 2.6 0 14:37 13.02.2020
2661 Clouds 8 1009 65 10000 2.6 0 14:18 13.02.2020
2662 Clouds 8 1010 56 10000 3.6 0 13:41 13.02.2020
2663 Clouds 7 1011 70 10000 3.6 0 13:18 13.02.2020
2664 Clouds 7 1014 57 10000 2.1 60 12:48 13.02.2020
2665 Clouds 6 1014 57 10000 2.1 60 12:30 13.02.2020
2666 Clouds 5 1014 57 10000 2.1 60 11:59 13.02.2020
2667 Clouds 5 1014 57 10000 2.1 60 11:41 13.02.2020
2668 Clouds 5 1015 69 10000 2.1 0 11:19 13.02.2020
2669 Clouds 4 1015 69 10000 1.5 250 10:44 13.02.2020
2670 Clouds 4 1015 69 10000 1.5 250 10:44 13.02.2020
2671 Clouds 3 1015 69 10000 1.5 250 10:26 13.02.2020
2672 Clouds 2 1016 74 10000 1 0 09:50 13.02.2020
2673 Clouds 1 1016 80 10000 0.5 0 09:26 13.02.2020
2674 Clouds 0 1016 86 10000 1 0 08:48 13.02.2020
2675 Clouds -1 1016 85 10000 1.5 270 08:20 13.02.2020
2676 Clouds -1 1016 86 10000 1.5 320 07:57 13.02.2020
2677 Clouds -1 1016 86 10000 1.5 320 07:38 13.02.2020
2678 Clouds -1 1017 80 10000 1 0 07:19 13.02.2020
2679 Clouds -1 1017 80 10000 1 0 06:44 13.02.2020
2680 Clouds -2 1017 67 10000 1.5 170 05:59 13.02.2020
2681 Clouds -1 1018 67 10000 3.1 20 05:20 13.02.2020
2682 Clouds -1 1019 64 10000 4.6 170 04:25 13.02.2020
2683 Clouds 0 1020 64 10000 4.6 190 03:45 13.02.2020
2684 Clouds 0 1021 69 10000 0.5 0 02:59 13.02.2020
2685 Clouds 1 1020 80 10000 2.6 200 02:41 13.02.2020
2686 Clouds 1 1022 55 10000 0.5 0 02:18 13.02.2020
2687 Clouds 1 1022 64 10000 1 0 01:27 13.02.2020
2688 Clouds 2 1022 69 10000 1 0 00:32 13.02.2020
2689 Clouds 2 1022 52 10000 1.5 0 23:58 12.02.2020
2690 Clouds 2 1021 80 10000 4.6 250 23:37 12.02.2020
2691 Snow 2 1022 52 10000 3.6 220 23:18 12.02.2020
2692 Clouds 2 1022 52 10000 2.1 0 22:43 12.02.2020
2693 Clouds 3 1022 52 10000 1 0 22:24 12.02.2020
2694 Snow 2 1020 74 10000 7.2 220 21:56 12.02.2020
2695 Snow 3 1020 74 10000 7.2 220 21:37 12.02.2020
2696 Clouds 3 1022 52 10000 3.1 240 21:19 12.02.2020
2697 Clouds 2 1022 52 10000 3.1 240 20:55 12.02.2020
2698 Clouds 2 1022 56 10000 1.5 0 20:37 12.02.2020
2699 Clouds 2 1022 56 10000 1.5 0 20:18 12.02.2020
2700 Clouds 2 1022 56 10000 1.5 0 19:43 12.02.2020
2701 Clouds 2 1022 65 10000 2.1 210 19:23 12.02.2020
2702 Clouds 2 1022 65 10000 2.1 210 18:54 12.02.2020
2703 Clouds 2 1022 60 10000 4.1 210 18:36 12.02.2020
2704 Clouds 2 1022 60 10000 4.1 210 18:18 12.02.2020
2705 Rain 3 1021 60 10000 4.6 230 17:41 12.02.2020
2706 Rain 3 1021 60 10000 4.6 230 17:19 12.02.2020
2707 Clouds 3 1018 74 9000 10.3 270 16:57 12.02.2020
2708 Snow 3 1018 94 4000 11.3 270 16:37 12.02.2020
2709 Snow 4 1018 92 4000 11.3 270 16:18 12.02.2020
2710 Snow 3 1018 86 8000 10.3 260 15:40 12.02.2020
2711 Clouds 3 1018 86 8000 10.3 260 15:20 12.02.2020
2712 Snow 3 1018 92 2500 10.8 270 14:54 12.02.2020
2713 Clouds 3 1021 60 10000 5.1 240 14:36 12.02.2020
2714 Clouds 3 1021 60 10000 5.1 240 14:18 12.02.2020
2715 Clouds 4 1018 86 8000 9.8 270 13:55 12.02.2020
2716 Snow 3 1022 60 10000 4.6 240 13:36 12.02.2020
2717 Snow 3 1022 60 10000 4.6 240 13:18 12.02.2020
2718 Snow 3 1022 81 10000 4.6 240 12:55 12.02.2020
2719 Rain 3 1022 81 10000 4.6 240 12:36 12.02.2020
2720 Rain 3 1022 81 10000 4.6 240 12:18 12.02.2020
2721 Rain 3 1022 81 10000 4.6 240 11:41 12.02.2020
2722 Clouds 3 1021 60 10000 4.1 240 11:21 12.02.2020
2723 Clouds 3 1021 94 10000 5.1 280 10:58 12.02.2020
2724 Clouds 3 1021 94 10000 5.1 280 10:58 12.02.2020
2725 Clouds 2 1021 94 10000 5.1 280 10:40 12.02.2020
2726 Clouds 2 1018 74 10000 10.8 260 10:20 12.02.2020
2727 Clouds 2 1021 65 10000 3.6 270 09:54 12.02.2020
2728 Snow 2 1021 69 10000 2.1 250 09:36 12.02.2020
2729 Snow 2 1021 69 10000 2.1 250 09:18 12.02.2020
2730 Snow 2 1021 69 10000 2.1 250 09:18 12.02.2020
2731 Snow 1 1021 69 10000 2.6 240 08:55 12.02.2020
2732 Clouds 1 1017 94 10000 11.3 270 08:36 12.02.2020
2733 Clouds 1 1017 97 10000 11.3 270 08:18 12.02.2020
2734 Clouds 1 1017 97 10000 11.3 270 08:18 12.02.2020
2735 Snow 1 1020 97 10000 3.6 250 07:41 12.02.2020
2736 Snow 1 1020 97 10000 3.6 250 07:41 12.02.2020
2737 Rain 1 1016 74 10000 12.3 270 07:21 12.02.2020
2738 Rain 1 1020 97 10000 4.6 250 06:47 12.02.2020
2739 Snow 1 1016 97 7000 8.2 270 06:20 12.02.2020
2740 Snow 1 1019 86 10000 5.7 250 05:32 12.02.2020
2741 Snow 1 1019 86 10000 2.6 250 04:43 12.02.2020
2742 Clouds 1 1019 97 10000 4.1 320 03:58 12.02.2020
2743 Snow 1 1019 69 10000 3.6 240 03:29 12.02.2020
2744 Snow 1 1019 69 10000 4.6 250 02:46 12.02.2020
2745 Rain 1 1019 69 10000 5.1 240 02:27 12.02.2020
2746 Clouds 1 1019 96 10000 6.7 250 01:34 12.02.2020
2747 Snow 1 1019 95 10000 6.2 250 00:41 12.02.2020
2748 Snow 1 1019 80 10000 4.6 250 00:22 12.02.2020
2749 Rain 2 1018 95 5000 9.3 270 23:49 11.02.2020
2750 Rain 2 1018 75 10000 5.7 260 23:31 11.02.2020
2751 Snow 2 1015 95 10000 8.7 240 22:58 11.02.2020
2752 Snow 2 1017 95 10000 6.7 250 22:39 11.02.2020
2753 Snow 2 1017 95 10000 6.7 250 22:20 11.02.2020
2754 Snow 2 1017 65 10000 4.6 230 21:57 11.02.2020
2755 Snow 2 1017 65 10000 4.6 230 21:38 11.02.2020
2756 Snow 2 1017 65 10000 4.1 240 21:18 11.02.2020
2757 Snow 2 1017 65 10000 4.1 240 20:58 11.02.2020
2758 Snow 2 1017 65 10000 2.6 250 20:38 11.02.2020
2759 Snow 2 1017 65 10000 2.6 250 20:19 11.02.2020
2760 Snow 2 1017 69 10000 3.6 240 19:56 11.02.2020
2761 Clouds 2 1016 93 10000 4.6 260 19:38 11.02.2020
2762 Clouds 2 1016 93 10000 4.6 260 19:20 11.02.2020
2763 Clouds 2 1016 93 10000 4.6 260 18:44 11.02.2020
2764 Rain 2 1016 93 10000 4.6 260 18:25 11.02.2020
2765 Rain 2 1015 93 10000 8.7 260 17:56 11.02.2020
2766 Rain 2 1015 93 10000 8.7 260 17:56 11.02.2020
2767 Rain 2 1012 86 3000 9.3 270 17:38 11.02.2020
2768 Rain 2 1012 86 3000 9.3 270 17:19 11.02.2020
2769 Rain 2 1014 86 10000 1 0 16:58 11.02.2020
2770 Clouds 3 1014 86 10000 1 0 16:38 11.02.2020
2771 Clouds 3 1014 86 10000 2.1 270 16:20 11.02.2020
2772 Rain 3 1014 86 10000 7.2 300 15:48 11.02.2020
2773 Rain 3 1014 86 10000 4.1 280 15:29 11.02.2020
2774 Snow 3 1010 96 3000 12.3 290 14:59 11.02.2020
2775 Snow 3 1010 96 3000 12.3 290 14:41 11.02.2020
2776 Snow 3 1009 89 600 10.3 300 14:19 11.02.2020
2777 Snow 4 1010 89 6000 14.4 270 13:42 11.02.2020
2778 Rain 4 1013 65 10000 4.6 220 13:23 11.02.2020
2779 Clouds 4 1010 87 4500 7.7 310 12:59 11.02.2020
2780 Clouds 4 1010 87 4500 7.7 310 12:41 11.02.2020
2781 Rain 4 1014 65 10000 7.2 230 12:21 11.02.2020
2782 Snow 4 1011 87 8000 13.4 290 11:56 11.02.2020
2783 Rain 4 1014 87 10000 6.2 240 11:38 11.02.2020
2784 Snow 4 1011 69 2500 17.5 270 11:19 11.02.2020
2785 Clouds 5 1015 75 10000 2.6 270 10:40 11.02.2020
2786 Clouds 4 1015 70 10000 4.1 240 10:21 11.02.2020
2787 Rain 4 1010 69 10000 19.5 270 09:57 11.02.2020
2788 Rain 4 1015 70 10000 6.7 240 09:39 11.02.2020
2789 Rain 4 1009 80 10000 15.4 260 09:21 11.02.2020
2790 Rain 3 1009 84 10000 5.1 260 08:48 11.02.2020
2791 Rain 3 1009 98 9000 5.7 270 08:25 11.02.2020
2792 Rain 3 1009 86 8000 7.2 270 07:51 11.02.2020
2793 Clouds 3 1009 86 8000 11.8 290 07:32 11.02.2020
2794 Snow 3 1009 98 4000 8.7 280 06:57 11.02.2020
2795 Rain 3 1009 80 7000 8.7 280 06:38 11.02.2020
2796 Rain 3 1009 80 7000 8.7 280 06:20 11.02.2020
2797 Rain 3 1009 80 7000 8.7 280 06:20 11.02.2020
2798 Rain 3 1012 93 10000 5.1 300 05:26 11.02.2020
2799 Rain 3 1011 87 10000 6.2 290 04:54 11.02.2020
2800 Clouds 3 1004 98 10000 2.1 10 03:27 11.02.2020
2801 Clouds 6 1006 57 10000 10.8 250 02:34 11.02.2020
2802 Clouds 8 1007 57 10000 10.8 240 01:39 11.02.2020
2803 Clouds 8 1007 50 10000 8.7 250 00:58 11.02.2020
2804 Rain 8 1007 50 10000 9.8 250 00:23 11.02.2020
2805 Rain 7 1007 54 10000 8.2 260 23:45 10.02.2020
2806 Rain 7 1007 66 10000 3.6 0 23:26 10.02.2020
2807 Rain 7 1007 50 10000 9.3 250 22:57 10.02.2020
2808 Clouds 7 1007 50 10000 8.2 250 22:37 10.02.2020
2809 Clouds 7 1007 50 10000 8.2 250 22:18 10.02.2020
2810 Clouds 7 1008 50 10000 8.2 240 21:40 10.02.2020
2811 Rain 7 1008 57 10000 5.1 260 21:22 10.02.2020
2812 Rain 6 1009 87 10000 3.1 130 20:56 10.02.2020
2813 Rain 6 1006 81 10000 11.8 230 20:37 10.02.2020
2814 Rain 6 1009 87 10000 3.1 130 20:19 10.02.2020
2815 Rain 6 1011 70 10000 4.1 240 19:57 10.02.2020
2816 Rain 6 1011 70 10000 4.1 240 19:37 10.02.2020
2817 Rain 6 1011 70 10000 4.1 240 19:18 10.02.2020
2818 Clouds 7 1012 57 10000 2.1 240 18:56 10.02.2020
2819 Clouds 7 1012 57 10000 2.1 240 18:38 10.02.2020
2820 Clouds 7 1012 57 10000 2.1 240 18:20 10.02.2020
2821 Clouds 7 1013 66 10000 1.5 140 17:54 10.02.2020
2822 Clouds 7 1013 66 10000 1.5 140 17:36 10.02.2020
2823 Clouds 7 1013 66 10000 1.5 140 17:18 10.02.2020
2824 Clouds 7 1013 66 10000 2.6 250 16:41 10.02.2020
2825 Clouds 7 1013 66 10000 2.6 250 16:20 10.02.2020
2826 Clouds 7 1013 66 10000 2.6 250 16:20 10.02.2020
2827 Clouds 7 1014 61 10000 3.1 230 15:59 10.02.2020
2828 Clouds 7 1014 61 10000 3.1 230 15:59 10.02.2020
2829 Clouds 8 1014 61 10000 4.1 250 15:41 10.02.2020
2830 Clouds 8 1014 61 10000 4.1 250 15:22 10.02.2020
2831 Clouds 8 1014 66 10000 5.1 250 14:58 10.02.2020
2832 Clouds 7 1014 66 10000 5.1 250 14:58 10.02.2020
2833 Clouds 8 1014 66 10000 5.1 250 14:39 10.02.2020
2834 Drizzle 7 1014 70 10000 10.8 270 14:19 10.02.2020
2835 Clouds 7 1009 75 10000 12.9 300 13:45 10.02.2020
2836 Rain 8 1012 76 10000 6.7 270 13:26 10.02.2020
2837 Rain 8 1012 76 10000 6.7 270 13:26 10.02.2020
2838 Rain 8 1012 87 10000 8.7 260 12:59 10.02.2020
2839 Clouds 8 1009 75 10000 14.9 300 12:41 10.02.2020
2840 Thunderstorm 8 1011 87 10000 6.2 260 12:22 10.02.2020
2841 Rain 8 1007 81 10000 11.3 290 11:46 10.02.2020
2842 Rain 8 1007 81 10000 11.3 290 11:46 10.02.2020
2843 Rain 8 1006 81 10000 14.4 300 11:21 10.02.2020
2844 Rain 8 1005 87 10000 21.6 300 10:58 10.02.2020
2845 Thunderstorm 8 1006 93 4000 12.9 270 10:39 10.02.2020
2846 Clouds 11 1006 48 10000 11.3 260 10:21 10.02.2020
2847 Clouds 12 1006 44 10000 11.3 260 09:42 10.02.2020
2848 Clouds 11 1005 39 10000 10.8 250 09:23 10.02.2020
2849 Clouds 12 1005 39 10000 10.8 250 08:41 10.02.2020
2850 Clouds 11 1005 42 10000 11.8 250 08:22 10.02.2020
2851 Clouds 11 1005 51 10000 7.2 240 07:55 10.02.2020
2852 Clouds 11 1001 54 10000 19 270 07:35 10.02.2020
2853 Clouds 11 1006 51 10000 8.2 230 06:53 10.02.2020
2854 Clouds 11 1006 51 10000 7.7 240 05:40 10.02.2020
2855 Clouds 9 1007 61 10000 1.5 220 03:59 10.02.2020
2856 Clouds 9 1007 57 10000 2.1 0 03:23 10.02.2020
2857 Clouds 9 1008 70 10000 1 0 02:44 10.02.2020
2858 Rain 8 1010 61 10000 1.5 280 01:25 10.02.2020
2859 Clouds 8 1010 61 10000 1.5 280 00:40 10.02.2020
2860 Clouds 7 1010 70 10000 3.6 270 00:22 10.02.2020
2861 Clouds 7 1010 75 10000 3.6 100 23:42 09.02.2020
2862 Clouds 7 1012 70 10000 1.5 320 23:24 09.02.2020
2863 Clouds 6 1012 70 10000 1 0 22:45 09.02.2020
2864 Clouds 6 1013 70 10000 1.5 0 22:23 09.02.2020
2865 Clouds 6 1013 70 10000 2.1 270 21:59 09.02.2020
2866 Clouds 6 1014 70 10000 3.6 270 21:40 09.02.2020
2867 Clouds 6 1014 70 10000 3.6 270 21:21 09.02.2020
2868 Clouds 6 1015 81 10000 3.6 290 20:45 09.02.2020
2869 Clouds 6 1015 75 10000 2.6 290 20:22 09.02.2020
2870 Clouds 5 1015 81 10000 3.6 290 19:55 09.02.2020
2871 Clouds 5 1016 81 10000 1.5 0 19:37 09.02.2020
2872 Clouds 6 1016 81 10000 1.5 0 19:18 09.02.2020
2873 Clouds 6 1016 86 10000 4.1 280 18:42 09.02.2020
2874 Clouds 6 1017 65 10000 2.1 0 18:23 09.02.2020
2875 Clouds 7 1016 57 10000 4.1 130 17:58 09.02.2020
2876 Clouds 7 1017 63 10000 0.5 0 17:39 09.02.2020
2877 Clouds 8 1017 71 10000 0.5 0 17:20 09.02.2020
2878 Clouds 8 1017 71 10000 2.6 110 16:41 09.02.2020
2879 Clouds 9 1019 52 10000 2.1 90 16:22 09.02.2020
2880 Clouds 10 1019 53 10000 1.5 340 15:58 09.02.2020
2881 Clouds 10 1019 53 10000 1.5 340 15:40 09.02.2020
2882 Clouds 10 1020 71 10000 1.5 310 15:21 09.02.2020
2883 Clouds 10 1020 71 10000 2.6 300 14:56 09.02.2020
2884 Clouds 10 1019 43 10000 5.7 230 14:37 09.02.2020
2885 Clouds 10 1021 61 10000 2.6 290 14:19 09.02.2020
2886 Clouds 10 1021 49 10000 1.5 0 13:42 09.02.2020
2887 Clouds 10 1021 49 10000 1.5 0 13:24 09.02.2020
2888 Clear 9 1024 70 10000 2.1 70 12:55 09.02.2020
2889 Clear 9 1024 70 10000 2.1 70 12:37 09.02.2020
2890 Clear 8 1024 70 10000 2.1 70 12:18 09.02.2020
2891 Clear 8 1024 70 10000 2.1 70 11:40 09.02.2020
2892 Clouds 6 1024 70 10000 2.1 70 11:19 09.02.2020
2893 Clouds 6 1025 80 10000 2.1 260 10:54 09.02.2020
2894 Clouds 6 1025 80 10000 2.1 260 10:36 09.02.2020
2895 Clouds 5 1025 80 10000 2.1 260 10:18 09.02.2020
2896 Clouds 3 1025 100 10000 2.1 270 09:39 09.02.2020
2897 Clouds 1 1025 100 10000 2.1 270 09:20 09.02.2020
2898 Clouds 0 1025 92 6000 0.5 0 08:42 09.02.2020
2899 Clouds -1 1025 100 7000 1.5 110 08:23 09.02.2020
2900 Clouds -1 1025 100 8000 1 0 07:54 09.02.2020
2901 Clouds 0 1025 47 10000 2.1 260 07:30 09.02.2020
2902 Clouds 0 1024 74 10000 4.6 200 06:38 09.02.2020
2903 Clouds 0 1025 100 10000 1.5 0 05:56 09.02.2020
2904 Clouds 0 1025 100 10000 1.5 270 05:34 09.02.2020
2905 Clouds 0 1025 92 10000 0.5 0 04:49 09.02.2020
2906 Clouds 0 1025 92 10000 0.5 0 02:58 09.02.2020
2907 Clouds 0 1025 86 10000 1.5 0 02:38 09.02.2020
2908 Clouds 0 1025 100 10000 1.5 0 01:40 09.02.2020
2909 Clouds 0 1026 92 10000 1.5 120 01:19 09.02.2020
2910 Clouds 0 1026 46 10000 1 0 00:31 09.02.2020
2911 Clouds 0 1026 92 10000 1.5 100 23:50 08.02.2020
2912 Clouds 0 1026 92 10000 2.1 120 23:25 08.02.2020
2913 Clouds 0 1026 92 10000 1.5 100 22:59 08.02.2020
2914 Clouds 0 1026 92 10000 1.5 100 22:40 08.02.2020
2915 Clouds 0 1026 92 10000 1 0 22:20 08.02.2020
2916 Clouds 1 1025 54 10000 1 0 21:47 08.02.2020
2917 Clouds 1 1025 80 10000 2.1 270 21:29 08.02.2020
2918 Clouds 1 1025 86 10000 1 0 20:59 08.02.2020
2919 Clouds 1 1025 86 10000 1 0 20:40 08.02.2020
2920 Clouds 1 1025 86 10000 1 0 20:40 08.02.2020
2921 Clouds 2 1024 72 10000 1 0 20:20 08.02.2020
2922 Clouds 2 1024 86 10000 1.5 80 19:58 08.02.2020
2923 Clouds 2 1024 86 10000 1.5 80 19:39 08.02.2020
2924 Clouds 3 1024 86 10000 1.5 80 19:20 08.02.2020
2925 Clouds 3 1024 86 10000 1.5 80 18:57 08.02.2020
2926 Clouds 3 1024 86 10000 1.5 80 18:38 08.02.2020
2927 Clouds 4 1024 80 10000 1.76 196 18:19 08.02.2020
2928 Clouds 4 1024 80 10000 1.76 196 17:41 08.02.2020
2929 Clouds 6 1024 80 10000 0.32 349 17:19 08.02.2020
2930 Clouds 6 1024 86 10000 1.5 0 16:42 08.02.2020
2931 Clouds 7 1024 86 10000 1.5 0 16:23 08.02.2020
2932 Clouds 7 1024 86 10000 1.5 0 15:59 08.02.2020
2933 Clouds 7 1024 86 10000 1.5 0 15:39 08.02.2020
2934 Clouds 7 1024 86 10000 2.1 280 15:18 08.02.2020
2935 Clouds 8 1024 86 10000 2.6 290 14:45 08.02.2020
2936 Clouds 8 1023 70 10000 0.5 0 14:22 08.02.2020
2937 Clouds 8 1023 52 10000 1.5 310 13:58 08.02.2020
2938 Clouds 8 1023 52 10000 1.5 310 13:58 08.02.2020
2939 Clouds 8 1023 52 10000 1.5 310 13:40 08.02.2020
2940 Clouds 8 1024 48 10000 2.6 210 13:21 08.02.2020
2941 Clouds 8 1024 56 10000 2.6 250 12:41 08.02.2020
2942 Clouds 7 1026 86 10000 1.5 310 12:23 08.02.2020
2943 Clouds 6 1026 86 10000 1.5 0 11:56 08.02.2020
2944 Clouds 6 1026 86 10000 1.5 0 11:38 08.02.2020
2945 Clear 5 1026 47 10000 1 0 11:20 08.02.2020
2946 Clear 4 1026 47 10000 1 0 10:42 08.02.2020
2947 Clear 3 1026 47 10000 1.19 174 10:22 08.02.2020
2948 Clear 1 1026 47 10000 1.19 174 09:53 08.02.2020
2949 Clear -1 1026 100 10000 1 120 09:28 08.02.2020
2950 Clear -1 1026 100 10000 1 120 08:55 08.02.2020
2951 Clear -2 1024 86 10000 2.6 200 08:37 08.02.2020
2952 Clear -3 1025 92 10000 1 210 08:19 08.02.2020
2953 Clear -4 1025 92 10000 1 210 07:45 08.02.2020
2954 Clear -3 1025 92 9000 1 200 07:20 08.02.2020
2955 Clear -4 1025 100 10000 1.5 210 06:29 08.02.2020
2956 Clear -3 1025 100 10000 1 220 05:48 08.02.2020
2957 Clear -3 1025 100 10000 1 100 05:30 08.02.2020
2958 Clear -3 1025 100 10000 1 100 05:30 08.02.2020
2959 Clear -3 1025 100 10000 1 220 04:49 08.02.2020
2960 Clear -3 1025 92 10000 1 130 03:51 08.02.2020
2961 Clear -3 1025 92 10000 0.5 0 02:51 08.02.2020
2962 Clear -3 1025 92 10000 1.5 210 01:53 08.02.2020
2963 Clear -3 1025 92 10000 0.5 0 01:24 08.02.2020
2964 Clear -2 1025 92 10000 1 120 00:39 08.02.2020
2965 Clear -2 1025 92 10000 1 190 00:21 08.02.2020
2966 Clear -2 1025 92 10000 1 0 23:45 07.02.2020
2967 Clear -2 1025 92 10000 1 110 23:21 07.02.2020
2968 Clear -1 1025 92 10000 0.5 0 22:58 07.02.2020
2969 Clear -1 1025 92 10000 0.5 0 22:39 07.02.2020
2970 Clear -1 1025 92 10000 2.06 178 22:19 07.02.2020
2971 Clear -1 1025 92 10000 0.5 150 21:42 07.02.2020
2972 Clear -1 1025 92 10000 1 210 21:22 07.02.2020
2973 Clear -1 1025 54 10000 0.5 0 20:54 07.02.2020
2974 Clear 0 1025 54 10000 1 0 20:36 07.02.2020
2975 Clear 0 1025 86 10000 0.5 0 20:18 07.02.2020
2976 Clear 0 1025 86 10000 0.5 0 19:40 07.02.2020
2977 Clear 0 1025 65 10000 0.5 0 19:19 07.02.2020
2978 Clear 1 1025 80 10000 1.5 130 18:55 07.02.2020
2979 Clear 1 1024 65 10000 1.5 0 18:37 07.02.2020
2980 Clear 1 1024 65 10000 1.5 0 18:18 07.02.2020
2981 Clear 2 1024 65 10000 2.1 220 17:42 07.02.2020
2982 -273 0 0 0 0 0 17:21 07.02.2020
2983 Clear 4 1024 75 10000 2.1 280 16:54 07.02.2020
2984 Clear 5 1024 75 10000 2.6 290 16:25 07.02.2020
2985 Clear 5 1024 75 10000 2.6 290 15:57 07.02.2020
2986 Clear 5 1024 75 10000 2.6 290 15:39 07.02.2020
2987 Clear 6 1025 75 10000 2.6 270 15:20 07.02.2020
2988 Clear 5 1025 77 10000 2.6 280 14:43 07.02.2020
2989 Clear 5 1026 77 10000 2.1 320 14:24 07.02.2020
2990 Clear 5 1026 74 10000 2.1 310 13:58 07.02.2020
2991 Clear 6 1026 74 10000 2.1 310 13:39 07.02.2020
2992 Clear 5 1026 74 10000 2.1 310 13:39 07.02.2020
2993 Clear 5 1026 74 10000 2.1 310 13:20 07.02.2020
2994 Clear 5 1027 80 10000 1 0 12:45 07.02.2020
2995 Clear 4 1027 80 10000 1 0 12:26 07.02.2020
2996 Clear 4 1028 52 10000 2.1 290 11:59 07.02.2020
2997 Clear 3 1028 52 10000 2.1 290 11:40 07.02.2020
2998 Clear 3 1028 50 10000 2.1 290 11:19 07.02.2020
2999 Clear 2 1028 86 10000 1.5 0 10:41 07.02.2020
3000 Clear 0 1028 50 10000 1 110 10:21 07.02.2020
3001 Clear -1 1028 50 10000 1 0 09:49 07.02.2020
3002 Clear -2 1028 92 10000 1 0 09:27 07.02.2020
3003 Clear -3 1028 92 10000 1.17 143 08:58 07.02.2020
3004 Clear -3 1028 92 10000 1.17 143 08:40 07.02.2020
3005 Clear -4 1028 92 10000 2.12 161 08:20 07.02.2020
3006 Clear -5 1028 92 10000 1 0 07:43 07.02.2020
3007 Clear -4 1028 92 10000 1 0 07:24 07.02.2020
3008 Clear -5 1028 92 10000 0.5 0 06:44 07.02.2020
3009 Clear -4 1028 92 10000 1 130 06:23 07.02.2020
3010 Clear -4 1028 92 10000 1 0 05:43 07.02.2020
3011 Clear -4 1028 86 10000 1.5 0 04:24 07.02.2020
3012 Clear -3 1028 86 10000 1.5 90 02:32 07.02.2020
3013 Clouds -3 1029 92 10000 1.5 0 01:35 07.02.2020
3014 Clouds -3 1029 86 10000 2.1 120 00:39 07.02.2020
3015 Clouds -3 1029 80 10000 1 110 23:57 06.02.2020
3016 Clouds -3 1029 92 10000 1 0 23:37 06.02.2020
3017 Clouds -3 1029 92 10000 1 0 23:18 06.02.2020
3018 Clouds -3 1029 92 10000 0.5 0 22:43 06.02.2020
3019 Clouds -3 1029 92 10000 0.5 130 22:24 06.02.2020
3020 Clouds -2 1028 79 10000 1.5 180 21:37 06.02.2020
3021 Clouds -2 1030 86 10000 0.5 0 21:19 06.02.2020
3022 Clouds -2 1030 69 10000 1 90 20:57 06.02.2020
3023 Clouds -2 1030 69 10000 1 90 20:57 06.02.2020
3024 Clouds -1 1030 69 10000 1 90 20:38 06.02.2020
3025 Clear -1 1030 69 10000 1 90 20:18 06.02.2020
3026 Clear -1 1030 80 10000 2.1 210 19:58 06.02.2020
3027 Clear -1 1030 80 10000 2.1 210 19:39 06.02.2020
3028 Clear -1 1030 80 10000 2.1 210 19:21 06.02.2020
3029 Clear 0 1029 69 10000 1.5 0 18:57 06.02.2020
3030 Clear 0 1029 69 10000 1.5 0 18:38 06.02.2020
3031 Clear 0 1029 69 10000 1.5 0 18:20 06.02.2020
3032 Clear 1 1028 47 10000 3.1 20 17:42 06.02.2020
3033 Clear 2 1029 52 10000 1 0 17:21 06.02.2020
3034 Clear 3 1029 45 10000 1 0 16:57 06.02.2020
3035 Clear 4 1028 41 10000 1 0 16:39 06.02.2020
3036 Clear 4 1028 41 10000 1 0 16:20 06.02.2020
3037 Clear 5 1029 48 10000 1.5 60 15:42 06.02.2020
3038 Clear 4 1029 56 10000 2.1 90 15:21 06.02.2020
3039 Clear 5 1029 52 10000 2.1 90 14:47 06.02.2020
3040 Clear 4 1030 64 10000 1.5 310 14:26 06.02.2020
3041 Clouds 4 1030 64 10000 1.5 310 13:54 06.02.2020
3042 Clouds 4 1031 69 10000 2.1 280 13:36 06.02.2020
3043 Clouds 3 1031 69 10000 2.1 280 13:18 06.02.2020
3044 Clouds 3 1031 69 10000 2.1 290 12:43 06.02.2020
3045 Clouds 2 1031 74 10000 2.1 310 12:18 06.02.2020
3046 Clouds 1 1032 74 10000 2.6 280 11:56 06.02.2020
3047 Clouds 1 1032 59 10000 1.5 0 11:37 06.02.2020
3048 Clouds 0 1032 59 10000 1.5 0 11:18 06.02.2020
3049 Clouds 0 1032 64 10000 1 0 10:41 06.02.2020
3050 Clouds -1 1032 45 10000 1.5 20 10:22 06.02.2020
3051 Clouds -2 1032 45 10000 1.5 20 09:59 06.02.2020
3052 Clouds -2 1032 45 10000 1.5 20 09:41 06.02.2020
3053 Clouds -4 1032 80 10000 1 0 09:20 06.02.2020
3054 Clouds -4 1032 92 10000 1 0 08:45 06.02.2020
3055 Clouds -5 1032 86 10000 1 220 08:24 06.02.2020
3056 Clouds -5 1032 92 10000 1.5 70 07:56 06.02.2020
3057 Clouds -6 1032 86 10000 0.5 0 07:32 06.02.2020
3058 Clouds -5 1032 79 10000 0.5 0 06:53 06.02.2020
3059 Clouds -6 1032 79 10000 1 0 06:19 06.02.2020
3060 Clouds -5 1033 92 10000 2.1 100 05:33 06.02.2020
3061 Clear -5 1033 92 10000 1 80 03:49 06.02.2020
3062 Clear -5 1033 86 10000 1 0 03:18 06.02.2020
3063 Clear -4 1034 92 10000 1.5 100 01:56 06.02.2020
3064 Clear -4 1034 86 10000 0.5 0 01:24 06.02.2020
3065 Clear -4 1035 92 10000 2.6 100 00:29 06.02.2020
3066 Clear -4 1035 92 10000 2.1 110 23:57 05.02.2020
3067 Clear -4 1035 92 10000 2.1 110 23:39 05.02.2020
3068 Clear -4 1035 92 10000 2.1 110 23:39 05.02.2020
3069 Clear -3 1035 81 10000 1.5 120 23:20 05.02.2020
3070 Clear -3 1035 86 10000 2.6 100 22:41 05.02.2020
3071 Clear -3 1035 74 10000 1 0 22:23 05.02.2020
3072 Clear -4 1035 81 10000 1 0 21:57 05.02.2020
3073 Clouds -3 1035 74 10000 2.1 150 21:39 05.02.2020
3074 Clouds -3 1035 74 10000 2.1 150 21:20 05.02.2020
3075 Clouds -2 1036 69 10000 1 0 20:39 05.02.2020
3076 Snow -2 1036 74 10000 1.5 180 20:21 05.02.2020
3077 Snow -1 1036 69 10000 1 0 19:59 05.02.2020
3078 Snow -1 1036 69 10000 1 0 19:41 05.02.2020
3079 Snow -1 1035 59 10000 2.6 240 19:19 05.02.2020
3080 Snow -1 1035 59 10000 2.6 240 18:57 05.02.2020
3081 Snow 0 1035 59 10000 2.6 240 18:39 05.02.2020
3082 Clouds 0 1035 56 10000 6.2 290 18:19 05.02.2020
3083 Clouds 0 1035 56 10000 6.2 290 18:19 05.02.2020
3084 Clouds 1 1035 56 10000 4.6 280 17:40 05.02.2020
3085 Clouds 1 1035 56 10000 4.6 280 17:20 05.02.2020
3086 Clouds 2 1034 56 10000 6.2 290 16:59 05.02.2020
3087 Clouds 2 1034 56 10000 6.2 290 16:41 05.02.2020
3088 Clouds 3 1034 56 10000 6.2 290 16:23 05.02.2020
3089 Snow 3 1034 60 10000 4.6 300 15:56 05.02.2020
3090 Clouds 3 1034 60 10000 6.2 310 15:38 05.02.2020
3091 Clouds 3 1034 60 10000 6.2 310 15:18 05.02.2020
3092 Snow 2 1033 65 10000 6.2 300 14:42 05.02.2020
3093 Snow 2 1033 65 10000 6.2 300 14:22 05.02.2020
3094 Snow 2 1033 93 10000 6.2 310 13:44 05.02.2020
3095 Clouds 2 1033 93 10000 6.2 310 13:24 05.02.2020
3096 Rain 2 1032 69 10000 6.2 290 12:59 05.02.2020
3097 Rain 2 1032 69 10000 6.2 290 12:39 05.02.2020
3098 Rain 1 1032 69 10000 6.2 290 12:21 05.02.2020
3099 Clouds 2 1032 64 10000 4.6 290 11:41 05.02.2020
3100 Snow 1 1032 69 10000 6.2 290 11:23 05.02.2020
3101 Snow 1 1031 69 10000 4.1 310 10:59 05.02.2020
3102 Snow 1 1031 69 10000 5.1 310 10:39 05.02.2020
3103 Snow 1 1031 69 10000 5.1 310 10:19 05.02.2020
3104 Snow 1 1031 69 10000 5.1 310 09:43 05.02.2020
3105 Clouds 1 1030 69 10000 5.1 310 09:22 05.02.2020
3106 Clouds 0 1030 74 10000 5.7 290 08:57 05.02.2020
3107 Snow 0 1030 74 10000 5.7 290 08:39 05.02.2020
3108 Snow 0 1029 74 10000 5.7 280 08:21 05.02.2020
3109 Snow 0 1026 86 9000 5.1 340 07:43 05.02.2020
3110 Snow 0 1028 69 10000 7.2 320 07:19 05.02.2020
3111 Snow 1 1025 97 9000 6.7 330 06:42 05.02.2020
3112 Clouds 1 1028 86 10000 4.6 280 06:21 05.02.2020
3113 Clouds 0 1027 86 10000 6.2 290 05:47 05.02.2020
3114 Snow 0 1027 93 10000 7.7 290 05:18 05.02.2020
3115 Clouds 1 1025 86 10000 4.6 250 04:27 05.02.2020
3116 Snow 1 1025 86 10000 5.7 270 02:53 05.02.2020
3117 Clouds 1 1024 97 10000 6.2 270 02:22 05.02.2020
3118 Snow 1 1024 97 10000 6.7 270 01:34 05.02.2020
3119 Clouds 1 1023 86 10000 6.7 280 00:25 05.02.2020
3120 Clouds 0 1023 97 10000 5.1 270 23:42 04.02.2020
3121 Clouds 0 1023 97 10000 5.1 270 23:42 04.02.2020
3122 Clouds 0 1023 97 10000 5.1 270 23:22 04.02.2020
3123 Drizzle 0 1022 97 10000 5.7 270 22:57 04.02.2020
3124 Snow 0 1022 93 10000 2.1 260 22:39 04.02.2020
3125 Snow 0 1022 97 10000 6.2 270 22:20 04.02.2020
3126 Snow 0 1022 93 10000 4.6 270 21:56 04.02.2020
3127 Clouds 0 1022 93 10000 5.7 270 21:38 04.02.2020
3128 Clouds 0 1022 93 10000 5.7 270 21:18 04.02.2020
3129 Clouds 0 1022 93 10000 5.7 270 21:18 04.02.2020
3130 Clouds 0 1022 97 10000 4.6 270 20:55 04.02.2020
3131 Snow 0 1021 97 10000 4.6 260 20:37 04.02.2020
3132 Snow 0 1021 97 10000 4.6 260 20:18 04.02.2020
3133 Snow 0 1017 92 2500 6.2 300 19:43 04.02.2020
3134 Snow 0 1017 92 2000 6.7 310 19:24 04.02.2020
3135 Snow 0 1016 97 2000 11.3 300 18:59 04.02.2020
3136 Rain 1 1019 93 10000 4.1 270 18:39 04.02.2020
3137 Rain 0 1019 93 10000 4.1 270 18:21 04.02.2020
3138 Rain 1 1015 97 8000 7.7 290 17:56 04.02.2020
3139 Drizzle 1 1018 93 10000 5.1 280 17:38 04.02.2020
3140 Snow 1 1013 80 3000 8.7 270 17:19 04.02.2020
3141 Rain 1 1015 69 10000 7.7 270 16:39 04.02.2020
3142 Rain 1 1015 69 10000 7.7 270 16:20 04.02.2020
3143 Rain 1 1013 96 5000 7.2 300 15:57 04.02.2020
3144 Clouds 1 1017 96 10000 3.1 260 15:39 04.02.2020
3145 Snow 1 1013 96 1300 7.2 330 15:20 04.02.2020
3146 Snow 1 1013 80 1000 5.1 300 14:45 04.02.2020
3147 Rain 1 1012 80 8000 8.2 310 14:26 04.02.2020
3148 Rain 1 1013 96 500 7.7 320 13:59 04.02.2020
3149 Rain 1 1013 96 500 7.7 320 13:40 04.02.2020
3150 Rain 2 1013 97 600 6.2 290 13:22 04.02.2020
3151 Rain 2 1013 80 2500 6.7 300 12:55 04.02.2020
3152 Rain 2 1013 74 10000 8.7 300 12:37 04.02.2020
3153 Rain 2 1013 74 10000 8.7 300 12:18 04.02.2020
3154 Rain 2 1012 97 10000 9.8 310 11:54 04.02.2020
3155 Rain 1 1012 97 8000 10.8 310 11:36 04.02.2020
3156 Rain 2 1012 95 8000 10.8 310 11:18 04.02.2020
3157 Rain 1 1012 80 4000 7.7 300 10:42 04.02.2020
3158 Rain 2 1016 86 10000 9.8 290 10:22 04.02.2020
3159 Rain 2 1012 95 8000 7.2 290 09:42 04.02.2020
3160 Rain 2 1012 80 5000 9.3 290 09:24 04.02.2020
3161 Rain 2 1016 80 10000 5.7 260 08:59 04.02.2020
3162 Rain 2 1016 80 10000 5.7 260 08:41 04.02.2020
3163 Rain 3 1012 96 2500 11.8 290 08:22 04.02.2020
3164 Rain 3 1012 98 8000 10.8 290 07:46 04.02.2020
3165 Rain 3 1011 98 6000 11.3 290 07:23 04.02.2020
3166 Rain 3 1015 87 10000 10.3 270 06:44 04.02.2020
3167 Rain 3 1015 87 10000 10.3 270 06:44 04.02.2020
3168 Rain 4 1007 93 6000 14.4 310 06:21 04.02.2020
3169 Rain 6 1001 87 8000 18.5 280 05:29 04.02.2020
3170 Rain 12 1004 39 10000 8.2 250 03:53 04.02.2020
3171 Clouds 12 1005 36 10000 8.2 240 03:34 04.02.2020
3172 Clouds 13 1005 31 10000 6.7 240 02:56 04.02.2020
3173 Clouds 12 1005 33 10000 8.2 230 02:32 04.02.2020
3174 Clouds 12 1006 62 10000 12.3 240 01:53 04.02.2020
3175 Clouds 11 1007 62 10000 13.4 240 01:35 04.02.2020
3176 Clouds 10 1011 100 10000 1 0 00:45 04.02.2020
3177 Clouds 10 1011 100 10000 0.5 0 00:21 04.02.2020
3178 Clouds 10 1012 100 10000 1.5 80 23:40 03.02.2020
3179 Clouds 10 1013 93 10000 1.5 100 23:20 03.02.2020
3180 Rain 9 1014 93 9000 1 0 22:39 03.02.2020
3181 Rain 9 1014 93 9000 1 0 22:20 03.02.2020
3182 Clouds 9 1015 93 10000 1 0 21:55 03.02.2020
3183 Clouds 9 1015 93 10000 1 0 21:55 03.02.2020
3184 Clouds 9 1016 93 9000 1 0 21:37 03.02.2020
3185 Clouds 9 1016 93 9000 1 0 21:18 03.02.2020
3186 Clouds 9 1017 100 10000 3.1 70 20:42 03.02.2020
3187 Rain 9 1017 100 10000 3.1 70 20:19 03.02.2020
3188 Rain 9 1019 93 8000 1 0 19:57 03.02.2020
3189 Rain 8 1019 93 8000 1 0 19:39 03.02.2020
3190 Drizzle 8 1017 100 1200 2.1 80 19:19 03.02.2020
3191 Rain 7 1019 100 8000 4.1 100 18:54 03.02.2020
3192 Drizzle 8 1017 100 2500 2.1 310 18:36 03.02.2020
3193 Drizzle 7 1017 100 2500 2.1 310 18:18 03.02.2020
3194 Rain 7 1020 100 4500 1 0 17:40 03.02.2020
3195 Rain 7 1020 100 4500 1 0 17:20 03.02.2020
3196 Rain 7 1020 100 3500 1 0 16:58 03.02.2020
3197 Rain 7 1020 100 3500 1 0 16:58 03.02.2020
3198 Rain 7 1020 100 3500 1 0 16:38 03.02.2020
3199 Rain 7 1020 100 5000 1 0 16:20 03.02.2020
3200 Rain 7 1019 100 3500 1 0 15:54 03.02.2020
3201 Rain 7 1019 100 3500 1 0 15:36 03.02.2020
3202 Rain 7 1019 100 3500 1 0 15:18 03.02.2020
3203 Rain 7 1020 93 4500 1.5 0 14:41 03.02.2020
3204 Rain 8 1020 93 4500 1.5 0 14:22 03.02.2020
3205 Rain 8 1019 93 9000 2.6 330 13:55 03.02.2020
3206 Rain 8 1019 93 9000 2.6 330 13:37 03.02.2020
3207 Rain 8 1019 93 9000 2.6 330 13:18 03.02.2020
3208 Rain 8 1018 81 10000 4.1 30 12:41 03.02.2020
3209 Rain 8 1018 81 10000 4.1 30 12:22 03.02.2020
3210 Rain 8 1019 82 10000 4.6 250 11:58 03.02.2020
3211 Rain 8 1018 100 4400 1.5 280 11:38 03.02.2020
3212 Rain 8 1018 100 5000 4.6 360 11:18 03.02.2020
3213 Rain 8 1017 100 8000 4.6 340 10:43 03.02.2020
3214 Rain 8 1017 100 8000 4.6 340 10:25 03.02.2020
3215 Rain 9 1019 93 9000 2.1 100 09:49 03.02.2020
3216 Rain 9 1019 93 9000 2.1 100 09:49 03.02.2020
3217 Rain 9 1018 100 10000 2.1 80 09:28 03.02.2020
3218 Rain 9 1018 100 10000 2.1 80 09:28 03.02.2020
3219 Rain 9 1017 93 7000 9.8 290 08:59 03.02.2020
3220 Rain 9 1017 93 7000 9.8 290 08:40 03.02.2020
3221 Rain 9 1017 71 10000 1.5 250 08:22 03.02.2020
3222 Rain 10 1015 93 8000 9.3 270 07:42 03.02.2020
3223 Rain 10 1015 93 7000 10.3 260 07:22 03.02.2020
3224 Rain 10 1014 87 10000 11.8 240 06:55 03.02.2020
3225 Rain 10 1015 87 10000 13.4 240 06:30 03.02.2020
3226 Rain 10 1015 87 10000 11.3 240 05:51 03.02.2020
3227 Rain 10 1017 62 10000 4.6 260 05:31 03.02.2020
3228 Rain 10 1017 51 10000 8.7 250 04:35 03.02.2020
3229 Clouds 11 1016 67 10000 7.2 250 02:38 03.02.2020
3230 Clouds 11 1016 67 10000 7.2 250 02:38 03.02.2020
3231 Rain 10 1014 100 8000 1 0 02:18 03.02.2020
3232 Rain 10 1016 76 10000 4.6 250 00:48 03.02.2020
3233 Rain 10 1015 93 4300 9.3 290 00:25 03.02.2020
3234 Rain 10 1015 93 5000 11.3 270 23:40 02.02.2020
3235 Rain 10 1015 93 5000 11.3 270 23:40 02.02.2020
3236 Rain 10 1015 93 5000 11.3 270 23:40 02.02.2020
3237 Rain 10 1015 93 7000 11.3 240 23:22 02.02.2020
3238 Rain 10 1015 93 10000 9.8 230 22:58 02.02.2020
3239 Rain 10 1015 93 10000 9.8 240 22:39 02.02.2020
3240 Rain 10 1015 93 10000 9.8 240 22:39 02.02.2020
3241 Rain 10 1015 93 10000 9.8 240 22:21 02.02.2020
3242 Rain 10 1015 93 10000 9.8 240 22:21 02.02.2020
3243 Rain 11 1017 76 10000 4.1 260 21:57 02.02.2020
3244 Drizzle 10 1017 76 10000 3.1 260 21:38 02.02.2020
3245 Drizzle 10 1017 76 10000 3.1 260 21:20 02.02.2020
3246 Rain 10 1017 76 10000 2.6 240 20:56 02.02.2020
3247 Rain 10 1015 93 10000 8.7 230 20:37 02.02.2020
3248 Rain 10 1015 93 10000 8.7 230 20:19 02.02.2020
3249 Rain 10 1017 76 10000 4.1 240 19:56 02.02.2020
3250 Rain 10 1015 93 10000 9.8 230 19:38 02.02.2020
3251 Rain 10 1015 93 10000 8.7 230 19:19 02.02.2020
3252 Rain 10 1016 71 10000 3.6 250 18:39 02.02.2020
3253 Rain 10 1016 71 10000 3.6 250 18:21 02.02.2020
3254 Rain 10 1015 76 10000 7.7 230 17:58 02.02.2020
3255 Rain 10 1015 76 10000 7.7 230 17:38 02.02.2020
3256 Rain 10 1015 72 10000 7.7 230 17:19 02.02.2020
3257 Rain 10 1015 67 10000 6.7 230 16:59 02.02.2020
3258 Rain 10 1015 67 10000 6.7 230 16:40 02.02.2020
3259 Rain 10 1013 93 10000 10.8 230 16:19 02.02.2020
3260 Rain 10 1015 71 10000 3.1 250 15:59 02.02.2020
3261 Clouds 10 1015 71 10000 3.1 250 15:40 02.02.2020
3262 Clouds 10 1015 71 10000 3.1 250 15:20 02.02.2020
3263 Rain 10 1015 76 10000 2.1 0 14:58 02.02.2020
3264 Rain 10 1015 76 10000 2.1 0 14:40 02.02.2020
3265 Rain 9 1014 66 10000 2.1 20 14:18 02.02.2020
3266 Rain 9 1014 71 10000 3.1 60 13:55 02.02.2020
3267 Rain 9 1015 66 10000 2.6 0 13:37 02.02.2020
3268 Rain 9 1015 66 10000 2.6 0 13:18 02.02.2020
3269 Rain 8 1014 87 10000 9.8 220 12:44 02.02.2020
3270 Rain 8 1016 81 10000 1 0 12:22 02.02.2020
3271 Rain 9 1016 87 10000 1 0 11:58 02.02.2020
3272 Rain 8 1016 87 10000 1 0 11:39 02.02.2020
3273 Rain 8 1016 87 10000 1 0 11:18 02.02.2020
3274 Clouds 8 1017 87 10000 1 0 10:55 02.02.2020
3275 Clouds 8 1017 87 10000 1 0 10:55 02.02.2020
3276 Clouds 8 1017 87 10000 1 0 10:36 02.02.2020
3277 Clouds 8 1017 87 10000 1 0 10:18 02.02.2020
3278 Clouds 8 1017 87 10000 1 0 09:41 02.02.2020
3279 Rain 8 1017 87 10000 1 0 09:21 02.02.2020
3280 Clouds 7 1017 87 10000 2.1 100 08:57 02.02.2020
3281 Clouds 7 1017 87 10000 2.1 100 08:39 02.02.2020
3282 Clouds 7 1018 87 10000 1.5 100 08:20 02.02.2020
3283 Clouds 7 1018 93 10000 1 0 07:44 02.02.2020
3284 Clouds 7 1018 87 10000 1 0 07:26 02.02.2020
3285 Clouds 7 1018 87 10000 1 0 06:39 02.02.2020
3286 Clouds 7 1018 87 10000 1 0 06:21 02.02.2020
3287 Clouds 8 1018 71 10000 1 0 05:36 02.02.2020
3288 Rain 8 1018 62 10000 4.6 250 04:30 02.02.2020
3289 Clouds 9 1018 66 10000 5.1 250 03:24 02.02.2020
3290 Clouds 8 1018 66 10000 4.1 260 02:24 02.02.2020
3291 Clouds 8 1018 62 10000 2.6 240 01:52 02.02.2020
3292 Clouds 8 1018 62 10000 3.1 250 01:19 02.02.2020
3293 Clouds 8 1017 71 10000 2.6 240 00:39 02.02.2020
3294 Clouds 8 1018 76 10000 1 0 00:18 02.02.2020
3295 Clouds 8 1017 71 10000 3.1 260 23:43 01.02.2020
3296 Rain 8 1017 81 10000 2.6 250 23:21 01.02.2020
3297 Rain 8 1017 87 10000 5.1 260 22:45 01.02.2020
3298 Rain 9 1017 81 8000 5.7 250 22:19 01.02.2020
3299 Rain 9 1016 87 10000 5.7 250 21:42 01.02.2020
3300 Rain 9 1016 87 10000 4.1 260 21:19 01.02.2020
3301 Rain 9 1015 76 10000 3.1 250 20:56 01.02.2020
3302 Rain 9 1013 87 10000 9.3 240 20:38 01.02.2020
3303 Rain 9 1014 71 10000 4.1 260 20:19 01.02.2020
3304 Rain 9 1014 71 10000 4.1 260 19:56 01.02.2020
3305 Rain 10 1013 71 10000 4.1 230 19:37 01.02.2020
3306 Rain 10 1013 71 10000 4.1 230 19:18 01.02.2020
3307 Rain 9 1013 71 10000 4.1 230 18:55 01.02.2020
3308 Clouds 9 1013 58 10000 3.6 250 18:37 01.02.2020
3309 Clouds 9 1013 58 10000 3.6 250 18:18 01.02.2020
3310 Clouds 9 1013 58 10000 3.6 250 17:54 01.02.2020
3311 Clouds 10 1012 58 10000 3.1 250 17:36 01.02.2020
3312 Clouds 10 1012 58 10000 3.1 250 17:18 01.02.2020
3313 Clouds 10 1012 58 10000 3.1 250 17:18 01.02.2020
3314 Clouds 11 1012 58 10000 4.6 250 16:39 01.02.2020
3315 Clouds 10 1012 58 10000 4.6 250 16:39 01.02.2020
3316 Clouds 11 1012 58 10000 4.6 250 16:21 01.02.2020
3317 Clouds 11 1012 54 10000 5.1 250 15:47 01.02.2020
3318 Clouds 11 1012 54 10000 5.1 250 15:47 01.02.2020
3319 Clouds 12 1012 54 10000 5.1 250 15:29 01.02.2020
3320 Clouds 12 1012 54 10000 5.7 250 14:59 01.02.2020
3321 Clouds 12 1012 54 10000 5.7 250 14:59 01.02.2020
3322 Clouds 12 1012 54 10000 5.7 250 14:39 01.02.2020
3323 Clouds 13 1012 54 10000 5.7 250 14:20 01.02.2020
3324 Clouds 12 1012 62 10000 2.6 320 13:45 01.02.2020
3325 Clouds 12 1012 62 10000 2.6 320 13:45 01.02.2020
3326 Clouds 12 1012 66 10000 1.5 0 13:22 01.02.2020
3327 Clouds 12 1012 66 10000 1.5 0 12:46 01.02.2020
3328 Clouds 12 1013 76 10000 1 0 12:28 01.02.2020
3329 Clouds 12 1013 81 10000 1 0 11:58 01.02.2020
3330 Clouds 11 1011 71 10000 6.2 230 11:38 01.02.2020
3331 Clouds 10 1012 81 10000 2.1 290 11:19 01.02.2020
3332 Clouds 9 1012 87 10000 2.1 300 10:57 01.02.2020
3333 Clouds 9 1012 87 10000 2.1 300 10:38 01.02.2020
3334 Clouds 8 1012 87 10000 2.1 300 10:20 01.02.2020
3335 Clouds 7 1013 87 10000 1 0 09:54 01.02.2020
3336 Clouds 7 1013 87 10000 1 0 09:36 01.02.2020
3337 Clouds 6 1013 87 10000 1 0 09:18 01.02.2020
3338 Clouds 5 1013 93 10000 1 0 08:40 01.02.2020
3339 Clouds 5 1013 87 10000 1 100 07:48 01.02.2020
3340 Clouds 5 1013 87 10000 1 0 07:26 01.02.2020
3341 Clouds 5 1014 81 10000 2.6 230 06:54 01.02.2020
3342 Clouds 5 1014 81 10000 2.6 230 06:54 01.02.2020
3343 Clouds 5 1014 66 10000 4.1 200 06:31 01.02.2020
3344 Clouds 5 1013 93 10000 5.1 250 05:51 01.02.2020
3345 Clouds 6 1015 76 10000 3.6 170 03:43 01.02.2020
3346 Clouds 7 1016 76 10000 2.6 180 03:20 01.02.2020
3347 Clouds 7 1016 93 10000 1.5 100 02:44 01.02.2020
3348 Clouds 6 1016 93 10000 1.5 100 02:24 01.02.2020
3349 Clouds 7 1016 93 10000 0.5 0 01:50 01.02.2020
3350 Clouds 7 1017 93 10000 1 0 01:30 01.02.2020
3351 Clouds 7 1017 87 10000 1.5 0 00:29 01.02.2020
3352 Clouds 7 1017 93 10000 1 0 23:43 31.01.2020
3353 Clouds 7 1017 87 10000 0.5 0 23:20 31.01.2020
3354 Clouds 7 1018 93 10000 1.5 220 22:59 31.01.2020
3355 Clouds 7 1018 93 10000 1.5 220 22:40 31.01.2020
3356 Clouds 7 1018 100 10000 0.5 0 22:21 31.01.2020
3357 Clouds 7 1017 93 10000 1 0 21:56 31.01.2020
3358 Clouds 7 1017 93 10000 1 0 21:37 31.01.2020
3359 Clouds 7 1017 93 10000 1 0 21:37 31.01.2020
3360 Clouds 7 1017 93 10000 1 0 21:19 31.01.2020
3361 Clouds 7 1017 93 10000 1 0 20:56 31.01.2020
3362 Clouds 7 1017 93 10000 1 0 20:37 31.01.2020
3363 Clouds 7 1017 93 10000 1 0 20:18 31.01.2020
3364 Clouds 7 1017 93 10000 1 0 19:55 31.01.2020
3365 Clouds 8 1017 93 10000 1 0 19:37 31.01.2020
3366 Clouds 8 1017 93 10000 1 0 19:18 31.01.2020
3367 Clouds 9 1016 87 10000 1 0 18:40 31.01.2020
3368 Clouds 9 1016 87 10000 1 0 18:22 31.01.2020
3369 Clouds 9 1016 76 10000 2.6 110 17:47 31.01.2020
3370 Clouds 10 1016 76 10000 2.6 110 17:28 31.01.2020
3371 Clouds 11 1017 71 10000 1.5 100 16:59 31.01.2020
3372 Clouds 11 1017 71 10000 1.5 100 16:39 31.01.2020
3373 Clouds 11 1017 71 10000 1.5 100 16:19 31.01.2020
3374 Clouds 12 1017 71 10000 2.1 70 15:58 31.01.2020
3375 Clouds 12 1017 71 10000 2.1 70 15:40 31.01.2020
3376 Clouds 11 1017 71 10000 2.1 70 15:20 31.01.2020
3377 Clouds 12 1017 67 10000 1.5 0 14:45 31.01.2020
3378 Clouds 12 1017 71 10000 2.1 350 14:25 31.01.2020
3379 Clouds 11 1015 76 10000 11.8 280 13:57 31.01.2020
3380 Clouds 11 1017 71 10000 1 0 13:38 31.01.2020
3381 Clouds 11 1017 71 10000 1 0 13:20 31.01.2020
3382 Clouds 10 1017 67 10000 3.1 260 12:45 31.01.2020
3383 Clouds 10 1017 67 10000 2.1 300 12:24 31.01.2020
3384 Clouds 10 1017 67 10000 1.5 0 11:55 31.01.2020
3385 Clouds 10 1017 76 10000 1.5 0 11:37 31.01.2020
3386 Clouds 9 1017 76 10000 1.5 0 11:19 31.01.2020
3387 Clouds 9 1017 71 10000 1.5 250 10:44 31.01.2020
3388 Clouds 8 1017 71 10000 2.6 340 10:23 31.01.2020
3389 Clouds 8 1017 87 10000 1 0 09:59 31.01.2020
3390 Clouds 8 1017 87 10000 1 0 09:41 31.01.2020
3391 Clouds 8 1017 87 10000 1 0 09:19 31.01.2020
3392 Clouds 8 1016 87 10000 1.5 0 08:54 31.01.2020
3393 Clouds 8 1016 87 10000 1.5 0 08:28 31.01.2020
3394 Rain 8 1014 81 10000 12.9 260 07:58 31.01.2020
3395 Clouds 7 1016 87 10000 1 0 07:39 31.01.2020
3396 Clouds 7 1016 87 10000 1 0 07:18 31.01.2020
3397 Clouds 7 1015 93 10000 1 0 06:27 31.01.2020
3398 Clouds 7 1015 93 10000 1 0 06:27 31.01.2020
3399 Clouds 7 1015 93 10000 1.5 90 05:50 31.01.2020
3400 Rain 7 1012 81 10000 13.4 260 04:57 31.01.2020
3401 Clouds 7 1015 93 10000 1 0 03:29 31.01.2020
3402 Rain 6 1015 93 10000 3.6 30 01:40 31.01.2020
3403 Clouds 6 1015 93 10000 0.5 0 00:47 31.01.2020
3404 Rain 5 1015 93 10000 2.1 240 00:28 31.01.2020
3405 Rain 5 1014 100 10000 1 0 23:57 30.01.2020
3406 Rain 5 1015 93 10000 0.5 0 23:26 30.01.2020
3407 Rain 5 1015 93 10000 2.1 290 22:58 30.01.2020
3408 Rain 5 1015 87 9000 2.1 260 22:37 30.01.2020
3409 Rain 5 1015 87 9000 2.1 260 22:18 30.01.2020
3410 Rain 4 1014 87 10000 3.1 270 21:57 30.01.2020
3411 Rain 5 1014 87 10000 2.1 240 21:38 30.01.2020
3412 Rain 5 1014 87 10000 2.1 240 21:18 30.01.2020
3413 Rain 5 1014 87 10000 2.1 240 21:18 30.01.2020
3414 Rain 5 1014 87 10000 2.1 240 21:18 30.01.2020
3415 Rain 5 1012 80 10000 7.7 220 20:41 30.01.2020
3416 Rain 5 1014 65 10000 2.1 200 20:22 30.01.2020
3417 Rain 5 1014 65 10000 2.1 200 20:22 30.01.2020
3418 Rain 5 1014 65 10000 2.1 200 20:22 30.01.2020
3419 Rain 5 1014 65 10000 2.1 200 19:57 30.01.2020
3420 Clouds 5 1014 65 10000 2.1 200 19:39 30.01.2020
3421 Clouds 5 1014 65 10000 2.1 200 19:19 30.01.2020
3422 Clouds 5 1013 70 10000 1 0 18:42 30.01.2020
3423 Clouds 5 1013 70 10000 1 0 18:23 30.01.2020
3424 Clouds 5 1013 70 10000 1 0 17:58 30.01.2020
3425 Clouds 6 1013 70 10000 1 0 17:39 30.01.2020
3426 Clouds 6 1014 70 10000 1 0 17:19 30.01.2020
3427 Clouds 6 1014 70 10000 1 0 16:58 30.01.2020
3428 Clouds 6 1014 70 10000 1 0 16:38 30.01.2020
3429 Clouds 7 1015 70 10000 0.5 0 16:20 30.01.2020
3430 Clouds 7 1015 70 10000 1.5 60 15:44 30.01.2020
3431 Clouds 8 1015 70 10000 1.5 40 15:20 30.01.2020
3432 Clouds 7 1015 49 10000 1.5 70 14:50 30.01.2020
3433 Clouds 8 1016 49 10000 1 0 14:27 30.01.2020
3434 Clouds 7 1016 49 10000 1 0 13:59 30.01.2020
3435 Clouds 7 1017 61 10000 1.5 320 13:38 30.01.2020
3436 Clouds 7 1017 61 10000 1.5 320 13:20 30.01.2020
3437 Clouds 6 1017 65 10000 1.5 0 12:43 30.01.2020
3438 Clouds 6 1017 61 10000 1 0 12:25 30.01.2020
3439 Clouds 5 1017 70 10000 2.1 300 11:59 30.01.2020
3440 Clouds 5 1017 70 10000 2.1 300 11:40 30.01.2020
3441 Clouds 4 1018 70 10000 2.6 280 11:21 30.01.2020
3442 Clouds 4 1018 75 10000 2.6 260 10:44 30.01.2020
3443 Clouds 3 1018 49 10000 3.6 160 10:26 30.01.2020
3444 Clouds 3 1018 52 10000 3.6 160 09:58 30.01.2020
3445 Clouds 3 1018 52 10000 3.6 160 09:58 30.01.2020
3446 Clouds 2 1017 60 10000 5.7 230 09:39 30.01.2020
3447 Clouds 2 1018 60 10000 4.1 180 09:19 30.01.2020
3448 Clouds 1 1017 60 10000 5.1 210 08:42 30.01.2020
3449 Clouds 0 1017 75 10000 5.7 210 08:22 30.01.2020
3450 Clouds 1 1018 75 10000 5.1 180 07:52 30.01.2020
3451 Clouds 1 1017 93 10000 4.6 220 07:32 30.01.2020
3452 Clouds 2 1019 75 10000 4.1 170 06:47 30.01.2020
3453 Clouds 2 1019 70 10000 4.6 170 06:29 30.01.2020
3454 Clouds 2 1019 70 10000 3.6 160 05:47 30.01.2020
3455 Clouds 2 1019 70 10000 3.6 170 05:25 30.01.2020
3456 Rain 2 1019 75 10000 3.6 180 04:23 30.01.2020
3457 Rain 2 1020 75 10000 2.1 200 03:46 30.01.2020
3458 Rain 2 1020 80 10000 1.5 0 02:52 30.01.2020
3459 Clouds 2 1020 80 10000 1 0 00:54 30.01.2020
3460 Rain 2 1020 70 10000 2.1 260 00:23 30.01.2020
3461 Rain 3 1019 70 10000 3.1 250 23:48 29.01.2020
3462 Rain 2 1019 80 10000 1 0 23:22 29.01.2020
3463 Rain 2 1019 75 10000 3.1 270 22:58 29.01.2020
3464 Clouds 3 1019 75 10000 3.1 270 22:39 29.01.2020
3465 Rain 3 1018 75 10000 4.1 300 22:19 29.01.2020
3466 Clouds 3 1018 70 10000 2.6 270 21:58 29.01.2020
3467 Rain 3 1018 70 10000 2.6 270 21:39 29.01.2020
3468 Rain 3 1018 70 10000 2.6 270 21:39 29.01.2020
3469 Rain 3 1018 70 10000 2.6 270 21:39 29.01.2020
3470 Rain 3 1017 75 10000 4.1 280 21:19 29.01.2020
3471 Rain 3 1015 86 2200 5.1 300 20:58 29.01.2020
3472 Rain 3 1015 93 10000 7.7 260 20:38 29.01.2020
3473 Rain 2 1017 75 10000 5.7 280 20:20 29.01.2020
3474 Rain 3 1014 80 3500 8.7 290 19:56 29.01.2020
3475 Clouds 3 1016 75 10000 4.1 260 19:37 29.01.2020
3476 Clouds 3 1016 75 10000 4.1 260 19:37 29.01.2020
3477 Clouds 3 1016 75 10000 4.1 260 19:18 29.01.2020
3478 Rain 3 1015 75 10000 4.1 260 18:46 29.01.2020
3479 Rain 3 1015 81 10000 4.1 260 18:19 29.01.2020
3480 Snow 3 1011 80 6000 11.3 280 17:58 29.01.2020
3481 Rain 3 1015 80 10000 3.6 260 17:38 29.01.2020
3482 Rain 3 1015 80 10000 3.6 260 17:20 29.01.2020
3483 Rain 3 1014 80 10000 3.6 260 16:41 29.01.2020
3484 Rain 3 1014 80 10000 3.6 260 16:23 29.01.2020
3485 Rain 3 1013 80 10000 3.1 260 15:55 29.01.2020
3486 Rain 2 1013 81 10000 3.1 260 15:37 29.01.2020
3487 Rain 3 1013 81 10000 3.1 260 15:18 29.01.2020
3488 Rain 3 1014 86 10000 3.1 260 14:41 29.01.2020
3489 Rain 2 1013 86 7000 4.1 260 14:20 29.01.2020
3490 Rain 2 1013 86 10000 4.1 260 13:41 29.01.2020
3491 Rain 2 1013 75 10000 2.6 280 13:23 29.01.2020
3492 Rain 2 1013 75 10000 3.6 270 12:59 29.01.2020
3493 Rain 2 1013 75 10000 3.6 270 12:40 29.01.2020
3494 Rain 2 1014 75 10000 4.6 240 12:21 29.01.2020
3495 Rain 2 1014 93 10000 4.6 240 11:58 29.01.2020
3496 Rain 2 1014 93 10000 4.6 240 11:40 29.01.2020
3497 Rain 2 1013 87 10000 3.6 230 11:20 29.01.2020
3498 Clouds 2 1013 87 10000 3.6 230 10:46 29.01.2020
3499 Clouds 1 1013 80 10000 4.1 240 10:22 29.01.2020
3500 Rain 1 1012 87 10000 3.1 260 09:57 29.01.2020
3501 Rain 1 1012 87 10000 3.1 260 09:39 29.01.2020
3502 Rain 1 1012 87 10000 3.1 260 09:18 29.01.2020
3503 Rain 1 1010 87 8000 5.1 310 08:42 29.01.2020
3504 Rain 1 1010 87 8000 5.1 310 08:42 29.01.2020
3505 Clouds 1 1009 74 2000 6.7 300 08:22 29.01.2020
3506 Clouds 1 1012 69 10000 4.1 250 07:45 29.01.2020
3507 Clouds 1 1011 69 10000 4.6 250 07:26 29.01.2020
3508 Clouds 1 1011 96 10000 4.1 260 06:56 29.01.2020
3509 Rain 1 1008 86 10000 7.2 240 06:37 29.01.2020
3510 Rain 1 1010 96 10000 5.7 250 06:19 29.01.2020
3511 Rain 1 1007 74 10000 11.3 280 05:49 29.01.2020
3512 Rain 1 1006 80 5000 9.3 280 05:30 29.01.2020
3513 Drizzle 1 1009 86 10000 6.7 270 04:38 29.01.2020
3514 Rain 1 1008 93 10000 1.5 0 03:58 29.01.2020
3515 Rain 1 1006 86 10000 4.1 250 02:33 29.01.2020
3516 Clouds 1 1007 86 10000 2.1 120 00:59 29.01.2020
3517 Clouds 1 1007 93 10000 2.1 260 00:36 29.01.2020
3518 Clouds 1 1007 93 10000 2.1 260 00:18 29.01.2020
3519 Clouds 1 1008 93 10000 3.6 150 23:39 28.01.2020
3520 Clouds 1 1008 94 10000 2.1 170 23:19 28.01.2020
3521 Clouds 1 1008 94 10000 2.6 220 22:46 28.01.2020
3522 Clouds 1 1009 94 10000 1.5 270 22:27 28.01.2020
3523 Clouds 1 1009 94 10000 3.6 250 21:54 28.01.2020
3524 Rain 1 1010 86 10000 4.1 260 21:36 28.01.2020
3525 Rain 1 1010 86 10000 4.1 260 21:18 28.01.2020
3526 Rain 1 1010 86 4500 5.1 250 20:45 28.01.2020
3527 Rain 1 1009 96 10000 6.7 250 20:25 28.01.2020
3528 Rain 1 1009 96 6000 3.6 250 19:55 28.01.2020
3529 Rain 0 1005 96 8000 10.3 280 19:37 28.01.2020
3530 Rain 1 1005 96 8000 10.3 280 19:19 28.01.2020
3531 Rain 1 1005 96 8000 10.3 280 19:19 28.01.2020
3532 Rain 1 1005 96 8000 10.3 280 19:19 28.01.2020
3533 Rain 1 1008 100 6000 12.9 290 18:41 28.01.2020
3534 Snow 1 1003 80 2000 3.6 10 18:23 28.01.2020
3535 Snow 2 1004 96 8000 9.8 270 17:59 28.01.2020
3536 Clouds 2 1006 96 10000 5.7 220 17:39 28.01.2020
3537 Clouds 2 1006 95 10000 5.7 220 17:21 28.01.2020
3538 Snow 2 1004 95 5000 9.8 280 16:57 28.01.2020
3539 Clouds 2 1006 95 10000 5.7 220 16:39 28.01.2020
3540 Snow 3 1003 64 10000 11.3 260 16:21 28.01.2020
3541 Clouds 3 1006 95 10000 5.7 220 15:45 28.01.2020
3542 Clouds 3 1005 52 10000 6.7 220 15:19 28.01.2020
3543 Clouds 3 1005 52 10000 8.2 220 14:57 28.01.2020
3544 Clouds 4 1005 52 10000 8.2 220 14:38 28.01.2020
3545 Clouds 4 1005 52 10000 8.2 220 14:38 28.01.2020
3546 Clouds 3 1002 74 10000 16.5 260 14:18 28.01.2020
3547 Clouds 3 1006 56 10000 8.7 230 13:40 28.01.2020
3548 Rain 3 1006 75 10000 10.3 220 13:22 28.01.2020
3549 Rain 2 1002 86 2000 15.9 270 12:43 28.01.2020
3550 Rain 2 1002 86 2000 15.9 270 12:24 28.01.2020
3551 Rain 2 1002 97 7000 17 280 11:56 28.01.2020
3552 Rain 3 1002 86 10000 8.7 240 11:37 28.01.2020
3553 Rain 3 1004 86 2500 10.3 260 11:19 28.01.2020
3554 Rain 4 1003 87 10000 1.5 0 10:41 28.01.2020
3555 Rain 4 1003 87 10000 1.5 0 10:22 28.01.2020
3556 Clouds 4 1003 81 10000 2.1 300 09:56 28.01.2020
3557 Rain 4 1001 80 10000 12.9 230 09:37 28.01.2020
3558 Rain 4 1004 81 10000 3.6 240 09:19 28.01.2020
3559 Rain 4 1002 86 7000 10.3 250 08:42 28.01.2020
3560 Rain 4 1002 86 9000 7.2 250 08:20 28.01.2020
3561 Rain 4 1002 93 10000 6.2 230 07:38 28.01.2020
3562 Rain 4 1004 87 10000 2.1 190 06:51 28.01.2020
3563 Rain 4 1004 75 10000 1.5 0 06:29 28.01.2020
3564 Rain 4 1004 75 10000 1.5 0 06:29 28.01.2020
3565 Rain 4 1003 86 9000 6.2 230 05:55 28.01.2020
3566 Clouds 4 1005 93 10000 4.6 100 05:33 28.01.2020
3567 Rain 4 1006 93 10000 1 0 04:38 28.01.2020
3568 Rain 4 1006 100 10000 4.1 280 03:36 28.01.2020
3569 Rain 4 1006 87 10000 1 0 02:25 28.01.2020
3570 Clouds 4 1005 86 10000 6.2 210 01:58 28.01.2020
3571 Clouds 4 1006 75 10000 2.6 20 01:40 28.01.2020
3572 Clouds 4 1007 75 10000 4.6 90 00:51 28.01.2020
3573 Clouds 4 1008 81 10000 3.6 110 00:29 28.01.2020
3574 Clouds 4 1008 86 10000 1.5 0 23:52 27.01.2020
3575 Clouds 4 1008 81 10000 1.5 0 23:30 27.01.2020
3576 Clouds 4 1009 86 10000 0.5 0 22:59 27.01.2020
3577 Clouds 4 1009 86 10000 0.5 0 22:41 27.01.2020
3578 Clouds 4 1009 93 10000 1 0 22:20 27.01.2020
3579 Clouds 4 1009 93 10000 0.5 0 21:55 27.01.2020
3580 Clouds 4 1008 75 10000 4.1 180 21:37 27.01.2020
3581 Clouds 4 1009 87 10000 2.6 120 21:18 27.01.2020
3582 Clouds 4 1010 100 9000 2.6 270 20:43 27.01.2020
3583 Clouds 4 1010 100 9000 2.6 270 20:22 27.01.2020
3584 Clouds 5 1010 87 10000 1.5 80 19:59 27.01.2020
3585 Clouds 5 1010 87 10000 1.5 80 19:41 27.01.2020
3586 Clouds 5 1011 100 9000 2.1 120 19:22 27.01.2020
3587 Clouds 5 1011 100 9000 2.1 120 18:56 27.01.2020
3588 Clouds 5 1010 75 10000 3.1 190 18:38 27.01.2020
3589 Clouds 5 1011 100 8000 1 0 18:19 27.01.2020
3590 Clouds 5 1011 100 8000 1 0 17:39 27.01.2020
3591 Clouds 6 1012 93 10000 1.5 280 17:21 27.01.2020
3592 Clouds 6 1012 93 10000 1.5 280 16:59 27.01.2020
3593 Clouds 7 1012 93 10000 1.5 280 16:40 27.01.2020
3594 Clouds 7 1012 93 10000 1.5 280 16:22 27.01.2020
3595 Clouds 7 1012 87 10000 1 0 15:55 27.01.2020
3596 Clouds 8 1012 87 10000 1 0 15:36 27.01.2020
3597 Clouds 8 1012 87 10000 1 0 15:18 27.01.2020
3598 Clouds 8 1013 87 10000 1.5 310 14:41 27.01.2020
3599 Clouds 8 1013 87 10000 1.5 310 14:22 27.01.2020
3600 Clouds 8 1014 87 10000 1.5 0 13:57 27.01.2020
3601 Clouds 8 1013 65 10000 5.1 230 13:37 27.01.2020
3602 Clouds 8 1015 87 10000 3.1 290 13:18 27.01.2020
3603 Clouds 8 1015 87 10000 3.1 290 12:44 27.01.2020
3604 Clouds 8 1016 87 10000 1 0 12:23 27.01.2020
3605 Clouds 7 1016 87 10000 1 0 11:58 27.01.2020
3606 Clouds 7 1016 87 10000 1 0 11:40 27.01.2020
3607 Clouds 6 1017 100 10000 2.6 260 11:19 27.01.2020
3608 Clouds 5 1017 100 10000 2.6 260 10:42 27.01.2020
3609 Clouds 4 1017 100 8000 2.6 110 10:24 27.01.2020
3610 Clouds 3 1017 100 8000 2.6 110 09:40 27.01.2020
3611 Clouds 3 1018 100 10000 1 0 09:19 27.01.2020
3612 Clouds 3 1018 100 10000 1 0 09:19 27.01.2020
3613 Clouds 2 1018 100 10000 1 0 08:59 27.01.2020
3614 Clouds 2 1018 100 10000 1 0 08:40 27.01.2020
3615 Clouds 2 1018 100 10000 1.5 110 08:19 27.01.2020
3616 Clouds 2 1018 100 10000 1.5 110 07:52 27.01.2020
3617 Mist 2 1018 100 2900 0.5 0 07:33 27.01.2020
3618 Mist 2 1018 100 2900 0.5 0 06:49 27.01.2020
3619 Rain 2 1019 100 2900 1.5 110 05:59 27.01.2020
3620 Mist 2 1019 100 3600 1 0 05:18 27.01.2020
3621 Rain 2 1019 100 4500 1.5 280 03:37 27.01.2020
3622 Mist 2 1019 100 3300 2.6 90 02:27 27.01.2020
3623 Rain 2 1020 100 3600 1 0 01:29 27.01.2020
3624 Clouds 2 1020 100 2900 1 220 00:42 27.01.2020
3625 Drizzle 2 1020 93 2600 0.5 0 00:22 27.01.2020
3626 Mist 2 1019 100 2700 1.5 260 23:59 26.01.2020
3627 Mist 1 1019 100 2700 1.5 260 23:40 26.01.2020
3628 Mist 1 1019 100 1500 1 0 23:18 26.01.2020
3629 Fog 2 1020 100 1100 1 90 22:39 26.01.2020
3630 Fog 1 1020 100 300 1 0 22:20 26.01.2020
3631 Fog 1 1020 100 550 2.6 110 21:59 26.01.2020
3632 Fog 1 1020 100 550 2.6 110 21:40 26.01.2020
3633 Fog 1 1020 93 350 1.5 130 21:22 26.01.2020
3634 Fog 1 1020 93 350 1.5 130 21:22 26.01.2020
3635 Fog 1 1020 100 150 1.5 0 20:58 26.01.2020
3636 Fog 1 1019 100 200 1 0 20:40 26.01.2020
3637 Fog 1 1019 100 200 1 0 20:20 26.01.2020
3638 Fog 1 1019 100 200 1 0 19:59 26.01.2020
3639 Fog 1 1019 93 200 2.1 300 19:39 26.01.2020
3640 Fog 1 1019 93 200 2.1 300 19:39 26.01.2020
3641 Fog 2 1019 93 200 2.1 300 19:21 26.01.2020
3642 Fog 2 1019 93 150 1 0 18:58 26.01.2020
3643 Fog 2 1019 93 150 1 0 18:39 26.01.2020
3644 Fog 2 1019 93 150 1 0 18:39 26.01.2020
3645 Fog 2 1019 100 150 1 0 18:21 26.01.2020
3646 Fog 2 1018 93 150 1 0 17:57 26.01.2020
3647 Fog 2 1018 93 150 1 0 17:38 26.01.2020
3648 Fog 4 1019 100 800 1 0 17:18 26.01.2020
3649 Fog 5 1019 100 800 1 0 16:57 26.01.2020
3650 Fog 5 1019 100 800 1 0 16:39 26.01.2020
3651 Fog 5 1019 100 800 1 0 16:19 26.01.2020
3652 Fog 5 1019 100 800 1 0 16:19 26.01.2020
3653 Clouds 5 1019 30 0 1.34 207 15:43 26.01.2020
3654 Clouds 5 1018 62 0 0.45 157 15:22 26.01.2020
3655 Clouds 6 1019 62 0 0.89 153 14:58 26.01.2020
3656 Clouds 6 1019 62 0 0.89 153 14:58 26.01.2020
3657 Clouds 6 1019 63 0 0.45 153 14:38 26.01.2020
3658 Clouds 6 1019 63 0 0.89 163 14:19 26.01.2020
3659 Clouds 6 1017 55 0 0.45 122 13:40 26.01.2020
3660 Clouds 6 1019 66 0 0.56 325 13:19 26.01.2020
3661 Clouds 7 1019 66 0 0.45 241 12:56 26.01.2020
3662 Clouds 7 1019 67 0 0.75 313 12:37 26.01.2020
3663 Clouds 6 1019 69 0 0.75 313 12:19 26.01.2020
3664 Clouds 5 1020 71 0 0.75 313 11:57 26.01.2020
3665 Clouds 5 1020 72 0 0.75 313 11:36 26.01.2020
3666 Fog 3 1020 100 200 0.5 0 11:18 26.01.2020
3667 Fog 3 1020 100 200 0.5 0 10:55 26.01.2020
3668 Fog 3 1020 100 200 0.5 0 10:37 26.01.2020
3669 Fog 2 1020 100 200 0.5 0 10:18 26.01.2020
3670 Fog 2 1020 69 300 0.5 0 09:41 26.01.2020
3671 Fog 1 1020 69 900 0.5 60 09:23 26.01.2020
3672 Fog 1 1020 69 150 2.1 90 08:57 26.01.2020
3673 Fog 0 1020 69 150 2.1 90 08:39 26.01.2020
3674 Fog 0 1020 67 100 2.6 100 08:21 26.01.2020
3675 Fog 0 1020 66 150 2.1 90 07:47 26.01.2020
3676 Fog 0 1020 100 150 2.1 90 07:22 26.01.2020
3677 Fog 0 1020 66 200 1.5 100 06:34 26.01.2020
3678 Fog 0 1020 66 200 2.1 90 05:52 26.01.2020
3679 Fog 0 1020 66 200 2.1 100 05:22 26.01.2020
3680 Fog 0 1020 100 100 1 0 03:23 26.01.2020
3681 Fog 1 1020 100 200 1 0 02:23 26.01.2020
3682 Fog 0 1020 93 300 1 140 01:40 26.01.2020
3683 Fog 0 1021 100 600 0.5 100 01:20 26.01.2020
3684 Fog 0 1021 100 800 0.5 180 00:40 26.01.2020
3685 Fog 0 1021 100 800 0.5 180 00:20 26.01.2020
3686 Clouds 0 1021 89 0 1.87 180 23:38 25.01.2020
3687 Clouds 1 1021 89 0 1.7 182 23:20 25.01.2020
3688 Clouds 1 1019 85 0 0.45 246 22:43 25.01.2020
3689 Clouds 1 1021 88 0 1.7 182 22:20 25.01.2020
3690 Clouds 1 1021 89 0 0.45 161 21:59 25.01.2020
3691 Clouds 1 1019 87 0 0.45 179 21:41 25.01.2020
3692 Clouds 1 1021 88 0 1.7 182 21:22 25.01.2020
3693 Clouds 1 1021 87 0 1.7 182 20:54 25.01.2020
3694 Clouds 1 1021 87 0 0.45 172 20:36 25.01.2020
3695 Clouds 1 1022 86 0 1.57 172 20:18 25.01.2020
3696 Clouds 2 1019 79 0 1.58 172 19:41 25.01.2020
3697 Clouds 2 1023 95 0 0.89 261 19:19 25.01.2020
3698 Clouds 2 1022 84 0 1.58 172 18:56 25.01.2020
3699 Clouds 2 1022 59 0 0.89 236 18:37 25.01.2020
3700 Clouds 2 1022 57 0 1.58 172 18:19 25.01.2020
3701 Clouds 3 1021 55 0 1.57 172 17:39 25.01.2020
3702 Clouds 4 1021 78 0 0.48 4 17:19 25.01.2020
3703 Clouds 4 1021 78 0 0.48 4 17:19 25.01.2020
3704 Clouds 4 1021 76 0 0.48 4 16:56 25.01.2020
3705 Clouds 5 1021 75 0 0.48 4 16:38 25.01.2020
3706 Clouds 5 1021 74 0 0.48 4 16:19 25.01.2020
3707 Clouds 6 1019 66 0 0.48 4 15:46 25.01.2020
3708 Clouds 6 1021 71 0 0.45 300 15:25 25.01.2020
3709 Clouds 6 1021 71 0 0.48 4 14:57 25.01.2020
3710 Clouds 6 1021 72 0 0.48 4 14:39 25.01.2020
3711 Clouds 6 1022 71 0 0.45 163 14:18 25.01.2020
3712 Clouds 5 1019 64 0 0.45 91 13:40 25.01.2020
3713 Clouds 5 1022 75 0 0.5 321 13:22 25.01.2020
3714 Fog 5 1023 54 450 1.5 120 12:43 25.01.2020
3715 Fog 5 1023 54 450 1.5 120 12:43 25.01.2020
3716 Fog 5 1023 54 450 1.5 120 12:22 25.01.2020
3717 Fog 4 1023 54 450 1.5 120 11:45 25.01.2020
3718 Fog 4 1023 54 450 1.5 120 11:45 25.01.2020
3719 Fog 3 1023 54 450 1.5 120 11:21 25.01.2020
3720 Fog 2 1023 54 300 1 0 10:58 25.01.2020
3721 Fog 2 1023 54 300 1 0 10:40 25.01.2020
3722 Fog 1 1023 54 250 1 0 10:20 25.01.2020
3723 Fog 1 1023 54 250 1 0 10:20 25.01.2020
3724 Fog 1 1023 54 200 1 0 09:41 25.01.2020
3725 Fog 0 1023 54 200 0.5 0 09:22 25.01.2020
3726 Fog 0 1023 54 250 1 0 08:44 25.01.2020
3727 Fog 0 1023 54 450 1 110 08:22 25.01.2020
3728 Fog 0 1023 53 450 1 110 07:43 25.01.2020
3729 Fog 0 1022 53 350 0.5 0 06:51 25.01.2020
3730 Fog 0 1022 53 250 0.5 0 06:27 25.01.2020
3731 Fog 0 1022 53 150 0.5 0 05:45 25.01.2020
3732 Fog 0 1022 53 150 0.5 0 04:42 25.01.2020
3733 Fog 0 1022 53 550 1.5 140 03:51 25.01.2020
3734 Fog -1 1023 53 2400 1.5 170 02:54 25.01.2020
3735 Fog -1 1023 52 500 1 220 01:59 25.01.2020
3736 Fog -1 1023 52 500 1 220 01:59 25.01.2020
3737 Mist -1 1023 52 2300 1 230 01:37 25.01.2020
3738 Mist -1 1023 53 2600 1 230 00:43 25.01.2020
3739 Mist -1 1023 53 2800 1 0 00:24 25.01.2020
3740 Fog -1 1023 53 2100 1 220 23:57 24.01.2020
3741 Fog -1 1023 53 2100 1 220 23:38 24.01.2020
3742 Fog -1 1023 53 2100 1 220 23:38 24.01.2020
3743 Fog -1 1023 52 1300 1 230 23:20 24.01.2020
3744 Fog 0 1023 52 800 1.5 220 22:42 24.01.2020
3745 Fog 0 1023 52 250 1.5 270 22:24 24.01.2020
3746 Fog 0 1023 100 150 0.5 0 21:42 24.01.2020
3747 Fog 0 1023 100 250 1 280 21:20 24.01.2020
3748 Fog 0 1023 52 200 0.5 0 20:56 24.01.2020
3749 Clouds 0 1022 52 10000 0.5 190 20:37 24.01.2020
3750 Fog 0 1023 64 250 1.5 0 20:18 24.01.2020
3751 Fog 0 1023 64 150 1.5 100 19:55 24.01.2020
3752 Fog 1 1023 64 150 1.5 100 19:37 24.01.2020
3753 Fog 1 1023 64 150 1.5 100 19:19 24.01.2020
3754 Fog 1 1023 64 250 0.5 0 18:42 24.01.2020
3755 Fog 1 1023 64 250 0.5 0 18:42 24.01.2020
3756 Fog 1 1023 64 500 1 0 18:22 24.01.2020
3757 Fog 1 1023 64 500 1 0 18:22 24.01.2020
3758 Fog 2 1023 64 500 1 0 17:45 24.01.2020
3759 Fog 2 1023 64 500 1 0 17:45 24.01.2020
3760 Mist 3 1023 64 1500 1.5 0 17:22 24.01.2020
3761 Mist 4 1023 73 1500 1.5 330 16:58 24.01.2020
3762 Mist 5 1023 73 2500 1 0 16:38 24.01.2020
3763 Mist 5 1023 73 2500 1 0 16:19 24.01.2020
3764 Mist 5 1023 73 3500 0.5 0 15:42 24.01.2020
3765 Mist 5 1023 73 3500 1.5 0 15:21 24.01.2020
3766 Mist 5 1024 73 3500 1 0 14:55 24.01.2020
3767 Mist 5 1024 73 3500 1 0 14:55 24.01.2020
3768 Mist 5 1024 73 3000 1 0 14:36 24.01.2020
3769 Mist 5 1024 50 3000 1 0 14:18 24.01.2020
3770 Mist 6 1025 50 3500 1 0 13:41 24.01.2020
3771 Clear 6 1024 51 10000 2.1 250 13:21 24.01.2020
3772 Clear 7 1023 60 10000 1.5 210 12:43 24.01.2020
3773 Mist 5 1026 100 2500 1.5 300 12:20 24.01.2020
3774 Mist 4 1026 100 3000 1.5 100 11:44 24.01.2020
3775 Mist 1 1026 100 3000 1.5 100 11:19 24.01.2020
3776 Mist 1 1026 100 2800 2.6 100 10:56 24.01.2020
3777 Mist 0 1026 100 2800 2.6 100 10:38 24.01.2020
3778 Mist -1 1026 100 2800 2.6 100 10:18 24.01.2020
3779 Mist -1 1026 92 3800 1.5 70 09:41 24.01.2020
3780 Mist -2 1026 100 3800 1.5 90 09:23 24.01.2020
3781 Mist -1 1026 92 4000 1 60 08:41 24.01.2020
3782 Mist -4 1026 92 4000 1 60 08:20 24.01.2020
3783 Mist -4 1026 92 5000 2.1 90 07:53 24.01.2020
3784 Clouds -4 1026 92 5000 2.1 90 07:35 24.01.2020
3785 Clouds -3 1025 92 6000 2.6 120 06:48 24.01.2020
3786 Clouds -3 1026 100 5000 3.1 100 06:29 24.01.2020
3787 Clouds -3 1026 100 5000 1.5 110 05:59 24.01.2020
3788 Clouds -4 1026 100 6000 0.5 0 04:58 24.01.2020
3789 Clouds -4 1027 92 7000 1.5 100 02:53 24.01.2020
3790 Clouds -4 1027 100 7000 0.5 0 02:26 24.01.2020
3791 Clouds -4 1027 100 7000 0.5 0 02:26 24.01.2020
3792 Clouds -4 1027 92 8000 1 0 01:46 24.01.2020
3793 Clouds -3 1027 100 8000 0.5 0 01:28 24.01.2020
3794 Clouds -3 1027 92 8000 1.5 0 00:25 24.01.2020
3795 Clouds -3 1027 86 9000 2.1 190 23:49 23.01.2020
3796 Clouds -3 1027 100 10000 0.5 0 23:31 23.01.2020
3797 Clouds -3 1027 92 10000 1.5 190 22:59 23.01.2020
3798 Clouds -3 1027 92 10000 1.5 0 22:38 23.01.2020
3799 Clouds -3 1027 92 10000 1.5 0 22:19 23.01.2020
3800 Clouds -3 1027 100 10000 0.5 0 21:57 23.01.2020
3801 Clouds -3 1027 100 10000 0.5 0 21:39 23.01.2020
3802 Clouds -3 1027 92 10000 1 0 21:20 23.01.2020
3803 Clouds -3 1027 92 10000 1 0 20:58 23.01.2020
3804 Clouds -3 1027 92 10000 1 0 20:38 23.01.2020
3805 Clouds -3 1026 92 10000 1.5 210 20:19 23.01.2020
3806 Clouds -3 1026 92 10000 1.5 210 19:54 23.01.2020
3807 Clouds -3 1026 86 10000 1.5 200 19:36 23.01.2020
3808 Clouds -3 1026 86 10000 1.5 200 19:18 23.01.2020
3809 Clouds -3 1026 86 10000 1.5 200 18:42 23.01.2020
3810 Clouds -2 1026 86 8000 2.1 210 18:20 23.01.2020
3811 Clouds -2 1026 86 8000 2.1 210 17:58 23.01.2020
3812 Clouds -2 1026 86 8000 2.1 210 17:40 23.01.2020
3813 Fog -2 1024 100 300 1.5 90 17:19 23.01.2020
3814 Clouds -2 1026 86 10000 2.1 210 16:55 23.01.2020
3815 Clouds -1 1027 86 10000 1 0 16:36 23.01.2020
3816 Clouds -1 1027 86 10000 1 0 16:18 23.01.2020
3817 Clouds -1 1027 86 10000 1 0 15:54 23.01.2020
3818 Clouds -1 1027 86 10000 1 0 15:36 23.01.2020
3819 Clouds -1 1027 86 10000 1 0 15:18 23.01.2020
3820 Clouds -1 1028 92 8000 0.5 0 14:54 23.01.2020
3821 Clouds -1 1028 92 8000 0.5 0 14:36 23.01.2020
3822 Clouds 0 1028 92 8000 0.5 0 14:18 23.01.2020
3823 Clouds -1 1027 100 6000 3.1 90 13:38 23.01.2020
3824 Clouds -1 1029 86 8000 1 0 13:19 23.01.2020
3825 Fog 0 1027 100 2000 1.5 90 12:47 23.01.2020
3826 Clouds 0 1030 86 8000 1 0 12:25 23.01.2020
3827 Clouds 0 1030 86 8000 1 0 12:25 23.01.2020
3828 Clouds 0 1030 86 10000 1.5 20 11:58 23.01.2020
3829 Clouds 0 1029 100 5000 3.6 50 11:38 23.01.2020
3830 Clouds -3 1030 86 10000 1.5 20 11:19 23.01.2020
3831 Clouds -3 1030 92 6000 1.5 80 10:44 23.01.2020
3832 Clouds -3 1030 92 6000 1.5 80 10:22 23.01.2020
3833 Clouds -4 1031 92 5000 1.5 90 09:59 23.01.2020
3834 Clouds -3 1030 92 6000 2.1 80 09:37 23.01.2020
3835 Clouds -4 1030 92 6000 2.1 80 09:19 23.01.2020
3836 Clouds -4 1030 92 5000 2.1 90 08:41 23.01.2020
3837 Clouds -4 1030 92 5000 2.1 90 08:22 23.01.2020
3838 Mist -4 1031 92 4400 1 0 07:45 23.01.2020
3839 Mist -4 1031 92 4400 1 0 07:26 23.01.2020
3840 Mist -4 1031 100 4400 1.5 130 06:53 23.01.2020
3841 Mist -4 1031 100 4400 1.5 130 06:23 23.01.2020
3842 Mist -4 1031 100 3900 2.1 150 05:57 23.01.2020
3843 Clouds -4 1032 100 6000 2.1 90 04:24 23.01.2020
3844 Mist -3 1033 100 3300 0.5 0 02:34 23.01.2020
3845 Mist -3 1034 100 3300 2.1 70 01:33 23.01.2020
3846 Mist -3 1034 92 3700 1 0 00:27 23.01.2020
3847 Mist -3 1034 92 3500 1 0 23:48 22.01.2020
3848 Mist -3 1034 100 3800 0.5 0 23:30 22.01.2020
3849 Mist -3 1034 100 3800 0.5 0 22:59 22.01.2020
3850 Mist -3 1034 100 3800 0.5 0 22:40 22.01.2020
3851 Mist -3 1034 100 4400 0.5 0 22:22 22.01.2020
3852 Mist -3 1034 100 3800 0.5 0 21:40 22.01.2020
3853 Mist -3 1033 92 4000 1.5 0 21:22 22.01.2020
3854 Mist -3 1033 92 4000 1.5 0 20:57 22.01.2020
3855 Mist -3 1033 92 4000 1.5 0 20:38 22.01.2020
3856 Mist -3 1033 92 4000 1.5 0 20:38 22.01.2020
3857 Mist -2 1033 100 3500 1 0 20:20 22.01.2020
3858 Mist -2 1033 100 3500 1 0 19:56 22.01.2020
3859 Fog -2 1032 100 700 2.1 100 19:38 22.01.2020
3860 Fog -2 1032 100 700 2.1 100 19:38 22.01.2020
3861 Mist -2 1033 100 4000 0.5 0 19:18 22.01.2020
3862 Mist -2 1033 100 4000 0.5 0 18:56 22.01.2020
3863 Fog -2 1032 100 900 3.1 90 18:38 22.01.2020
3864 Mist -2 1033 100 3300 1.5 290 18:19 22.01.2020
3865 Mist -2 1033 100 3300 1.5 110 17:54 22.01.2020
3866 Mist -2 1033 100 3300 1.5 110 17:54 22.01.2020
3867 Mist -1 1032 100 3500 1 0 17:36 22.01.2020
3868 Mist 0 1032 100 3500 1 0 17:18 22.01.2020
3869 Fog 0 1030 92 200 4.1 50 16:42 22.01.2020
3870 Mist 1 1032 100 3600 1.5 0 16:22 22.01.2020
3871 Mist 2 1032 100 3800 1 0 15:58 22.01.2020
3872 Mist 2 1032 100 3800 1 0 15:38 22.01.2020
3873 Mist 2 1033 100 3500 2.1 320 15:20 22.01.2020
3874 Mist 2 1033 100 3500 0.5 0 14:40 22.01.2020
3875 Mist 1 1033 100 3500 0.5 0 14:21 22.01.2020
3876 Mist 1 1033 100 3500 0.5 0 13:59 22.01.2020
3877 Mist 1 1034 92 3900 1 0 13:38 22.01.2020
3878 Mist 1 1034 92 3900 1 0 13:20 22.01.2020
3879 Mist 0 1034 92 3900 1.5 0 12:57 22.01.2020
3880 Mist 2 1034 92 3900 1.5 0 12:39 22.01.2020
3881 Mist 1 1035 92 3000 1.5 0 12:20 22.01.2020
3882 Mist 2 1035 92 3000 1.5 0 11:58 22.01.2020
3883 Mist 1 1035 92 3000 1.5 0 11:40 22.01.2020
3884 Fog -2 1032 85 4000 1.5 250 11:19 22.01.2020
3885 Fog -2 1032 85 4000 1.5 250 11:19 22.01.2020
3886 Fog -3 1032 92 1500 1 320 10:54 22.01.2020
3887 Mist -3 1034 92 3500 0.5 0 10:36 22.01.2020
3888 Mist -3 1034 92 3500 0.5 0 10:18 22.01.2020
3889 Fog -4 1033 92 300 2.6 90 09:41 22.01.2020
3890 Mist -4 1034 100 3800 1.5 90 09:23 22.01.2020
3891 Mist -4 1033 100 3800 2.1 130 08:57 22.01.2020
3892 Mist -3 1033 100 3800 2.1 130 08:38 22.01.2020
3893 Mist -5 1033 92 4600 1 0 08:20 22.01.2020
3894 Mist -5 1033 92 4600 1 0 07:46 22.01.2020
3895 Clouds -5 1034 92 6000 1.5 240 07:27 22.01.2020
3896 Clouds -5 1034 92 6000 1.5 240 06:38 22.01.2020
3897 Clouds -5 1034 92 5000 2.6 190 06:20 22.01.2020
3898 Clouds -5 1034 92 5000 2.6 190 06:20 22.01.2020
3899 Mist -5 1034 92 4900 2.1 190 05:19 22.01.2020
3900 Clouds -5 1035 92 5000 0.5 0 03:29 22.01.2020
3901 Clouds -4 1035 92 5000 0.5 0 02:49 22.01.2020
3902 Clouds -4 1036 92 5000 1.5 0 01:35 22.01.2020
3903 Clouds -4 1036 92 5000 1 0 00:42 22.01.2020
3904 Clouds -4 1036 92 6000 1.5 0 00:23 22.01.2020
3905 Clouds -4 1035 100 1600 2.1 80 23:38 21.01.2020
3906 Clouds -4 1036 92 6000 2.6 250 23:20 21.01.2020
3907 Clouds -4 1036 92 7000 2.6 260 22:42 21.01.2020
3908 Clouds -4 1036 46 7000 2.6 260 22:24 21.01.2020
3909 Clouds -4 1036 46 8000 2.6 250 21:59 21.01.2020
3910 Clouds -4 1036 46 8000 2.6 250 21:59 21.01.2020
3911 Clouds -4 1036 46 8000 2.6 250 21:40 21.01.2020
3912 Clouds -4 1036 92 8000 1.5 240 21:21 21.01.2020
3913 Clouds -3 1036 92 8000 1.5 240 20:59 21.01.2020
3914 Clouds -3 1036 92 8000 1.5 240 20:39 21.01.2020
3915 Clear -3 1036 92 8000 1 0 20:20 21.01.2020
3916 Clear -3 1036 92 8000 1 0 19:58 21.01.2020
3917 Clear -3 1036 92 8000 1 0 19:39 21.01.2020
3918 Clear -3 1037 92 9000 1 200 19:21 21.01.2020
3919 Clear -3 1037 92 9000 1 200 18:57 21.01.2020
3920 Clear -3 1037 92 9000 1 200 18:39 21.01.2020
3921 Clear -3 1037 92 9000 1 200 18:39 21.01.2020
3922 Clouds -2 1037 86 7000 0.5 0 18:20 21.01.2020
3923 Clouds -2 1037 86 7000 0.5 0 17:56 21.01.2020
3924 Clear -2 1036 92 7000 2.6 30 17:37 21.01.2020
3925 Clear -1 1037 64 8000 1.5 230 17:18 21.01.2020
3926 Clear 1 1036 86 9000 4.1 20 16:37 21.01.2020
3927 Clear 1 1038 80 8000 2.6 290 16:19 21.01.2020
3928 Clear 1 1038 80 8000 2.6 290 15:57 21.01.2020
3929 Clear 2 1037 86 10000 3.6 10 15:37 21.01.2020
3930 Clear 2 1038 64 8000 2.1 280 15:19 21.01.2020
3931 Clouds 3 1038 64 10000 2.6 280 14:39 21.01.2020
3932 Clouds 3 1039 44 10000 2.1 310 14:20 21.01.2020
3933 Clouds 3 1039 44 10000 2.1 280 13:43 21.01.2020
3934 Clouds 3 1039 44 10000 2.1 280 13:43 21.01.2020
3935 Clouds 2 1040 44 10000 1.5 0 13:20 21.01.2020
3936 Clouds 2 1040 44 10000 2.1 350 12:57 21.01.2020
3937 Clouds 1 1040 44 10000 2.1 350 12:39 21.01.2020
3938 Clouds 1 1040 44 10000 2.6 280 12:20 21.01.2020
3939 Clouds 0 1040 44 10000 2.6 280 11:41 21.01.2020
3940 Clouds -1 1040 86 10000 1 70 11:22 21.01.2020
3941 Clouds -2 1040 86 10000 1 70 10:59 21.01.2020
3942 Clouds -2 1040 86 10000 1 70 10:40 21.01.2020
3943 Clouds -2 1040 92 10000 1 110 10:21 21.01.2020
3944 Clouds -3 1040 92 10000 1.5 110 09:42 21.01.2020
3945 Clouds -4 1040 92 10000 0.5 0 09:23 21.01.2020
3946 Fog -5 1038 100 600 0.5 0 08:55 21.01.2020
3947 Clear -5 1040 92 10000 0.5 0 08:36 21.01.2020
3948 Clear -5 1040 92 10000 0.5 0 08:36 21.01.2020
3949 Clear -6 1040 92 10000 0.5 0 08:18 21.01.2020
3950 Mist -5 1038 92 1700 1 240 07:41 21.01.2020
3951 Clear -5 1040 92 10000 1 0 07:22 21.01.2020
3952 Clear -5 1040 92 10000 1 0 06:49 21.01.2020
3953 Clouds -5 1040 92 10000 1.5 0 06:30 21.01.2020
3954 Mist -5 1038 100 2000 1.5 100 05:43 21.01.2020
3955 Clear -5 1040 92 10000 1 110 04:41 21.01.2020
3956 Clear -4 1040 92 10000 1 110 02:57 21.01.2020
3957 Clear -5 1040 92 10000 1 120 01:56 21.01.2020
3958 Clear -4 1040 86 10000 1 0 01:26 21.01.2020
3959 Clear -4 1040 86 10000 1 0 00:37 21.01.2020
3960 Clear -4 1040 86 10000 3.1 90 23:59 20.01.2020
3961 Clear -4 1040 86 10000 3.1 90 23:41 20.01.2020
3962 Clear -4 1040 74 10000 2.1 130 23:19 20.01.2020
3963 Clear -4 1040 79 10000 4.1 80 22:56 20.01.2020
3964 Clouds -4 1040 86 10000 4.1 60 22:38 20.01.2020
3965 Clouds -4 1040 86 10000 4.1 60 22:38 20.01.2020
3966 Clear -3 1040 79 10000 4.6 90 22:20 20.01.2020
3967 Clear -3 1040 79 10000 3.6 100 21:57 20.01.2020
3968 Clear -3 1040 86 10000 3.6 100 21:37 20.01.2020
3969 Clear -3 1040 86 10000 3.6 100 21:19 20.01.2020
3970 Clear -3 1040 80 10000 3.6 100 20:56 20.01.2020
3971 Clear -3 1040 80 10000 3.6 100 20:56 20.01.2020
3972 Clouds -3 1040 86 10000 4.1 70 20:38 20.01.2020
3973 Clear -3 1041 80 10000 2.1 100 20:18 20.01.2020
3974 Clear -2 1040 86 10000 1.5 90 19:56 20.01.2020
3975 Clear -2 1040 86 10000 1.5 90 19:56 20.01.2020
3976 Clear -2 1040 86 10000 1.5 90 19:37 20.01.2020
3977 Clear -2 1040 86 10000 1.5 90 19:18 20.01.2020
3978 Clear -2 1040 59 10000 1 0 18:43 20.01.2020
3979 Clear -2 1040 80 10000 1 0 18:22 20.01.2020
3980 Clear -1 1040 69 10000 1.5 220 17:41 20.01.2020
3981 Clear -1 1040 69 10000 1.5 220 17:20 20.01.2020
3982 Clear -1 1040 69 10000 1.5 220 17:20 20.01.2020
3983 Clouds 0 1040 59 10000 1 0 16:59 20.01.2020
3984 Clouds 0 1040 59 10000 1 0 16:37 20.01.2020
3985 Clouds 0 1040 59 10000 1 0 16:18 20.01.2020
3986 Clear 0 1040 55 10000 1.5 100 15:54 20.01.2020
3987 Clouds 1 1041 55 10000 2.1 120 15:36 20.01.2020
3988 Clouds 1 1041 55 10000 2.1 120 15:18 20.01.2020
3989 Clouds 1 1041 51 10000 2.6 100 14:41 20.01.2020
3990 Clouds 1 1041 51 10000 2.6 100 14:41 20.01.2020
3991 Clouds 1 1041 51 10000 2.6 100 14:22 20.01.2020
3992 Clouds 1 1042 64 10000 3.1 80 13:58 20.01.2020
3993 Clouds 1 1042 64 10000 3.1 80 13:40 20.01.2020
3994 Clouds 0 1042 64 10000 3.1 80 13:21 20.01.2020
3995 Clouds 0 1042 69 10000 3.6 80 12:46 20.01.2020
3996 Clouds 0 1042 69 10000 4.1 90 12:27 20.01.2020
3997 Clear 0 1043 52 10000 4.1 80 11:57 20.01.2020
3998 Clouds -1 1043 92 10000 3.6 60 11:38 20.01.2020
3999 Clouds -2 1042 92 6000 2.1 70 11:19 20.01.2020
4000 Clear -2 1043 86 10000 3.6 90 10:47 20.01.2020
4001 Clear -3 1043 79 10000 2.6 110 10:21 20.01.2020
4002 Clear -3 1043 79 10000 2.6 110 10:21 20.01.2020
4003 Fog -4 1042 85 2000 0.5 280 09:42 20.01.2020
4004 Fog -4 1042 92 500 0.5 290 09:24 20.01.2020
4005 Clear -5 1043 92 10000 2.6 110 08:59 20.01.2020
4006 Clear -5 1043 92 10000 2.6 110 08:39 20.01.2020
4007 Fog -5 1042 92 100 1 280 08:20 20.01.2020
4008 Clear -5 1042 92 10000 2.6 90 07:42 20.01.2020
4009 Clear -5 1042 92 10000 2.6 90 07:42 20.01.2020
4010 Clear -5 1042 92 10000 2.6 90 07:22 20.01.2020
4011 Clear -5 1041 92 10000 1.5 0 06:44 20.01.2020
4012 Clear -5 1041 92 10000 2.1 80 06:24 20.01.2020
4013 Clear -4 1041 92 10000 2.6 90 05:41 20.01.2020
4014 Clear -5 1041 92 10000 2.6 100 05:20 20.01.2020
4015 Clear -4 1041 86 10000 3.1 80 04:33 20.01.2020
4016 Clear -4 1041 92 10000 1 190 02:33 20.01.2020
4017 Clouds -4 1041 92 10000 2.1 180 01:40 20.01.2020
4018 Clouds -4 1041 92 10000 0.5 0 01:20 20.01.2020
4019 Clouds -3 1041 92 10000 1 0 00:43 20.01.2020
4020 Clouds -3 1040 92 10000 1 180 00:21 20.01.2020
4021 Clouds -3 1040 92 10000 0.5 0 23:38 19.01.2020
4022 Snow -3 1040 86 10000 1 0 23:19 19.01.2020
4023 Snow -3 1040 94 10000 1 0 22:56 19.01.2020
4024 Fog -3 1039 92 0 1.05 117 22:37 19.01.2020
4025 Clouds -3 1039 94 10000 1 0 22:19 19.01.2020
4026 Snow -3 1039 86 10000 1.5 0 21:56 19.01.2020
4027 Mist -2 1038 92 1200 1 30 21:38 19.01.2020
4028 Mist -2 1038 92 1200 1 30 21:38 19.01.2020
4029 Clouds -2 1039 80 10000 1 0 21:19 19.01.2020
4030 Clouds -2 1038 80 10000 1 0 20:57 19.01.2020
4031 Clouds -2 1038 100 5000 1 0 20:38 19.01.2020
4032 Clouds -2 1038 80 10000 1 0 20:20 19.01.2020
4033 Clouds -2 1038 95 10000 1 0 19:56 19.01.2020
4034 Clouds -1 1038 95 10000 1 0 19:37 19.01.2020
4035 Clouds -1 1038 95 10000 1 0 19:19 19.01.2020
4036 Clouds -1 1038 95 10000 1 0 19:19 19.01.2020
4037 Clouds -1 1038 95 10000 1 0 19:19 19.01.2020
4038 Clouds -1 1037 80 10000 3.1 360 18:55 19.01.2020
4039 Clouds -1 1037 80 10000 3.1 360 18:37 19.01.2020
4040 Clouds -1 1037 80 10000 3.1 360 18:19 19.01.2020
4041 Clouds -1 1036 95 10000 3.1 340 17:57 19.01.2020
4042 Clouds -1 1036 95 10000 3.1 340 17:39 19.01.2020
4043 Clouds 0 1036 89 10000 3.1 340 17:20 19.01.2020
4044 Clouds 0 1035 89 10000 1.5 310 16:57 19.01.2020
4045 Rain 0 1035 89 10000 2.1 290 16:37 19.01.2020
4046 Rain 1 1035 89 10000 2.1 290 16:19 19.01.2020
4047 Rain 1 1035 89 10000 2.1 290 15:56 19.01.2020
4048 Clouds 1 1034 89 7000 2.1 330 15:37 19.01.2020
4049 Clouds 1 1034 89 7000 2.1 330 15:18 19.01.2020
4050 Clouds 1 1034 74 10000 2.6 290 14:56 19.01.2020
4051 Clouds 1 1034 74 10000 2.6 290 14:56 19.01.2020
4052 Clouds 2 1034 74 10000 2.6 290 14:37 19.01.2020
4053 Clouds 1 1034 74 10000 2.6 290 14:18 19.01.2020
4054 Clouds 1 1034 74 10000 2.6 290 14:18 19.01.2020
4055 Clouds 1 1034 74 10000 2.1 340 13:54 19.01.2020
4056 Clouds 1 1034 74 10000 2.1 340 13:36 19.01.2020
4057 Clouds 1 1034 74 10000 2.1 340 13:18 19.01.2020
4058 Clouds 2 1034 77 10000 3.1 340 12:42 19.01.2020
4059 Clouds 1 1034 77 10000 3.1 340 12:23 19.01.2020
4060 Clouds 1 1034 77 10000 3.1 340 11:57 19.01.2020
4061 Clouds 1 1034 77 10000 3.1 340 11:39 19.01.2020
4062 Clouds 1 1034 89 10000 3.1 340 11:18 19.01.2020
4063 Clouds 0 1033 86 10000 2.1 320 10:41 19.01.2020
4064 Clouds 0 1032 89 10000 0.5 0 10:21 19.01.2020
4065 Clouds -1 1032 89 10000 0.5 0 09:58 19.01.2020
4066 Clouds -1 1032 89 10000 0.5 0 09:39 19.01.2020
4067 Clouds -1 1032 86 10000 0.5 0 09:21 19.01.2020
4068 Clouds -1 1031 89 10000 1 0 08:56 19.01.2020
4069 Clouds -1 1030 100 10000 1 150 08:38 19.01.2020
4070 Clouds -1 1031 97 10000 1 0 08:19 19.01.2020
4071 Rain -1 1031 80 10000 1.5 0 07:30 19.01.2020
4072 Rain -1 1030 97 10000 1.5 0 06:56 19.01.2020
4073 Rain -1 1030 97 10000 1.5 0 06:23 19.01.2020
4074 Rain 0 1029 94 10000 2.1 300 04:19 19.01.2020
4075 Clouds 0 1029 94 10000 1.5 280 02:35 19.01.2020
4076 Clouds 0 1028 89 10000 1 0 01:45 19.01.2020
4077 Clouds 0 1028 89 10000 0.5 290 01:22 19.01.2020
4078 Clouds 0 1028 94 10000 1 0 00:45 19.01.2020
4079 Rain 0 1028 94 10000 1 0 00:25 19.01.2020
4080 Rain 0 1028 94 10000 1 0 23:55 18.01.2020
4081 Clouds 1 1028 94 10000 1 0 23:36 18.01.2020
4082 Clouds 1 1028 88 10000 1 0 23:18 18.01.2020
4083 Clouds 1 1028 88 10000 1.5 0 22:42 18.01.2020
4084 Clouds 1 1028 93 10000 1.5 0 22:24 18.01.2020
4085 Clouds 1 1028 93 10000 1.5 0 22:24 18.01.2020
4086 Clouds 1 1028 100 10000 0.5 0 21:58 18.01.2020
4087 Clouds 1 1028 100 10000 0.5 0 21:39 18.01.2020
4088 Clouds 1 1028 93 10000 1 0 21:21 18.01.2020
4089 Clouds 1 1028 93 10000 2.6 70 20:59 18.01.2020
4090 Clouds 1 1028 93 10000 2.6 70 20:41 18.01.2020
4091 Clouds 1 1027 91 10000 0.5 0 20:19 18.01.2020
4092 Clouds 1 1027 91 10000 1.5 180 19:43 18.01.2020
4093 Clouds 1 1027 91 10000 2.1 150 19:24 18.01.2020
4094 Clouds 1 1027 86 10000 1 0 18:43 18.01.2020
4095 Clouds 1 1027 93 10000 1 0 18:25 18.01.2020
4096 Clouds 1 1027 86 10000 1 0 17:59 18.01.2020
4097 Clouds 1 1027 86 10000 1 0 17:40 18.01.2020
4098 Clouds 2 1027 86 10000 1.5 130 17:21 18.01.2020
4099 Clouds 2 1027 86 10000 1.5 130 16:57 18.01.2020
4100 Snow 2 1025 80 10000 4.1 250 16:38 18.01.2020
4101 Snow 2 1025 80 10000 4.1 250 16:38 18.01.2020
4102 Snow 2 1025 80 10000 4.1 250 16:38 18.01.2020
4103 Rain 3 1027 93 10000 1 0 16:19 18.01.2020
4104 Rain 3 1027 93 10000 1 0 15:44 18.01.2020
4105 Clouds 3 1027 93 10000 2.1 130 15:26 18.01.2020
4106 Clouds 4 1027 93 10000 2.6 120 14:59 18.01.2020
4107 Clouds 4 1027 93 10000 2.6 120 14:40 18.01.2020
4108 Rain 4 1027 75 10000 1 0 14:19 18.01.2020
4109 Rain 4 1027 75 10000 1 0 13:56 18.01.2020
4110 Rain 3 1028 80 10000 1.5 280 13:36 18.01.2020
4111 Rain 4 1028 80 10000 1.5 280 13:18 18.01.2020
4112 Rain 3 1028 80 10000 2.1 300 12:41 18.01.2020
4113 Clouds 3 1028 80 10000 2.1 300 12:21 18.01.2020
4114 Clouds 3 1028 80 10000 2.1 270 11:45 18.01.2020
4115 Clouds 2 1028 80 10000 2.1 270 11:24 18.01.2020
4116 Snow 1 1027 96 3600 4.1 280 10:58 18.01.2020
4117 Snow 1 1027 96 3600 4.1 280 10:39 18.01.2020
4118 Clouds 1 1022 86 6000 2.6 20 10:20 18.01.2020
4119 Clouds 1 1022 86 6000 2.6 20 10:20 18.01.2020
4120 Clouds 2 1026 93 10000 3.6 210 09:49 18.01.2020
4121 Clouds 2 1021 92 6000 2.6 20 09:31 18.01.2020
4122 Clouds 2 1027 75 10000 2.1 260 08:57 18.01.2020
4123 Clouds 2 1026 93 10000 3.6 210 08:39 18.01.2020
4124 Clouds 2 1027 93 10000 1 0 08:19 18.01.2020
4125 Clouds 2 1027 93 10000 1 0 07:50 18.01.2020
4126 Rain 2 1020 100 3000 3.1 20 07:31 18.01.2020
4127 Rain 2 1025 93 6000 6.2 260 06:48 18.01.2020
4128 Rain 2 1025 93 10000 4.1 220 05:59 18.01.2020
4129 Rain 2 1020 92 6000 2.6 20 05:24 18.01.2020
4130 Rain 3 1025 86 9000 4.6 250 02:56 18.01.2020
4131 Rain 3 1024 93 8000 6.7 310 01:56 18.01.2020
4132 Rain 3 1023 87 10000 3.6 240 01:35 18.01.2020
4133 Rain 4 1023 81 10000 2.1 0 00:37 18.01.2020
4134 Rain 4 1023 81 10000 2.1 0 00:37 18.01.2020
4135 Rain 4 1023 81 10000 2.1 0 00:18 18.01.2020
4136 Rain 4 1023 81 10000 2.1 0 00:18 18.01.2020
4137 Rain 4 1023 81 10000 2.1 0 00:18 18.01.2020
4138 Rain 4 1023 93 5000 2.6 120 23:41 17.01.2020
4139 Rain 5 1023 100 6000 2.1 90 23:20 17.01.2020
4140 Rain 5 1023 100 5000 1 100 22:46 17.01.2020
4141 Rain 5 1023 93 9000 0.5 0 22:22 17.01.2020
4142 Rain 5 1023 93 9000 0.5 0 22:22 17.01.2020
4143 Drizzle 5 1022 93 10000 2.1 100 21:59 17.01.2020
4144 Drizzle 5 1022 93 10000 2.1 100 21:41 17.01.2020
4145 Drizzle 5 1022 93 10000 1 0 21:22 17.01.2020
4146 Drizzle 5 1022 93 10000 1 0 20:58 17.01.2020
4147 Drizzle 5 1022 93 10000 1 0 20:38 17.01.2020
4148 Clouds 5 1022 93 10000 1 0 20:20 17.01.2020
4149 Clouds 5 1022 93 10000 1 0 19:55 17.01.2020
4150 Clouds 5 1022 93 10000 1 0 19:55 17.01.2020
4151 Clouds 5 1022 93 10000 1 0 19:55 17.01.2020
4152 Clouds 5 1021 93 10000 1 0 19:37 17.01.2020
4153 Clouds 5 1021 93 10000 1 0 19:37 17.01.2020
4154 Clouds 5 1021 93 10000 1 0 19:18 17.01.2020
4155 Clouds 5 1021 93 10000 1 0 18:47 17.01.2020
4156 Clouds 6 1020 93 10000 1 0 18:29 17.01.2020
4157 Clouds 6 1020 93 10000 1 0 17:58 17.01.2020
4158 Clouds 6 1020 93 10000 1 0 17:39 17.01.2020
4159 Clouds 6 1020 87 10000 1 0 17:20 17.01.2020
4160 Clouds 7 1020 93 10000 1 0 16:43 17.01.2020
4161 Clouds 7 1020 87 10000 1 0 16:21 17.01.2020
4162 Clouds 7 1020 81 10000 1 0 15:55 17.01.2020
4163 Clouds 7 1020 81 10000 1 0 15:37 17.01.2020
4164 Clouds 8 1020 81 10000 1 0 15:19 17.01.2020
4165 Clouds 7 1021 87 10000 1 0 14:43 17.01.2020
4166 Clouds 7 1021 87 10000 1 0 14:23 17.01.2020
4167 Clouds 8 1022 93 10000 3.1 280 13:42 17.01.2020
4168 Clouds 8 1022 93 10000 3.1 280 13:23 17.01.2020
4169 Clouds 8 1022 93 10000 3.6 280 12:47 17.01.2020
4170 Clouds 8 1022 86 10000 3.6 280 12:23 17.01.2020
4171 Clouds 7 1022 93 10000 3.6 280 11:43 17.01.2020
4172 Clouds 5 1023 86 10000 3.1 290 11:20 17.01.2020
4173 Clouds 4 1022 93 10000 0.5 0 10:56 17.01.2020
4174 Clouds 4 1021 80 10000 3.6 200 10:38 17.01.2020
4175 Clouds 3 1022 48 10000 0.5 0 10:20 17.01.2020
4176 Clouds 2 1022 48 10000 0.5 0 09:44 17.01.2020
4177 Clouds 1 1023 92 10000 2.1 100 09:21 17.01.2020
4178 Clouds 0 1023 92 10000 2.1 100 08:58 17.01.2020
4179 Clouds 0 1023 92 10000 2.1 100 08:40 17.01.2020
4180 Clear 0 1023 100 10000 0.5 0 08:21 17.01.2020
4181 Clear 0 1023 100 10000 0.5 0 07:46 17.01.2020
4182 Clear 0 1023 100 10000 0.5 130 07:28 17.01.2020
4183 Clear 0 1023 92 10000 1 0 06:55 17.01.2020
4184 Clear 0 1023 100 10000 1 0 06:35 17.01.2020
4185 Clear -1 1023 100 8000 0.5 0 04:32 17.01.2020
4186 Clear 0 1023 85 0 0.89 154 03:19 17.01.2020
4187 Clear 0 1024 86 0 2.24 139 02:32 17.01.2020
4188 Clear 0 1024 86 0 1.34 137 01:44 17.01.2020
4189 Clear 0 1025 69 0 2.94 169 01:22 17.01.2020
4190 Clear 0 1024 85 0 0.89 157 00:37 17.01.2020
4191 Clear 0 1025 92 10000 1 220 00:00 17.01.2020
4192 Clear 0 1025 92 10000 1 220 23:41 16.01.2020
4193 Clear 0 1025 92 10000 1 220 23:22 16.01.2020
4194 Clear 1 1025 60 10000 0.5 0 22:41 16.01.2020
4195 Clear 1 1025 60 10000 0.5 0 22:21 16.01.2020
4196 Clear 1 1025 60 10000 1 0 21:57 16.01.2020
4197 Clear 1 1025 60 10000 2.1 60 21:38 16.01.2020
4198 Clear 2 1025 60 10000 0.5 0 21:19 16.01.2020
4199 Clear 2 1026 60 10000 1 0 20:56 16.01.2020
4200 Clear 2 1025 80 10000 1 0 20:38 16.01.2020
4201 Clouds 3 1026 93 10000 1 0 20:18 16.01.2020
4202 Clouds 3 1026 93 10000 2.1 100 19:55 16.01.2020
4203 Clouds 3 1026 86 10000 1.5 150 19:37 16.01.2020
4204 Clouds 4 1026 86 10000 1.5 150 19:18 16.01.2020
4205 Clouds 4 1026 86 10000 1.5 150 18:55 16.01.2020
4206 Clouds 4 1026 93 10000 1 0 18:36 16.01.2020
4207 Clouds 4 1026 93 10000 1 0 18:36 16.01.2020
4208 Clouds 5 1026 93 10000 1 0 18:18 16.01.2020
4209 Clouds 5 1026 93 10000 1 0 17:41 16.01.2020
4210 Clouds 5 1026 93 10000 1 0 17:41 16.01.2020
4211 Clouds 6 1026 81 10000 1.5 280 17:22 16.01.2020
4212 Clouds 7 1026 81 10000 1.5 280 16:57 16.01.2020
4213 Clouds 8 1026 81 10000 1.5 280 16:38 16.01.2020
4214 Clouds 8 1026 65 10000 2.1 280 16:19 16.01.2020
4215 Clouds 8 1026 65 10000 2.1 280 15:44 16.01.2020
4216 Clouds 10 1026 66 10000 0.5 0 15:22 16.01.2020
4217 Clouds 9 1026 66 10000 0.5 0 14:56 16.01.2020
4218 Clouds 10 1026 57 10000 3.6 80 14:37 16.01.2020
4219 Clouds 10 1027 61 10000 2.6 280 14:19 16.01.2020
4220 Clouds 10 1027 61 10000 2.6 280 13:44 16.01.2020
4221 Clouds 10 1028 70 10000 3.1 280 13:25 16.01.2020
4222 Clouds 10 1028 75 10000 3.6 280 12:46 16.01.2020
4223 Clouds 9 1028 75 10000 3.6 280 12:28 16.01.2020
4224 Clouds 8 1029 75 10000 2.1 280 11:57 16.01.2020
4225 Clouds 7 1029 75 10000 2.1 280 11:39 16.01.2020
4226 Clouds 7 1029 75 10000 2.1 280 11:21 16.01.2020
4227 Clouds 6 1029 93 10000 0.5 0 10:39 16.01.2020
4228 Clouds 5 1029 93 10000 0.5 0 10:21 16.01.2020
4229 Clouds 4 1029 86 10000 1 0 09:58 16.01.2020
4230 Clouds 4 1029 86 10000 1 0 09:40 16.01.2020
4231 Clouds 4 1029 86 10000 1 0 09:21 16.01.2020
4232 Clouds 3 1029 93 10000 1 240 08:52 16.01.2020
4233 Clouds 3 1029 93 10000 1 240 08:34 16.01.2020
4234 Clouds 3 1029 86 10000 1 0 07:59 16.01.2020
4235 Clouds 4 1029 86 10000 1 0 07:39 16.01.2020
4236 Clouds 3 1029 86 10000 1 0 07:20 16.01.2020
4237 Clouds 4 1028 86 10000 1 0 06:43 16.01.2020
4238 Clouds 4 1028 93 10000 0.5 270 06:21 16.01.2020
4239 Clouds 4 1029 86 10000 1 0 05:45 16.01.2020
4240 Clouds 4 1028 86 10000 0.5 0 04:40 16.01.2020
4241 Clouds 4 1028 93 10000 1 0 03:28 16.01.2020
4242 Clouds 4 1028 86 10000 1 0 02:43 16.01.2020
4243 Clouds 3 1028 80 10000 1 0 01:24 16.01.2020
4244 Clouds 3 1027 57 10000 1 0 00:24 16.01.2020
4245 Clouds 3 1027 86 10000 2.6 90 23:51 15.01.2020
4246 Clouds 3 1026 80 10000 2.1 90 23:23 15.01.2020
4247 Clouds 3 1026 69 10000 1.5 0 22:59 15.01.2020
4248 Clouds 3 1026 69 10000 1.5 0 22:41 15.01.2020
4249 Clouds 4 1026 57 10000 2.1 130 22:19 15.01.2020
4250 Clouds 4 1026 57 10000 2.1 130 22:19 15.01.2020
4251 Clouds 4 1025 65 10000 2.1 0 21:58 15.01.2020
4252 Clouds 4 1025 65 10000 2.1 0 21:40 15.01.2020
4253 Clouds 4 1025 60 10000 2.6 110 21:21 15.01.2020
4254 Clouds 4 1025 60 10000 2.6 110 20:58 15.01.2020
4255 Clouds 4 1025 60 10000 2.6 110 20:40 15.01.2020
4256 Clear 4 1025 60 10000 2.6 110 20:21 15.01.2020
4257 Clear 4 1024 80 10000 2.6 100 19:55 15.01.2020
4258 Clear 4 1024 80 10000 2.6 100 19:55 15.01.2020
4259 Clear 4 1024 80 10000 2.6 100 19:55 15.01.2020
4260 Clear 4 1024 80 10000 2.6 100 19:37 15.01.2020
4261 Clear 4 1024 80 10000 2.6 100 19:19 15.01.2020
4262 Clear 5 1023 80 10000 1.5 0 18:57 15.01.2020
4263 Clear 4 1023 80 10000 1.5 0 18:38 15.01.2020
4264 Clear 5 1023 68 10000 1 0 18:20 15.01.2020
4265 Clear 5 1023 68 10000 1 0 18:20 15.01.2020
4266 Clear 5 1023 68 10000 1 0 18:20 15.01.2020
4267 Clear 5 1023 68 10000 1 0 17:58 15.01.2020
4268 Clear 5 1023 68 10000 1 0 17:40 15.01.2020
4269 Clear 6 1022 75 10000 0.5 0 17:21 15.01.2020
4270 Clear 7 1022 65 10000 1 0 16:42 15.01.2020
4271 Clear 8 1022 70 10000 2.1 80 16:24 15.01.2020
4272 Clear 8 1021 65 10000 2.1 120 15:59 15.01.2020
4273 Clear 8 1021 65 10000 2.1 120 15:41 15.01.2020
4274 Clear 8 1021 75 10000 0.5 0 15:20 15.01.2020
4275 Clear 7 1021 81 10000 2.1 280 14:44 15.01.2020
4276 Clouds 8 1021 81 10000 2.6 270 14:21 15.01.2020
4277 Clouds 8 1021 80 10000 2.6 290 13:56 15.01.2020
4278 Clouds 9 1019 53 10000 4.6 230 13:38 15.01.2020
4279 Clouds 8 1020 80 10000 3.1 280 13:20 15.01.2020
4280 Clouds 9 1020 80 10000 2.1 280 12:54 15.01.2020
4281 Clouds 9 1021 80 10000 2.6 280 12:36 15.01.2020
4282 Clouds 8 1021 80 10000 2.6 280 12:18 15.01.2020
4283 Clouds 7 1020 56 10000 2.6 200 11:38 15.01.2020
4284 Clouds 5 1021 80 10000 1 0 11:19 15.01.2020
4285 Clouds 4 1021 40 10000 1 0 10:47 15.01.2020
4286 Clouds 3 1021 40 10000 1 150 10:28 15.01.2020
4287 Clouds 2 1021 40 10000 1 120 09:57 15.01.2020
4288 Clouds 2 1021 40 10000 1 120 09:57 15.01.2020
4289 Clouds 1 1021 40 10000 1 120 09:38 15.01.2020
4290 Clouds 0 1021 92 10000 1 0 09:19 15.01.2020
4291 Clouds 0 1021 92 10000 1 0 08:44 15.01.2020
4292 Clouds -1 1020 86 10000 1 330 08:24 15.01.2020
4293 Clouds -1 1020 86 10000 1 330 07:54 15.01.2020
4294 Clouds -2 1020 92 10000 2.6 100 07:33 15.01.2020
4295 Clouds -2 1020 92 10000 2.6 100 06:49 15.01.2020
4296 Clouds -1 1020 92 10000 0.5 0 06:26 15.01.2020
4297 Clouds -1 1020 92 10000 1 300 04:46 15.01.2020
4298 Clouds 0 1020 86 10000 1 0 02:40 15.01.2020
4299 Clouds 0 1020 33 10000 2.1 110 01:47 15.01.2020
4300 Clouds 1 1020 33 10000 0.5 0 01:20 15.01.2020
4301 Clouds 1 1019 86 10000 1 0 00:37 15.01.2020
4302 Clouds 1 1019 86 10000 1 0 00:19 15.01.2020
4303 Clouds 2 1019 86 10000 1 0 23:46 14.01.2020
4304 Clouds 2 1019 93 10000 2.6 110 23:24 14.01.2020
4305 Clouds 3 1019 38 10000 1 190 22:54 14.01.2020
4306 Clouds 3 1019 86 10000 2.1 260 22:36 14.01.2020
4307 Clouds 3 1019 86 10000 2.1 260 22:18 14.01.2020
4308 Clouds 3 1019 86 10000 2.1 260 22:18 14.01.2020
4309 Clouds 3 1019 86 10000 0.5 0 21:55 14.01.2020
4310 Clouds 3 1020 38 10000 0.5 0 21:36 14.01.2020
4311 Clouds 3 1020 38 10000 0.5 0 21:18 14.01.2020
4312 Clouds 3 1020 38 10000 0.5 0 21:18 14.01.2020
4313 Clouds 3 1020 38 10000 0.5 0 20:41 14.01.2020
4314 Clouds 3 1020 46 10000 2.1 110 20:21 14.01.2020
4315 Clouds 3 1020 46 10000 2.1 110 19:56 14.01.2020
4316 Clouds 3 1020 46 10000 2.1 110 19:56 14.01.2020
4317 Clouds 3 1020 46 10000 2.1 110 19:38 14.01.2020
4318 Clouds 3 1020 93 7000 1.5 90 19:19 14.01.2020
4319 Clouds 3 1020 93 7000 1.5 90 18:56 14.01.2020
4320 Clouds 4 1019 65 10000 3.1 190 18:37 14.01.2020
4321 Clouds 4 1019 65 10000 3.1 190 18:37 14.01.2020
4322 Clouds 4 1019 93 7000 1.5 270 18:19 14.01.2020
4323 Clouds 4 1019 93 7000 1.5 270 18:19 14.01.2020
4324 Clouds 5 1019 93 7000 1.5 270 17:39 14.01.2020
4325 Clouds 5 1019 86 8000 0.5 0 17:19 14.01.2020
4326 Clouds 6 1019 86 8000 0.5 0 16:56 14.01.2020
4327 Clouds 6 1019 86 10000 1.5 50 16:38 14.01.2020
4328 Clouds 7 1019 86 10000 1.5 50 16:19 14.01.2020
4329 Clouds 7 1019 93 8000 0.5 0 15:43 14.01.2020
4330 Clouds 7 1019 93 8000 0.5 0 15:19 14.01.2020
4331 Clouds 7 1019 86 8000 0.5 0 14:59 14.01.2020
4332 Clouds 7 1019 86 8000 0.5 0 14:41 14.01.2020
4333 Clouds 7 1019 93 8000 0.5 0 14:19 14.01.2020
4334 Clouds 6 1019 100 8000 0.5 0 13:42 14.01.2020
4335 Mist 7 1019 100 4500 1.5 0 13:20 14.01.2020
4336 Mist 7 1020 100 4500 1.5 0 12:56 14.01.2020
4337 Mist 7 1020 100 4500 1.5 0 12:56 14.01.2020
4338 Clouds 7 1018 52 10000 5.7 220 12:38 14.01.2020
4339 Mist 6 1020 100 3500 1.5 0 12:20 14.01.2020
4340 Fog 6 1020 100 800 1.5 250 11:41 14.01.2020
4341 Fog 4 1020 36 800 2.6 280 11:22 14.01.2020
4342 Fog 3 1019 30 200 1.5 90 10:56 14.01.2020
4343 Clouds 2 1018 69 10000 4.6 210 10:38 14.01.2020
4344 Fog 1 1019 100 200 1.5 90 10:19 14.01.2020
4345 Fog 1 1019 100 150 3.1 130 09:55 14.01.2020
4346 Fog 0 1019 100 200 2.6 120 09:37 14.01.2020
4347 Fog -1 1019 100 200 2.6 120 09:19 14.01.2020
4348 Fog -1 1019 100 150 2.6 270 08:41 14.01.2020
4349 Fog -2 1019 27 150 2.6 270 08:22 14.01.2020
4350 Mist -2 1019 27 3300 2.1 260 07:51 14.01.2020
4351 Mist -2 1018 100 3300 2.1 260 07:24 14.01.2020
4352 Clouds -2 1017 92 8000 0.5 0 06:43 14.01.2020
4353 Clouds -1 1017 100 10000 1 0 05:59 14.01.2020
4354 Clouds -1 1018 100 5000 0.5 0 04:51 14.01.2020
4355 Mist -2 1018 100 4900 2.6 100 03:47 14.01.2020
4356 Clouds -2 1019 92 5000 0.5 130 02:39 14.01.2020
4357 Clouds -2 1019 100 7000 1 110 01:21 14.01.2020
4358 Clouds -1 1019 100 8000 1 0 00:48 14.01.2020
4359 Clouds -1 1019 100 5000 1 0 00:22 14.01.2020
4360 Clouds -1 1018 100 5000 0.5 0 23:44 13.01.2020
4361 Mist -1 1018 100 3700 1 290 23:19 13.01.2020
4362 Mist -1 1018 100 3900 0.5 0 22:57 13.01.2020
4363 Mist -1 1018 100 3900 0.5 0 22:39 13.01.2020
4364 Clouds -1 1019 100 6000 0.5 0 22:19 13.01.2020
4365 Clouds -1 1019 100 6000 0.5 210 21:55 13.01.2020
4366 Clouds -1 1020 100 10000 0.5 0 21:37 13.01.2020
4367 Clouds 0 1020 100 10000 0.5 0 21:18 13.01.2020
4368 Clouds -1 1020 100 10000 0.5 120 20:56 13.01.2020
4369 Clouds 0 1020 47 10000 0.5 200 20:37 13.01.2020
4370 Clouds 0 1020 47 10000 0.5 200 20:37 13.01.2020
4371 Clouds 0 1020 48 10000 0.5 200 20:19 13.01.2020
4372 Clouds 0 1020 48 10000 0.5 200 20:19 13.01.2020
4373 Clouds 0 1020 100 10000 1 0 19:41 13.01.2020
4374 Clouds 0 1020 47 10000 0.5 0 19:20 13.01.2020
4375 Clouds 0 1020 47 10000 1 0 18:58 13.01.2020
4376 Clouds 0 1020 47 10000 1 0 18:58 13.01.2020
4377 Clouds 1 1019 47 10000 1 0 18:38 13.01.2020
4378 Clouds 1 1019 47 10000 1 0 18:38 13.01.2020
4379 Clouds 1 1020 86 10000 2.1 250 18:19 13.01.2020
4380 Clouds 2 1020 80 10000 2.1 240 17:58 13.01.2020
4381 Clouds 2 1020 80 10000 2.1 240 17:38 13.01.2020
4382 Clouds 2 1020 86 10000 2.6 250 17:20 13.01.2020
4383 Clouds 3 1022 57 0 0.9 173 16:42 13.01.2020
4384 Clouds 4 1022 52 0 1.34 136 16:22 13.01.2020
4385 Clouds 5 937 49 0 0.9 173 15:58 13.01.2020
4386 Clouds 5 1020 55 0 0.45 157 15:40 13.01.2020
4387 Clouds 5 1021 30 0 0.9 173 15:20 13.01.2020
4388 Clouds 5 1021 51 0 0.45 292 14:43 13.01.2020
4389 Clouds 5 1022 68 0 0.9 173 14:24 13.01.2020
4390 Clouds 5 1022 51 0 0.89 232 13:59 13.01.2020
4391 Clouds 5 1022 50 0 0.45 202 13:39 13.01.2020
4392 Clouds 5 1022 50 0 0.45 202 13:39 13.01.2020
4393 Clouds 5 1023 54 0 0.54 281 13:21 13.01.2020
4394 Clouds 5 1023 53 0 0.54 281 12:56 13.01.2020
4395 Clouds 4 1024 93 8000 1 0 12:37 13.01.2020
4396 -273 0 0 0 0 0 12:19 13.01.2020
4397 Clouds 4 1024 93 8000 1 0 12:19 13.01.2020
4398 Clouds 3 1024 93 8000 1 0 11:39 13.01.2020
4399 Clouds 2 1024 32 7000 1 0 11:20 13.01.2020
4400 Clouds 1 1024 32 7000 1 0 10:57 13.01.2020
4401 Clouds 2 1024 32 7000 1 0 10:57 13.01.2020
4402 Clouds 1 1024 32 7000 1 0 10:39 13.01.2020
4403 Clouds 1 1024 92 7000 0.5 0 10:20 13.01.2020
4404 Clouds 1 1024 92 7000 0.5 0 10:20 13.01.2020
4405 Clouds 0 1024 92 7000 0.5 0 09:56 13.01.2020
4406 Clouds 0 1024 100 10000 1.5 100 09:38 13.01.2020
4407 Clouds -1 1024 100 10000 1.5 100 09:19 13.01.2020
4408 Clouds -2 1024 100 10000 1.5 100 08:39 13.01.2020
4409 Clouds -2 1025 100 8000 1 0 08:20 13.01.2020
4410 Clouds -2 1025 100 8000 1 0 08:20 13.01.2020
4411 Clouds -2 1025 100 8000 1 0 07:46 13.01.2020
4412 Clouds -2 1025 100 7000 1 210 07:27 13.01.2020
4413 Clouds -2 1025 100 10000 0.5 0 06:40 13.01.2020
4414 Clouds -2 1025 100 10000 0.5 0 06:19 13.01.2020
4415 Clouds -2 1026 92 10000 1 120 05:20 13.01.2020
4416 Clouds -2 1026 100 7000 1 0 03:52 13.01.2020
4417 Clouds -2 1027 100 10000 1 120 03:22 13.01.2020
4418 Clouds -1 1027 100 8000 1.5 0 02:38 13.01.2020
4419 Clouds -1 1027 100 8000 0.5 0 02:18 13.01.2020
4420 Clouds -1 1028 100 6000 1.5 110 00:59 13.01.2020
4421 Clouds -1 1028 100 6000 1.5 110 00:39 13.01.2020
4422 Clouds -1 1028 92 6000 0.5 0 00:19 13.01.2020
4423 Clouds 0 1028 100 6000 0.5 0 23:41 12.01.2020
4424 Clouds 0 1028 92 7000 1.5 0 23:23 12.01.2020
4425 Clouds 0 1028 100 10000 1 220 22:57 12.01.2020
4426 Clouds 0 1028 100 10000 1 220 22:39 12.01.2020
4427 Clouds 0 1028 36 10000 0.5 0 22:20 12.01.2020
4428 Clouds 0 1028 36 10000 0.5 0 21:55 12.01.2020
4429 Clouds 1 1028 36 10000 0.5 0 21:37 12.01.2020
4430 Clouds 0 1028 36 10000 0.5 0 21:19 12.01.2020
4431 Clouds 1 1029 36 9000 1 0 20:55 12.01.2020
4432 Clouds 1 1028 36 8000 1 230 20:37 12.01.2020
4433 Clouds 1 1028 34 8000 1 230 20:19 12.01.2020
4434 Clouds 1 1028 34 10000 1 280 19:54 12.01.2020
4435 Clouds 1 1028 100 8000 1 0 19:36 12.01.2020
4436 Clouds 2 1028 100 8000 1 0 19:18 12.01.2020
4437 Clouds 2 1028 34 8000 2.1 270 18:54 12.01.2020
4438 Clouds 2 1028 34 10000 1 0 18:36 12.01.2020
4439 Clouds 2 1028 34 10000 1 0 18:18 12.01.2020
4440 Clouds 2 1026 80 10000 4.6 240 17:42 12.01.2020
4441 Clouds 3 1027 93 10000 1.5 110 17:21 12.01.2020
4442 Clouds 3 1027 86 10000 1.5 150 16:57 12.01.2020
4443 Clouds 4 1025 74 10000 5.1 230 16:38 12.01.2020
4444 Clouds 4 1028 93 6000 1.5 100 16:19 12.01.2020
4445 Clouds 4 1028 93 6000 1.5 120 15:43 12.01.2020
4446 Clear 4 1024 37 10000 2.6 20 15:25 12.01.2020
4447 Clouds 5 1026 80 10000 4.6 250 14:59 12.01.2020
4448 Clouds 5 1026 80 10000 4.6 250 14:41 12.01.2020
4449 Clear 5 1024 40 10000 2.6 30 14:21 12.01.2020
4450 Clouds 5 1026 86 10000 5.1 250 13:55 12.01.2020
4451 Clouds 4 1026 93 7000 5.1 240 13:37 12.01.2020
4452 Clouds 5 1026 93 7000 5.1 240 13:18 12.01.2020
4453 Clouds 5 1026 93 7000 5.1 240 13:18 12.01.2020
4454 Clouds 4 1028 100 5000 2.6 310 12:43 12.01.2020
4455 Clouds 3 1029 100 4000 2.1 330 12:21 12.01.2020
4456 Clouds 3 1029 100 4000 2.1 330 11:59 12.01.2020
4457 Clouds 3 1029 100 4000 2.1 330 11:39 12.01.2020
4458 Mist 1 1029 100 3500 0.5 0 11:21 12.01.2020
4459 Fog 0 1029 25 150 0.5 0 10:42 12.01.2020
4460 Fog 0 1029 25 150 0.5 0 10:22 12.01.2020
4461 Fog -1 1028 25 150 1 0 09:59 12.01.2020
4462 Fog -1 1028 25 150 1 0 09:41 12.01.2020
4463 Fog -1 1028 25 250 2.6 100 09:20 12.01.2020
4464 Fog -2 1028 25 2400 2.6 100 08:45 12.01.2020
4465 Mist -3 1028 29 3400 2.6 110 08:21 12.01.2020
4466 Clouds -2 1028 29 6000 3.1 90 07:44 12.01.2020
4467 Clouds -2 1028 29 6000 2.6 110 07:25 12.01.2020
4468 Mist -3 1028 29 3100 2.1 110 06:50 12.01.2020
4469 Mist -3 1028 29 3900 2.1 100 06:32 12.01.2020
4470 Clouds -3 1028 29 6000 2.1 90 05:47 12.01.2020
4471 Clouds -2 1029 31 9000 2.1 100 04:51 12.01.2020
4472 Clouds -3 1029 31 6000 1 90 03:29 12.01.2020
4473 Clouds -2 1029 31 10000 1 0 02:34 12.01.2020
4474 Clouds -2 1029 37 10000 2.1 140 01:58 12.01.2020
4475 Clouds -2 1029 37 10000 2.1 130 01:30 12.01.2020
4476 Clouds -2 1030 100 5000 1.5 110 00:44 12.01.2020
4477 Mist -2 1030 100 3700 0.5 0 00:21 12.01.2020
4478 Clouds -2 1030 37 8000 1.5 0 23:55 11.01.2020
4479 Clouds -1 1030 37 7000 1 130 23:37 11.01.2020
4480 Clouds -2 1030 51 7000 1 130 23:18 11.01.2020
4481 Clouds -1 1030 100 10000 1.5 110 22:42 11.01.2020
4482 Mist -1 1030 51 4900 1 0 22:21 11.01.2020
4483 Clouds 0 1030 100 6000 0.5 0 21:59 11.01.2020
4484 Clouds -1 1030 100 6000 0.5 0 21:41 11.01.2020
4485 Clouds 0 1030 93 9000 1 0 21:18 11.01.2020
4486 Clouds 0 1031 100 10000 0.5 0 20:55 11.01.2020
4487 Clouds 0 1031 100 10000 1 0 20:36 11.01.2020
4488 Clouds 0 1031 100 10000 1 0 20:18 11.01.2020
4489 Clouds 0 1031 93 10000 1 0 19:54 11.01.2020
4490 Clouds 1 1031 93 10000 1 0 19:36 11.01.2020
4491 Clouds 1 1031 93 10000 1 0 19:18 11.01.2020
4492 Clouds 2 1031 86 10000 1 0 18:39 11.01.2020
4493 Clouds 2 1031 93 10000 1 220 18:20 11.01.2020
4494 Clouds 2 1031 93 10000 1 220 17:58 11.01.2020
4495 Clouds 2 1031 93 10000 1 220 17:40 11.01.2020
4496 Clouds 3 1031 93 10000 1.5 260 17:20 11.01.2020
4497 Clouds 4 1031 86 10000 1.5 260 16:46 11.01.2020
4498 Clouds 4 1031 86 10000 1.5 260 16:46 11.01.2020
4499 Clouds 5 1031 75 10000 1 0 16:28 11.01.2020
4500 Clouds 5 1031 75 10000 1 0 15:59 11.01.2020
4501 Clouds 5 1031 75 10000 1 0 15:41 11.01.2020
4502 Clouds 5 1031 81 10000 1 0 15:22 11.01.2020
4503 Clouds 5 1031 81 10000 1 0 15:22 11.01.2020
4504 Clouds 5 1032 87 10000 1.5 0 14:58 11.01.2020
4505 Clouds 5 1032 87 10000 1.5 0 14:39 11.01.2020
4506 Clouds 5 1032 87 10000 1 0 14:21 11.01.2020
4507 Clouds 5 1032 87 10000 1 0 13:41 11.01.2020
4508 Clouds 5 1032 81 10000 1 0 13:20 11.01.2020
4509 Clouds 5 1032 81 10000 1 0 12:59 11.01.2020
4510 Clouds 5 1032 81 10000 1 0 12:40 11.01.2020
4511 Clouds 5 1032 87 10000 1 0 12:21 11.01.2020
4512 Clouds 5 1033 93 10000 1.5 0 11:48 11.01.2020
4513 Clouds 4 1033 93 10000 0.5 0 11:26 11.01.2020
4514 Clouds 4 1033 100 10000 1 120 10:51 11.01.2020
4515 Clouds 4 1033 100 10000 1 120 10:30 11.01.2020
4516 Clouds 3 1033 100 10000 1 90 09:58 11.01.2020
4517 Clouds 3 1033 100 5000 1.5 100 09:38 11.01.2020
4518 Clouds 3 1033 100 5000 1.5 100 09:20 11.01.2020
4519 Clouds 3 1033 100 10000 0.5 0 08:42 11.01.2020
4520 Drizzle 3 1033 93 10000 1 230 08:21 11.01.2020
4521 Drizzle 3 1033 100 10000 0.5 0 07:44 11.01.2020
4522 Drizzle 3 1033 93 10000 0.5 0 07:25 11.01.2020
4523 Drizzle 3 1032 93 10000 1.5 100 06:50 11.01.2020
4524 Clouds 3 1032 100 10000 1.5 90 05:40 11.01.2020
4525 Drizzle 3 1032 100 10000 1.5 220 04:46 11.01.2020
4526 Drizzle 3 1032 100 10000 1.5 210 04:27 11.01.2020
4527 Rain 3 1031 93 8000 2.1 230 02:49 11.01.2020
4528 Rain 4 1031 93 5000 3.1 310 02:20 11.01.2020
4529 Clouds 4 1031 93 10000 1.5 0 01:42 11.01.2020
4530 Drizzle 4 1030 93 8000 1 0 01:18 11.01.2020
4531 Rain 4 1030 87 10000 3.1 280 00:38 11.01.2020
4532 Snow 5 1029 86 10000 5.7 280 23:59 10.01.2020
4533 Drizzle 5 1030 75 10000 3.1 260 23:40 10.01.2020
4534 Drizzle 5 1030 75 10000 3.1 260 23:40 10.01.2020
4535 Clouds 5 1029 70 10000 2.1 260 23:21 10.01.2020
4536 Clouds 5 1029 81 10000 2.1 280 22:56 10.01.2020
4537 Rain 5 1029 75 10000 2.1 290 22:38 10.01.2020
4538 Rain 6 1029 75 10000 2.1 290 22:19 10.01.2020
4539 Rain 6 1028 75 10000 1 0 21:55 10.01.2020
4540 Clouds 6 1028 81 10000 1.5 240 21:36 10.01.2020
4541 Clouds 6 1028 81 10000 1.5 240 21:18 10.01.2020
4542 Clouds 6 1027 86 10000 1 0 20:42 10.01.2020
4543 Clouds 6 1027 86 10000 1 0 20:24 10.01.2020
4544 Clouds 6 1026 81 10000 1 0 19:54 10.01.2020
4545 Clouds 6 1026 81 10000 1 0 19:36 10.01.2020
4546 Clouds 6 1026 81 10000 1 0 19:18 10.01.2020
4547 Clouds 6 1025 80 10000 1 0 18:41 10.01.2020
4548 Clouds 6 1025 80 10000 1 0 18:19 10.01.2020
4549 Clouds 6 1025 80 10000 1 0 18:19 10.01.2020
4550 Clouds 6 1024 70 10000 1 0 17:57 10.01.2020
4551 Clouds 6 1024 70 10000 1 0 17:38 10.01.2020
4552 Clouds 6 1024 70 10000 1 0 17:20 10.01.2020
4553 Clouds 7 1024 61 10000 1 0 16:55 10.01.2020
4554 Clouds 7 1024 61 10000 1 0 16:37 10.01.2020
4555 Clouds 7 1024 61 10000 1 0 16:18 10.01.2020
4556 Clouds 7 1023 61 10000 1 0 15:55 10.01.2020
4557 Clouds 8 1023 57 10000 3.1 100 15:36 10.01.2020
4558 Clouds 8 1023 57 10000 3.1 100 15:18 10.01.2020
4559 Clouds 8 1023 57 10000 3.1 100 15:18 10.01.2020
4560 Clouds 8 1023 70 10000 3.1 90 14:42 10.01.2020
4561 Clouds 8 1023 70 10000 3.1 90 14:20 10.01.2020
4562 Clouds 8 1022 70 10000 2.1 110 13:58 10.01.2020
4563 Clouds 8 1022 70 10000 2.1 110 13:58 10.01.2020
4564 Clouds 8 1022 70 10000 2.1 110 13:40 10.01.2020
4565 Clouds 9 1022 66 10000 1 0 13:22 10.01.2020
4566 Clouds 9 1022 75 10000 1 0 12:57 10.01.2020
4567 Clouds 8 1022 75 10000 2.1 290 12:38 10.01.2020
4568 Clouds 8 1022 75 10000 2.1 290 12:18 10.01.2020
4569 Clouds 7 1022 75 10000 2.1 290 11:54 10.01.2020
4570 Clouds 7 1022 75 10000 2.6 280 11:36 10.01.2020
4571 Clouds 7 1022 75 10000 2.6 280 11:18 10.01.2020
4572 Clouds 5 1022 75 10000 2.6 280 10:39 10.01.2020
4573 Clouds 5 1021 86 10000 2.1 270 10:21 10.01.2020
4574 Clouds 5 1021 80 10000 2.1 270 09:56 10.01.2020
4575 Clouds 4 1020 78 10000 2.1 130 09:37 10.01.2020
4576 Clouds 4 1020 78 10000 2.1 130 09:19 10.01.2020
4577 Clouds 3 1021 86 10000 1 0 08:41 10.01.2020
4578 Clouds 3 1021 86 10000 1 0 08:22 10.01.2020
4579 Clouds 3 1020 86 10000 1 0 07:44 10.01.2020
4580 Clouds 3 1020 89 10000 1 0 07:24 10.01.2020
4581 Clouds 3 1020 89 10000 2.6 90 06:45 10.01.2020
4582 Clouds 3 1020 89 10000 1 0 06:25 10.01.2020
4583 Clouds 3 1020 86 10000 1.5 100 05:46 10.01.2020
4584 Clouds 2 1019 86 10000 1 0 03:35 10.01.2020
4585 Clouds 2 1019 80 10000 2.1 280 02:59 10.01.2020
4586 Clouds 2 1018 64 10000 5.7 210 02:38 10.01.2020
4587 Clouds 1 1017 60 10000 6.2 210 01:38 10.01.2020
4588 Clouds 2 1018 86 10000 0.5 0 01:19 10.01.2020
4589 Clouds 2 1018 86 10000 2.6 100 00:39 10.01.2020
4590 Clouds 1 1018 57 10000 1 0 23:58 09.01.2020
4591 Clouds 2 1018 57 10000 3.1 270 23:38 09.01.2020
4592 Clouds 3 1018 64 10000 3.1 270 23:20 09.01.2020
4593 Clouds 2 1018 92 10000 2.1 280 22:57 09.01.2020
4594 Clouds 3 1018 64 10000 1 0 22:37 09.01.2020
4595 Clouds 2 1018 64 10000 1 0 22:19 09.01.2020
4596 Clouds 2 1018 93 10000 1.5 0 21:56 09.01.2020
4597 Clouds 3 1018 86 10000 1.5 110 21:37 09.01.2020
4598 Clouds 3 1018 86 10000 1.5 110 21:18 09.01.2020
4599 Clouds 3 1018 86 10000 1.5 110 20:56 09.01.2020
4600 Clouds 3 1018 86 10000 1.5 110 20:38 09.01.2020
4601 Clouds 3 1019 68 10000 2.1 110 20:19 09.01.2020
4602 Clouds 3 1019 68 10000 2.1 110 20:19 09.01.2020
4603 Clouds 3 1019 68 10000 2.1 110 20:19 09.01.2020
4604 Clouds 3 1018 60 10000 3.6 210 19:55 09.01.2020
4605 Clouds 4 1019 60 10000 0.5 0 19:36 09.01.2020
4606 Clouds 4 1020 93 10000 0.5 0 19:18 09.01.2020
4607 Clouds 4 1019 60 10000 1.5 270 18:54 09.01.2020
4608 Clouds 4 1019 60 10000 1.5 270 18:54 09.01.2020
4609 Clouds 4 1020 93 10000 0.5 0 18:36 09.01.2020
4610 Clouds 4 1020 93 10000 0.5 0 18:18 09.01.2020
4611 Clouds 5 1020 93 10000 0.5 0 17:41 09.01.2020
4612 Clouds 6 1020 87 10000 1.5 0 17:18 09.01.2020
4613 Clouds 6 1020 87 10000 1.5 0 17:18 09.01.2020
4614 Clouds 7 1020 87 10000 1.5 0 16:47 09.01.2020
4615 Clouds 7 1019 56 10000 4.1 210 16:23 09.01.2020
4616 Clouds 7 1019 56 10000 4.1 210 16:23 09.01.2020
4617 Clouds 8 1019 72 10000 3.6 220 15:56 09.01.2020
4618 Clouds 8 1020 81 10000 2.1 80 15:56 09.01.2020
4619 Clouds 8 1020 81 10000 2.1 80 15:38 09.01.2020
4620 Clouds 9 1021 81 10000 1.5 300 15:18 09.01.2020
4621 Clouds 9 1021 81 10000 1.5 300 14:41 09.01.2020
4622 Clouds 9 1022 81 10000 1.5 310 14:21 09.01.2020
4623 Clouds 10 1020 43 10000 6.7 230 13:57 09.01.2020
4624 Clouds 10 1020 43 10000 5.7 230 13:39 09.01.2020
4625 Clouds 10 1022 87 10000 2.1 290 13:20 09.01.2020
4626 Clouds 10 1021 45 10000 7.2 230 12:58 09.01.2020
4627 Clouds 9 1022 87 10000 2.1 290 12:58 09.01.2020
4628 Clouds 10 1023 81 10000 2.1 290 12:38 09.01.2020
4629 Clouds 9 1023 80 10000 1.5 290 12:19 09.01.2020
4630 Clouds 8 1023 80 10000 1.5 290 11:43 09.01.2020
4631 Clouds 7 1023 80 10000 1.5 290 11:25 09.01.2020
4632 Clouds 6 1024 80 10000 2.1 290 10:59 09.01.2020
4633 Clouds 5 1024 80 10000 2.6 270 10:41 09.01.2020
4634 Clouds 4 1024 48 10000 1 270 10:22 09.01.2020
4635 Clouds 3 1024 48 10000 1 270 09:49 09.01.2020
4636 Clouds 3 1024 48 10000 1 270 09:26 09.01.2020
4637 Clouds 1 1025 100 10000 1.5 100 08:59 09.01.2020
4638 Clouds 2 1025 48 10000 0.5 0 08:40 09.01.2020
4639 Clouds 1 1023 64 10000 5.1 200 08:22 09.01.2020
4640 Clouds 1 1024 64 10000 6.2 210 07:55 09.01.2020
4641 Clouds 1 1026 43 10000 0.5 0 07:35 09.01.2020
4642 Clouds 1 1024 55 10000 4.1 200 06:54 09.01.2020
4643 Clouds 1 1026 43 10000 2.6 110 06:32 09.01.2020
4644 Clouds 1 1026 93 10000 1 110 05:52 09.01.2020
4645 Clouds 1 1025 64 10000 3.6 200 05:28 09.01.2020
4646 Clouds 2 1026 93 10000 2.1 260 04:41 09.01.2020
4647 Clouds 2 1025 64 10000 3.1 230 03:28 09.01.2020
4648 Clouds 2 1027 43 10000 2.1 100 02:47 09.01.2020
4649 Clouds 2 1027 39 4400 2.04 174 01:53 09.01.2020
4650 Clouds 2 1028 100 10000 1 110 01:33 09.01.2020
4651 Clouds 2 1029 40 10000 2.1 280 00:39 09.01.2020
4652 Clouds 2 1029 40 10000 1 0 00:19 09.01.2020
4653 Clouds 2 1029 40 10000 2.1 110 23:41 08.01.2020
4654 Clouds 2 1027 60 10000 3.6 210 23:23 08.01.2020
4655 Clouds 2 1029 40 7000 0.5 140 22:56 08.01.2020
4656 Clouds 2 1029 40 10000 1 190 22:38 08.01.2020
4657 Clouds 2 1029 100 8000 1 200 22:19 08.01.2020
4658 Clouds 2 1029 100 8000 1 200 21:55 08.01.2020
4659 Clouds 2 1029 100 9000 1 200 21:37 08.01.2020
4660 Clouds 2 1029 93 10000 0.5 230 21:18 08.01.2020
4661 Clouds 2 1028 69 10000 2.6 210 20:55 08.01.2020
4662 Clouds 3 1029 93 10000 0.5 0 20:37 08.01.2020
4663 Clouds 3 1029 93 10000 0.5 0 20:18 08.01.2020
4664 Clouds 3 1029 93 10000 1 210 19:39 08.01.2020
4665 Clouds 3 1029 93 10000 1 210 19:20 08.01.2020
4666 Clouds 3 1028 60 10000 2.6 200 18:58 08.01.2020
4667 Clouds 3 1030 93 10000 1 0 18:39 08.01.2020
4668 Clouds 3 1030 93 10000 1 0 18:39 08.01.2020
4669 Clouds 3 1029 86 10000 1 0 18:19 08.01.2020
4670 Clouds 4 1028 64 10000 2.6 200 17:57 08.01.2020
4671 Clouds 4 1030 93 10000 1 180 17:39 08.01.2020
4672 Clouds 4 1030 100 10000 2.1 300 17:20 08.01.2020
4673 Clouds 5 1028 64 10000 3.6 210 16:56 08.01.2020
4674 Clouds 5 1030 93 10000 1.5 300 16:38 08.01.2020
4675 Clouds 5 1030 100 10000 1.5 310 16:19 08.01.2020
4676 Clouds 5 1030 100 10000 1.5 310 15:45 08.01.2020
4677 Clouds 5 1028 60 10000 4.1 240 15:22 08.01.2020
4678 Clouds 5 1030 93 10000 1 0 15:22 08.01.2020
4679 Clouds 5 1030 93 10000 1 0 14:59 08.01.2020
4680 Clouds 5 1030 93 10000 1 0 14:40 08.01.2020
4681 Clouds 5 1030 93 10000 2.1 280 14:21 08.01.2020
4682 Clouds 5 1030 93 10000 2.1 280 13:42 08.01.2020
4683 Clouds 5 1028 65 10000 3.6 230 13:22 08.01.2020
4684 Clouds 6 1029 69 10000 5.1 230 12:55 08.01.2020
4685 Mist 5 1031 93 4500 1 0 12:37 08.01.2020
4686 Mist 5 1032 100 3000 1.5 290 12:18 08.01.2020
4687 Mist 4 1032 100 3000 1.5 290 11:48 08.01.2020
4688 Mist 4 1032 100 3000 1.5 290 11:48 08.01.2020
4689 Fog 3 1031 100 900 1.5 70 11:19 08.01.2020
4690 Clouds 2 1030 69 10000 3.1 200 10:59 08.01.2020
4691 Fog 2 1031 100 900 1.5 70 10:40 08.01.2020
4692 Fog 1 1031 93 700 1 0 10:21 08.01.2020
4693 Fog 1 1031 93 700 1 0 10:21 08.01.2020
4694 Fog 1 1031 93 700 1 0 10:21 08.01.2020
4695 Fog 0 1031 100 600 1.5 280 09:43 08.01.2020
4696 Fog 0 1030 100 250 1 0 09:20 08.01.2020
4697 Fog 0 1030 100 250 1 0 08:59 08.01.2020
4698 Fog 0 1030 100 250 1 0 08:40 08.01.2020
4699 Fog -1 1030 100 1000 1.5 0 08:21 08.01.2020
4700 Clear -1 1028 74 10000 5.1 210 07:52 08.01.2020
4701 Clear -1 1028 74 10000 5.1 210 07:52 08.01.2020
4702 Clear -1 1028 25 10000 4.1 220 07:34 08.01.2020
4703 Mist -2 1030 100 2500 1 210 06:58 08.01.2020
4704 Mist -2 1030 100 2500 1 0 06:40 08.01.2020
4705 Clear -2 1028 92 10000 3.1 190 05:55 08.01.2020
4706 Mist -2 1030 100 3800 1.5 220 05:25 08.01.2020
4707 Fog -2 1030 29 200 1.5 230 04:36 08.01.2020
4708 Fog -2 1030 29 150 2.1 220 02:46 08.01.2020
4709 Clear -2 1028 100 6000 1.5 180 02:28 08.01.2020
4710 Clouds -2 1029 100 5000 0.5 0 01:55 08.01.2020
4711 Mist -2 1030 92 4400 1 0 01:29 08.01.2020
4712 Clear -1 1030 37 6000 1 0 00:42 08.01.2020
4713 Clear -1 1030 100 6000 1 0 00:21 08.01.2020
4714 Clear -1 1030 37 10000 1 0 23:45 07.01.2020
4715 Clear 0 1030 57 10000 1 0 23:20 07.01.2020
4716 Clear 0 1031 93 10000 2.6 110 22:41 07.01.2020
4717 Clear 0 1031 100 10000 1.5 0 22:21 07.01.2020
4718 Clear 0 1031 100 10000 1.5 0 21:59 07.01.2020
4719 Clouds 1 1031 93 10000 1.5 150 21:41 07.01.2020
4720 Clouds 1 1030 57 10000 2.1 160 21:21 07.01.2020
4721 Clouds 1 1030 57 10000 2.1 160 20:57 07.01.2020
4722 Clouds 1 1032 100 9000 2.1 100 20:39 07.01.2020
4723 Clouds 1 1031 93 10000 0.5 200 20:21 07.01.2020
4724 Clouds 1 1031 100 10000 2.1 200 19:56 07.01.2020
4725 Clouds 2 1031 100 10000 0.5 0 19:37 07.01.2020
4726 Clouds 2 1031 100 10000 0.5 0 19:18 07.01.2020
4727 Clouds 2 1031 100 10000 0.5 0 19:18 07.01.2020
4728 Clouds 2 1030 100 10000 1.5 180 18:55 07.01.2020
4729 Clouds 2 1031 93 10000 0.5 0 18:37 07.01.2020
4730 Clouds 2 1031 93 10000 0.5 0 18:18 07.01.2020
4731 Clouds 2 1031 93 10000 0.5 0 18:18 07.01.2020
4732 -273 0 0 0 0 0 17:40 07.01.2020
4733 Clouds 3 1031 93 10000 1.5 0 17:22 07.01.2020
4734 Clouds 3 1031 93 10000 1.5 0 16:57 07.01.2020
4735 Clouds 3 1031 93 10000 1.5 0 16:38 07.01.2020
4736 Clouds 3 1031 93 10000 1.5 0 16:38 07.01.2020
4737 Clouds 3 1031 93 10000 1.5 0 16:38 07.01.2020
4738 Clouds 3 1031 93 10000 1.5 0 16:38 07.01.2020
4739 Clouds 4 1030 93 10000 1.5 90 16:19 07.01.2020
4740 Clouds 4 1030 93 10000 1.5 90 15:59 07.01.2020
4741 Clouds 4 1030 93 10000 1.5 90 15:40 07.01.2020
4742 Clouds 4 1030 93 10000 0.5 0 15:22 07.01.2020
4743 Clouds 4 1029 86 10000 3.6 220 14:55 07.01.2020
4744 Clouds 4 1030 93 10000 0.5 0 14:37 07.01.2020
4745 Clouds 4 1031 93 10000 2.1 80 14:18 07.01.2020
4746 Clouds 4 1031 93 10000 2.1 80 13:39 07.01.2020
4747 Clouds 3 1031 93 10000 1 0 13:19 07.01.2020
4748 Rain 3 1031 93 9000 1.5 100 12:41 07.01.2020
4749 Rain 3 1031 93 9000 3.1 130 12:20 07.01.2020
4750 Clouds 3 1029 93 10000 5.1 220 11:57 07.01.2020
4751 Rain 3 1031 93 9000 3.1 130 11:38 07.01.2020
4752 Clouds 2 1031 100 9000 2.1 110 11:20 07.01.2020
4753 Clouds 2 1031 100 9000 2.1 120 10:42 07.01.2020
4754 Rain 2 1029 93 10000 5.1 220 10:24 07.01.2020
4755 Rain 2 1029 93 10000 6.2 220 09:58 07.01.2020
4756 Clouds 2 1030 100 8000 1 190 09:38 07.01.2020
4757 Clouds 2 1029 96 3900 1 0 09:20 07.01.2020
4758 Mist 2 1029 96 1300 2.6 110 08:43 07.01.2020
4759 Mist 2 1029 96 1300 2.6 110 08:25 07.01.2020
4760 Clouds 2 1027 60 10000 6.2 240 07:54 07.01.2020
4761 Mist 2 1029 60 2200 1.5 0 07:28 07.01.2020
4762 Mist 1 1029 60 2200 1.5 0 07:28 07.01.2020
4763 Clouds 1 1026 74 10000 5.7 230 06:53 07.01.2020
4764 Fog 1 1028 60 600 2.1 250 06:34 07.01.2020
4765 Clouds 2 1025 69 10000 6.7 230 05:55 07.01.2020
4766 Fog 0 1027 49 100 0.5 0 04:41 07.01.2020
4767 Fog 0 1027 49 100 2.6 120 03:27 07.01.2020
4768 Fog 0 1027 44 100 1.5 290 02:22 07.01.2020
4769 Fog 0 1027 44 100 0.5 0 01:52 07.01.2020
4770 Clear 0 1025 69 10000 6.2 220 01:30 07.01.2020
4771 Fog -1 1027 45 550 1 0 00:37 07.01.2020
4772 Fog 0 1028 45 1000 2.1 250 00:18 07.01.2020
4773 Mist 0 1027 45 1400 1 0 23:39 06.01.2020
4774 Mist 0 1028 41 2400 1.5 170 23:21 06.01.2020
4775 Mist 0 1028 41 2400 1.5 170 22:58 06.01.2020
4776 Mist 0 1028 41 2100 2.1 190 22:38 06.01.2020
4777 Mist 0 1028 41 2400 1 0 22:20 06.01.2020
4778 Clear 0 1025 69 10000 4.6 230 21:56 06.01.2020
4779 Mist 0 1028 41 2700 1.5 190 21:56 06.01.2020
4780 Mist 0 1028 41 2700 1.5 190 21:37 06.01.2020
4781 Mist 0 1028 41 3500 1 240 21:19 06.01.2020
4782 Mist 0 1028 41 3500 1 240 20:56 06.01.2020
4783 Mist 0 1028 41 3300 1.5 230 20:37 06.01.2020
4784 Mist 0 1028 100 3500 1.5 220 20:19 06.01.2020
4785 Clear 0 1025 48 10000 4.1 260 19:55 06.01.2020
4786 Clear 0 1025 48 10000 3.6 250 19:37 06.01.2020
4787 Mist 0 1027 92 3600 1 210 19:18 06.01.2020
4788 Mist 0 1028 48 6000 1.5 240 18:44 06.01.2020
4789 Clouds 1 1028 48 6000 1.5 240 18:21 06.01.2020
4790 Clouds 1 1028 48 6000 1.5 240 17:40 06.01.2020
4791 Clouds 1 1028 48 6000 1.5 240 17:40 06.01.2020
4792 Clouds 2 1028 57 6000 1.5 280 17:20 06.01.2020
4793 Clouds 2 1028 57 6000 1.5 280 16:58 06.01.2020
4794 Clouds 3 1028 57 6000 1.5 280 16:40 06.01.2020
4795 Clouds 4 1028 57 4500 2.1 270 16:22 06.01.2020
4796 Clouds 4 1028 57 4500 2.1 270 15:59 06.01.2020
4797 Clouds 4 1028 57 4500 2.1 250 15:37 06.01.2020
4798 Clouds 5 1028 57 6000 2.1 270 15:18 06.01.2020
4799 Clouds 4 1028 57 6000 2.6 280 14:41 06.01.2020
4800 Clouds 5 1028 45 6000 2.1 290 14:22 06.01.2020
4801 Clear 5 1026 65 10000 2.6 230 14:22 06.01.2020
4802 Clouds 5 1028 45 6000 2.1 290 13:59 06.01.2020
4803 Mist 4 1029 45 5000 1.5 0 13:39 06.01.2020
4804 Mist 4 1029 45 5000 0.5 0 13:21 06.01.2020
4805 Clear 4 1027 69 10000 4.1 240 12:55 06.01.2020
4806 Clear 4 1028 74 10000 4.6 220 12:37 06.01.2020
4807 Clear 4 1028 74 10000 4.6 220 12:37 06.01.2020
4808 Mist 3 1030 45 2100 1 0 12:18 06.01.2020
4809 Fog 3 1030 100 1000 2.1 100 11:42 06.01.2020
4810 Clear 2 1028 80 10000 3.1 230 11:24 06.01.2020
4811 Clear 0 1029 37 10000 2.6 240 10:59 06.01.2020
4812 Clouds 0 1031 37 8000 1 0 10:40 06.01.2020
4813 Clouds 0 1031 100 8000 1.5 110 10:20 06.01.2020
4814 Clouds -2 1031 92 10000 0.5 0 09:39 06.01.2020
4815 Clouds -3 1031 92 10000 0.5 0 09:20 06.01.2020
4816 Clouds -3 1031 37 10000 0.5 0 08:52 06.01.2020
4817 Clouds -3 1031 37 10000 0.5 0 08:34 06.01.2020
4818 Clouds -3 1031 92 7000 2.1 240 07:57 06.01.2020
4819 Clouds -3 1031 100 7000 2.1 240 07:37 06.01.2020
4820 Mist -3 1030 31 3000 2.6 250 06:47 06.01.2020
4821 Mist -3 1030 31 3000 2.6 250 06:27 06.01.2020
4822 Clouds -3 1030 92 0 0.5 0 05:48 06.01.2020
4823 Clouds -3 1029 92 10000 1.5 140 04:53 06.01.2020
4824 Clouds -3 1031 100 0 1.5 110 04:20 06.01.2020
4825 Clouds -2 1031 100 0 0.5 180 02:58 06.01.2020
4826 Clear -2 1031 100 0 0.5 0 02:24 06.01.2020
4827 Clear -2 1031 100 0 1 0 01:45 06.01.2020
4828 Clear -2 1031 100 0 1 0 01:27 06.01.2020
4829 Clear -2 1032 92 0 2.1 100 00:44 06.01.2020
4830 Clear -2 1032 100 0 0.5 130 00:23 06.01.2020
4831 Clear -2 1033 92 0 1.5 0 23:43 05.01.2020
4832 Clear -2 1032 100 5000 1.5 90 23:23 05.01.2020
4833 Clear -2 1032 92 900 1.5 60 22:57 05.01.2020
4834 Clear -2 1033 86 0 2.6 90 22:38 05.01.2020
4835 Clear -1 1033 86 0 0.5 0 22:20 05.01.2020
4836 Clear -1 1033 86 0 0.5 0 21:55 05.01.2020
4837 Clear -1 1033 54 0 3.1 70 21:37 05.01.2020
4838 Clear -1 1033 54 0 3.1 70 21:37 05.01.2020
4839 Clear -1 1034 54 0 3.1 100 21:19 05.01.2020
4840 Clear -1 1034 54 0 3.1 100 21:19 05.01.2020
4841 Clear -1 1033 100 10000 1.5 70 20:55 05.01.2020
4842 Clear -1 1034 54 0 2.6 100 20:36 05.01.2020
4843 Clear -1 1034 87 10000 3.1 100 20:18 05.01.2020
4844 Clear 0 1034 75 10000 2.1 80 19:56 05.01.2020
4845 Clear 0 1034 75 0 1.5 110 19:37 05.01.2020
4846 Clear 1 1034 75 10000 1 100 19:18 05.01.2020
4847 Clear 1 1035 75 10000 1 0 18:54 05.01.2020
4848 Clear 1 1035 75 10000 1 0 18:36 05.01.2020
4849 Clear 1 1035 75 10000 1 0 18:18 05.01.2020
4850 Clear 2 1034 86 10000 1.35 143 17:55 05.01.2020
4851 Clouds 2 1034 93 10000 1.5 110 17:55 05.01.2020
4852 Clear 1 1034 86 10000 1.35 143 17:37 05.01.2020
4853 Clear 2 1034 86 10000 0.79 44 17:18 05.01.2020
4854 Clear 3 1035 86 10000 0.5 0 16:42 05.01.2020
4855 Clear 3 1035 86 10000 0.5 0 16:23 05.01.2020
4856 Clear 3 1035 86 10000 0.5 0 16:22 05.01.2020
4857 Clear 3 1035 86 10000 0.5 0 16:22 05.01.2020
4858 Clear 3 1035 86 10000 0.5 0 16:22 05.01.2020
4859 Clear 3 1035 86 10000 0.5 0 16:22 05.01.2020
4860 Clear 3 1034 80 10000 3.1 290 15:41 05.01.2020
4861 Clear 4 1034 80 10000 3.1 290 15:23 05.01.2020
4862 Clouds 4 1034 80 10000 4.1 20 14:58 05.01.2020
4863 Clear 4 1034 75 10000 1.5 0 14:40 05.01.2020
4864 Clear 4 1034 70 10000 1.5 0 14:22 05.01.2020
4865 Clear 4 1034 70 10000 0.5 0 13:59 05.01.2020
4866 Clear 4 1034 70 10000 0.5 0 13:39 05.01.2020
4867 Clear 4 1034 80 10000 1.5 100 13:21 05.01.2020
4868 Clouds 5 1034 80 10000 1.5 50 12:57 05.01.2020
4869 Clear 5 1035 75 10000 2.1 80 12:38 05.01.2020
4870 Clear 4 1035 80 10000 1.5 0 12:20 05.01.2020
4871 Clear 4 1035 80 10000 1.5 0 11:55 05.01.2020
4872 Clear 3 1035 80 10000 1 0 11:37 05.01.2020
4873 Clear 3 1035 80 10000 1 0 11:37 05.01.2020
4874 Clouds 2 1035 86 10000 0.5 0 11:19 05.01.2020
4875 Clouds 2 1035 86 10000 0.5 0 11:19 05.01.2020
4876 Clouds 2 1035 86 10000 0.5 0 11:19 05.01.2020
4877 Clouds 2 1035 86 10000 0.5 0 10:42 05.01.2020
4878 Clouds 1 1036 93 10000 1 110 10:20 05.01.2020
4879 Clouds 1 1036 93 10000 1 110 09:59 05.01.2020
4880 Clouds 1 1036 66 10000 0.5 0 09:41 05.01.2020
4881 Clouds 0 1036 66 10000 0.5 0 09:41 05.01.2020
4882 Clouds 0 1036 66 0 1.5 0 09:21 05.01.2020
4883 Clouds 0 1036 66 0 1.5 120 08:45 05.01.2020
4884 Clouds 0 1035 66 10000 2.1 200 08:25 05.01.2020
4885 Clouds 0 1036 79 0 1.5 200 07:50 05.01.2020
4886 Clouds 0 1036 79 0 1.5 200 07:29 05.01.2020
4887 Clouds 0 1034 79 10000 1.5 180 06:56 05.01.2020
4888 Clouds 1 1036 79 0 0.5 130 05:52 05.01.2020
4889 Clouds 1 1034 85 10000 4.1 230 04:57 05.01.2020
4890 Clouds 1 1035 85 0 1.5 120 04:19 05.01.2020
4891 Clouds 1 1035 85 0 1.5 120 04:19 05.01.2020
4892 Clouds 1 1035 93 0 1 0 03:45 05.01.2020
4893 Clouds 1 1035 80 0 1.5 0 02:41 05.01.2020
4894 Clouds 2 1035 91 0 1 0 02:19 05.01.2020
4895 Clouds 2 1035 91 0 1.5 0 01:36 05.01.2020
4896 Clouds 2 1035 89 0 0.5 0 01:18 05.01.2020
4897 Clouds 2 1035 89 0 1 0 00:39 05.01.2020
4898 Clouds 2 1035 80 0 1.5 0 00:20 05.01.2020
4899 Snow 2 1033 89 10000 5.1 230 23:57 04.01.2020
4900 Clouds 2 1035 80 0 1.5 0 23:38 04.01.2020
4901 Clouds 2 1035 92 0 2.6 250 23:18 04.01.2020
4902 Clouds 2 1035 75 0 3.1 260 22:39 04.01.2020
4903 Clouds 3 1035 75 0 3.6 270 22:20 04.01.2020
4904 Clouds 2 1033 80 10000 4.6 240 21:56 04.01.2020
4905 Clouds 2 1034 75 0 3.1 270 21:37 04.01.2020
4906 Clouds 2 1032 80 10000 4.6 240 21:19 04.01.2020
4907 Clouds 2 1032 80 10000 4.6 240 20:55 04.01.2020
4908 Clouds 2 1032 80 10000 3.6 270 20:36 04.01.2020
4909 Snow 2 1032 80 10000 3.6 240 20:18 04.01.2020
4910 Clouds 2 1033 100 10000 1.5 120 19:41 04.01.2020
4911 Clouds 3 1033 100 10000 1.5 120 19:23 04.01.2020
4912 Clouds 3 1033 100 10000 1 0 18:58 04.01.2020
4913 Clouds 3 1033 100 10000 1 0 18:39 04.01.2020
4914 Clouds 3 1033 100 10000 1 0 18:20 04.01.2020
4915 Clouds 3 1033 100 10000 1 0 18:20 04.01.2020
4916 Snow 3 1030 80 10000 4.6 230 17:56 04.01.2020
4917 Clouds 3 1032 100 10000 1 0 17:38 04.01.2020
4918 Clouds 3 1032 100 10000 1 0 17:20 04.01.2020
4919 Clouds 3 1032 93 0 1 0 16:41 04.01.2020
4920 Rain 3 1029 97 10000 6.2 240 16:23 04.01.2020
4921 Rain 3 1032 93 0 1 0 15:57 04.01.2020
4922 Rain 3 1032 81 10000 2.1 310 15:38 04.01.2020
4923 Rain 3 1032 81 10000 2.1 310 15:38 04.01.2020
4924 Rain 3 1032 81 10000 2.1 310 15:19 04.01.2020
4925 Rain 3 1031 93 10000 1 0 14:56 04.01.2020
4926 Clouds 3 1031 93 10000 1 0 14:37 04.01.2020
4927 Clouds 3 1031 93 10000 1 0 14:19 04.01.2020
4928 Clouds 3 1029 86 10000 4.6 260 13:55 04.01.2020
4929 Rain 3 1032 86 6000 3.6 300 13:36 04.01.2020
4930 Rain 3 1032 87 6000 4.1 270 13:18 04.01.2020
4931 Rain 4 1031 93 6000 2.6 260 12:41 04.01.2020
4932 Rain 4 1031 100 6000 2.6 260 12:19 04.01.2020
4933 Rain 4 1030 93 10000 3.6 320 11:58 04.01.2020
4934 Clouds 4 1030 93 10000 3.6 320 11:38 04.01.2020
4935 Clouds 4 1030 93 10000 4.1 300 11:19 04.01.2020
4936 Clouds 4 1030 93 10000 3.6 290 10:42 04.01.2020
4937 Drizzle 4 1029 100 7000 3.1 290 10:23 04.01.2020
4938 Drizzle 4 1029 100 7000 3.1 290 09:58 04.01.2020
4939 Rain 4 1030 93 10000 2.1 340 09:39 04.01.2020
4940 Rain 4 1030 100 10000 2.1 50 09:21 04.01.2020
4941 Rain 4 1030 100 10000 2.1 50 08:41 04.01.2020
4942 Rain 4 1029 93 10000 1 0 08:21 04.01.2020
4943 Rain 4 1029 93 10000 1 0 07:42 04.01.2020
4944 Rain 4 1029 93 0 1 0 07:20 04.01.2020
4945 Clouds 4 1029 93 0 2.6 60 06:33 04.01.2020
4946 Rain 4 1029 93 0 2.6 90 05:20 04.01.2020
4947 Rain 3 1027 100 6000 7.7 220 04:34 04.01.2020
4948 Rain 4 1027 93 10000 7.7 230 03:52 04.01.2020
4949 Rain 4 1027 86 10000 7.7 230 03:18 04.01.2020
4950 Clouds 4 1029 81 0 1 0 02:21 04.01.2020
4951 Clouds 4 1029 81 0 1 0 01:55 04.01.2020
4952 Clouds 4 1029 87 0 1 0 01:31 04.01.2020
4953 Snow 4 1027 86 10000 7.2 230 00:44 04.01.2020
4954 Snow 4 1027 86 10000 7.2 230 00:23 04.01.2020
4955 Snow 4 1027 93 10000 7.2 230 23:46 03.01.2020
4956 Clouds 4 1027 86 10000 6.7 220 23:25 03.01.2020
4957 Clouds 4 1029 87 10000 2.1 0 22:41 03.01.2020
4958 Rain 4 1029 100 10000 1 0 22:20 03.01.2020
4959 Rain 4 1029 100 10000 1 0 21:59 03.01.2020
4960 Rain 4 1029 100 6000 2.1 110 21:39 03.01.2020
4961 Rain 4 1029 100 7000 3.6 120 21:19 03.01.2020
4962 Rain 4 1029 100 7000 3.6 120 21:19 03.01.2020
4963 Rain 4 1029 100 7000 3.6 120 20:58 03.01.2020
4964 Rain 4 1029 100 3100 2.6 110 20:40 03.01.2020
4965 Rain 4 1029 93 2500 2.1 90 20:18 03.01.2020
4966 Rain 4 1028 93 6000 1 0 19:56 03.01.2020
4967 Rain 4 1028 93 6000 1 0 19:37 03.01.2020
4968 Clouds 4 1027 93 10000 1 0 19:19 03.01.2020
4969 Clouds 5 1027 86 10000 1 0 18:43 03.01.2020
4970 Clouds 4 1025 75 10000 6.7 230 18:24 03.01.2020
4971 Clouds 5 1027 86 10000 2.31 218 17:55 03.01.2020
4972 Clouds 5 1027 86 10000 2.31 218 17:37 03.01.2020
4973 Clouds 5 1026 80 10000 2.6 50 17:18 03.01.2020
4974 Clouds 5 1026 80 10000 2.6 50 17:18 03.01.2020
4975 Clouds 5 1026 75 10000 2.6 50 16:42 03.01.2020
4976 Clouds 5 1026 93 10000 3.6 120 16:23 03.01.2020
4977 Clouds 5 1026 100 10000 2.6 60 15:44 03.01.2020
4978 Clouds 5 1026 100 10000 3.1 90 15:19 03.01.2020
4979 Clouds 5 1026 100 10000 3.1 90 14:59 03.01.2020
4980 Clouds 5 1024 70 10000 8.7 230 14:38 03.01.2020
4981 Clouds 5 1026 93 10000 0.5 0 14:19 03.01.2020
4982 Clouds 5 1026 93 10000 0.5 0 13:44 03.01.2020
4983 Fog 5 1026 100 6000 1.5 270 13:24 03.01.2020
4984 Fog 5 1026 100 6000 1.5 270 12:58 03.01.2020
4985 Fog 5 1026 100 6000 1.5 270 12:39 03.01.2020
4986 Mist 5 1026 100 2000 1.5 0 12:21 03.01.2020
4987 Mist 4 1027 100 1200 1.5 280 11:44 03.01.2020
4988 Mist 1 1027 100 1200 1.5 280 11:21 03.01.2020
4989 Mist 1 1027 43 2000 1.5 270 10:44 03.01.2020
4990 Mist 1 1027 43 2000 1.5 270 10:25 03.01.2020
4991 Mist 1 1027 43 2000 1.5 270 10:25 03.01.2020
4992 Clouds 1 1024 43 10000 4.1 210 09:58 03.01.2020
4993 Fog 0 1027 100 200 1.5 80 09:39 03.01.2020
4994 Fog 0 1027 100 200 1.5 90 09:21 03.01.2020
4995 Fog 0 1027 100 200 1.5 90 08:56 03.01.2020
4996 Fog 0 1027 100 200 1.5 90 08:37 03.01.2020
4997 Mist -1 1027 100 2000 1.5 100 08:19 03.01.2020
4998 Mist -1 1027 100 3000 1.5 0 07:39 03.01.2020
4999 Mist -1 1027 100 3000 1 0 07:18 03.01.2020
5000 Mist -1 1027 100 3000 1 0 06:47 03.01.2020
5001 Mist -1 1027 100 3000 1 0 06:28 03.01.2020
5002 Mist -2 1027 100 2700 2.1 100 05:30 03.01.2020
5003 Clouds -1 1028 100 7000 1.5 90 04:18 03.01.2020
5004 Clouds -2 1026 92 10000 1.5 270 02:55 03.01.2020
5005 Fog -2 1028 100 750 2.1 100 02:26 03.01.2020
5006 Fog -3 1029 100 600 2.1 100 01:38 03.01.2020
5007 Fog -2 1029 100 400 2.1 100 00:49 03.01.2020
5008 Fog -2 1029 100 400 2.1 100 00:29 03.01.2020
5009 Clear -2 1027 92 10000 1.5 240 23:55 02.01.2020
5010 Fog -2 1030 100 350 2.1 100 23:37 02.01.2020
5011 Fog -2 1029 100 250 2.6 80 23:18 02.01.2020
5012 Fog -2 1029 100 250 2.1 80 22:44 02.01.2020
5013 Fog -2 1030 100 250 2.1 90 22:20 02.01.2020
5014 Fog -2 1030 100 250 2.1 90 21:57 02.01.2020
5015 Fog -2 1030 100 250 2.1 90 21:57 02.01.2020
5016 Fog -2 1029 100 400 2.1 90 21:38 02.01.2020
5017 Fog -2 1029 100 400 2.1 90 21:38 02.01.2020
5018 Fog -2 1029 100 450 2.6 90 21:20 02.01.2020
5019 Fog -2 1027 100 300 2.1 210 20:57 02.01.2020
5020 Fog -2 1029 100 1100 2.1 100 20:38 02.01.2020
5021 Fog -1 1029 53 1300 0.5 0 20:20 02.01.2020
5022 Fog -2 1029 100 2000 0.5 0 19:55 02.01.2020
5023 Fog -1 1029 100 2000 0.5 0 19:36 02.01.2020
5024 Mist -1 1029 100 2000 1.5 300 19:18 02.01.2020
5025 Fog -1 1027 100 400 0.5 0 18:54 02.01.2020
5026 Mist -1 1029 100 2000 1.5 300 18:36 02.01.2020
5027 Mist 0 1029 100 1800 2.1 10 18:18 02.01.2020
5028 Mist 0 1029 100 3000 1.5 140 17:55 02.01.2020
5029 Mist 0 1029 100 1800 2.1 10 17:36 02.01.2020
5030 Mist 0 1029 100 2000 1.5 50 17:18 02.01.2020
5031 Mist 1 1029 55 2400 1.5 100 16:41 02.01.2020
5032 Mist 1 1029 55 3600 2.1 70 16:20 02.01.2020
5033 Fog 1 1027 100 250 1.5 210 15:58 02.01.2020
5034 Mist 1 1029 55 3700 1.5 0 15:40 02.01.2020
5035 Mist 2 1029 55 3300 0.5 0 15:22 02.01.2020
5036 Fog 2 1027 100 300 2.1 230 14:57 02.01.2020
5037 Mist 2 1029 55 3300 1.5 0 14:36 02.01.2020
5038 Mist 2 1030 42 2400 1 0 14:18 02.01.2020
5039 Mist 2 1030 42 2600 1 0 13:50 02.01.2020
5040 Mist 3 1030 42 2600 1 0 13:31 02.01.2020
5041 Mist 4 1030 100 2800 2.1 70 12:46 02.01.2020
5042 Mist 4 1030 100 2800 2.1 70 12:28 02.01.2020
5043 Mist 3 1031 42 2700 1 0 11:59 02.01.2020
5044 Mist 3 1031 42 2700 1 0 11:40 02.01.2020
5045 Mist 0 1031 100 2600 1 0 11:20 02.01.2020
5046 Mist -1 1031 100 2600 1 0 10:44 02.01.2020
5047 Mist -2 1031 100 2600 1 0 10:26 02.01.2020
5048 Mist -2 1031 92 3200 2.1 110 09:51 02.01.2020
5049 Mist -2 1031 92 3200 2.1 110 09:33 02.01.2020
5050 Mist -2 1031 100 2500 2.1 110 08:47 02.01.2020
5051 Mist -3 1031 100 2500 2.1 110 08:27 02.01.2020
5052 Clouds -4 1029 100 10000 2.1 220 07:54 02.01.2020
5053 Mist -4 1031 100 3600 1 0 07:30 02.01.2020
5054 Mist -3 1031 100 4000 1 0 06:46 02.01.2020
5055 Mist -3 1028 100 5000 3.1 220 06:27 02.01.2020
5056 Mist -3 1030 100 4000 2.1 170 05:29 02.01.2020
5057 Mist -3 1031 100 2300 0.5 0 04:32 02.01.2020
5058 Mist -3 1031 34 2500 1 0 02:48 02.01.2020
5059 Mist -3 1031 34 2800 0.5 0 01:59 02.01.2020
5060 Mist -2 1031 100 1400 1.5 100 01:38 02.01.2020
5061 Clouds -2 1029 100 300 1 0 00:58 02.01.2020
5062 Mist -2 1031 100 2300 1.5 90 00:33 02.01.2020
5063 Clouds -2 1029 92 300 2.1 230 23:53 01.01.2020
5064 Clouds -2 1030 92 300 1.5 230 23:28 01.01.2020
5065 Mist -2 1031 100 3500 2.1 80 22:59 01.01.2020
5066 Mist -2 1031 100 3200 1.5 100 22:38 01.01.2020
5067 Mist -2 1032 37 3400 1 0 22:19 01.01.2020
5068 Mist -2 1032 100 3300 0.5 80 21:56 01.01.2020
5069 Mist -2 1032 100 3300 0.5 80 21:37 01.01.2020
5070 Mist -2 1032 37 3800 0.5 0 21:19 01.01.2020
5071 Mist -2 1032 100 4100 1 0 20:54 01.01.2020
5072 Mist -2 1032 100 4100 1 0 20:36 01.01.2020
5073 Mist -1 1032 100 3500 1 0 20:18 01.01.2020
5074 Mist -1 1030 92 5000 1.5 230 19:54 01.01.2020
5075 Mist -1 1032 100 3700 1.5 0 19:54 01.01.2020
5076 Mist -1 1032 100 3700 1.5 0 19:36 01.01.2020
5077 Mist -1 1032 100 3300 1 0 19:18 01.01.2020
5078 Clear -1 1030 92 7000 1.5 230 18:54 01.01.2020
5079 Mist -1 1032 100 3600 2.1 120 18:36 01.01.2020
5080 Mist -1 1032 41 4900 2.1 130 18:18 01.01.2020
5081 Clear 0 1030 41 7000 1 0 17:55 01.01.2020
5082 Clouds 0 1032 41 5000 1.5 160 17:36 01.01.2020
5083 Clouds 0 1032 53 5000 1 0 17:18 01.01.2020
5084 Clouds 1 1032 53 5000 1 0 16:39 01.01.2020
5085 Clouds 1 1032 53 5000 1.5 0 16:20 01.01.2020
5086 Clear 1 1030 53 10000 3.1 40 15:57 01.01.2020
5087 Clouds 2 1031 53 5000 2.6 290 15:38 01.01.2020
5088 Clouds 2 1032 53 5000 3.1 270 15:20 01.01.2020
5089 Clouds 3 1031 53 5000 3.6 280 14:56 01.01.2020
5090 Clouds 3 1031 53 5000 3.6 280 14:38 01.01.2020
5091 Mist 3 1032 54 4900 4.1 290 14:19 01.01.2020
5092 Mist 3 1032 54 5000 3.1 290 13:55 01.01.2020
5093 Mist 3 1032 54 5000 3.1 290 13:37 01.01.2020
5094 Mist 3 1032 54 4300 2.1 330 13:18 01.01.2020
5095 Clear 3 1031 80 10000 3.1 30 12:54 01.01.2020
5096 Clear 3 1031 80 10000 3.1 30 12:54 01.01.2020
5097 Mist 3 1032 53 3700 1 0 12:54 01.01.2020
5098 Mist 3 1032 53 3700 1 0 12:36 01.01.2020
5099 Mist 3 1032 53 2700 1.5 0 12:18 01.01.2020
5100 Mist 3 1032 53 2700 1.5 0 12:18 01.01.2020
5101 Mist 2 1033 53 3300 1 0 11:42 01.01.2020
5102 Mist 0 1033 49 4400 0.5 0 11:21 01.01.2020
5103 Mist 0 1033 49 4400 0.5 0 11:21 01.01.2020
5104 Fog -1 1033 100 900 1.5 80 10:56 01.01.2020
5105 Fog -1 1033 100 900 1.5 80 10:38 01.01.2020
5106 Fog -1 1033 100 450 1 130 10:19 01.01.2020
5107 Fog -2 1033 100 250 1.5 110 09:42 01.01.2020
5108 Fog -3 1033 100 200 2.1 70 09:22 01.01.2020
5109 Clear -3 1031 92 10000 2.6 40 08:57 01.01.2020
5110 Fog -3 1032 100 200 1.5 100 08:38 01.01.2020
5111 Fog -3 1032 100 200 2.1 100 08:20 01.01.2020
5112 Clear -3 1031 92 9000 2.1 60 07:58 01.01.2020
5113 Fog -4 1032 53 150 2.1 110 07:39 01.01.2020
5114 Fog -3 1032 53 100 1.5 100 07:19 01.01.2020
5115 Fog -3 1032 53 100 1.5 90 06:36 01.01.2020
5116 Fog -3 1032 53 150 1.5 110 05:51 01.01.2020
5117 Clear -3 1031 86 7000 1 0 04:28 01.01.2020
5118 Fog -3 1033 100 100 2.6 90 03:39 01.01.2020
5119 Fog -3 1033 53 100 1.5 70 03:21 01.01.2020
5120 Fog -2 1033 53 150 0.5 0 02:42 01.01.2020
5121 Clear -2 1032 92 5000 0.5 0 02:23 01.01.2020
5122 Fog -2 1033 50 100 1 0 01:42 01.01.2020
5123 Clear -2 1032 100 9000 2.44 170 01:23 01.01.2020
5124 Fog -2 1034 100 100 2.6 80 00:45 01.01.2020
5125 Fog -2 1034 100 100 2.6 80 00:26 01.01.2020
5126 Fog -2 1034 49 200 1.5 110 23:56 31.12.2019
5127 Fog -1 1034 49 300 1.5 90 23:36 31.12.2019
5128 Fog -1 1034 55 400 1 0 23:18 31.12.2019
5129 Clear -2 1033 86 10000 1.5 120 22:55 31.12.2019
5130 Fog -1 1034 55 200 1 80 22:36 31.12.2019
5131 Fog -1 1034 55 2300 1.5 110 22:18 31.12.2019
5132 Fog -1 1034 55 200 1 0 21:43 31.12.2019
5133 Fog -1 1034 55 200 0.5 0 21:25 31.12.2019
5134 Fog -1 1034 55 250 1 0 20:57 31.12.2019
5135 Fog -1 1034 55 250 1 0 20:39 31.12.2019
5136 Fog -1 1034 61 200 0.5 0 20:20 31.12.2019
5137 Clouds -1 1032 92 10000 2.1 150 19:57 31.12.2019
5138 Fog -1 1034 66 350 1 0 19:39 31.12.2019
5139 Fog 0 1034 66 400 1 0 19:20 31.12.2019
5140 Clouds 0 1033 100 10000 1 0 18:56 31.12.2019
5141 Fog 0 1033 66 800 0.5 0 18:38 31.12.2019
5142 Fog 0 1033 66 2100 1.5 0 18:19 31.12.2019
5143 Mist 1 1033 100 2200 1 0 17:55 31.12.2019
5144 Mist 1 1033 100 2200 1 0 17:36 31.12.2019
5145 Mist 1 1033 100 4000 1 0 17:18 31.12.2019
5146 Clouds 2 1032 86 10000 0.5 0 16:56 31.12.2019
5147 Mist 2 1033 100 4000 1 0 16:37 31.12.2019
5148 Mist 2 1033 100 4000 1 0 16:37 31.12.2019
5149 Mist 3 1033 100 4500 1.5 310 16:18 31.12.2019
5150 Clouds 3 1031 66 10000 1.5 250 15:56 31.12.2019
5151 Mist 3 1033 100 4500 1.5 310 15:37 31.12.2019
5152 Mist 3 1033 100 3600 1.5 310 15:19 31.12.2019
5153 Mist 4 1033 100 3600 1.5 310 14:55 31.12.2019
5154 Mist 4 1033 100 3600 1.5 310 14:37 31.12.2019
5155 Mist 5 1033 100 3500 0.5 0 14:18 31.12.2019
5156 Mist 5 1033 100 3500 0.5 0 13:56 31.12.2019
5157 Mist 5 1033 100 3500 0.5 0 13:37 31.12.2019
5158 Mist 5 1034 100 4200 1 0 13:19 31.12.2019
5159 Clouds 6 1032 59 10000 3.6 240 12:55 31.12.2019
5160 Mist 6 1034 100 4200 1.5 0 12:37 31.12.2019
5161 Mist 6 1034 100 4200 1.5 0 12:37 31.12.2019
5162 Mist 5 1034 100 4200 1 0 12:18 31.12.2019
5163 Mist 5 1034 100 4200 1 0 12:18 31.12.2019
5164 Clouds 5 1032 59 10000 2.6 230 11:54 31.12.2019
5165 Mist 4 1034 59 2100 0.5 0 11:36 31.12.2019
5166 Mist 3 1034 50 2100 0.5 0 11:18 31.12.2019
5167 Mist 3 1034 50 2700 1 0 10:55 31.12.2019
5168 Mist 2 1034 50 2700 1 0 10:37 31.12.2019
5169 Mist 1 1034 50 3200 0.5 0 10:19 31.12.2019
5170 Mist 0 1033 50 2600 0.5 0 09:55 31.12.2019
5171 Mist 1 1033 50 2600 0.5 0 09:37 31.12.2019
5172 Mist 0 1033 50 2600 0.5 0 09:37 31.12.2019
5173 Mist 0 1033 50 2600 0.5 0 09:18 31.12.2019
5174 Mist 0 1033 50 3600 1 0 08:42 31.12.2019
5175 Mist -1 1033 54 3600 1 0 08:22 31.12.2019
5176 Mist -1 1033 54 3600 2.1 210 07:45 31.12.2019
5177 Mist -1 1033 54 3600 2.1 210 07:22 31.12.2019
5178 Mist -1 1033 54 3600 1.5 0 06:51 31.12.2019
5179 Mist -1 1033 54 4500 0.5 0 06:27 31.12.2019
5180 Mist -1 1033 57 4400 0.5 150 04:54 31.12.2019
5181 Clouds -1 1030 57 10000 4.6 210 04:24 31.12.2019
5182 Clouds -1 1033 57 5000 1.5 290 02:57 31.12.2019
5183 Mist -1 1033 100 4800 1 270 02:20 31.12.2019
5184 Mist -1 1033 92 4800 1 210 01:49 31.12.2019
5185 Clear -1 1030 92 10000 3.1 220 01:31 31.12.2019
5186 Mist -1 1033 100 3900 0.5 180 00:48 31.12.2019
5187 Clear -1 1030 92 10000 2.6 230 00:24 31.12.2019
5188 Clear -2 1030 86 10000 3.1 210 23:58 30.12.2019
5189 Mist -2 1033 92 4900 0.5 0 23:39 30.12.2019
5190 Mist -2 1033 92 4500 1 210 23:21 30.12.2019
5191 Mist -2 1033 92 4500 1 210 22:59 30.12.2019
5192 Mist -2 1032 100 4500 1 210 22:41 30.12.2019
5193 Mist -1 1032 100 3900 0.5 0 22:21 30.12.2019
5194 Mist -1 1032 100 3900 0.5 0 21:57 30.12.2019
5195 Mist -1 1032 100 3900 0.5 0 21:57 30.12.2019
5196 Mist -1 1032 92 4500 1 210 21:39 30.12.2019
5197 Clear -1 1032 100 5000 0.5 0 21:20 30.12.2019
5198 Clear -1 1030 92 10000 3.1 220 20:58 30.12.2019
5199 Mist -1 1032 92 4100 0.5 0 20:40 30.12.2019
5200 Clear -1 1032 92 5000 0.5 0 20:20 30.12.2019
5201 Clear -1 1032 92 5000 0.5 0 19:58 30.12.2019
5202 Clear -1 1032 92 6000 0.5 210 19:39 30.12.2019
5203 Clear -1 1032 92 6000 0.5 0 19:19 30.12.2019
5204 Clear 0 1032 92 6000 0.5 0 18:58 30.12.2019
5205 Clear 0 1032 92 10000 0.5 0 18:40 30.12.2019
5206 Clear 0 1033 58 10000 1 190 18:20 30.12.2019
5207 Clear 0 1031 58 10000 1.5 170 17:56 30.12.2019
5208 Clear 0 1031 58 10000 1.5 170 17:56 30.12.2019
5209 Clear 1 1033 58 10000 1 190 17:38 30.12.2019
5210 Clear 2 1033 66 10000 1 0 17:19 30.12.2019
5211 Clear 2 1033 66 10000 1 0 16:58 30.12.2019
5212 Clear 3 1033 86 10000 1 0 16:37 30.12.2019
5213 Clear 3 1032 80 10000 2.1 270 16:18 30.12.2019
5214 Clear 3 1032 80 10000 2.1 270 15:55 30.12.2019
5215 Clear 3 1032 80 10000 2.1 270 15:37 30.12.2019
5216 Clear 4 1033 80 10000 1.5 0 15:18 30.12.2019
5217 Clear 4 1033 80 10000 1.5 0 14:43 30.12.2019
5218 Clouds 4 1033 86 7000 0.5 0 14:20 30.12.2019
5219 Clear 4 1032 74 10000 1.16 140 13:57 30.12.2019
5220 Clouds 4 1033 86 7000 0.5 0 13:39 30.12.2019
5221 Clouds 4 1034 60 7000 1.5 0 13:21 30.12.2019
5222 Clear 4 1032 80 10000 1 0 12:56 30.12.2019
5223 Clouds 4 1034 60 7000 1.5 0 12:36 30.12.2019
5224 Clouds 3 1035 60 6000 0.84 135 12:18 30.12.2019
5225 Clouds 2 1035 60 6000 0.84 135 11:40 30.12.2019
5226 Clouds 1 1035 100 6000 1 90 11:19 30.12.2019
5227 Clear 0 1035 52 10000 2.6 30 10:57 30.12.2019
5228 Clouds 0 1035 100 6000 1 90 10:38 30.12.2019
5229 Clouds -1 1035 100 6000 1 0 10:18 30.12.2019
5230 Clouds -2 1035 100 6000 1 0 09:41 30.12.2019
5231 Clouds -3 1035 100 8000 0.5 0 09:20 30.12.2019
5232 Clear -4 1033 92 10000 1 0 08:55 30.12.2019
5233 Clouds -4 1034 100 9000 0.5 0 08:36 30.12.2019
5234 Clouds -4 1034 100 9000 0.5 0 08:18 30.12.2019
5235 Clouds -4 1034 100 9000 0.5 0 08:18 30.12.2019
5236 Clouds -4 1034 100 6000 1.5 100 07:40 30.12.2019
5237 Clouds -4 1034 100 5000 1 80 06:55 30.12.2019
5238 Clear -4 1033 92 10000 1 30 06:23 30.12.2019
5239 Clear -4 1033 92 10000 1 30 06:23 30.12.2019
5240 Clear -4 1034 92 10000 0.5 220 03:58 30.12.2019
5241 Clouds -4 1036 100 8000 1 140 03:32 30.12.2019
5242 Clear -4 1036 100 5000 1 0 02:40 30.12.2019
5243 Clear -4 1035 100 5000 1 60 01:56 30.12.2019
5244 Mist -4 1036 100 4500 1 110 01:25 30.12.2019
5245 Clouds -3 1036 100 6000 0.5 0 00:45 30.12.2019
5246 Clear -3 1035 100 7000 1.5 110 00:23 30.12.2019
5247 Clouds -3 1036 92 6000 0.5 0 23:40 29.12.2019
5248 Mist -3 1036 100 4500 1 100 23:21 29.12.2019
5249 Clear -3 1036 100 7000 0.5 0 22:56 29.12.2019
5250 Clear -3 1036 100 7000 0.5 0 22:37 29.12.2019
5251 Clear -3 1036 100 8000 0.5 0 22:18 29.12.2019
5252 Clear -2 1036 100 8000 1 90 21:43 29.12.2019
5253 Clear -3 1036 100 10000 0.5 0 21:21 29.12.2019
5254 Clear -3 1036 100 10000 0.5 0 21:21 29.12.2019
5255 Clear -2 1036 100 10000 0.5 0 20:58 29.12.2019
5256 Clear -2 1036 92 10000 0.5 0 20:39 29.12.2019
5257 Clouds -2 1036 100 10000 0.5 0 20:21 29.12.2019
5258 Clouds -2 1036 100 10000 0.5 0 19:59 29.12.2019
5259 Clouds -2 1036 92 10000 1 0 19:40 29.12.2019
5260 Clouds -2 1036 92 10000 1 0 19:40 29.12.2019
5261 Clouds -2 1036 92 10000 0.5 0 19:21 29.12.2019
5262 Clouds -2 1036 92 10000 0.5 0 18:58 29.12.2019
5263 Clouds -1 1036 100 10000 1 210 18:39 29.12.2019
5264 Clouds -1 1036 92 10000 0.5 0 18:20 29.12.2019
5265 Clouds -1 1036 86 10000 3.6 40 17:58 29.12.2019
5266 Clouds -1 1036 92 10000 0.5 270 17:39 29.12.2019
5267 Clear -1 1036 92 10000 1 220 17:20 29.12.2019
5268 Clear 0 1036 53 10000 0.5 220 16:57 29.12.2019
5269 Clear 0 1036 53 10000 0.5 220 16:38 29.12.2019
5270 Clouds 1 1036 86 10000 2.1 280 16:20 29.12.2019
5271 Clear 1 1035 53 10000 3.6 50 15:58 29.12.2019
5272 Clear 1 1035 53 10000 3.6 50 15:58 29.12.2019
5273 Clouds 1 1036 86 10000 2.6 290 15:39 29.12.2019
5274 Clear 2 1036 86 10000 2.1 260 15:20 29.12.2019
5275 Clear 2 1036 86 10000 2.1 260 14:58 29.12.2019
5276 Clouds 2 1036 86 9000 0.5 0 14:39 29.12.2019
5277 Clouds 2 1036 86 9000 0.5 0 14:18 29.12.2019
5278 Clouds 1 1036 40 9000 1.05 73 13:57 29.12.2019
5279 Clouds 2 1036 40 9000 1.05 73 13:39 29.12.2019
5280 Clouds 1 1036 42 9000 1.21 77 13:20 29.12.2019
5281 Clouds 1 1037 42 8000 0.5 0 12:45 29.12.2019
5282 Clear 1 1036 92 10000 3.1 30 12:27 29.12.2019
5283 Clear 1 1036 92 10000 3.1 30 12:27 29.12.2019
5284 Clear 1 1036 92 10000 3.6 40 11:58 29.12.2019
5285 Clouds 0 1038 92 8000 2.1 340 11:40 29.12.2019
5286 Clouds -1 1038 92 8000 2.1 340 11:20 29.12.2019
5287 Clouds -1 1038 92 8000 2.1 340 11:20 29.12.2019
5288 Clear -1 1037 92 10000 2.6 360 10:55 29.12.2019
5289 Clouds -1 1037 86 9000 2.1 50 10:37 29.12.2019
5290 Clouds -2 1037 86 9000 2.1 50 10:18 29.12.2019
5291 Clouds -3 1037 92 10000 1 130 09:41 29.12.2019
5292 Clouds -4 1038 92 10000 2.1 110 09:22 29.12.2019
5293 Clouds -5 1038 92 10000 2.1 110 08:48 29.12.2019
5294 Clear -4 1036 92 7000 1.5 90 08:28 29.12.2019
5295 Clouds -5 1038 92 10000 2.6 130 07:57 29.12.2019
5296 Clouds -5 1037 100 10000 2.1 100 07:28 29.12.2019
5297 Clouds -5 1036 100 6000 2.6 40 07:28 29.12.2019
5298 Clouds -5 1036 100 8000 1.5 30 06:56 29.12.2019
5299 Clouds -5 1037 100 10000 1 230 06:26 29.12.2019
5300 Clouds -5 1036 100 8000 3.1 30 05:53 29.12.2019
5301 Clouds -4 1037 100 10000 1 250 04:36 29.12.2019
5302 Clouds -4 1036 92 10000 2.6 80 03:59 29.12.2019
5303 Clouds -4 1037 100 9000 0.5 0 03:21 29.12.2019
5304 Clouds -3 1037 100 9000 1 100 02:21 29.12.2019
5305 Clouds -3 1038 100 10000 1 190 01:38 29.12.2019
5306 Clear -3 1038 100 10000 1 0 01:19 29.12.2019
5307 Clear -3 1038 92 10000 1 0 00:40 29.12.2019
5308 Clouds -3 1038 100 7000 1 0 00:22 29.12.2019
5309 Clear -3 1038 35 8000 1.5 70 23:44 28.12.2019
5310 Clouds -2 1038 44 10000 0.5 0 23:18 28.12.2019
5311 Clouds -2 1038 44 10000 1 190 22:39 28.12.2019
5312 Clouds -2 1038 44 10000 0.5 0 22:21 28.12.2019
5313 Clouds -2 1038 44 10000 0.5 0 21:58 28.12.2019
5314 Clouds -2 1038 44 10000 0.5 0 21:39 28.12.2019
5315 Clouds -2 1038 44 9000 0.5 0 21:21 28.12.2019
5316 Clouds -2 1038 44 9000 1 210 20:57 28.12.2019
5317 Clouds -2 1038 44 9000 1 210 20:38 28.12.2019
5318 Clear -1 1038 87 9000 0.5 0 20:19 28.12.2019
5319 Clouds -1 1038 86 10000 3.1 40 19:57 28.12.2019
5320 Clear -1 1038 78 10000 0.5 0 19:57 28.12.2019
5321 Clear -1 1038 78 10000 0.5 0 19:39 28.12.2019
5322 Clear -1 1038 78 10000 1.5 220 19:20 28.12.2019
5323 Clouds 0 1038 86 10000 3.1 80 18:57 28.12.2019
5324 Clear 0 1038 78 10000 1 0 18:39 28.12.2019
5325 Clouds 0 1038 78 10000 3.1 70 18:18 28.12.2019
5326 Clouds 0 1038 78 10000 3.1 70 17:54 28.12.2019
5327 Clouds 0 1038 78 10000 2.6 0 17:36 28.12.2019
5328 Clouds 1 1038 87 10000 2.6 0 17:18 28.12.2019
5329 Clouds 1 1037 86 9000 2.6 270 16:46 28.12.2019
5330 Clouds 1 1037 86 9000 2.6 270 16:25 28.12.2019
5331 Clouds 2 1036 86 9000 2.6 280 15:44 28.12.2019
5332 Clouds 2 1036 86 9000 2.6 280 15:24 28.12.2019
5333 Clouds 2 1036 86 10000 2.1 260 14:58 28.12.2019
5334 Clouds 2 1036 86 10000 2.1 260 14:38 28.12.2019
5335 Clouds 3 1036 86 10000 2.1 300 14:20 28.12.2019
5336 Clouds 2 1037 86 8000 2.1 270 13:43 28.12.2019
5337 Clouds 2 1036 86 10000 3.1 70 13:23 28.12.2019
5338 Clouds 2 1037 93 8000 1.5 280 12:59 28.12.2019
5339 Clouds 2 1037 93 8000 1.5 260 12:41 28.12.2019
5340 Clouds 2 1037 93 8000 1.5 260 12:22 28.12.2019
5341 Clouds 2 1038 93 9000 2.1 320 11:54 28.12.2019
5342 Clouds 1 1038 93 9000 2.1 320 11:36 28.12.2019
5343 Clouds 1 1038 93 8000 2.1 310 11:18 28.12.2019
5344 Clouds 1 1037 93 6000 2.1 320 10:41 28.12.2019
5345 Clouds 1 1037 93 9000 2.6 360 10:20 28.12.2019
5346 Clouds 1 1037 93 9000 2.6 360 09:55 28.12.2019
5347 Clouds 1 1037 93 9000 1.5 10 09:37 28.12.2019
5348 Clouds 0 1036 93 9000 1 260 09:18 28.12.2019
5349 Mist 0 1036 100 2900 1.5 20 08:43 28.12.2019
5350 Mist 0 1036 100 2900 1.5 20 08:24 28.12.2019
5351 Clouds 0 1036 86 10000 1 310 07:48 28.12.2019
5352 Clouds 0 1036 86 10000 1 310 07:25 28.12.2019
5353 Clouds 1 1035 93 10000 1.5 310 05:52 28.12.2019
5354 Clouds 1 1034 93 10000 1.5 290 03:49 28.12.2019
5355 Clouds 2 1034 86 10000 2.1 140 02:52 28.12.2019
5356 Clouds 2 1034 86 10000 2.1 140 02:31 28.12.2019
5357 Clouds 2 1034 93 10000 1.5 30 01:56 28.12.2019
5358 Snow 2 1033 93 7000 2.6 70 01:56 28.12.2019
5359 Rain 2 1034 100 6000 1.5 40 01:24 28.12.2019
5360 Drizzle 2 1033 100 4500 1.5 0 00:50 28.12.2019
5361 Snow 2 1033 93 7000 1.5 50 00:30 28.12.2019
5362 Snow 2 1033 93 6000 2.1 50 23:58 27.12.2019
5363 Rain 2 1033 100 2700 2.1 90 23:58 27.12.2019
5364 Drizzle 3 1033 100 5000 1 0 23:39 27.12.2019
5365 Drizzle 3 1032 100 3400 0.5 0 23:19 27.12.2019
5366 Rain 3 1032 100 4100 2.6 70 22:56 27.12.2019
5367 Rain 3 1032 93 1500 0.5 0 22:37 27.12.2019
5368 Mist 3 1032 100 2000 1.5 90 22:19 27.12.2019
5369 Mist 3 1031 100 2000 1 130 21:43 27.12.2019
5370 Mist 3 1031 100 3200 1 0 21:25 27.12.2019
5371 Rain 3 1031 93 2200 0.5 150 20:57 27.12.2019
5372 Rain 3 1031 93 2200 0.5 150 20:38 27.12.2019
5373 Drizzle 3 1031 100 1400 1 90 20:20 27.12.2019
5374 Rain 3 1030 100 3100 0.5 0 19:41 27.12.2019
5375 Mist 3 1030 100 3100 0.5 0 19:20 27.12.2019
5376 Mist 3 1030 100 3100 0.5 0 19:20 27.12.2019
5377 Clouds 3 1029 100 5000 1 0 18:57 27.12.2019
5378 Clouds 3 1029 100 5000 1 0 18:37 27.12.2019
5379 Clouds 4 1029 100 5000 1 0 18:19 27.12.2019
5380 Drizzle 4 1028 100 4000 3.6 50 17:55 27.12.2019
5381 Drizzle 4 1028 100 4000 3.6 50 17:55 27.12.2019
5382 Drizzle 4 1028 100 2300 1.5 100 17:37 27.12.2019
5383 Drizzle 4 1028 100 2300 1.5 100 17:18 27.12.2019
5384 Drizzle 4 1027 100 2000 2.6 100 16:43 27.12.2019
5385 Clouds 4 1027 100 7000 1.5 80 16:23 27.12.2019
5386 Clouds 4 1027 100 7000 1.5 80 15:58 27.12.2019
5387 Clouds 4 1027 100 7000 1.5 80 15:37 27.12.2019
5388 Clouds 4 1027 100 7000 1.5 80 15:37 27.12.2019
5389 Rain 4 1026 93 2500 0.5 0 15:19 27.12.2019
5390 Rain 4 1026 93 2500 0.5 0 14:56 27.12.2019
5391 Rain 4 1026 93 2500 0.5 0 14:38 27.12.2019
5392 Rain 4 1025 93 2400 1 0 14:19 27.12.2019
5393 Rain 4 1025 93 6000 1 0 13:47 27.12.2019
5394 Rain 4 1024 93 10000 3.6 240 13:24 27.12.2019
5395 Rain 4 1024 100 4100 3.6 240 12:53 27.12.2019
5396 Rain 4 1025 93 9000 1 0 12:32 27.12.2019
5397 Clouds 4 1023 93 10000 4.1 230 11:59 27.12.2019
5398 Clouds 4 1024 93 10000 1.5 70 11:41 27.12.2019
5399 Rain 4 1024 93 10000 1 100 11:20 27.12.2019
5400 Rain 4 1024 100 10000 1.5 70 10:47 27.12.2019
5401 Clouds 4 1023 93 10000 5.1 230 10:24 27.12.2019
5402 Rain 4 1024 100 10000 1 100 09:58 27.12.2019
5403 Rain 3 1023 93 10000 1.5 0 09:39 27.12.2019
5404 Rain 3 1023 100 10000 1.5 0 09:21 27.12.2019
5405 Rain 3 1022 93 10000 1.5 100 08:49 27.12.2019
5406 Rain 3 1022 93 10000 1.5 100 08:30 27.12.2019
5407 Rain 3 1022 100 10000 1.5 80 07:48 27.12.2019
5408 Rain 3 1022 100 10000 1.5 80 07:25 27.12.2019
5409 Drizzle 3 1022 93 10000 1.5 90 06:33 27.12.2019
5410 Rain 3 1023 81 10000 1 0 04:48 27.12.2019
5411 Rain 3 1024 93 10000 2.1 120 02:35 27.12.2019
5412 Drizzle 3 1024 93 10000 0.5 0 01:48 27.12.2019
5413 Snow 3 1022 93 9000 6.2 230 01:23 27.12.2019
5414 Snow 3 1023 93 10000 5.1 230 00:52 27.12.2019
5415 Drizzle 3 1025 93 10000 0.5 0 00:34 27.12.2019
5416 Rain 3 1025 86 10000 1.5 0 23:57 26.12.2019
5417 Clouds 3 1025 86 10000 1.5 0 23:38 26.12.2019
5418 Clouds 2 1025 93 10000 1 0 23:20 26.12.2019
5419 Clouds 2 1025 86 10000 2.1 270 22:42 26.12.2019
5420 Clouds 2 1024 93 10000 4.6 210 22:21 26.12.2019
5421 Clouds 2 1024 93 10000 4.6 210 21:55 26.12.2019
5422 Clouds 2 1025 86 10000 1.5 180 21:37 26.12.2019
5423 Clouds 2 1026 86 10000 2.1 150 21:19 26.12.2019
5424 Clouds 2 1026 86 10000 2.1 40 20:44 26.12.2019
5425 Clouds 2 1026 86 10000 2.1 40 20:44 26.12.2019
5426 Clouds 2 1026 86 10000 4.1 110 20:22 26.12.2019
5427 Clouds 2 1026 86 10000 4.1 110 19:58 26.12.2019
5428 Rain 2 1026 80 9000 2.1 0 19:38 26.12.2019
5429 Clouds 2 1026 93 10000 1 0 19:20 26.12.2019
5430 Clouds 1 1023 93 10000 3.1 230 18:57 26.12.2019
5431 Clouds 2 1024 93 10000 1 250 18:37 26.12.2019
5432 Clouds 1 1024 93 10000 1 250 18:19 26.12.2019
5433 Clouds 2 1023 93 10000 3.1 90 17:42 26.12.2019
5434 Clouds 2 1023 93 10000 3.1 90 17:42 26.12.2019
5435 Clouds 2 1023 93 10000 3.1 90 17:22 26.12.2019
5436 Clouds 2 1024 86 10000 1.5 330 16:51 26.12.2019
5437 Clouds 2 1024 86 10000 1.5 330 16:29 26.12.2019
5438 Clouds 2 1024 86 10000 1.5 330 15:59 26.12.2019
5439 Clouds 3 1024 86 10000 3.6 290 15:40 26.12.2019
5440 Clouds 3 1024 86 10000 3.6 300 15:19 26.12.2019
5441 Clouds 3 1024 86 10000 4.1 290 14:43 26.12.2019
5442 Clouds 3 1022 80 10000 2.1 120 14:24 26.12.2019
5443 Clouds 3 1022 80 10000 2.1 120 14:24 26.12.2019
5444 Clouds 3 1024 86 10000 4.1 290 13:58 26.12.2019
5445 Clouds 3 1024 86 10000 4.1 290 13:40 26.12.2019
5446 Clouds 3 1024 86 10000 3.1 280 13:18 26.12.2019
5447 Clouds 3 1023 86 10000 1.5 80 12:56 26.12.2019
5448 Clouds 3 1024 86 10000 4.1 310 12:36 26.12.2019
5449 Clouds 3 1024 93 10000 3.6 310 12:18 26.12.2019
5450 Clouds 2 1024 93 10000 1 0 11:42 26.12.2019
5451 Clouds 1 1023 100 10000 1.5 60 11:23 26.12.2019
5452 Clouds 1 1024 61 10000 1 0 10:54 26.12.2019
5453 Clouds 0 1024 61 10000 1 0 10:36 26.12.2019
5454 Clouds 0 1024 61 10000 1 0 10:18 26.12.2019
5455 Fog -1 1024 61 10000 1 0 09:42 26.12.2019
5456 Fog -2 1024 100 600 2.1 100 09:24 26.12.2019
5457 Clouds -2 1025 100 600 2.6 90 08:40 26.12.2019
5458 Clouds -2 1025 100 600 1 0 08:21 26.12.2019
5459 Clouds -2 1025 100 10000 0.5 0 07:44 26.12.2019
5460 Clouds -2 1024 100 800 1.5 70 07:24 26.12.2019
5461 Fog -2 1025 100 900 2.1 110 06:39 26.12.2019
5462 Fog -1 1025 78 2500 1.5 110 06:20 26.12.2019
5463 Clear -1 1025 100 5000 1 0 05:43 26.12.2019
5464 Fog 0 1025 82 6000 1.5 90 04:36 26.12.2019
5465 Clear 0 1025 100 7000 0.5 0 03:32 26.12.2019
5466 Mist 1 1025 93 2300 1.5 100 02:46 26.12.2019
5467 Mist 1 1025 93 2300 1.5 100 02:27 26.12.2019
5468 Clouds 1 1025 100 7000 1 0 01:44 26.12.2019
5469 Clouds 2 1025 100 7000 1 0 01:25 26.12.2019
5470 Clouds 2 1026 100 10000 0.5 0 00:44 26.12.2019
5471 Clouds 2 1025 93 10000 2.6 210 00:23 26.12.2019
5472 Clouds 2 1025 93 10000 3.1 220 23:57 25.12.2019
5473 Clouds 2 1026 100 10000 1 0 23:37 25.12.2019
5474 Clouds 2 1026 93 10000 1 0 23:19 25.12.2019
5475 Snow 2 1025 93 10000 2.6 210 22:56 25.12.2019
5476 Clouds 2 1026 100 10000 1 0 22:37 25.12.2019
5477 Clouds 2 1026 93 10000 1.5 110 22:18 25.12.2019
5478 Clouds 2 1024 93 10000 3.6 220 21:55 25.12.2019
5479 Clouds 2 1026 93 10000 1 0 21:37 25.12.2019
5480 Clouds 2 1026 93 10000 1 0 21:18 25.12.2019
5481 Clouds 3 1026 93 10000 1 0 20:40 25.12.2019
5482 Clouds 2 1026 93 10000 1.5 0 20:21 25.12.2019
5483 Clouds 2 1026 93 10000 1.5 0 19:59 25.12.2019
5484 Clouds 3 1025 93 10000 1.5 120 19:40 25.12.2019
5485 Clouds 3 1025 93 10000 1.5 90 19:21 25.12.2019
5486 Snow 3 1025 86 10000 1 0 18:40 25.12.2019
5487 Clouds 2 1023 93 10000 3.1 230 18:20 25.12.2019
5488 Clouds 2 1022 93 10000 3.1 260 17:57 25.12.2019
5489 Rain 2 1022 93 10000 3.1 260 17:39 25.12.2019
5490 Rain 3 1022 93 10000 6.2 290 17:18 25.12.2019
5491 Rain 3 1024 93 10000 6.2 280 16:39 25.12.2019
5492 Rain 4 1023 93 8000 5.1 290 16:20 25.12.2019
5493 Rain 4 1021 86 10000 6.2 310 15:58 25.12.2019
5494 Rain 4 1022 81 10000 8.7 310 15:40 25.12.2019
5495 Clouds 4 1021 70 10000 7.2 260 15:21 25.12.2019
5496 Clouds 5 1021 70 10000 7.2 260 14:59 25.12.2019
5497 Rain 5 1021 70 10000 7.2 250 14:40 25.12.2019
5498 Rain 5 1021 70 10000 7.2 250 14:40 25.12.2019
5499 Rain 6 1021 66 10000 5.7 260 14:21 25.12.2019
5500 Rain 6 1021 66 10000 5.7 260 14:21 25.12.2019
5501 Rain 6 1021 66 10000 5.7 260 14:21 25.12.2019
5502 Rain 6 1020 75 10000 8.7 250 13:57 25.12.2019
5503 Rain 5 1020 66 10000 6.7 260 13:38 25.12.2019
5504 Rain 6 1020 66 10000 6.2 260 13:19 25.12.2019
5505 Clouds 6 1020 66 10000 6.2 250 12:40 25.12.2019
5506 Clouds 6 1020 66 10000 5.7 260 12:20 25.12.2019
5507 Clouds 6 1020 66 10000 5.7 260 11:56 25.12.2019
5508 Rain 6 1017 87 10000 9.8 240 11:56 25.12.2019
5509 Rain 6 1020 66 10000 4.6 250 11:38 25.12.2019
5510 Rain 6 1020 66 10000 5.1 260 11:18 25.12.2019
5511 Rain 5 1020 70 10000 6.2 250 10:38 25.12.2019
5512 Clouds 6 1019 66 10000 6.7 250 10:20 25.12.2019
5513 Rain 5 1019 66 10000 6.2 250 09:51 25.12.2019
5514 Rain 5 1019 66 10000 6.2 250 09:32 25.12.2019
5515 Clouds 5 1019 66 10000 6.2 250 08:51 25.12.2019
5516 Clouds 5 1019 66 10000 6.2 250 08:51 25.12.2019
5517 Rain 5 1016 93 10000 9.3 240 08:31 25.12.2019
5518 Clouds 5 1018 66 10000 4.1 250 07:52 25.12.2019
5519 Rain 5 1018 66 10000 4.1 250 07:34 25.12.2019
5520 Rain 5 1018 70 10000 5.7 250 06:52 25.12.2019
5521 Rain 5 1018 70 10000 4.6 250 06:23 25.12.2019
5522 Clouds 5 1018 70 10000 3.6 260 05:18 25.12.2019
5523 Rain 5 1018 70 10000 3.6 260 04:39 25.12.2019
5524 Rain 5 1018 75 10000 5.1 260 04:20 25.12.2019
5525 Rain 5 1018 75 10000 3.1 250 03:41 25.12.2019
5526 Rain 5 1018 87 10000 5.1 330 02:53 25.12.2019
5527 Rain 5 1018 87 10000 2.1 230 02:20 25.12.2019
5528 Rain 4 1018 93 10000 3.1 250 01:25 25.12.2019
5529 Snow 4 1016 86 10000 7.7 220 00:54 25.12.2019
5530 Rain 4 1018 87 10000 4.1 300 00:32 25.12.2019
5531 Snow 5 1016 93 10000 6.2 230 23:57 24.12.2019
5532 Clouds 5 1018 75 10000 5.1 250 23:38 24.12.2019
5533 Clouds 5 1018 75 10000 5.7 260 23:20 24.12.2019
5534 Rain 5 1018 75 10000 6.7 250 22:41 24.12.2019
5535 Snow 5 1017 70 10000 5.1 250 22:21 24.12.2019
5536 Snow 5 1017 70 10000 6.2 250 21:44 24.12.2019
5537 Snow 5 1017 66 10000 4.6 250 21:23 24.12.2019
5538 Rain 6 1015 93 10000 6.7 240 20:57 24.12.2019
5539 Rain 6 1017 71 10000 5.1 260 20:39 24.12.2019
5540 Rain 6 1017 71 10000 6.2 250 20:18 24.12.2019
5541 Rain 6 1017 71 10000 3.1 260 19:44 24.12.2019
5542 Clouds 6 1017 71 10000 2.1 250 19:20 24.12.2019
5543 Clouds 6 1017 71 10000 4.6 260 18:43 24.12.2019
5544 Rain 6 1015 93 10000 4.1 230 18:24 24.12.2019
5545 Clouds 6 1015 93 10000 7.2 230 17:58 24.12.2019
5546 Clouds 5 1016 76 10000 6.2 250 17:38 24.12.2019
5547 Clouds 6 1016 81 10000 4.6 250 17:20 24.12.2019
5548 Clouds 5 1014 93 10000 7.7 230 16:55 24.12.2019
5549 Rain 5 1016 100 10000 2.6 60 16:37 24.12.2019
5550 Rain 5 1016 100 6000 1 0 16:19 24.12.2019
5551 Rain 5 1013 93 9000 7.7 250 15:54 24.12.2019
5552 Rain 4 1015 100 3900 2.1 300 15:36 24.12.2019
5553 Rain 4 1015 93 6000 2.1 290 15:18 24.12.2019
5554 Rain 4 1014 87 10000 3.1 310 14:54 24.12.2019
5555 Clouds 4 1014 87 10000 3.1 310 14:36 24.12.2019
5556 Clouds 4 1014 87 10000 3.1 310 14:18 24.12.2019
5557 Rain 4 1012 93 10000 8.2 220 13:54 24.12.2019
5558 Rain 4 1015 87 10000 3.6 200 13:36 24.12.2019
5559 Rain 4 1015 87 10000 3.6 200 13:18 24.12.2019
5560 Rain 3 1013 86 10000 7.7 220 12:54 24.12.2019
5561 Rain 3 1015 81 10000 2.1 150 12:36 24.12.2019
5562 Rain 3 1015 81 10000 2.1 150 12:18 24.12.2019
5563 Rain 3 1014 80 10000 8.7 220 11:54 24.12.2019
5564 Rain 3 1017 86 10000 2.1 330 11:36 24.12.2019
5565 Rain 3 1017 86 10000 2.1 330 11:18 24.12.2019
5566 Clouds 3 1015 80 10000 5.7 210 10:54 24.12.2019
5567 Clouds 3 1015 80 10000 5.7 210 10:54 24.12.2019
5568 Clouds 3 1018 80 10000 2.1 110 10:36 24.12.2019
5569 Clouds 3 1018 86 10000 2.6 120 10:18 24.12.2019
5570 Clouds 2 1016 86 10000 5.1 220 09:54 24.12.2019
5571 Clouds 2 1019 93 10000 1 0 09:36 24.12.2019
5572 Clouds 2 1018 86 10000 2.1 100 09:18 24.12.2019
5573 Clouds 1 1018 86 10000 2.1 100 08:42 24.12.2019
5574 Clouds 1 1019 80 10000 2.6 140 08:19 24.12.2019
5575 Clouds 2 1019 80 10000 2.6 140 07:44 24.12.2019
5576 Clouds 2 1018 76 10000 3.6 200 07:22 24.12.2019
5577 Clouds 2 1020 75 10000 3.6 190 06:41 24.12.2019
5578 Clouds 2 1020 80 10000 3.1 180 06:22 24.12.2019
5579 Clouds 2 1021 76 10000 1.5 90 05:56 24.12.2019
5580 Snow 2 1021 80 10000 1 0 05:20 24.12.2019
5581 Snow 3 1022 80 10000 1 0 04:22 24.12.2019
5582 Clouds 3 1021 75 10000 1.5 0 03:50 24.12.2019
5583 Rain 3 1021 75 10000 1 0 02:37 24.12.2019
5584 Rain 3 1021 81 10000 1 0 02:18 24.12.2019
5585 Clouds 3 1021 81 10000 1.5 0 01:42 24.12.2019
5586 Rain 4 1021 86 10000 2.1 230 01:19 24.12.2019
5587 Clouds 4 1021 75 10000 2.6 260 00:40 24.12.2019
5588 Clouds 4 1021 70 10000 4.6 250 00:20 24.12.2019
5589 Clouds 4 1020 70 10000 4.6 250 23:43 23.12.2019
5590 Rain 4 1018 93 10000 6.7 230 23:24 23.12.2019
5591 Rain 4 1018 93 10000 6.7 230 22:57 23.12.2019
5592 Clouds 4 1020 75 10000 5.1 260 22:38 23.12.2019
5593 Clouds 4 1020 75 10000 5.1 260 22:38 23.12.2019
5594 Clouds 4 1019 70 10000 5.1 260 22:20 23.12.2019
5595 Rain 4 1017 93 10000 6.2 230 21:57 23.12.2019
5596 Rain 4 1019 75 10000 5.1 270 21:37 23.12.2019
5597 Rain 4 1018 75 10000 4.6 270 21:19 23.12.2019
5598 Rain 4 1018 75 10000 4.6 270 20:59 23.12.2019
5599 Rain 4 1018 75 10000 5.1 270 20:41 23.12.2019
5600 Rain 4 1018 75 10000 5.1 270 20:19 23.12.2019
5601 Rain 4 1018 75 10000 5.1 270 20:19 23.12.2019
5602 Rain 4 1018 75 10000 5.1 270 19:59 23.12.2019
5603 Rain 4 1017 75 10000 4.6 260 19:40 23.12.2019
5604 Rain 4 1017 75 10000 4.6 260 19:40 23.12.2019
5605 Rain 4 1017 75 10000 5.1 270 19:21 23.12.2019
5606 Rain 4 1017 75 10000 5.1 270 18:58 23.12.2019
5607 Rain 4 1016 75 10000 5.1 260 18:39 23.12.2019
5608 Rain 4 1016 75 10000 5.1 260 18:21 23.12.2019
5609 Rain 4 1015 75 10000 5.1 260 17:59 23.12.2019
5610 Rain 4 1015 75 10000 5.1 260 17:40 23.12.2019
5611 Rain 4 1015 75 10000 5.1 260 17:19 23.12.2019
5612 Rain 4 1015 75 10000 5.1 260 17:19 23.12.2019
5613 Rain 4 1013 86 10000 5.7 230 16:58 23.12.2019
5614 Rain 4 1015 75 10000 5.1 270 16:40 23.12.2019
5615 Rain 5 1015 75 10000 5.1 270 16:19 23.12.2019
5616 Rain 5 1015 75 10000 5.1 270 15:58 23.12.2019
5617 Rain 4 1013 70 10000 6.7 260 15:37 23.12.2019
5618 Rain 4 1013 70 10000 6.7 260 15:19 23.12.2019
5619 Rain 5 1013 70 10000 6.7 260 14:56 23.12.2019
5620 Rain 4 1012 75 10000 5.7 270 14:38 23.12.2019
5621 Rain 4 1012 75 10000 6.7 270 14:19 23.12.2019
5622 Rain 4 1010 86 10000 6.7 240 13:56 23.12.2019
5623 Rain 4 1012 70 10000 7.2 260 13:38 23.12.2019
5624 Rain 4 1011 70 10000 6.7 250 13:20 23.12.2019
5625 Rain 4 1010 93 10000 7.2 240 12:55 23.12.2019
5626 Rain 4 1011 70 10000 7.2 260 12:36 23.12.2019
5627 Rain 4 1011 65 10000 5.7 260 12:18 23.12.2019
5628 Rain 4 1011 65 10000 5.7 260 12:18 23.12.2019
5629 Rain 4 1011 70 10000 5.7 260 11:42 23.12.2019
5630 Rain 4 1011 70 10000 5.7 260 11:42 23.12.2019
5631 Clouds 4 1009 86 10000 8.2 240 11:24 23.12.2019
5632 Rain 4 1011 70 10000 5.7 260 10:56 23.12.2019
5633 Rain 4 1010 70 10000 5.1 270 10:38 23.12.2019
5634 Rain 4 1010 70 10000 7.2 260 10:20 23.12.2019
5635 Rain 4 1010 81 10000 6.7 240 09:57 23.12.2019
5636 Rain 4 1009 70 10000 7.2 260 09:39 23.12.2019
5637 Rain 4 1009 70 10000 7.2 260 09:19 23.12.2019
5638 Rain 4 1009 70 10000 7.2 260 08:42 23.12.2019
5639 Clouds 4 1006 86 10000 8.2 240 08:23 23.12.2019
5640 Clouds 3 1006 86 10000 7.7 230 07:57 23.12.2019
5641 Clouds 3 1008 70 10000 4.6 270 07:38 23.12.2019
5642 Clouds 3 1007 75 10000 4.6 260 07:19 23.12.2019
5643 Rain 3 1007 75 10000 4.6 260 06:39 23.12.2019
5644 Rain 3 1007 70 10000 5.7 260 06:21 23.12.2019
5645 Rain 4 1006 70 10000 6.7 260 05:45 23.12.2019
5646 Clouds 3 1005 75 10000 6.2 260 04:44 23.12.2019
5647 Rain 3 1002 86 10000 8.7 240 03:58 23.12.2019
5648 Rain 3 1003 81 10000 4.1 260 02:47 23.12.2019
5649 Rain 3 1003 81 10000 6.2 270 02:20 23.12.2019
5650 Drizzle 4 1002 75 10000 5.7 270 01:50 23.12.2019
5651 Drizzle 4 1002 75 10000 5.7 270 01:31 23.12.2019
5652 Clouds 4 1001 61 10000 5.7 250 00:48 23.12.2019
5653 Rain 4 1001 61 10000 5.7 250 00:27 23.12.2019
5654 Rain 4 1001 61 10000 5.1 250 23:56 22.12.2019
5655 Clouds 4 1000 65 10000 4.6 250 23:37 22.12.2019
5656 Clouds 4 1000 70 10000 2.1 250 23:19 22.12.2019
5657 Clouds 4 1000 70 10000 3.6 280 22:42 22.12.2019
5658 Clouds 4 1000 70 10000 3.6 280 22:42 22.12.2019
5659 Clouds 4 999 70 10000 4.1 270 22:23 22.12.2019
5660 Clouds 4 999 65 10000 4.6 240 21:59 22.12.2019
5661 Rain 4 999 65 10000 4.6 240 21:41 22.12.2019
5662 Rain 4 999 61 10000 5.7 240 21:22 22.12.2019
5663 Rain 4 996 86 10000 8.2 240 20:59 22.12.2019
5664 Rain 4 998 70 10000 5.7 250 20:40 22.12.2019
5665 Rain 4 997 70 10000 4.6 270 20:19 22.12.2019
5666 Rain 5 996 86 10000 9.8 240 19:57 22.12.2019
5667 Rain 5 997 81 10000 4.6 270 19:39 22.12.2019
5668 Rain 5 997 81 10000 4.6 270 19:20 22.12.2019
5669 Rain 5 996 81 10000 6.2 260 18:44 22.12.2019
5670 Rain 5 996 75 10000 6.2 260 18:25 22.12.2019
5671 Clouds 5 994 87 10000 8.2 230 17:58 22.12.2019
5672 Rain 5 995 66 10000 4.6 250 17:39 22.12.2019
5673 Rain 5 995 66 10000 4.6 250 17:19 22.12.2019
5674 Rain 6 993 87 10000 9.3 240 16:59 22.12.2019
5675 Rain 5 994 66 10000 7.2 250 16:41 22.12.2019
5676 Rain 6 994 81 10000 6.2 260 16:22 22.12.2019
5677 Rain 6 994 81 10000 6.2 260 15:57 22.12.2019
5678 Rain 5 993 76 10000 7.2 250 15:39 22.12.2019
5679 Rain 6 993 70 10000 7.2 250 15:21 22.12.2019
5680 Rain 6 991 87 10000 10.3 240 14:56 22.12.2019
5681 Rain 6 992 76 10000 1.5 260 14:38 22.12.2019
5682 Rain 6 992 81 10000 1.5 260 14:19 22.12.2019
5683 Rain 6 992 81 10000 1.5 260 14:19 22.12.2019
5684 Rain 6 990 81 10000 8.7 230 13:56 22.12.2019
5685 Rain 6 991 76 10000 4.6 270 13:38 22.12.2019
5686 Rain 7 991 76 10000 2.6 70 13:19 22.12.2019
5687 Rain 7 991 76 10000 2.6 70 13:19 22.12.2019
5688 Clouds 6 989 81 10000 7.2 210 12:56 22.12.2019
5689 Clouds 6 991 93 10000 2.6 70 12:38 22.12.2019
5690 Rain 6 991 93 10000 1.5 300 12:19 22.12.2019
5691 Rain 6 991 93 10000 2.1 120 11:56 22.12.2019
5692 Rain 5 991 87 10000 1.5 300 11:38 22.12.2019
5693 Clouds 5 991 87 10000 1.5 120 11:19 22.12.2019
5694 Clouds 5 990 86 10000 2.6 190 10:56 22.12.2019
5695 Rain 4 991 93 10000 2.1 280 10:38 22.12.2019
5696 Rain 4 991 93 10000 2.1 280 10:19 22.12.2019
5697 Rain 3 991 93 10000 2.1 280 09:57 22.12.2019
5698 Clouds 3 990 87 10000 3.1 270 09:39 22.12.2019
5699 Clouds 3 989 86 10000 2.1 160 09:20 22.12.2019
5700 Clouds 3 989 81 10000 2.6 290 08:42 22.12.2019
5701 Snow 2 988 86 10000 4.1 210 08:22 22.12.2019
5702 Snow 3 988 93 10000 4.1 210 07:43 22.12.2019
5703 Snow 3 988 93 10000 3.1 200 07:21 22.12.2019
5704 -273 0 0 0 0 0 06:52 22.12.2019
5705 Rain 3 989 86 10000 3.1 200 06:25 22.12.2019
5706 Clouds 3 989 93 10000 2.6 120 05:32 22.12.2019
5707 Clouds 2 989 93 10000 3.1 80 04:46 22.12.2019
5708 Clouds 2 989 93 10000 3.1 80 04:46 22.12.2019
5709 Snow 2 988 93 10000 1.5 180 04:24 22.12.2019
5710 Clouds 2 990 86 10000 1.5 0 02:43 22.12.2019
5711 Clouds 2 990 86 10000 1.5 0 02:43 22.12.2019
5712 Clouds 2 990 93 10000 3.6 100 01:59 22.12.2019
5713 Clouds 2 991 86 10000 2.6 130 01:31 22.12.2019
5714 Drizzle 2 991 81 10000 6.2 280 00:48 22.12.2019
5715 Drizzle 1 991 81 10000 6.2 280 00:29 22.12.2019
5716 Clouds 1 991 86 10000 6.7 280 23:59 21.12.2019
5717 Clouds 1 989 86 10000 1 0 23:40 21.12.2019
5718 Clouds 1 989 93 10000 1.5 120 23:20 21.12.2019
5719 Clouds 1 989 93 10000 1.5 0 22:47 21.12.2019
5720 Clouds 1 989 93 10000 1 0 22:20 21.12.2019
5721 Clouds 1 989 93 10000 1 0 21:58 21.12.2019
5722 Clouds 1 989 93 10000 1.5 0 21:40 21.12.2019
5723 Clouds 1 991 100 10000 0.5 0 21:21 21.12.2019
5724 Clouds 1 991 100 10000 0.5 0 20:59 21.12.2019
5725 Clouds 1 991 93 10000 1.5 0 20:41 21.12.2019
5726 Clouds 1 992 100 10000 1.5 130 20:22 21.12.2019
5727 Clouds 1 992 100 10000 1.5 130 19:58 21.12.2019
5728 Clouds 2 992 100 10000 1.5 130 19:58 21.12.2019
5729 Clouds 2 992 93 10000 1 0 19:40 21.12.2019
5730 Clouds 2 994 93 10000 3.1 170 19:20 21.12.2019
5731 Clouds 2 993 93 10000 2.6 200 18:56 21.12.2019
5732 Clouds 2 993 93 10000 3.1 200 18:38 21.12.2019
5733 Clouds 3 995 81 10000 2.1 200 18:20 21.12.2019
5734 Clouds 3 994 100 10000 2.6 220 17:55 21.12.2019
5735 Clouds 3 994 100 10000 2.6 220 17:55 21.12.2019
5736 Clouds 3 994 100 10000 2.6 220 17:55 21.12.2019
5737 Clouds 3 995 81 10000 2.1 200 17:37 21.12.2019
5738 Snow 4 994 81 10000 3.6 170 17:18 21.12.2019
5739 Clouds 4 995 93 10000 1.5 90 16:41 21.12.2019
5740 Clouds 5 995 93 10000 1.5 90 16:19 21.12.2019
5741 Clouds 6 995 93 10000 1.5 90 15:58 21.12.2019
5742 Clouds 6 996 93 10000 2.1 110 15:39 21.12.2019
5743 Clouds 6 996 87 10000 2.1 110 15:20 21.12.2019
5744 Clouds 6 995 87 10000 5.7 230 14:59 21.12.2019
5745 Clouds 5 996 93 10000 2.1 90 14:40 21.12.2019
5746 Rain 5 996 93 10000 2.6 100 14:22 21.12.2019
5747 Clouds 5 995 87 10000 4.1 220 13:57 21.12.2019
5748 Rain 5 997 93 10000 3.1 100 13:38 21.12.2019
5749 Rain 5 996 93 10000 2.1 260 13:18 21.12.2019
5750 Rain 5 995 93 10000 2.6 200 12:56 21.12.2019
5751 Clouds 4 997 87 10000 3.1 280 12:37 21.12.2019
5752 Rain 4 997 93 10000 2.1 280 12:19 21.12.2019
5753 Rain 4 997 93 10000 2.1 280 11:45 21.12.2019
5754 Rain 4 997 93 10000 2.1 280 11:26 21.12.2019
5755 Rain 4 996 86 10000 3.1 180 10:57 21.12.2019
5756 Rain 4 996 93 10000 2.1 130 10:39 21.12.2019
5757 Rain 4 996 93 10000 2.1 120 10:21 21.12.2019
5758 Rain 3 995 86 10000 4.1 160 09:56 21.12.2019
5759 Rain 3 995 93 10000 3.6 150 09:37 21.12.2019
5760 Rain 3 996 93 10000 2.6 120 09:18 21.12.2019
5761 Rain 3 996 100 10000 3.1 120 08:44 21.12.2019
5762 Rain 3 996 100 10000 3.1 120 08:25 21.12.2019
5763 Rain 3 996 93 10000 1.5 0 07:46 21.12.2019
5764 Rain 3 996 100 10000 2.1 110 07:22 21.12.2019
5765 Drizzle 3 996 93 10000 1.5 100 06:46 21.12.2019
5766 Snow 3 995 100 10000 1 0 06:26 21.12.2019
5767 Snow 3 995 100 10000 1.04 117 05:55 21.12.2019
5768 Snow 2 997 93 10000 2.1 120 04:58 21.12.2019
5769 Rain 2 997 93 10000 1.5 100 03:59 21.12.2019
5770 Rain 3 998 87 10000 2.1 80 03:37 21.12.2019
5771 Snow 3 998 86 10000 3.1 180 02:19 21.12.2019
5772 Rain 3 997 93 10000 5.7 180 01:41 21.12.2019
5773 Rain 3 998 87 10000 4.6 150 01:22 21.12.2019
5774 Rain 3 998 81 10000 5.1 170 00:37 21.12.2019
5775 Rain 3 999 87 10000 4.6 180 00:18 21.12.2019
5776 Rain 4 998 81 10000 5.1 190 23:38 20.12.2019
5777 Rain 4 998 87 10000 4.1 190 23:19 20.12.2019
5778 Rain 4 998 81 10000 3.1 170 22:43 20.12.2019
5779 Rain 5 998 87 10000 5.1 280 22:22 20.12.2019
5780 Rain 5 998 87 10000 5.1 280 21:59 20.12.2019
5781 Rain 6 997 87 10000 5.7 280 21:40 20.12.2019
5782 Rain 6 997 93 10000 6.7 270 21:20 20.12.2019
5783 Rain 6 997 93 10000 6.7 270 21:20 20.12.2019
5784 Clouds 7 995 81 10000 6.7 220 20:55 20.12.2019
5785 Rain 7 996 87 10000 9.3 280 20:36 20.12.2019
5786 Clouds 8 995 66 10000 8.7 270 20:18 20.12.2019
5787 Clouds 9 995 66 10000 8.7 270 19:42 20.12.2019
5788 Clouds 9 994 62 10000 9.8 270 19:20 20.12.2019
5789 Clouds 9 993 61 10000 7.7 240 18:58 20.12.2019
5790 Clouds 8 994 62 10000 9.3 270 18:39 20.12.2019
5791 Clouds 10 993 50 10000 8.2 270 18:21 20.12.2019
5792 Clouds 11 992 41 10000 4.6 270 17:54 20.12.2019
5793 Clouds 10 992 41 10000 4.6 270 17:36 20.12.2019
5794 Clouds 10 992 41 10000 4.6 270 17:18 20.12.2019
5795 Clouds 10 992 41 10000 4.6 270 17:18 20.12.2019
5796 Clouds 11 991 31 10000 8.2 180 16:40 20.12.2019
5797 Clouds 11 990 76 10000 7.2 180 16:20 20.12.2019
5798 Clouds 10 990 76 10000 7.2 180 15:57 20.12.2019
5799 Clouds 10 990 76 10000 7.7 210 15:39 20.12.2019
5800 Clouds 10 990 76 10000 7.7 210 15:20 20.12.2019
5801 Clouds 10 990 76 10000 10.8 170 14:59 20.12.2019
5802 Clouds 10 990 76 10000 10.8 170 14:40 20.12.2019
5803 Clouds 12 991 68 10000 9.8 200 14:22 20.12.2019
5804 Clouds 13 991 68 10000 11.3 190 13:55 20.12.2019
5805 Clouds 13 992 68 10000 11.8 180 13:36 20.12.2019
5806 Clouds 13 992 66 10000 11.8 180 13:18 20.12.2019
5807 Clouds 13 992 66 10000 10.3 170 12:42 20.12.2019
5808 Clouds 12 993 66 10000 11.8 180 12:19 20.12.2019
5809 Clouds 12 993 31 10000 11.8 180 11:59 20.12.2019
5810 Clouds 12 993 31 10000 11.8 180 11:40 20.12.2019
5811 Clouds 8 993 64 10000 15.4 170 11:21 20.12.2019
5812 Clouds 8 993 31 10000 13.9 180 10:59 20.12.2019
5813 Clouds 8 993 31 10000 13.9 180 10:41 20.12.2019
5814 Clouds 9 993 64 10000 12.9 180 10:21 20.12.2019
5815 Clouds 10 994 64 10000 15.4 180 09:56 20.12.2019
5816 Clouds 9 993 64 10000 15.4 180 09:38 20.12.2019
5817 Clouds 8 993 64 10000 15.4 180 09:19 20.12.2019
5818 Clouds 8 993 64 10000 13.9 180 08:43 20.12.2019
5819 Clouds 6 995 64 10000 10.8 0 08:25 20.12.2019
5820 Clouds 3 997 86 10000 0.5 0 07:59 20.12.2019
5821 Mist 4 1009 67 1000 4.1 150 07:40 20.12.2019
5822 Mist 5 1009 67 1000 4.1 150 07:19 20.12.2019
5823 Clouds 6 996 67 10000 11.3 170 06:52 20.12.2019
5824 Clouds 6 996 67 10000 10.8 170 06:32 20.12.2019
5825 Clouds 6 999 67 10000 1 140 05:53 20.12.2019
5826 Mist 5 1011 100 1000 4.1 160 05:35 20.12.2019
5827 Clouds 3 1002 100 5000 2.1 100 04:33 20.12.2019
5828 Clouds 3 1004 93 10000 3.6 310 03:30 20.12.2019
5829 Clouds 3 1004 93 10000 2.6 290 02:43 20.12.2019
5830 Clouds 4 1004 93 10000 4.6 270 01:49 20.12.2019
5831 Clouds 4 1004 93 10000 4.6 270 01:49 20.12.2019
5832 Clouds 4 1004 93 10000 2.6 0 01:30 20.12.2019
5833 Clouds 4 1004 93 10000 7.2 280 00:43 20.12.2019
5834 Clouds 4 1004 75 10000 8.2 270 00:23 20.12.2019
5835 Clouds 3 1004 100 5000 3.1 0 23:44 19.12.2019
5836 Mist 4 1005 100 1600 1 0 23:25 19.12.2019
5837 Mist 4 1006 100 3900 1.5 0 22:59 19.12.2019
5838 Mist 3 1007 100 2300 1.5 0 22:37 19.12.2019
5839 Mist 3 1007 100 2300 1.5 0 22:18 19.12.2019
5840 Mist 3 1008 100 3300 1 0 21:55 19.12.2019
5841 Clouds 3 1009 93 10000 1 0 21:37 19.12.2019
5842 Clouds 3 1009 93 10000 1 0 21:18 19.12.2019
5843 Clouds 3 1009 93 10000 1 0 20:55 19.12.2019
5844 Clouds 3 1010 100 10000 1 0 20:36 19.12.2019
5845 Clouds 4 1010 100 10000 1 0 20:18 19.12.2019
5846 Clouds 4 1010 100 10000 1 0 19:54 19.12.2019
5847 Clouds 4 1010 100 10000 1 0 19:54 19.12.2019
5848 Clouds 5 1010 100 10000 1.5 0 19:36 19.12.2019
5849 Clouds 6 1010 100 10000 1.5 0 19:18 19.12.2019
5850 Clouds 5 1010 100 10000 1.5 0 18:41 19.12.2019
5851 Clouds 5 1010 100 10000 1 0 18:21 19.12.2019
5852 Clouds 6 1010 100 10000 1 0 17:57 19.12.2019
5853 Fog 7 1010 100 7000 1.5 0 17:39 19.12.2019
5854 Fog 7 1010 100 7000 1.5 0 17:19 19.12.2019
5855 Fog 8 1010 100 7000 1.5 90 16:57 19.12.2019
5856 Clouds 8 1011 87 10000 2.1 80 16:39 19.12.2019
5857 Fog 9 1011 93 8000 1 0 16:20 19.12.2019
5858 Fog 9 1011 93 8000 1 0 15:58 19.12.2019
5859 Fog 9 1011 93 8000 1 0 15:39 19.12.2019
5860 Clouds 9 1011 100 10000 1 0 15:19 19.12.2019
5861 Clouds 10 1012 93 10000 1 0 14:58 19.12.2019
5862 Clouds 9 1012 93 10000 1 0 14:40 19.12.2019
5863 Clouds 10 1012 93 10000 1 0 14:18 19.12.2019
5864 Clouds 10 1013 100 10000 2.1 320 13:56 19.12.2019
5865 Clouds 10 1013 93 10000 1 0 13:37 19.12.2019
5866 Clouds 10 1013 93 10000 1 0 13:18 19.12.2019
5867 Clouds 10 1014 100 10000 1 0 12:54 19.12.2019
5868 Clouds 10 1014 100 10000 3.1 290 12:36 19.12.2019
5869 Clouds 9 1014 100 10000 3.1 290 12:18 19.12.2019
5870 Clouds 9 1014 100 10000 3.1 290 12:18 19.12.2019
5871 Clouds 9 1014 100 10000 3.1 290 12:18 19.12.2019
5872 Clouds 9 1014 100 10000 3.1 290 12:18 19.12.2019
5873 Clouds 8 1015 93 6000 1.5 260 11:42 19.12.2019
5874 Fog 5 1015 100 4000 2.1 290 11:20 19.12.2019
5875 Fog 5 1015 100 4000 2.1 290 11:20 19.12.2019
5876 Fog 5 1015 93 350 2.6 280 10:59 19.12.2019
5877 Fog 5 1015 100 800 2.6 280 10:39 19.12.2019
5878 Fog 4 1015 100 800 2.6 280 10:20 19.12.2019
5879 Clouds 4 1015 100 300 1.5 0 09:59 19.12.2019
5880 Clouds 3 1016 93 150 1.5 0 09:38 19.12.2019
5881 Clouds 3 1016 93 150 1.5 0 09:20 19.12.2019
5882 Clouds 3 1016 93 150 1.5 0 08:56 19.12.2019
5883 Clouds 3 1016 100 8000 1.5 0 08:37 19.12.2019
5884 Clouds 3 1016 100 8000 1.5 0 08:18 19.12.2019
5885 Clouds 3 1016 100 8000 1.5 0 07:54 19.12.2019
5886 Clouds 2 1017 93 10000 1 0 07:36 19.12.2019
5887 Clouds 2 1017 93 10000 1 0 07:18 19.12.2019
5888 Clouds 2 1017 100 7000 0.5 0 06:42 19.12.2019
5889 Clouds 2 1017 100 7000 0.5 0 06:24 19.12.2019
5890 Mist 2 1017 100 4800 1 0 05:47 19.12.2019
5891 Clouds 2 1017 93 8000 1.5 0 05:27 19.12.2019
5892 Clouds 2 1017 71 10000 1.5 280 03:58 19.12.2019
5893 Clouds 4 1017 93 10000 2.1 0 02:30 19.12.2019
5894 Clouds 4 1017 93 10000 3.1 280 01:27 19.12.2019
5895 Clouds 5 1017 93 10000 3.6 290 00:59 19.12.2019
5896 Clouds 5 1017 93 10000 2.6 120 00:39 19.12.2019
5897 Clouds 5 1017 93 10000 2.6 120 00:39 19.12.2019
5898 Clouds 4 1017 93 10000 2.6 120 00:19 19.12.2019
5899 Clouds 4 1017 93 10000 2.6 120 00:19 19.12.2019
5900 Clouds 5 1018 93 10000 1 0 23:45 18.12.2019
5901 Clouds 5 1018 100 10000 1 0 23:19 18.12.2019
5902 Clouds 5 1018 100 10000 1 0 23:19 18.12.2019
5903 Clouds 5 1018 100 10000 1 0 23:19 18.12.2019
5904 Clouds 5 1018 93 10000 2.1 70 22:58 18.12.2019
5905 Clouds 5 1019 86 10000 3.1 90 22:40 18.12.2019
5906 Clouds 5 1019 86 10000 3.1 90 22:40 18.12.2019
5907 Mist 5 1019 100 3300 1 0 22:22 18.12.2019
5908 Clouds 5 1019 100 8000 1 0 21:59 18.12.2019
5909 Clouds 5 1019 100 8000 1 0 21:40 18.12.2019
5910 Clouds 5 1019 100 10000 1.5 100 21:20 18.12.2019
5911 Clouds 5 1019 100 10000 1.5 100 21:20 18.12.2019
5912 Clouds 5 1019 100 10000 1 0 20:57 18.12.2019
5913 Clouds 6 1019 100 10000 2.1 230 20:39 18.12.2019
5914 Clouds 6 1019 100 10000 2.1 230 20:20 18.12.2019
5915 Clouds 6 1019 100 10000 1.5 0 19:57 18.12.2019
5916 Clouds 6 1019 93 10000 1 0 19:39 18.12.2019
5917 Clouds 7 1019 93 10000 1 0 19:19 18.12.2019
5918 Clouds 7 1019 93 10000 1 0 18:56 18.12.2019
5919 Clouds 7 1019 93 10000 1.5 110 18:37 18.12.2019
5920 Clouds 7 1019 93 10000 1.5 110 18:18 18.12.2019
5921 Clouds 8 1019 93 10000 0.5 0 17:55 18.12.2019
5922 Clouds 8 1019 87 10000 0.5 0 17:37 18.12.2019
5923 Clouds 8 1019 87 10000 0.5 0 17:37 18.12.2019
5924 Clouds 9 1019 87 10000 0.5 0 17:18 18.12.2019
5925 Clouds 9 1019 87 10000 1.5 260 16:42 18.12.2019
5926 Clouds 10 1018 93 10000 1 0 16:24 18.12.2019
5927 Clouds 10 1018 76 10000 1 0 15:57 18.12.2019
5928 Clouds 11 1019 71 10000 1.5 80 15:39 18.12.2019
5929 Clouds 11 1019 93 10000 2.1 280 15:21 18.12.2019
5930 Clouds 11 1019 66 10000 0.5 0 14:56 18.12.2019
5931 Clouds 11 1019 93 10000 2.1 280 14:56 18.12.2019
5932 Clouds 11 1019 93 10000 2.1 280 14:38 18.12.2019
5933 Clouds 12 1019 93 10000 2.6 290 14:19 18.12.2019
5934 Clouds 12 1019 76 10000 1 0 13:55 18.12.2019
5935 Clouds 12 1019 93 10000 2.6 290 13:36 18.12.2019
5936 Clouds 11 1019 93 10000 2.1 300 13:18 18.12.2019
5937 Clouds 11 1019 93 10000 2.1 300 13:18 18.12.2019
5938 Clouds 11 1019 93 10000 2.1 300 13:18 18.12.2019
5939 Clouds 11 1019 93 10000 2.1 300 12:40 18.12.2019
5940 Clouds 11 1019 87 10000 1.5 70 12:21 18.12.2019
5941 Clouds 10 1019 93 10000 2.6 80 11:57 18.12.2019
5942 Clouds 10 1019 93 10000 2.6 80 11:39 18.12.2019
5943 Clouds 9 1020 93 10000 1 0 11:20 18.12.2019
5944 Clouds 8 1020 93 10000 1 0 10:58 18.12.2019
5945 Clouds 8 1020 93 10000 1 0 10:39 18.12.2019
5946 Clouds 7 1019 100 10000 1 90 10:20 18.12.2019
5947 Clouds 7 1019 87 10000 2.6 150 09:58 18.12.2019
5948 Clouds 7 1018 100 10000 1.5 0 09:20 18.12.2019
5949 Clouds 7 1018 93 10000 1 0 08:43 18.12.2019
5950 Clouds 6 1018 70 10000 2.1 180 08:25 18.12.2019
5951 Clouds 6 1018 70 10000 2.1 180 08:25 18.12.2019
5952 Clouds 6 1017 75 10000 1.5 160 07:57 18.12.2019
5953 Clouds 6 1017 93 10000 1.5 0 07:57 18.12.2019
5954 Clouds 6 1017 93 10000 1.5 0 07:39 18.12.2019
5955 Clouds 6 1017 93 10000 0.5 0 07:20 18.12.2019
5956 Clouds 6 1017 93 10000 0.5 0 06:52 18.12.2019
5957 Clouds 6 1016 100 10000 1 0 06:25 18.12.2019
5958 Clouds 6 1016 100 10000 1 0 05:36 18.12.2019
5959 Clouds 6 1016 100 10000 1 310 04:31 18.12.2019
5960 Clouds 6 1014 93 10000 0.5 0 02:47 18.12.2019
5961 Clouds 6 1014 93 10000 0.5 0 02:28 18.12.2019
5962 Clouds 5 1013 93 10000 1 0 01:45 18.12.2019
5963 Clouds 6 1012 70 10000 3.6 190 01:27 18.12.2019
5964 Clouds 6 1013 86 10000 1 0 00:55 18.12.2019
5965 Clouds 5 1013 86 10000 1 0 00:36 18.12.2019
5966 Clouds 5 1012 87 10000 2.6 280 00:18 18.12.2019
5967 Clouds 5 1012 87 10000 3.1 260 23:43 17.12.2019
5968 Clouds 6 1011 87 10000 3.6 270 23:23 17.12.2019
5969 Clouds 6 1010 66 10000 5.7 280 22:57 17.12.2019
5970 Clouds 7 1010 66 10000 5.7 280 22:39 17.12.2019
5971 Clouds 7 1010 87 10000 6.2 290 22:19 17.12.2019
5972 Clouds 6 1010 87 10000 6.2 280 21:57 17.12.2019
5973 Clouds 7 1010 87 10000 6.2 280 21:39 17.12.2019
5974 Clouds 6 1009 87 10000 4.1 280 21:20 17.12.2019
5975 Clouds 7 1009 93 10000 1 0 20:59 17.12.2019
5976 Clouds 7 1009 93 10000 1 0 20:39 17.12.2019
5977 Clouds 7 1009 81 10000 4.1 290 20:19 17.12.2019
5978 Clouds 7 1010 93 10000 1.5 0 19:57 17.12.2019
5979 Clouds 7 1009 81 10000 2.6 240 19:39 17.12.2019
5980 Clouds 7 1009 81 10000 1.5 0 19:19 17.12.2019
5981 Clouds 6 1009 76 10000 4.6 280 18:57 17.12.2019
5982 Clouds 6 1009 76 10000 4.6 280 18:57 17.12.2019
5983 Clouds 6 1009 76 10000 4.6 280 18:57 17.12.2019
5984 Clouds 6 1009 76 10000 4.6 280 18:38 17.12.2019
5985 Clouds 6 1009 86 10000 3.71 166 18:20 17.12.2019
5986 Clouds 6 1009 86 10000 1 0 17:54 17.12.2019
5987 Clouds 7 1009 86 10000 1 0 17:36 17.12.2019
5988 Clouds 8 1009 93 10000 1 0 17:18 17.12.2019
5989 Clouds 8 1009 87 10000 1 0 16:54 17.12.2019
5990 Clouds 8 1009 87 10000 1 0 16:36 17.12.2019
5991 Clouds 8 1009 81 10000 1 0 16:18 17.12.2019
5992 Clouds 10 1009 81 10000 1.5 20 15:38 17.12.2019
5993 Clouds 10 1009 81 10000 1.5 350 15:20 17.12.2019
5994 Clouds 10 1009 81 10000 1.5 350 14:56 17.12.2019
5995 Clouds 10 1008 81 10000 1 0 14:38 17.12.2019
5996 Clouds 10 1008 81 10000 1.5 20 14:19 17.12.2019
5997 Clouds 10 1008 81 10000 1.5 20 14:19 17.12.2019
5998 Clouds 11 1007 50 10000 7.2 180 13:56 17.12.2019
5999 Clouds 11 1007 50 10000 7.2 180 13:38 17.12.2019
6000 Clouds 11 1007 32 10000 7.2 180 13:19 17.12.2019
6001 Clouds 11 1007 32 10000 7.2 180 13:19 17.12.2019
6002 Clouds 11 1007 32 10000 7.2 180 12:58 17.12.2019
6003 Clouds 11 1008 76 10000 5.1 270 12:38 17.12.2019
6004 Clouds 11 1008 76 10000 5.1 270 12:38 17.12.2019
6005 Clouds 11 1008 76 10000 5.1 270 12:18 17.12.2019
6006 Clouds 11 1008 62 10000 5.1 0 11:56 17.12.2019
6007 Clouds 11 1008 62 10000 5.1 0 11:36 17.12.2019
6008 Clouds 11 1008 62 10000 5.1 0 11:36 17.12.2019
6009 Clouds 6 1008 75 10000 7.2 280 11:18 17.12.2019
6010 Clouds 6 1009 86 10000 1 0 10:56 17.12.2019
6011 Clouds 6 1009 86 10000 1 0 10:37 17.12.2019
6012 Clouds 6 1008 86 10000 0.5 0 10:19 17.12.2019
6013 Clouds 6 1008 93 10000 4.77 165 09:42 17.12.2019
6014 Clouds 5 1008 86 10000 1.5 130 09:22 17.12.2019
6015 Clouds 5 1008 86 10000 1.5 130 08:58 17.12.2019
6016 Clouds 6 1008 86 10000 1 0 08:40 17.12.2019
6017 Clouds 5 1007 86 10000 1 0 08:21 17.12.2019
6018 Clouds 5 1007 86 10000 1 0 07:58 17.12.2019
6019 Clouds 5 1007 86 10000 2.1 160 07:39 17.12.2019
6020 Clouds 4 1007 86 10000 3.1 140 07:21 17.12.2019
6021 Clouds 4 1006 93 10000 2.1 160 06:42 17.12.2019
6022 Clouds 4 1006 71 10000 1 180 06:24 17.12.2019
6023 Clouds 4 1006 71 10000 1 180 06:24 17.12.2019
6024 Clouds 4 1006 86 10000 0.5 0 05:41 17.12.2019
6025 Clouds 5 1006 68 10000 2.1 40 04:51 17.12.2019
6026 Clouds 4 1006 68 10000 0.5 0 03:40 17.12.2019
6027 Clouds 4 1006 69 10000 1 0 02:22 17.12.2019
6028 Clouds 3 1006 93 10000 5.7 290 01:21 17.12.2019
6029 Clouds 3 1006 93 10000 5.1 270 00:45 17.12.2019
6030 Clouds 3 1006 93 10000 7.2 300 00:21 17.12.2019
6031 Clouds 3 1006 93 10000 6.2 290 23:44 16.12.2019
6032 Mist 3 1006 93 4000 9.3 300 23:20 16.12.2019
6033 Mist 3 1006 93 4000 9.3 300 22:59 16.12.2019
6034 Clouds 3 1007 68 10000 1.5 150 22:39 16.12.2019
6035 Clouds 2 1007 68 10000 1.5 170 22:21 16.12.2019
6036 Clouds 2 1007 68 10000 1.5 170 21:57 16.12.2019
6037 Clouds 2 1007 68 10000 1.5 170 21:57 16.12.2019
6038 Clouds 2 1007 93 10000 4.6 40 21:39 16.12.2019
6039 Clouds 3 1007 93 10000 4.6 260 21:20 16.12.2019
6040 Clouds 4 1007 93 10000 4.6 260 20:58 16.12.2019
6041 Clouds 5 1007 93 10000 4.6 260 20:39 16.12.2019
6042 Clouds 5 1008 93 10000 3.1 250 20:19 16.12.2019
6043 Clouds 5 1008 100 10000 1.5 150 19:57 16.12.2019
6044 Clouds 4 1008 93 10000 3.1 250 19:37 16.12.2019
6045 Clouds 4 1009 93 8000 1.5 250 19:19 16.12.2019
6046 Clouds 4 1009 93 8000 1.5 250 18:59 16.12.2019
6047 Clouds 4 1009 93 8000 1.5 250 18:41 16.12.2019
6048 Mist 4 1009 100 7000 1.5 0 18:20 16.12.2019
6049 Clouds 4 1009 100 7000 1.5 0 17:58 16.12.2019
6050 Clouds 5 1009 100 7000 1.5 0 17:40 16.12.2019
6051 Mist 6 1009 93 7000 1 0 17:21 16.12.2019
6052 Clouds 6 1009 93 7000 1 0 16:57 16.12.2019
6053 Clouds 6 1009 93 7000 1 0 16:39 16.12.2019
6054 Clouds 6 1009 93 7000 1 0 16:39 16.12.2019
6055 Clouds 7 1009 100 10000 2.6 340 16:20 16.12.2019
6056 Clouds 7 1009 87 10000 1 0 15:59 16.12.2019
6057 Clouds 7 1009 100 10000 2.6 340 15:59 16.12.2019
6058 Clouds 7 1009 93 10000 2.6 320 15:39 16.12.2019
6059 Clouds 8 1009 93 10000 4.6 290 15:20 16.12.2019
6060 Clouds 8 1009 93 10000 4.6 290 14:57 16.12.2019
6061 Clouds 8 1009 100 10000 5.1 290 14:37 16.12.2019
6062 Clouds 8 1009 100 10000 5.1 290 14:37 16.12.2019
6063 Clouds 8 1009 93 10000 4.1 300 14:19 16.12.2019
6064 Clouds 8 1009 93 10000 4.1 300 14:19 16.12.2019
6065 Clouds 8 1009 93 10000 4.1 300 14:19 16.12.2019
6066 Clouds 8 1009 93 10000 4.1 300 14:19 16.12.2019
6067 Clouds 9 1009 75 10000 1.5 350 13:56 16.12.2019
6068 Clouds 9 1009 93 10000 4.6 300 13:37 16.12.2019
6069 Clouds 9 1009 87 10000 4.6 300 13:19 16.12.2019
6070 Clouds 9 1010 87 10000 4.1 310 12:57 16.12.2019
6071 Clouds 9 1010 87 10000 4.1 310 12:39 16.12.2019
6072 Clouds 8 1010 87 10000 2.6 310 12:19 16.12.2019
6073 Clouds 7 1010 86 10000 0.5 0 11:58 16.12.2019
6074 Clouds 7 1010 93 10000 1 0 11:40 16.12.2019
6075 Clouds 5 1011 93 10000 0.5 0 11:20 16.12.2019
6076 Clouds 4 1011 93 10000 0.5 0 10:56 16.12.2019
6077 Clouds 4 1011 93 10000 0.5 0 10:37 16.12.2019
6078 Clouds 3 1012 93 10000 1.5 0 10:19 16.12.2019
6079 Clouds 2 1012 93 10000 1 0 09:45 16.12.2019
6080 Clouds 2 1012 93 10000 1 0 09:26 16.12.2019
6081 Clouds 2 1011 100 10000 0.5 0 08:41 16.12.2019
6082 Clouds 1 1011 86 10000 2.6 240 08:21 16.12.2019
6083 Clouds 1 1011 86 10000 1.5 170 07:57 16.12.2019
6084 Clouds 1 1011 100 10000 1 0 07:38 16.12.2019
6085 Clouds 1 1011 100 10000 1 0 07:19 16.12.2019
6086 Clouds 1 1011 74 10000 1 0 06:40 16.12.2019
6087 Clouds 1 1011 74 10000 1 0 06:22 16.12.2019
6088 Clouds 1 1011 74 10000 1 0 06:22 16.12.2019
6089 Clouds 1 1011 100 10000 1 0 05:44 16.12.2019
6090 Clouds 1 1011 93 10000 1 0 05:26 16.12.2019
6091 Clouds 2 1011 93 10000 2.6 300 03:33 16.12.2019
6092 Clouds 3 1011 86 10000 1.5 0 01:52 16.12.2019
6093 Clouds 3 1011 86 10000 1.5 0 01:33 16.12.2019
6094 Clouds 3 1011 70 10000 3.1 180 00:41 16.12.2019
6095 Clouds 4 1011 70 10000 3.1 130 00:21 16.12.2019
6096 Clouds 4 1011 75 10000 5.1 110 23:57 15.12.2019
6097 Clouds 4 1011 75 10000 5.1 110 23:37 15.12.2019
6098 Clouds 4 1011 75 10000 5.1 110 23:37 15.12.2019
6099 Clouds 4 1011 93 10000 2.6 110 23:19 15.12.2019
6100 Clouds 4 1012 93 10000 1.5 0 22:54 15.12.2019
6101 Clouds 4 1012 93 10000 1.5 0 22:36 15.12.2019
6102 Clouds 5 1012 86 10000 2.6 100 22:18 15.12.2019
6103 Clouds 5 1012 86 10000 2.6 100 22:18 15.12.2019
6104 Clouds 5 1012 93 10000 1 110 21:54 15.12.2019
6105 Clouds 4 1012 93 10000 1 110 21:36 15.12.2019
6106 Clouds 5 1012 86 10000 2.1 90 21:18 15.12.2019
6107 Clouds 5 1012 87 10000 1 0 20:54 15.12.2019
6108 Clouds 5 1012 86 10000 2.1 120 20:36 15.12.2019
6109 Clouds 6 1011 81 10000 2.6 230 20:18 15.12.2019
6110 Clouds 6 1011 81 10000 3.1 240 19:54 15.12.2019
6111 Clouds 6 1011 81 10000 3.1 240 19:36 15.12.2019
6112 Clouds 7 1011 81 10000 1 0 19:18 15.12.2019
6113 Clouds 7 1010 81 10000 2.6 100 18:54 15.12.2019
6114 Clouds 8 1010 81 10000 2.6 100 18:36 15.12.2019
6115 Clouds 8 1010 81 10000 2.6 100 18:18 15.12.2019
6116 Clouds 8 1010 71 10000 2.6 80 17:54 15.12.2019
6117 Clouds 8 1010 71 10000 2.6 80 17:36 15.12.2019
6118 Clouds 9 1010 71 10000 2.6 80 17:18 15.12.2019
6119 Clouds 10 1010 71 10000 2.6 80 16:42 15.12.2019
6120 Clouds 10 1009 71 10000 1 120 16:22 15.12.2019
6121 Clouds 11 1009 71 10000 1 120 15:57 15.12.2019
6122 Clouds 11 1009 71 10000 1 120 15:38 15.12.2019
6123 Clouds 11 1009 66 10000 1.5 80 15:19 15.12.2019
6124 Clouds 11 1009 66 10000 1.5 80 15:19 15.12.2019
6125 Clear 11 1008 71 10000 5.7 220 14:56 15.12.2019
6126 Clouds 11 1009 66 10000 1.5 80 14:37 15.12.2019
6127 Clouds 11 1008 76 10000 2.1 100 14:19 15.12.2019
6128 Clouds 11 1008 76 10000 1 0 13:58 15.12.2019
6129 Clouds 11 1008 76 10000 1 0 13:38 15.12.2019
6130 Clouds 11 1008 76 10000 1 0 13:19 15.12.2019
6131 Clouds 11 1008 71 10000 2.1 10 12:57 15.12.2019
6132 Clouds 11 1008 71 10000 2.1 10 12:39 15.12.2019
6133 Clouds 11 1008 71 10000 2.1 10 12:20 15.12.2019
6134 Clouds 11 1008 71 10000 2.1 10 12:20 15.12.2019
6135 Clouds 10 1008 71 10000 1 0 11:56 15.12.2019
6136 Clouds 10 1008 71 10000 1 0 11:37 15.12.2019
6137 Clouds 9 1008 71 10000 1 0 11:18 15.12.2019
6138 Clouds 9 1008 75 10000 1 0 10:55 15.12.2019
6139 Clouds 8 1008 75 10000 1 0 10:37 15.12.2019
6140 Clouds 8 1008 75 10000 1 0 10:18 15.12.2019
6141 Clouds 7 1007 80 10000 1 0 09:41 15.12.2019
6142 Clouds 6 1007 86 10000 1.5 130 09:20 15.12.2019
6143 Clear 6 1006 70 10000 9.8 220 08:58 15.12.2019
6144 Clouds 6 1007 86 10000 1.5 150 08:39 15.12.2019
6145 Clouds 5 1007 93 10000 1 0 08:21 15.12.2019
6146 Clouds 5 1007 80 10000 2.1 90 07:56 15.12.2019
6147 Clouds 5 1007 80 10000 2.1 90 07:34 15.12.2019
6148 Clouds 5 1006 93 10000 1.5 90 06:51 15.12.2019
6149 Clouds 5 1006 93 10000 1.5 0 06:20 15.12.2019
6150 Clouds 5 1006 93 10000 1.5 0 05:26 15.12.2019
6151 Clouds 5 1006 81 10000 2.1 260 04:47 15.12.2019
6152 Clouds 5 1006 86 10000 1 0 03:31 15.12.2019
6153 Clouds 5 1006 93 10000 1 160 02:34 15.12.2019
6154 Clouds 5 1006 81 10000 1.5 300 01:47 15.12.2019
6155 Clouds 4 1006 81 10000 1.5 300 01:28 15.12.2019
6156 Clouds 5 1006 93 10000 4.1 210 00:58 15.12.2019
6157 Clouds 5 1006 80 10000 1 0 00:40 15.12.2019
6158 Clouds 5 1007 80 10000 2.1 110 00:21 15.12.2019
6159 Clouds 5 1007 70 10000 2.6 100 23:40 14.12.2019
6160 Clouds 6 1007 66 10000 3.6 120 23:21 14.12.2019
6161 Clouds 6 1007 81 10000 3.6 90 22:58 14.12.2019
6162 Clouds 6 1007 81 10000 3.6 90 22:40 14.12.2019
6163 Clouds 6 1008 81 10000 1.5 120 22:20 14.12.2019
6164 Clouds 6 1006 75 10000 8.7 250 21:56 14.12.2019
6165 Clouds 6 1006 75 10000 8.7 250 21:56 14.12.2019
6166 Clouds 6 1007 75 10000 2.1 120 21:37 14.12.2019
6167 Clouds 7 1007 70 10000 2.6 0 21:18 14.12.2019
6168 Clouds 7 1007 70 10000 0.5 0 20:56 14.12.2019
6169 Clouds 6 1007 70 10000 0.5 0 20:37 14.12.2019
6170 Clouds 6 1007 61 10000 3.1 260 20:19 14.12.2019
6171 Clouds 6 1007 61 10000 3.1 260 20:19 14.12.2019
6172 Clouds 6 1005 65 10000 9.3 230 19:54 14.12.2019
6173 Clouds 6 1007 61 10000 3.1 260 19:36 14.12.2019
6174 Clouds 6 1005 88 10000 8.2 210 19:18 14.12.2019
6175 Clouds 6 1007 88 10000 2.1 220 18:55 14.12.2019
6176 Clouds 5 1007 88 10000 2.1 220 18:36 14.12.2019
6177 Clouds 6 1007 57 10000 2.1 220 18:18 14.12.2019
6178 Clouds 5 1007 80 10000 1 0 17:42 14.12.2019
6179 Clouds 5 1007 80 10000 1 0 17:22 14.12.2019
6180 Clouds 5 1007 61 10000 0.5 0 16:42 14.12.2019
6181 Clouds 6 1007 61 10000 1 0 16:20 14.12.2019
6182 Clouds 5 1006 61 10000 2.6 260 15:58 14.12.2019
6183 Clouds 6 1006 61 10000 2.6 260 15:39 14.12.2019
6184 Clouds 6 1006 66 10000 2.6 260 15:20 14.12.2019
6185 Clouds 5 1005 61 10000 7.2 260 14:57 14.12.2019
6186 Rain 6 1005 61 10000 7.2 260 14:38 14.12.2019
6187 Rain 6 1005 61 10000 7.2 260 14:38 14.12.2019
6188 Rain 6 1005 61 10000 7.2 260 14:19 14.12.2019
6189 Rain 6 1004 66 10000 6.7 260 13:44 14.12.2019
6190 Rain 6 1002 61 10000 5.7 250 13:20 14.12.2019
6191 Rain 6 1002 61 10000 5.7 250 12:58 14.12.2019
6192 Rain 6 1002 61 10000 5.7 250 12:40 14.12.2019
6193 Rain 6 1002 61 10000 5.7 250 12:40 14.12.2019
6194 Rain 6 1001 70 10000 6.7 250 12:20 14.12.2019
6195 Rain 5 1001 70 10000 6.7 250 11:58 14.12.2019
6196 Rain 6 1001 70 10000 6.7 250 11:58 14.12.2019
6197 Rain 5 1001 70 10000 6.7 250 11:39 14.12.2019
6198 Rain 5 1000 66 10000 7.2 260 11:19 14.12.2019
6199 Rain 5 1000 66 10000 7.2 260 11:19 14.12.2019
6200 Rain 5 1000 66 10000 7.2 260 10:57 14.12.2019
6201 Clouds 6 1000 66 10000 7.2 260 10:39 14.12.2019
6202 Clouds 6 998 71 10000 10.3 260 10:20 14.12.2019
6203 Rain 6 998 71 10000 10.3 260 09:55 14.12.2019
6204 Rain 6 998 71 10000 10.3 260 09:36 14.12.2019
6205 Clouds 6 996 62 10000 8.2 250 09:18 14.12.2019
6206 Clouds 6 995 57 10000 8.2 250 08:41 14.12.2019
6207 Clouds 4 991 86 10000 11.3 230 08:19 14.12.2019
6208 Rain 4 991 86 10000 9.8 220 07:41 14.12.2019
6209 Rain 3 990 86 10000 10.3 220 07:22 14.12.2019
6210 Rain 3 990 86 10000 10.3 220 06:55 14.12.2019
6211 Snow 3 991 92 10000 10.3 210 06:36 14.12.2019
6212 Clouds 3 993 60 10000 5.1 170 05:52 14.12.2019
6213 Clouds 2 994 52 10000 3.1 160 04:29 14.12.2019
6214 Snow 2 994 48 10000 2.6 180 02:24 14.12.2019
6215 Snow 2 996 64 10000 2.6 140 01:44 14.12.2019
6216 Clouds 2 997 60 10000 1.5 190 01:22 14.12.2019
6217 Clouds 2 997 56 10000 4.1 230 00:43 14.12.2019
6218 Clouds 2 997 56 10000 4.6 230 00:24 14.12.2019
6219 Clouds 2 997 52 10000 3.6 230 23:42 13.12.2019
6220 Rain 3 997 52 10000 5.1 230 23:20 13.12.2019
6221 Rain 3 996 56 10000 4.6 240 22:59 13.12.2019
6222 Rain 2 996 56 10000 4.6 240 22:40 13.12.2019
6223 Rain 3 995 60 10000 6.7 240 22:19 13.12.2019
6224 Rain 2 993 95 10000 11.3 230 21:55 13.12.2019
6225 Rain 2 995 60 10000 6.7 240 21:36 13.12.2019
6226 Rain 2 994 95 10000 7.7 240 21:18 13.12.2019
6227 Drizzle 3 993 60 10000 7.7 240 20:40 13.12.2019
6228 Rain 3 992 96 10000 5.1 240 20:21 13.12.2019
6229 Rain 3 992 96 10000 5.1 240 19:57 13.12.2019
6230 Rain 3 990 93 10000 11.8 230 19:39 13.12.2019
6231 Clouds 3 989 80 10000 13.4 260 19:20 13.12.2019
6232 Clouds 3 991 96 10000 7.7 240 18:56 13.12.2019
6233 Clouds 3 991 96 10000 7.7 240 18:38 13.12.2019
6234 Clouds 3 991 96 10000 7.7 240 18:38 13.12.2019
6235 Clouds 3 991 96 10000 7.7 240 18:18 13.12.2019
6236 Clouds 3 991 96 10000 7.7 240 18:18 13.12.2019
6237 Clouds 3 990 96 10000 5.1 250 17:41 13.12.2019
6238 Clouds 3 990 94 10000 5.1 250 17:19 13.12.2019
6239 Clouds 3 989 94 10000 4.6 260 16:58 13.12.2019
6240 Clouds 3 988 94 10000 5.1 250 16:39 13.12.2019
6241 Clouds 3 988 94 10000 5.1 250 16:39 13.12.2019
6242 Clouds 3 988 94 10000 5.1 250 16:20 13.12.2019
6243 Clouds 3 987 70 10000 5.7 250 15:43 13.12.2019
6244 Clouds 3 987 94 10000 6.2 250 15:23 13.12.2019
6245 Clouds 3 984 94 8000 11.3 260 14:58 13.12.2019
6246 Clouds 3 984 86 10000 11.3 240 14:39 13.12.2019
6247 Snow 3 984 92 8000 11.3 280 14:20 13.12.2019
6248 Snow 3 984 92 8000 11.3 280 14:20 13.12.2019
6249 Snow 3 984 92 8000 11.3 280 14:20 13.12.2019
6250 Rain 3 983 74 5000 11.3 270 13:56 13.12.2019
6251 Rain 3 985 65 10000 6.2 240 13:37 13.12.2019
6252 Rain 3 985 65 10000 6.2 240 13:37 13.12.2019
6253 Rain 3 985 65 10000 6.2 240 13:18 13.12.2019
6254 Clouds 3 985 70 10000 5.7 240 12:42 13.12.2019
6255 Rain 3 985 70 10000 6.2 240 12:19 13.12.2019
6256 Rain 2 982 93 8000 8.2 270 11:57 13.12.2019
6257 Rain 2 981 80 10000 7.2 280 11:39 13.12.2019
6258 Rain 2 981 80 10000 7.2 280 11:19 13.12.2019
6259 Rain 1 983 53 5000 5.1 240 10:41 13.12.2019
6260 Clouds 1 983 53 5000 5.1 240 10:21 13.12.2019
6261 Clouds 0 980 53 10000 4.1 280 09:43 13.12.2019
6262 Clouds 0 980 53 10000 4.1 280 09:22 13.12.2019
6263 Rain 0 981 53 10000 4.1 260 08:59 13.12.2019
6264 Clouds 0 980 86 10000 1.5 360 08:40 13.12.2019
6265 Rain 0 981 56 10000 4.1 260 08:22 13.12.2019
6266 Clouds -1 982 86 10000 7.2 300 07:43 13.12.2019
6267 Clouds -1 982 80 10000 7.2 300 07:20 13.12.2019
6268 Clouds -1 983 80 10000 2.1 200 06:50 13.12.2019
6269 Clouds -1 984 56 10000 7.2 280 06:28 13.12.2019
6270 Clouds -1 985 69 10000 6.2 20 05:43 13.12.2019
6271 Clouds -2 987 80 10000 3.1 100 05:20 13.12.2019
6272 Clouds -2 989 86 10000 2.6 280 04:35 13.12.2019
6273 Clouds -2 990 80 10000 1 0 03:30 13.12.2019
6274 Clouds -3 991 86 10000 3.1 270 02:32 13.12.2019
6275 Clouds -3 991 86 10000 3.1 270 02:32 13.12.2019
6276 Clouds -4 990 92 10000 2.1 160 01:40 13.12.2019
6277 Clouds -4 992 58 10000 2.1 0 00:51 13.12.2019
6278 Clouds -4 993 58 10000 1 0 00:32 13.12.2019
6279 Clouds -3 994 80 10000 0.5 0 23:47 12.12.2019
6280 Clouds -4 994 80 10000 2.1 280 23:27 12.12.2019
6281 Clear -4 995 86 10000 1 0 22:59 12.12.2019
6282 Clear -3 998 79 10000 1.5 10 22:41 12.12.2019
6283 Clear -3 998 79 10000 1.5 10 22:22 12.12.2019
6284 Clear -3 997 92 10000 3.1 140 21:56 12.12.2019
6285 Clear -3 997 86 10000 3.1 140 21:38 12.12.2019
6286 Clear -3 997 86 10000 3.1 140 21:20 12.12.2019
6287 Clear -3 997 86 10000 3.1 140 21:20 12.12.2019
6288 Clear -3 999 72 10000 2.6 100 20:59 12.12.2019
6289 Clear -3 999 72 10000 2.6 100 20:40 12.12.2019
6290 Clouds -3 999 80 10000 2.6 100 20:22 12.12.2019
6291 Clouds -2 1001 80 10000 1.5 90 19:56 12.12.2019
6292 Clouds -2 1001 80 10000 1.5 90 19:38 12.12.2019
6293 Clouds -2 1001 80 10000 1.5 90 19:20 12.12.2019
6294 Clouds -2 1002 74 10000 3.1 190 18:56 12.12.2019
6295 Clouds -1 1002 74 10000 3.1 190 18:56 12.12.2019
6296 Clouds -1 1002 74 10000 3.1 190 18:38 12.12.2019
6297 Clouds -1 1002 74 10000 3.1 190 18:19 12.12.2019
6298 Clouds -1 1003 74 10000 2.6 180 17:57 12.12.2019
6299 Clouds 0 1003 74 10000 2.6 180 17:38 12.12.2019
6300 Clouds 0 1003 74 10000 2.6 180 17:19 12.12.2019
6301 Clouds 0 1004 74 10000 0.5 0 16:55 12.12.2019
6302 Clouds 1 1004 64 10000 1 0 16:37 12.12.2019
6303 Clouds 1 1004 64 10000 1 0 16:18 12.12.2019
6304 Clouds 1 1002 80 10000 4.6 270 15:54 12.12.2019
6305 Clouds 2 1005 60 10000 3.1 240 15:36 12.12.2019
6306 Clouds 2 1005 60 10000 3.1 240 15:18 12.12.2019
6307 Clouds 2 1006 85 10000 2.6 250 14:38 12.12.2019
6308 Clouds 2 1006 80 10000 2.6 250 14:19 12.12.2019
6309 Snow 2 1003 86 8000 6.7 270 13:57 12.12.2019
6310 Snow 2 1004 86 4000 6.7 270 13:38 12.12.2019
6311 Snow 2 1004 86 4000 6.7 270 13:20 12.12.2019
6312 Clouds 2 1007 75 10000 3.1 270 12:57 12.12.2019
6313 Clouds 1 1007 75 10000 1 0 12:38 12.12.2019
6314 Clouds 1 1002 86 7000 4.1 30 12:19 12.12.2019
6315 Clouds 1 1002 86 7000 4.1 30 12:19 12.12.2019
6316 Clouds 1 1007 93 10000 1 0 11:54 12.12.2019
6317 Rain 1 1005 80 8000 3.1 220 11:36 12.12.2019
6318 Rain 1 1005 92 8000 3.1 220 11:18 12.12.2019
6319 Drizzle 1 1008 93 10000 1.5 110 10:41 12.12.2019
6320 Rain 1 1005 92 5000 4.1 250 10:23 12.12.2019
6321 Rain 1 1005 92 5000 4.1 250 10:23 12.12.2019
6322 Rain 0 1008 100 10000 2.1 90 09:59 12.12.2019
6323 Rain 1 1008 100 10000 2.1 90 09:59 12.12.2019
6324 Rain 0 1008 100 10000 2.1 90 09:41 12.12.2019
6325 Clouds 1 1007 93 10000 1 0 09:23 12.12.2019
6326 Clouds 1 1007 93 10000 1 0 09:23 12.12.2019
6327 Clouds 1 1007 86 10000 2.1 130 08:55 12.12.2019
6328 Rain 1 1007 86 10000 2.1 100 08:37 12.12.2019
6329 Rain 1 1007 86 10000 2.1 100 08:18 12.12.2019
6330 Rain 1 1007 86 10000 2.1 170 07:41 12.12.2019
6331 -273 0 0 0 0 0 07:23 12.12.2019
6332 Drizzle 1 1007 93 10000 2.6 190 06:44 12.12.2019
6333 Drizzle 1 1007 86 10000 3.1 170 06:24 12.12.2019
6334 Clouds 1 1007 93 10000 0.5 0 05:36 12.12.2019
6335 Clouds 1 1007 100 10000 0.5 0 04:51 12.12.2019
6336 Rain 1 1008 93 10000 2.6 120 03:20 12.12.2019
6337 Rain 1 1008 100 7000 1.5 120 02:37 12.12.2019
6338 Rain 1 1008 100 7000 1.5 120 02:19 12.12.2019
6339 Rain 1 1008 100 7000 1 0 01:37 12.12.2019
6340 Rain 1 1008 100 7000 1 0 01:18 12.12.2019
6341 Snow 1 1007 100 10000 6.7 230 00:40 12.12.2019
6342 Clouds 1 1009 93 10000 1 0 00:18 12.12.2019
6343 Clouds 2 1009 86 10000 2.1 150 23:42 11.12.2019
6344 Rain 2 1010 93 10000 2.1 120 23:20 11.12.2019
6345 Rain 1 1010 93 10000 2.6 130 22:57 11.12.2019
6346 Rain 1 1010 93 10000 1.5 120 22:38 11.12.2019
6347 Rain 2 1010 93 10000 1.5 120 22:19 11.12.2019
6348 Clouds 2 1011 93 10000 2.1 130 21:57 11.12.2019
6349 Rain 2 1011 93 10000 2.6 120 21:37 11.12.2019
6350 Rain 2 1011 93 10000 2.6 120 21:37 11.12.2019
6351 Rain 2 1011 93 10000 2.6 120 21:19 11.12.2019
6352 Rain 2 1011 93 10000 2.6 120 21:19 11.12.2019
6353 Rain 1 1011 86 10000 1 0 20:55 11.12.2019
6354 Drizzle 2 1011 86 10000 1 160 20:37 11.12.2019
6355 Drizzle 2 1011 86 10000 1 160 20:18 11.12.2019
6356 Clouds 2 1010 86 10000 1.5 120 19:55 11.12.2019
6357 Clouds 1 1010 86 10000 1 0 19:36 11.12.2019
6358 Clouds 1 1010 86 10000 1 0 19:18 11.12.2019
6359 Clouds 1 1010 93 10000 1 0 18:40 11.12.2019
6360 Clouds 1 1010 42 10000 0.5 0 18:21 11.12.2019
6361 Clouds 1 1009 42 10000 1 0 17:57 11.12.2019
6362 Clouds 1 1009 42 10000 1 260 17:38 11.12.2019
6363 Clouds 1 1009 38 10000 1 260 17:18 11.12.2019
6364 Clouds 1 1010 38 10000 1 0 16:56 11.12.2019
6365 Clouds 1 1010 38 10000 1 0 16:37 11.12.2019
6366 Clouds 1 1010 38 10000 1 0 16:37 11.12.2019
6367 Clouds 2 1010 38 10000 1 0 16:19 11.12.2019
6368 Clouds 2 1010 38 10000 1 0 15:57 11.12.2019
6369 Clouds 2 1010 38 10000 1 0 15:37 11.12.2019
6370 Clouds 2 1010 38 10000 1 0 15:19 11.12.2019
6371 Clouds 2 1011 38 10000 1 0 14:55 11.12.2019
6372 Clouds 2 1011 38 10000 1 0 14:37 11.12.2019
6373 Clouds 2 1011 32 10000 1 0 14:18 11.12.2019
6374 Clouds 3 1012 32 10000 2.1 290 13:43 11.12.2019
6375 Clouds 2 1012 32 10000 2.1 290 13:23 11.12.2019
6376 Clouds 2 1014 32 10000 0.81 154 12:58 11.12.2019
6377 Clouds 2 1014 80 10000 0.81 154 12:39 11.12.2019
6378 Clouds 1 1014 80 10000 0.81 154 12:21 11.12.2019
6379 Clouds 1 1014 86 10000 1 90 11:58 11.12.2019
6380 Clouds 0 1015 32 10000 0.5 0 11:39 11.12.2019
6381 Clouds 0 1015 25 10000 0.5 0 11:19 11.12.2019
6382 Clouds 0 1015 92 10000 1 90 10:59 11.12.2019
6383 Clouds -1 1015 86 10000 1.5 90 10:39 11.12.2019
6384 Clouds -1 1015 86 10000 1.5 90 10:21 11.12.2019
6385 Clouds -1 1016 86 10000 1.5 90 09:56 11.12.2019
6386 Clouds -2 1016 92 10000 1.5 130 09:38 11.12.2019
6387 Clouds -2 1016 92 10000 1 0 09:19 11.12.2019
6388 Clouds -3 1016 92 10000 1 0 08:55 11.12.2019
6389 Clouds -3 1017 92 10000 1 0 08:36 11.12.2019
6390 Clouds -4 1017 92 10000 1 0 08:18 11.12.2019
6391 Clouds -4 1017 100 10000 1.5 100 07:42 11.12.2019
6392 Clouds -4 1017 100 10000 1.5 100 07:22 11.12.2019
6393 Clouds -4 1017 92 10000 1 0 06:46 11.12.2019
6394 Clouds -4 1017 92 10000 1 190 06:24 11.12.2019
6395 Clouds -5 1018 92 10000 1 210 05:53 11.12.2019
6396 Clouds -4 1018 100 10000 0.5 0 05:28 11.12.2019
6397 Clear -4 1018 86 10000 1 0 04:48 11.12.2019
6398 Clear -4 1020 92 10000 1 180 03:18 11.12.2019
6399 Clear -4 1021 92 10000 0.5 0 02:31 11.12.2019
6400 Clear -4 1022 92 10000 1.5 0 01:21 11.12.2019
6401 Clear -4 1023 86 10000 1 0 00:37 11.12.2019
6402 Clear -4 1023 86 10000 1 0 00:18 11.12.2019
6403 Clear -4 1023 74 10000 1 140 23:43 10.12.2019
6404 Clear -4 1023 79 10000 2.1 110 23:22 10.12.2019
6405 Clear -3 1023 86 10000 1 130 22:42 10.12.2019
6406 Clear -3 1023 86 10000 1 0 22:24 10.12.2019
6407 Clear -3 1023 86 10000 0.5 0 21:59 10.12.2019
6408 Clear -3 1023 86 10000 0.5 0 21:41 10.12.2019
6409 Clear -3 1021 79 10000 2.1 20 21:22 10.12.2019
6410 Clear -3 1023 86 10000 1 180 20:59 10.12.2019
6411 Clear -3 1021 73 10000 5.7 20 20:38 10.12.2019
6412 Clear -3 1021 73 10000 5.7 20 20:38 10.12.2019
6413 Clear -3 1021 73 10000 5.7 20 20:38 10.12.2019
6414 Clear -3 1021 73 10000 5.7 20 20:38 10.12.2019
6415 Clear -3 1021 73 10000 5.7 20 20:38 10.12.2019
6416 Clear -3 1021 73 10000 5.7 20 20:20 10.12.2019
6417 Clear -3 1024 92 10000 2.6 150 19:58 10.12.2019
6418 Clear -2 1024 55 10000 1.5 0 19:40 10.12.2019
6419 Clear -2 1024 64 10000 4.6 40 19:22 10.12.2019
6420 Clear -2 1024 64 10000 4.6 40 18:56 10.12.2019
6421 Clear -1 1026 69 10000 1.5 110 18:38 10.12.2019
6422 Clear -1 1026 69 10000 1.5 110 18:18 10.12.2019
6423 Clear -1 1026 69 10000 1.5 110 17:54 10.12.2019
6424 Clouds -1 1026 69 10000 1.5 0 17:36 10.12.2019
6425 Clouds -1 1026 69 10000 1.5 0 17:18 10.12.2019
6426 Clear 0 1026 69 10000 1.5 190 16:41 10.12.2019
6427 Clouds 1 1027 69 10000 1.5 100 16:19 10.12.2019
6428 Clouds 1 1027 56 10000 2.1 130 15:40 10.12.2019
6429 Clouds 2 1027 60 10000 2.1 120 15:19 10.12.2019
6430 Clouds 2 1027 56 10000 1.5 0 14:57 10.12.2019
6431 Clouds 2 1028 60 10000 1.5 0 14:38 10.12.2019
6432 Clouds 3 1028 60 10000 1.5 0 14:20 10.12.2019
6433 Clouds 3 1028 64 10000 1 0 13:58 10.12.2019
6434 Clouds 2 1028 64 10000 1 0 13:40 10.12.2019
6435 Clouds 2 1028 64 10000 0.5 0 13:20 10.12.2019
6436 Clouds 2 1028 65 10000 0.5 0 12:49 10.12.2019
6437 Clouds 2 1028 60 10000 1 0 12:28 10.12.2019
6438 Clouds 2 1028 65 10000 1.5 0 11:59 10.12.2019
6439 Clouds 2 1029 64 10000 2.1 230 11:40 10.12.2019
6440 Clouds 2 1029 64 10000 2.1 230 11:21 10.12.2019
6441 Clouds 1 1028 69 10000 2.6 260 10:43 10.12.2019
6442 Clouds 1 1028 74 10000 2.1 260 10:24 10.12.2019
6443 Rain 1 1028 69 10000 2.6 260 09:57 10.12.2019
6444 Rain 1 1026 86 10000 4.1 290 09:39 10.12.2019
6445 Rain 1 1025 95 10000 6.7 320 09:20 10.12.2019
6446 Rain 1 1027 95 10000 2.6 250 08:58 10.12.2019
6447 Rain 1 1027 69 10000 3.6 320 08:39 10.12.2019
6448 Rain 1 1027 69 10000 3.6 320 08:20 10.12.2019
6449 Rain 1 1026 69 10000 4.6 310 07:45 10.12.2019
6450 Rain 1 1026 69 10000 5.1 310 07:27 10.12.2019
6451 Rain 1 1025 98 10000 5.7 290 06:55 10.12.2019
6452 Clouds 1 1025 69 10000 4.6 290 06:37 10.12.2019
6453 Clouds 1 1025 69 10000 4.6 290 06:19 10.12.2019
6454 Clouds 1 1024 69 10000 6.2 310 05:47 10.12.2019
6455 Rain 2 1022 80 10000 7.2 300 04:23 10.12.2019
6456 Rain 2 1020 86 10000 5.7 260 03:24 10.12.2019
6457 Rain 2 1018 93 10000 6.2 260 01:56 10.12.2019
6458 Rain 2 1017 86 10000 6.7 260 01:28 10.12.2019
6459 Rain 2 1017 86 10000 5.7 260 00:58 10.12.2019
6460 Rain 2 1016 81 10000 5.1 260 00:26 10.12.2019
6461 Rain 3 1015 81 10000 4.6 260 23:58 09.12.2019
6462 Rain 3 1015 81 10000 4.6 260 23:39 09.12.2019
6463 Rain 3 1015 81 10000 4.6 260 23:39 09.12.2019
6464 Rain 3 1015 81 10000 4.6 260 23:20 09.12.2019
6465 Drizzle 3 1014 81 10000 5.1 270 22:56 09.12.2019
6466 Rain 3 1014 81 10000 5.1 260 22:38 09.12.2019
6467 Rain 3 1014 81 10000 5.1 260 22:18 09.12.2019
6468 Rain 3 1013 81 10000 4.1 260 21:55 09.12.2019
6469 Rain 3 1013 87 10000 4.6 260 21:37 09.12.2019
6470 Rain 3 1013 87 10000 4.6 260 21:18 09.12.2019
6471 Rain 3 1011 81 10000 6.7 250 20:55 09.12.2019
6472 Rain 3 1011 81 10000 6.2 250 20:37 09.12.2019
6473 Rain 3 1011 81 10000 6.2 250 20:37 09.12.2019
6474 Rain 3 1011 81 10000 6.2 250 20:37 09.12.2019
6475 Rain 3 1011 81 10000 6.2 250 20:18 09.12.2019
6476 Rain 3 1009 81 10000 5.7 260 19:54 09.12.2019
6477 Rain 3 1009 81 10000 6.2 270 19:36 09.12.2019
6478 Rain 3 1009 81 10000 6.2 270 19:18 09.12.2019
6479 Rain 3 1008 75 10000 3.6 260 18:54 09.12.2019
6480 Rain 3 1008 75 10000 3.6 260 18:54 09.12.2019
6481 Rain 4 1008 81 10000 2.6 0 18:36 09.12.2019
6482 Rain 4 1008 81 10000 2.6 0 18:18 09.12.2019
6483 Rain 4 1006 80 10000 7.7 230 17:54 09.12.2019
6484 Rain 4 1007 65 10000 2.6 0 17:36 09.12.2019
6485 Rain 4 1007 65 10000 2.6 0 17:18 09.12.2019
6486 Rain 5 1007 65 10000 3.1 240 16:54 09.12.2019
6487 Rain 5 1007 75 10000 4.6 220 16:36 09.12.2019
6488 Rain 5 1007 75 10000 4.6 220 16:18 09.12.2019
6489 Rain 5 1007 75 10000 4.6 220 15:54 09.12.2019
6490 Rain 5 1004 60 10000 14.4 280 15:36 09.12.2019
6491 Rain 5 1004 60 10000 14.4 280 15:18 09.12.2019
6492 Rain 6 1007 81 10000 3.6 230 14:41 09.12.2019
6493 Rain 7 1006 57 10000 4.6 250 14:18 09.12.2019
6494 Rain 7 1006 57 10000 4.6 250 13:56 09.12.2019
6495 Rain 8 1006 53 10000 4.1 300 13:37 09.12.2019
6496 Rain 8 1006 53 10000 4.1 300 13:19 09.12.2019
6497 Clouds 8 1007 61 10000 3.1 230 12:55 09.12.2019
6498 Clouds 8 1007 61 10000 3.1 230 12:55 09.12.2019
6499 Clouds 8 1007 50 10000 3.1 230 12:37 09.12.2019
6500 Clouds 8 1007 50 10000 3.1 230 12:18 09.12.2019
6501 Clouds 7 1007 50 10000 3.1 230 11:40 09.12.2019
6502 Clouds 7 1007 53 10000 5.1 250 11:22 09.12.2019
6503 Clouds 6 1007 53 10000 5.1 250 10:59 09.12.2019
6504 Snow 6 1005 75 10000 9.8 230 10:39 09.12.2019
6505 Clouds 6 1007 57 10000 4.6 240 10:19 09.12.2019
6506 Clouds 6 1007 57 10000 4.6 240 10:19 09.12.2019
6507 Clouds 5 1007 57 10000 4.6 240 09:46 09.12.2019
6508 Clouds 5 1008 65 10000 4.6 250 09:25 09.12.2019
6509 Clouds 5 1008 65 10000 4.6 250 08:57 09.12.2019
6510 Clouds 5 1008 65 10000 4.6 250 08:39 09.12.2019
6511 Rain 5 1008 65 10000 3.1 250 08:21 09.12.2019
6512 Clouds 5 1008 75 10000 3.1 250 07:52 09.12.2019
6513 Clouds 5 1009 65 10000 5.7 260 07:33 09.12.2019
6514 Clouds 5 1009 65 10000 5.7 260 07:33 09.12.2019
6515 Clouds 5 1009 61 10000 5.7 260 06:58 09.12.2019
6516 Snow 5 1008 65 10000 5.1 270 06:31 09.12.2019
6517 Snow 5 1009 70 10000 2.6 290 05:48 09.12.2019
6518 Snow 5 1009 70 10000 2.6 290 05:48 09.12.2019
6519 Rain 5 1009 75 10000 2.1 250 05:23 09.12.2019
6520 Rain 6 1009 87 10000 1.5 0 04:28 09.12.2019
6521 Clouds 7 1009 58 10000 4.6 250 02:29 09.12.2019
6522 Snow 7 1008 71 10000 7.2 250 01:47 09.12.2019
6523 Clouds 7 1009 87 10000 1 0 00:58 09.12.2019
6524 Clouds 7 1009 87 10000 2.1 120 00:33 09.12.2019
6525 Rain 7 1009 75 10000 1.5 110 23:55 08.12.2019
6526 Clouds 7 1009 81 10000 0.5 0 23:37 08.12.2019
6527 Clouds 7 1009 81 10000 0.5 0 23:19 08.12.2019
6528 Clouds 7 1009 70 10000 0.5 0 22:56 08.12.2019
6529 Clouds 7 1009 81 10000 1.5 0 22:38 08.12.2019
6530 Clouds 7 1009 81 10000 1.5 0 22:18 08.12.2019
6531 Clouds 7 1009 81 10000 1.5 0 22:18 08.12.2019
6532 Clouds 7 1009 66 10000 1 0 21:55 08.12.2019
6533 Clouds 7 1009 61 10000 1.5 0 21:37 08.12.2019
6534 Clouds 7 1009 61 10000 1.5 0 21:19 08.12.2019
6535 Clouds 7 1009 65 10000 3.1 100 20:55 08.12.2019
6536 Clouds 7 1009 65 10000 3.1 100 20:37 08.12.2019
6537 Clouds 7 1009 65 10000 3.1 100 20:18 08.12.2019
6538 Clouds 7 1010 80 10000 1 0 19:55 08.12.2019
6539 Clouds 6 1010 80 10000 1 0 19:36 08.12.2019
6540 Clouds 6 1010 80 10000 1 0 19:18 08.12.2019
6541 Clouds 6 1011 80 10000 1.5 90 18:54 08.12.2019
6542 Clouds 6 1011 80 10000 1 0 18:36 08.12.2019
6543 Clouds 6 1011 80 10000 1 0 18:18 08.12.2019
6544 Clouds 6 1012 65 10000 1 0 17:54 08.12.2019
6545 Clouds 6 1012 65 10000 1 0 17:36 08.12.2019
6546 Clouds 6 1012 65 10000 1 0 17:18 08.12.2019
6547 Clouds 7 1012 61 10000 1.5 130 16:42 08.12.2019
6548 Clouds 7 1012 61 10000 1.5 130 16:23 08.12.2019
6549 Clouds 8 1013 53 10000 2.6 120 15:58 08.12.2019
6550 Clouds 8 1013 66 10000 0.5 0 15:37 08.12.2019
6551 Clouds 8 1013 66 10000 0.5 0 15:18 08.12.2019
6552 Clouds 8 1014 62 10000 2.6 100 14:46 08.12.2019
6553 Clouds 8 1014 62 10000 2.6 100 14:25 08.12.2019
6554 Clouds 8 1015 66 10000 2.6 100 13:59 08.12.2019
6555 Clouds 8 1015 66 10000 2.6 100 13:40 08.12.2019
6556 Clouds 8 1015 66 10000 2.6 100 13:22 08.12.2019
6557 Clouds 8 1015 66 10000 2.1 90 12:59 08.12.2019
6558 Clouds 8 1013 70 10000 9.8 230 12:39 08.12.2019
6559 Clouds 8 1016 70 10000 2.1 90 12:19 08.12.2019
6560 Clouds 8 1017 70 10000 2.1 90 11:57 08.12.2019
6561 Clouds 7 1017 75 10000 2.1 90 11:37 08.12.2019
6562 Clouds 6 1017 75 10000 2.1 90 11:19 08.12.2019
6563 Clouds 6 1017 75 10000 2.1 90 10:55 08.12.2019
6564 Clouds 5 1017 86 10000 2.1 90 10:36 08.12.2019
6565 Clouds 5 1017 86 10000 2.1 90 10:36 08.12.2019
6566 Clouds 4 1017 86 10000 2.1 90 10:18 08.12.2019
6567 Clouds 4 1017 93 10000 1.5 120 09:54 08.12.2019
6568 Clouds 3 1017 100 10000 1.5 0 09:36 08.12.2019
6569 Clouds 3 1017 100 10000 1.5 0 09:18 08.12.2019
6570 Clouds 2 1017 55 10000 1 0 08:41 08.12.2019
6571 Clear 2 1017 100 10000 0.5 0 08:22 08.12.2019
6572 Clear 2 1017 52 10000 1.5 130 07:49 08.12.2019
6573 Clear 2 1017 93 10000 1 120 07:21 08.12.2019
6574 Clear 2 1017 52 10000 1 0 06:58 08.12.2019
6575 Clear 2 1016 86 10000 5.7 210 06:38 08.12.2019
6576 Clear 2 1017 100 10000 2.1 80 06:18 08.12.2019
6577 Clouds 2 1018 93 10000 1 0 05:22 08.12.2019
6578 Clouds 3 1018 93 10000 1.5 0 04:20 08.12.2019
6579 Clouds 3 1020 74 10000 3.1 20 03:38 08.12.2019
6580 Clouds 3 1019 100 10000 1.5 0 02:41 08.12.2019
6581 Clouds 3 1019 93 10000 0.5 0 02:19 08.12.2019
6582 Clouds 4 1020 87 10000 1.5 0 01:34 08.12.2019
6583 Clouds 4 1020 93 10000 1 120 00:52 08.12.2019
6584 Clouds 4 1020 93 10000 1 0 00:21 08.12.2019
6585 Clouds 4 1020 93 10000 1.5 120 23:57 07.12.2019
6586 Clouds 5 1021 93 10000 1 0 23:36 07.12.2019
6587 Clouds 5 1021 93 10000 1 0 23:18 07.12.2019
6588 Clouds 5 1021 93 10000 1.5 0 22:54 07.12.2019
6589 Clouds 5 1021 93 10000 1 140 22:36 07.12.2019
6590 Clouds 6 1021 93 10000 1 140 22:18 07.12.2019
6591 Clouds 5 1021 93 10000 0.5 0 21:55 07.12.2019
6592 Clouds 5 1021 93 10000 0.5 0 21:36 07.12.2019
6593 Clouds 5 1021 93 10000 0.5 0 21:18 07.12.2019
6594 Clouds 5 1021 93 10000 0.5 0 20:38 07.12.2019
6595 Clouds 5 1021 93 10000 0.5 0 20:20 07.12.2019
6596 Clouds 5 1020 87 10000 0.5 0 19:57 07.12.2019
6597 Clouds 5 1019 86 10000 4.6 220 19:39 07.12.2019
6598 Clouds 5 1020 93 10000 1 0 19:21 07.12.2019
6599 Clouds 5 1020 93 10000 1.5 0 18:58 07.12.2019
6600 Clouds 5 1020 93 10000 1.5 0 18:39 07.12.2019
6601 Clouds 6 1020 93 10000 1.5 0 18:18 07.12.2019
6602 Clouds 6 1020 93 10000 1 0 17:55 07.12.2019
6603 Drizzle 6 1020 87 10000 0.5 0 17:37 07.12.2019
6604 Drizzle 6 1020 87 10000 0.5 0 17:18 07.12.2019
6605 Clouds 6 1019 87 10000 0.5 0 16:55 07.12.2019
6606 Clouds 6 1019 93 10000 0.5 0 16:36 07.12.2019
6607 Clouds 6 1019 93 10000 0.5 0 16:18 07.12.2019
6608 Rain 6 1019 87 10000 2.1 130 15:40 07.12.2019
6609 Rain 7 1019 87 10000 3.1 130 15:22 07.12.2019
6610 Rain 7 1019 93 10000 2.6 120 14:43 07.12.2019
6611 Clouds 7 1019 93 10000 2.1 100 14:20 07.12.2019
6612 Rain 7 1019 87 10000 1.5 0 13:59 07.12.2019
6613 Clouds 7 1017 81 10000 7.7 240 13:39 07.12.2019
6614 Rain 7 1019 93 10000 0.5 0 13:19 07.12.2019
6615 Rain 7 1020 93 10000 2.1 120 12:55 07.12.2019
6616 Rain 7 1019 81 10000 1 0 12:36 07.12.2019
6617 Rain 7 1019 81 10000 1 0 12:18 07.12.2019
6618 Clouds 7 1019 75 10000 2.1 100 11:41 07.12.2019
6619 Rain 6 1019 81 10000 1.5 110 11:23 07.12.2019
6620 Rain 6 1019 81 10000 1 0 10:54 07.12.2019
6621 Clouds 6 1019 70 10000 1 0 10:36 07.12.2019
6622 Clouds 6 1019 70 10000 1 0 10:18 07.12.2019
6623 Rain 6 1017 81 10000 6.7 240 09:39 07.12.2019
6624 Rain 6 1017 81 10000 6.7 240 09:21 07.12.2019
6625 Rain 6 1018 61 10000 3.1 250 08:45 07.12.2019
6626 Rain 5 1017 70 10000 2.6 250 08:24 07.12.2019
6627 Rain 5 1017 70 10000 2.6 250 08:24 07.12.2019
6628 Rain 5 1017 70 10000 2.1 100 07:49 07.12.2019
6629 Rain 5 1017 65 10000 2.1 100 07:28 07.12.2019
6630 Rain 5 1015 75 10000 6.2 240 06:52 07.12.2019
6631 Rain 5 1015 75 10000 7.7 230 06:26 07.12.2019
6632 Snow 5 1015 70 10000 9.3 220 05:47 07.12.2019
6633 Clouds 5 1015 75 10000 8.2 220 04:43 07.12.2019
6634 Clouds 4 1017 70 10000 1.5 0 03:50 07.12.2019
6635 Clouds 4 1017 93 10000 1 0 02:22 07.12.2019
6636 Rain 4 1017 86 10000 0.5 0 01:41 07.12.2019
6637 Clouds 4 1017 93 10000 2.1 250 01:22 07.12.2019
6638 Clouds 4 1017 100 10000 1 0 00:21 07.12.2019
6639 Clouds 3 1017 56 10000 0.5 0 23:57 06.12.2019
6640 Clouds 3 1017 56 10000 0.5 0 23:57 06.12.2019
6641 Clouds 3 1017 56 10000 0.5 0 23:39 06.12.2019
6642 Clouds 3 1017 56 10000 0.5 0 23:39 06.12.2019
6643 Clouds 3 1017 45 10000 0.5 0 23:19 06.12.2019
6644 Clouds 2 1017 92 10000 1 0 22:39 06.12.2019
6645 Clouds 2 1017 45 9000 1 0 22:21 06.12.2019
6646 Clouds 2 1017 100 10000 1 130 21:58 06.12.2019
6647 Clouds 2 1018 100 8000 1 290 21:40 06.12.2019
6648 Clouds 2 1018 100 8000 1 290 21:40 06.12.2019
6649 Clouds 2 1018 100 8000 1 290 21:20 06.12.2019
6650 Clouds 2 1017 100 8000 1.5 100 20:46 06.12.2019
6651 Clear 2 1017 100 8000 0.5 0 20:26 06.12.2019
6652 Clear 2 1017 92 8000 2.1 110 19:59 06.12.2019
6653 Clear 2 1018 100 8000 0.5 0 19:40 06.12.2019
6654 Clear 2 1018 100 8000 0.5 0 19:22 06.12.2019
6655 Clear 2 1018 49 8000 0.5 0 18:58 06.12.2019
6656 Clear 1 1018 49 8000 0.5 0 18:40 06.12.2019
6657 Clear 2 1018 49 8000 3.1 100 18:20 06.12.2019
6658 Clear 2 1018 49 6000 3.6 110 17:57 06.12.2019
6659 Fog 2 1018 49 1000 2.6 110 17:39 06.12.2019
6660 Fog 3 1018 55 1000 2.6 110 17:20 06.12.2019
6661 Fog 3 1019 55 150 1 0 16:55 06.12.2019
6662 Fog 4 1019 55 150 1 0 16:37 06.12.2019
6663 Clear 4 1021 59 10000 2.35 190 16:18 06.12.2019
6664 Clear 5 1017 60 10000 6.2 220 15:41 06.12.2019
6665 Mist 5 1019 55 1300 1 0 15:19 06.12.2019
6666 Mist 5 1019 55 1300 1 0 14:57 06.12.2019
6667 Clear 5 1021 51 10000 1 200 14:39 06.12.2019
6668 Clear 5 1021 51 10000 1 200 14:19 06.12.2019
6669 Mist 5 1020 54 1700 1 0 13:44 06.12.2019
6670 Mist 5 1021 54 1500 1 0 13:26 06.12.2019
6671 Mist 4 1021 54 3100 1 0 12:44 06.12.2019
6672 Clouds 5 1018 36 10000 3.1 250 12:23 06.12.2019
6673 Fog 4 1022 54 1400 1.5 70 11:58 06.12.2019
6674 Fog 3 1022 54 1400 1.5 70 11:40 06.12.2019
6675 Fog 2 1022 44 550 1 0 11:22 06.12.2019
6676 Fog 1 1022 100 350 2.1 100 10:44 06.12.2019
6677 Fog 1 1022 100 350 2.1 100 10:22 06.12.2019
6678 Fog 1 1022 100 350 2.1 100 09:59 06.12.2019
6679 Clear 1 1020 74 10000 7.2 230 09:38 06.12.2019
6680 Fog 1 1022 92 250 1.5 80 09:20 06.12.2019
6681 Fog 0 1022 100 300 2.1 80 08:55 06.12.2019
6682 Fog 0 1022 92 500 3.1 100 08:36 06.12.2019
6683 Fog -1 1022 92 500 3.1 100 08:18 06.12.2019
6684 Fog -1 1022 100 500 2.6 100 07:36 06.12.2019
6685 Fog -1 1022 100 500 2.6 100 07:18 06.12.2019
6686 Fog -1 1022 100 400 2.1 130 06:30 06.12.2019
6687 Fog -1 1022 100 300 2.1 100 05:54 06.12.2019
6688 Fog -1 1022 40 400 1.5 100 05:34 06.12.2019
6689 Fog -1 1023 100 700 1.5 100 02:19 06.12.2019
6690 Fog -1 1023 100 700 1.5 100 02:19 06.12.2019
6691 Mist -1 1023 100 3100 2.6 80 01:34 06.12.2019
6692 Mist -1 1023 42 3000 1.5 0 00:46 06.12.2019
6693 Mist -1 1023 42 2400 2.1 90 00:21 06.12.2019
6694 Mist -1 1023 42 1600 2.1 110 23:47 05.12.2019
6695 Fog -1 1023 45 700 1 110 23:19 05.12.2019
6696 Fog 0 1024 45 750 1 0 22:57 05.12.2019
6697 Fog -1 1024 100 800 1.5 70 22:38 05.12.2019
6698 Fog -1 1024 100 800 1.5 70 22:18 05.12.2019
6699 Fog -1 1024 100 1000 3.1 90 21:44 05.12.2019
6700 Mist 0 1024 45 4500 2.6 100 21:25 05.12.2019
6701 Mist -1 1024 45 4500 2.6 100 20:59 05.12.2019
6702 Mist 0 1024 45 4500 2.6 100 20:40 05.12.2019
6703 Mist 0 1024 51 4500 1.5 120 20:21 05.12.2019
6704 Mist 0 1022 100 2500 4.6 250 19:58 05.12.2019
6705 Mist 0 1022 100 2500 4.6 250 19:58 05.12.2019
6706 Mist 0 1022 100 2500 4.6 250 19:58 05.12.2019
6707 Mist 0 1024 93 4500 1.5 120 19:40 05.12.2019
6708 Mist 0 1023 51 4500 1.5 0 19:20 05.12.2019
6709 Mist 0 1023 93 4500 1.5 0 18:57 05.12.2019
6710 Mist 0 1023 93 4500 1.5 0 18:37 05.12.2019
6711 Clouds 0 1023 93 6000 2.1 110 18:19 05.12.2019
6712 Clouds 0 1023 100 6000 2.1 110 17:39 05.12.2019
6713 Mist 1 1022 100 4500 1.5 200 17:20 05.12.2019
6714 Mist 2 1022 100 4500 1.5 200 16:57 05.12.2019
6715 Mist 2 1022 100 4500 1.5 200 16:39 05.12.2019
6716 Mist 2 1022 100 4500 1.5 200 16:21 05.12.2019
6717 Mist 2 1022 100 4500 1.5 200 16:21 05.12.2019
6718 Clear 2 1021 62 9000 1.5 310 15:56 05.12.2019
6719 Mist 2 1022 62 4500 0.5 0 15:38 05.12.2019
6720 Mist 3 1022 62 4500 0.5 0 15:19 05.12.2019
6721 Clear 3 1020 62 10000 1.5 290 14:55 05.12.2019
6722 Mist 3 1022 93 4500 2.1 60 14:37 05.12.2019
6723 Mist 3 1022 93 4500 2.1 60 14:37 05.12.2019
6724 Mist 4 1022 93 4500 2.1 60 14:18 05.12.2019
6725 Mist 4 1023 93 4500 1 0 13:56 05.12.2019
6726 Mist 4 1023 93 4500 1 0 13:38 05.12.2019
6727 Mist 4 1023 54 4500 1 0 13:19 05.12.2019
6728 Mist 4 1023 54 4500 1 0 13:19 05.12.2019
6729 Mist 5 1023 54 4500 1 0 12:55 05.12.2019
6730 Mist 5 1023 54 4500 1 0 12:37 05.12.2019
6731 Mist 4 1023 54 4500 2.6 80 12:19 05.12.2019
6732 Mist 3 1023 54 4500 2.6 80 11:39 05.12.2019
6733 Mist 0 1023 41 4600 3.1 80 11:20 05.12.2019
6734 Clear 0 1021 92 10000 2.1 280 10:57 05.12.2019
6735 Mist 0 1023 41 4600 3.1 80 10:38 05.12.2019
6736 Mist -1 1023 41 4600 3.1 90 10:18 05.12.2019
6737 Mist 1 1023 41 4600 3.1 90 09:46 05.12.2019
6738 Clouds 0 1023 41 5000 1.5 110 09:24 05.12.2019
6739 Clouds 0 1023 41 5000 1.5 110 08:59 05.12.2019
6740 Clouds 0 1023 41 5000 1.5 0 08:39 05.12.2019
6741 Clouds -2 1022 38 6000 1 0 08:20 05.12.2019
6742 Clouds -2 1022 38 6000 1.5 0 07:50 05.12.2019
6743 Clouds -2 1022 38 6000 1.5 0 07:32 05.12.2019
6744 Clouds -2 1022 38 6000 1 0 06:58 05.12.2019
6745 Clouds -2 1022 38 6000 1 0 06:40 05.12.2019
6746 Clouds -2 1022 38 6000 1.5 130 06:19 05.12.2019
6747 Clouds -2 1022 38 6000 1 0 05:47 05.12.2019
6748 Clouds -2 1022 39 6000 0.5 0 05:23 05.12.2019
6749 Clouds -2 1022 39 7000 2.1 200 04:20 05.12.2019
6750 Clouds -2 1022 39 7000 2.1 200 04:20 05.12.2019
6751 Clouds -2 1022 39 7000 1 0 02:43 05.12.2019
6752 Clear -2 1020 92 3400 4.1 220 02:24 05.12.2019
6753 Clouds -2 1021 86 7000 1 190 01:52 05.12.2019
6754 Clouds -2 1021 86 7000 1.5 0 01:24 05.12.2019
6755 Clouds -2 1021 39 8000 1 0 00:51 05.12.2019
6756 Clouds -2 1021 39 8000